<?xml version="1.0" encoding="UTF-8" standalone="no" ?>
<gpx xmlns="http://www.topografix.com/GPX/1/1" xmlns:xsi="http://www.w3.org/2001/XMLSchema-instance" xsi:schemaLocation="http://www.topografix.com/GPX/1/1 http://www.topografix.com/GPX/1/1/gpx.xsd" version="1.1" creator="VisuGPX - https://www.visugpx.com">
  <metadata>
    <name>sortie du dimanche 18 juin 2017</name>
    <desc><![CDATA[Randonnée "La Boubou" de 32 kms à Authavernes dans l'Eure]]></desc>
  </metadata>
  <trk>
    <name><![CDATA[sortie du dimanche 18 juin 2017_1]]></name>
    <trkseg>
      <trkpt lat="49.21947" lon="1.63769">
        <ele>141.57456970215</ele>
        <time>2017-06-18T06:44:26.000Z</time>
      </trkpt>
      <trkpt lat="49.21945" lon="1.63775">
        <ele>141.52655029297</ele>
        <time>2017-06-18T06:44:29.000Z</time>
      </trkpt>
      <trkpt lat="49.21946" lon="1.63776">
        <ele>141.52149963379</ele>
        <time>2017-06-18T06:44:32.000Z</time>
      </trkpt>
      <trkpt lat="49.21948" lon="1.63772">
        <ele>141.53588867188</ele>
        <time>2017-06-18T06:44:36.000Z</time>
      </trkpt>
      <trkpt lat="49.2195" lon="1.63768">
        <ele>141.56228637695</ele>
        <time>2017-06-18T06:44:38.000Z</time>
      </trkpt>
      <trkpt lat="49.21951" lon="1.63765">
        <ele>141.58964538574</ele>
        <time>2017-06-18T06:44:40.000Z</time>
      </trkpt>
      <trkpt lat="49.21951" lon="1.6376">
        <ele>141.6448059082</ele>
        <time>2017-06-18T06:44:43.000Z</time>
      </trkpt>
      <trkpt lat="49.21952" lon="1.63753">
        <ele>141.70495605469</ele>
        <time>2017-06-18T06:44:46.000Z</time>
      </trkpt>
      <trkpt lat="49.21953" lon="1.63741">
        <ele>141.74307250977</ele>
        <time>2017-06-18T06:44:49.000Z</time>
      </trkpt>
      <trkpt lat="49.21955" lon="1.63733">
        <ele>141.75105285645</ele>
        <time>2017-06-18T06:44:51.000Z</time>
      </trkpt>
      <trkpt lat="49.21956" lon="1.63724">
        <ele>141.73805236816</ele>
        <time>2017-06-18T06:44:53.000Z</time>
      </trkpt>
      <trkpt lat="49.21959" lon="1.63709">
        <ele>141.69131469727</ele>
        <time>2017-06-18T06:44:56.000Z</time>
      </trkpt>
      <trkpt lat="49.21962" lon="1.63694">
        <ele>141.61282348633</ele>
        <time>2017-06-18T06:44:59.000Z</time>
      </trkpt>
      <trkpt lat="49.21966" lon="1.63685">
        <ele>141.5393371582</ele>
        <time>2017-06-18T06:45:01.000Z</time>
      </trkpt>
      <trkpt lat="49.21972" lon="1.63675">
        <ele>141.48330688477</ele>
        <time>2017-06-18T06:45:04.000Z</time>
      </trkpt>
      <trkpt lat="49.21973" lon="1.63668">
        <ele>141.43057250977</ele>
        <time>2017-06-18T06:45:07.000Z</time>
      </trkpt>
      <trkpt lat="49.21974" lon="1.63662">
        <ele>141.39761352539</ele>
        <time>2017-06-18T06:45:10.000Z</time>
      </trkpt>
      <trkpt lat="49.21973" lon="1.63656">
        <ele>141.37417602539</ele>
        <time>2017-06-18T06:45:12.000Z</time>
      </trkpt>
      <trkpt lat="49.21969" lon="1.6365">
        <ele>141.3324432373</ele>
        <time>2017-06-18T06:45:15.000Z</time>
      </trkpt>
      <trkpt lat="49.21967" lon="1.63648">
        <ele>141.27055358887</ele>
        <time>2017-06-18T06:45:18.000Z</time>
      </trkpt>
      <trkpt lat="49.21966" lon="1.63647">
        <ele>141.21012878418</ele>
        <time>2017-06-18T06:45:21.000Z</time>
      </trkpt>
      <trkpt lat="49.21965" lon="1.63645">
        <ele>141.15133666992</ele>
        <time>2017-06-18T06:45:24.000Z</time>
      </trkpt>
      <trkpt lat="49.21964" lon="1.63643">
        <ele>141.09146118164</ele>
        <time>2017-06-18T06:45:27.000Z</time>
      </trkpt>
      <trkpt lat="49.21963" lon="1.63637">
        <ele>141.04299926758</ele>
        <time>2017-06-18T06:45:29.000Z</time>
      </trkpt>
      <trkpt lat="49.2196" lon="1.63623">
        <ele>140.97685241699</ele>
        <time>2017-06-18T06:45:32.000Z</time>
      </trkpt>
      <trkpt lat="49.21956" lon="1.63614">
        <ele>140.88471984863</ele>
        <time>2017-06-18T06:45:34.000Z</time>
      </trkpt>
      <trkpt lat="49.2195" lon="1.636">
        <ele>140.73754882812</ele>
        <time>2017-06-18T06:45:37.000Z</time>
      </trkpt>
      <trkpt lat="49.21943" lon="1.63583">
        <ele>140.52935791016</ele>
        <time>2017-06-18T06:45:40.000Z</time>
      </trkpt>
      <trkpt lat="49.21939" lon="1.63572">
        <ele>140.20541381836</ele>
        <time>2017-06-18T06:45:42.000Z</time>
      </trkpt>
      <trkpt lat="49.21931" lon="1.63551">
        <ele>139.66191101074</ele>
        <time>2017-06-18T06:45:45.000Z</time>
      </trkpt>
      <trkpt lat="49.21923" lon="1.63532">
        <ele>138.91691589355</ele>
        <time>2017-06-18T06:45:47.000Z</time>
      </trkpt>
      <trkpt lat="49.2191" lon="1.635">
        <ele>137.78851318359</ele>
        <time>2017-06-18T06:45:50.000Z</time>
      </trkpt>
      <trkpt lat="49.21893" lon="1.63458">
        <ele>136.1314239502</ele>
        <time>2017-06-18T06:45:53.000Z</time>
      </trkpt>
      <trkpt lat="49.21878" lon="1.63411">
        <ele>133.96301269531</ele>
        <time>2017-06-18T06:45:56.000Z</time>
      </trkpt>
      <trkpt lat="49.21862" lon="1.63383">
        <ele>131.67985534668</ele>
        <time>2017-06-18T06:45:58.000Z</time>
      </trkpt>
      <trkpt lat="49.2183" lon="1.63355">
        <ele>129.1746673584</ele>
        <time>2017-06-18T06:46:01.000Z</time>
      </trkpt>
      <trkpt lat="49.21798" lon="1.63332">
        <ele>126.77526855469</ele>
        <time>2017-06-18T06:46:04.000Z</time>
      </trkpt>
      <trkpt lat="49.2177" lon="1.63306">
        <ele>124.68412017822</ele>
        <time>2017-06-18T06:46:07.000Z</time>
      </trkpt>
      <trkpt lat="49.21746" lon="1.63278">
        <ele>123.02891540527</ele>
        <time>2017-06-18T06:46:10.000Z</time>
      </trkpt>
      <trkpt lat="49.21732" lon="1.63257">
        <ele>121.62452697754</ele>
        <time>2017-06-18T06:46:12.000Z</time>
      </trkpt>
      <trkpt lat="49.2171" lon="1.63228">
        <ele>120.47724914551</ele>
        <time>2017-06-18T06:46:15.000Z</time>
      </trkpt>
      <trkpt lat="49.21688" lon="1.632">
        <ele>119.49446868896</ele>
        <time>2017-06-18T06:46:18.000Z</time>
      </trkpt>
      <trkpt lat="49.21676" lon="1.63182">
        <ele>118.71421051025</ele>
        <time>2017-06-18T06:46:20.000Z</time>
      </trkpt>
      <trkpt lat="49.21658" lon="1.63157">
        <ele>118.00872802734</ele>
        <time>2017-06-18T06:46:23.000Z</time>
      </trkpt>
      <trkpt lat="49.21647" lon="1.6314">
        <ele>117.33744049072</ele>
        <time>2017-06-18T06:46:25.000Z</time>
      </trkpt>
      <trkpt lat="49.21634" lon="1.63122">
        <ele>116.78926849365</ele>
        <time>2017-06-18T06:46:27.000Z</time>
      </trkpt>
      <trkpt lat="49.21621" lon="1.63107">
        <ele>116.35131835938</ele>
        <time>2017-06-18T06:46:29.000Z</time>
      </trkpt>
      <trkpt lat="49.21606" lon="1.63086">
        <ele>115.94277191162</ele>
        <time>2017-06-18T06:46:32.000Z</time>
      </trkpt>
      <trkpt lat="49.2159" lon="1.63066">
        <ele>115.61779785156</ele>
        <time>2017-06-18T06:46:35.000Z</time>
      </trkpt>
      <trkpt lat="49.21574" lon="1.63047">
        <ele>115.37214660645</ele>
        <time>2017-06-18T06:46:38.000Z</time>
      </trkpt>
      <trkpt lat="49.21565" lon="1.63034">
        <ele>115.22001647949</ele>
        <time>2017-06-18T06:46:40.000Z</time>
      </trkpt>
      <trkpt lat="49.21549" lon="1.63014">
        <ele>115.17260742188</ele>
        <time>2017-06-18T06:46:43.000Z</time>
      </trkpt>
      <trkpt lat="49.21539" lon="1.62999">
        <ele>115.22212219238</ele>
        <time>2017-06-18T06:46:45.000Z</time>
      </trkpt>
      <trkpt lat="49.21528" lon="1.62987">
        <ele>115.30982971191</ele>
        <time>2017-06-18T06:46:47.000Z</time>
      </trkpt>
      <trkpt lat="49.21518" lon="1.62973">
        <ele>115.39189147949</ele>
        <time>2017-06-18T06:46:49.000Z</time>
      </trkpt>
      <trkpt lat="49.21501" lon="1.62954">
        <ele>115.45255279541</ele>
        <time>2017-06-18T06:46:52.000Z</time>
      </trkpt>
      <trkpt lat="49.21483" lon="1.62934">
        <ele>115.38404846191</ele>
        <time>2017-06-18T06:46:55.000Z</time>
      </trkpt>
      <trkpt lat="49.21469" lon="1.62918">
        <ele>115.20760345459</ele>
        <time>2017-06-18T06:46:58.000Z</time>
      </trkpt>
      <trkpt lat="49.21458" lon="1.62907">
        <ele>114.98276519775</ele>
        <time>2017-06-18T06:47:00.000Z</time>
      </trkpt>
      <trkpt lat="49.21445" lon="1.62891">
        <ele>114.69682312012</ele>
        <time>2017-06-18T06:47:03.000Z</time>
      </trkpt>
      <trkpt lat="49.21431" lon="1.62874">
        <ele>114.34177398682</ele>
        <time>2017-06-18T06:47:06.000Z</time>
      </trkpt>
      <trkpt lat="49.21415" lon="1.62855">
        <ele>113.99599456787</ele>
        <time>2017-06-18T06:47:09.000Z</time>
      </trkpt>
      <trkpt lat="49.21399" lon="1.62838">
        <ele>113.71620178223</ele>
        <time>2017-06-18T06:47:12.000Z</time>
      </trkpt>
      <trkpt lat="49.21384" lon="1.62817">
        <ele>113.50496673584</ele>
        <time>2017-06-18T06:47:15.000Z</time>
      </trkpt>
      <trkpt lat="49.21368" lon="1.62797">
        <ele>113.36474609375</ele>
        <time>2017-06-18T06:47:18.000Z</time>
      </trkpt>
      <trkpt lat="49.21354" lon="1.62777">
        <ele>113.28125</ele>
        <time>2017-06-18T06:47:21.000Z</time>
      </trkpt>
      <trkpt lat="49.21343" lon="1.62764">
        <ele>113.25592041016</ele>
        <time>2017-06-18T06:47:23.000Z</time>
      </trkpt>
      <trkpt lat="49.21331" lon="1.62746">
        <ele>113.17372131348</ele>
        <time>2017-06-18T06:47:26.000Z</time>
      </trkpt>
      <trkpt lat="49.21317" lon="1.62726">
        <ele>112.92813873291</ele>
        <time>2017-06-18T06:47:29.000Z</time>
      </trkpt>
      <trkpt lat="49.2131" lon="1.62713">
        <ele>112.59672546387</ele>
        <time>2017-06-18T06:47:31.000Z</time>
      </trkpt>
      <trkpt lat="49.21297" lon="1.62694">
        <ele>112.16650390625</ele>
        <time>2017-06-18T06:47:34.000Z</time>
      </trkpt>
      <trkpt lat="49.2129" lon="1.62682">
        <ele>111.68770599365</ele>
        <time>2017-06-18T06:47:36.000Z</time>
      </trkpt>
      <trkpt lat="49.21279" lon="1.62664">
        <ele>111.18725585938</ele>
        <time>2017-06-18T06:47:39.000Z</time>
      </trkpt>
      <trkpt lat="49.21273" lon="1.62651">
        <ele>110.80366516113</ele>
        <time>2017-06-18T06:47:41.000Z</time>
      </trkpt>
      <trkpt lat="49.21265" lon="1.6264">
        <ele>110.48252868652</ele>
        <time>2017-06-18T06:47:43.000Z</time>
      </trkpt>
      <trkpt lat="49.21254" lon="1.62625">
        <ele>110.26454162598</ele>
        <time>2017-06-18T06:47:45.000Z</time>
      </trkpt>
      <trkpt lat="49.21243" lon="1.62605">
        <ele>110.09609222412</ele>
        <time>2017-06-18T06:47:48.000Z</time>
      </trkpt>
      <trkpt lat="49.2123" lon="1.62584">
        <ele>109.98225402832</ele>
        <time>2017-06-18T06:47:51.000Z</time>
      </trkpt>
      <trkpt lat="49.21217" lon="1.62564">
        <ele>109.77772521973</ele>
        <time>2017-06-18T06:47:54.000Z</time>
      </trkpt>
      <trkpt lat="49.21209" lon="1.6255">
        <ele>109.50534820557</ele>
        <time>2017-06-18T06:47:56.000Z</time>
      </trkpt>
      <trkpt lat="49.21195" lon="1.62528">
        <ele>109.10725402832</ele>
        <time>2017-06-18T06:47:59.000Z</time>
      </trkpt>
      <trkpt lat="49.21186" lon="1.62513">
        <ele>108.63401031494</ele>
        <time>2017-06-18T06:48:01.000Z</time>
      </trkpt>
      <trkpt lat="49.21173" lon="1.62491">
        <ele>108.07820129395</ele>
        <time>2017-06-18T06:48:04.000Z</time>
      </trkpt>
      <trkpt lat="49.21159" lon="1.6247">
        <ele>107.54750061035</ele>
        <time>2017-06-18T06:48:07.000Z</time>
      </trkpt>
      <trkpt lat="49.21149" lon="1.62456">
        <ele>107.04048919678</ele>
        <time>2017-06-18T06:48:09.000Z</time>
      </trkpt>
      <trkpt lat="49.2114" lon="1.62442">
        <ele>106.61507415771</ele>
        <time>2017-06-18T06:48:11.000Z</time>
      </trkpt>
      <trkpt lat="49.21127" lon="1.62423">
        <ele>106.21809387207</ele>
        <time>2017-06-18T06:48:14.000Z</time>
      </trkpt>
      <trkpt lat="49.21114" lon="1.62406">
        <ele>105.91135406494</ele>
        <time>2017-06-18T06:48:17.000Z</time>
      </trkpt>
      <trkpt lat="49.21101" lon="1.62389">
        <ele>105.70822906494</ele>
        <time>2017-06-18T06:48:20.000Z</time>
      </trkpt>
      <trkpt lat="49.21094" lon="1.62377">
        <ele>105.58376312256</ele>
        <time>2017-06-18T06:48:22.000Z</time>
      </trkpt>
      <trkpt lat="49.21087" lon="1.62365">
        <ele>105.53371429443</ele>
        <time>2017-06-18T06:48:24.000Z</time>
      </trkpt>
      <trkpt lat="49.21075" lon="1.6235">
        <ele>105.58618164062</ele>
        <time>2017-06-18T06:48:27.000Z</time>
      </trkpt>
      <trkpt lat="49.21065" lon="1.62334">
        <ele>105.6944732666</ele>
        <time>2017-06-18T06:48:30.000Z</time>
      </trkpt>
      <trkpt lat="49.21054" lon="1.6232">
        <ele>105.80948638916</ele>
        <time>2017-06-18T06:48:33.000Z</time>
      </trkpt>
      <trkpt lat="49.21044" lon="1.62306">
        <ele>105.93111419678</ele>
        <time>2017-06-18T06:48:36.000Z</time>
      </trkpt>
      <trkpt lat="49.21032" lon="1.62296">
        <ele>106.0588760376</ele>
        <time>2017-06-18T06:48:39.000Z</time>
      </trkpt>
      <trkpt lat="49.21019" lon="1.62296">
        <ele>106.16380310059</ele>
        <time>2017-06-18T06:48:42.000Z</time>
      </trkpt>
      <trkpt lat="49.21006" lon="1.62304">
        <ele>106.23111724854</ele>
        <time>2017-06-18T06:48:45.000Z</time>
      </trkpt>
      <trkpt lat="49.20998" lon="1.62311">
        <ele>106.28759765625</ele>
        <time>2017-06-18T06:48:47.000Z</time>
      </trkpt>
      <trkpt lat="49.20989" lon="1.62318">
        <ele>106.36631011963</ele>
        <time>2017-06-18T06:48:49.000Z</time>
      </trkpt>
      <trkpt lat="49.20981" lon="1.62325">
        <ele>106.46718597412</ele>
        <time>2017-06-18T06:48:51.000Z</time>
      </trkpt>
      <trkpt lat="49.20968" lon="1.62334">
        <ele>106.62455749512</ele>
        <time>2017-06-18T06:48:54.000Z</time>
      </trkpt>
      <trkpt lat="49.2096" lon="1.6234">
        <ele>106.83813476562</ele>
        <time>2017-06-18T06:48:56.000Z</time>
      </trkpt>
      <trkpt lat="49.20953" lon="1.62345">
        <ele>107.09523773193</ele>
        <time>2017-06-18T06:48:58.000Z</time>
      </trkpt>
      <trkpt lat="49.20942" lon="1.62354">
        <ele>107.36898040771</ele>
        <time>2017-06-18T06:49:01.000Z</time>
      </trkpt>
      <trkpt lat="49.20935" lon="1.62359">
        <ele>107.63269042969</ele>
        <time>2017-06-18T06:49:03.000Z</time>
      </trkpt>
      <trkpt lat="49.20925" lon="1.62367">
        <ele>107.87133789062</ele>
        <time>2017-06-18T06:49:06.000Z</time>
      </trkpt>
      <trkpt lat="49.20918" lon="1.62372">
        <ele>108.08986663818</ele>
        <time>2017-06-18T06:49:08.000Z</time>
      </trkpt>
      <trkpt lat="49.20908" lon="1.62379">
        <ele>108.34684753418</ele>
        <time>2017-06-18T06:49:11.000Z</time>
      </trkpt>
      <trkpt lat="49.20901" lon="1.62383">
        <ele>108.60319519043</ele>
        <time>2017-06-18T06:49:13.000Z</time>
      </trkpt>
      <trkpt lat="49.20891" lon="1.62389">
        <ele>108.92055511475</ele>
        <time>2017-06-18T06:49:16.000Z</time>
      </trkpt>
      <trkpt lat="49.20884" lon="1.62393">
        <ele>109.26135253906</ele>
        <time>2017-06-18T06:49:18.000Z</time>
      </trkpt>
      <trkpt lat="49.20874" lon="1.62399">
        <ele>109.67478942871</ele>
        <time>2017-06-18T06:49:21.000Z</time>
      </trkpt>
      <trkpt lat="49.20865" lon="1.62405">
        <ele>110.10528564453</ele>
        <time>2017-06-18T06:49:24.000Z</time>
      </trkpt>
      <trkpt lat="49.20855" lon="1.62411">
        <ele>110.59548187256</ele>
        <time>2017-06-18T06:49:27.000Z</time>
      </trkpt>
      <trkpt lat="49.20846" lon="1.62416">
        <ele>111.10148620605</ele>
        <time>2017-06-18T06:49:30.000Z</time>
      </trkpt>
      <trkpt lat="49.20836" lon="1.62419">
        <ele>111.66644287109</ele>
        <time>2017-06-18T06:49:33.000Z</time>
      </trkpt>
      <trkpt lat="49.2083" lon="1.62421">
        <ele>112.21348571777</ele>
        <time>2017-06-18T06:49:35.000Z</time>
      </trkpt>
      <trkpt lat="49.20824" lon="1.62423">
        <ele>112.75942230225</ele>
        <time>2017-06-18T06:49:37.000Z</time>
      </trkpt>
      <trkpt lat="49.20818" lon="1.62426">
        <ele>113.28468322754</ele>
        <time>2017-06-18T06:49:39.000Z</time>
      </trkpt>
      <trkpt lat="49.20809" lon="1.62429">
        <ele>113.82562255859</ele>
        <time>2017-06-18T06:49:42.000Z</time>
      </trkpt>
      <trkpt lat="49.20801" lon="1.6243">
        <ele>114.36745452881</ele>
        <time>2017-06-18T06:49:45.000Z</time>
      </trkpt>
      <trkpt lat="49.20795" lon="1.6243">
        <ele>114.901222229</ele>
        <time>2017-06-18T06:49:47.000Z</time>
      </trkpt>
      <trkpt lat="49.2079" lon="1.6243">
        <ele>115.41835784912</ele>
        <time>2017-06-18T06:49:49.000Z</time>
      </trkpt>
      <trkpt lat="49.20781" lon="1.62429">
        <ele>115.9603729248</ele>
        <time>2017-06-18T06:49:52.000Z</time>
      </trkpt>
      <trkpt lat="49.20776" lon="1.62428">
        <ele>116.45394134521</ele>
        <time>2017-06-18T06:49:54.000Z</time>
      </trkpt>
      <trkpt lat="49.20767" lon="1.62427">
        <ele>116.9338760376</ele>
        <time>2017-06-18T06:49:57.000Z</time>
      </trkpt>
      <trkpt lat="49.20762" lon="1.62426">
        <ele>117.41452789307</ele>
        <time>2017-06-18T06:49:59.000Z</time>
      </trkpt>
      <trkpt lat="49.20754" lon="1.62425">
        <ele>117.91239929199</ele>
        <time>2017-06-18T06:50:02.000Z</time>
      </trkpt>
      <trkpt lat="49.20749" lon="1.62425">
        <ele>118.3680267334</ele>
        <time>2017-06-18T06:50:04.000Z</time>
      </trkpt>
      <trkpt lat="49.20742" lon="1.62426">
        <ele>118.85329437256</ele>
        <time>2017-06-18T06:50:07.000Z</time>
      </trkpt>
      <trkpt lat="49.20737" lon="1.62426">
        <ele>119.29187011719</ele>
        <time>2017-06-18T06:50:09.000Z</time>
      </trkpt>
      <trkpt lat="49.2073" lon="1.62427">
        <ele>119.74780273438</ele>
        <time>2017-06-18T06:50:12.000Z</time>
      </trkpt>
      <trkpt lat="49.20723" lon="1.62429">
        <ele>120.21041107178</ele>
        <time>2017-06-18T06:50:15.000Z</time>
      </trkpt>
      <trkpt lat="49.20719" lon="1.62429">
        <ele>120.6587677002</ele>
        <time>2017-06-18T06:50:17.000Z</time>
      </trkpt>
      <trkpt lat="49.20714" lon="1.6243">
        <ele>121.06408691406</ele>
        <time>2017-06-18T06:50:19.000Z</time>
      </trkpt>
      <trkpt lat="49.20708" lon="1.62431">
        <ele>121.49007415771</ele>
        <time>2017-06-18T06:50:22.000Z</time>
      </trkpt>
      <trkpt lat="49.20702" lon="1.62433">
        <ele>121.90940856934</ele>
        <time>2017-06-18T06:50:25.000Z</time>
      </trkpt>
      <trkpt lat="49.20698" lon="1.62434">
        <ele>122.27629089355</ele>
        <time>2017-06-18T06:50:27.000Z</time>
      </trkpt>
      <trkpt lat="49.20691" lon="1.62436">
        <ele>122.68005371094</ele>
        <time>2017-06-18T06:50:30.000Z</time>
      </trkpt>
      <trkpt lat="49.20684" lon="1.62437">
        <ele>123.12223815918</ele>
        <time>2017-06-18T06:50:33.000Z</time>
      </trkpt>
      <trkpt lat="49.20679" lon="1.62438">
        <ele>123.53923034668</ele>
        <time>2017-06-18T06:50:35.000Z</time>
      </trkpt>
      <trkpt lat="49.20673" lon="1.6244">
        <ele>123.96684265137</ele>
        <time>2017-06-18T06:50:38.000Z</time>
      </trkpt>
      <trkpt lat="49.20665" lon="1.62441">
        <ele>124.44216156006</ele>
        <time>2017-06-18T06:50:41.000Z</time>
      </trkpt>
      <trkpt lat="49.2066" lon="1.62442">
        <ele>124.86922454834</ele>
        <time>2017-06-18T06:50:43.000Z</time>
      </trkpt>
      <trkpt lat="49.20655" lon="1.62443">
        <ele>125.24049377441</ele>
        <time>2017-06-18T06:50:45.000Z</time>
      </trkpt>
      <trkpt lat="49.2065" lon="1.62444">
        <ele>125.59871673584</ele>
        <time>2017-06-18T06:50:47.000Z</time>
      </trkpt>
      <trkpt lat="49.20643" lon="1.62445">
        <ele>125.93403625488</ele>
        <time>2017-06-18T06:50:50.000Z</time>
      </trkpt>
      <trkpt lat="49.20638" lon="1.62446">
        <ele>126.21708679199</ele>
        <time>2017-06-18T06:50:52.000Z</time>
      </trkpt>
      <trkpt lat="49.20631" lon="1.62446">
        <ele>126.52683258057</ele>
        <time>2017-06-18T06:50:55.000Z</time>
      </trkpt>
      <trkpt lat="49.20626" lon="1.62447">
        <ele>126.83351898193</ele>
        <time>2017-06-18T06:50:57.000Z</time>
      </trkpt>
      <trkpt lat="49.20618" lon="1.62448">
        <ele>127.1669921875</ele>
        <time>2017-06-18T06:51:00.000Z</time>
      </trkpt>
      <trkpt lat="49.2061" lon="1.62448">
        <ele>127.50611877441</ele>
        <time>2017-06-18T06:51:03.000Z</time>
      </trkpt>
      <trkpt lat="49.20605" lon="1.62448">
        <ele>127.84855651855</ele>
        <time>2017-06-18T06:51:05.000Z</time>
      </trkpt>
      <trkpt lat="49.20597" lon="1.62447">
        <ele>128.19073486328</ele>
        <time>2017-06-18T06:51:08.000Z</time>
      </trkpt>
      <trkpt lat="49.20592" lon="1.62447">
        <ele>128.54573059082</ele>
        <time>2017-06-18T06:51:10.000Z</time>
      </trkpt>
      <trkpt lat="49.20583" lon="1.62446">
        <ele>128.90908813477</ele>
        <time>2017-06-18T06:51:13.000Z</time>
      </trkpt>
      <trkpt lat="49.20573" lon="1.62445">
        <ele>129.22448730469</ele>
        <time>2017-06-18T06:51:16.000Z</time>
      </trkpt>
      <trkpt lat="49.20567" lon="1.62444">
        <ele>129.5085144043</ele>
        <time>2017-06-18T06:51:18.000Z</time>
      </trkpt>
      <trkpt lat="49.20557" lon="1.62442">
        <ele>129.74757385254</ele>
        <time>2017-06-18T06:51:21.000Z</time>
      </trkpt>
      <trkpt lat="49.2055" lon="1.62441">
        <ele>129.94987487793</ele>
        <time>2017-06-18T06:51:23.000Z</time>
      </trkpt>
      <trkpt lat="49.20541" lon="1.62439">
        <ele>130.09635925293</ele>
        <time>2017-06-18T06:51:26.000Z</time>
      </trkpt>
      <trkpt lat="49.20531" lon="1.62437">
        <ele>130.23992919922</ele>
        <time>2017-06-18T06:51:29.000Z</time>
      </trkpt>
      <trkpt lat="49.20524" lon="1.62436">
        <ele>130.38191223145</ele>
        <time>2017-06-18T06:51:31.000Z</time>
      </trkpt>
      <trkpt lat="49.20517" lon="1.62435">
        <ele>130.50997924805</ele>
        <time>2017-06-18T06:51:33.000Z</time>
      </trkpt>
      <trkpt lat="49.20507" lon="1.62434">
        <ele>130.64608764648</ele>
        <time>2017-06-18T06:51:36.000Z</time>
      </trkpt>
      <trkpt lat="49.20496" lon="1.62433">
        <ele>130.76025390625</ele>
        <time>2017-06-18T06:51:39.000Z</time>
      </trkpt>
      <trkpt lat="49.20485" lon="1.62433">
        <ele>130.81587219238</ele>
        <time>2017-06-18T06:51:42.000Z</time>
      </trkpt>
      <trkpt lat="49.20478" lon="1.62434">
        <ele>130.83358764648</ele>
        <time>2017-06-18T06:51:44.000Z</time>
      </trkpt>
      <trkpt lat="49.20471" lon="1.62434">
        <ele>130.81274414062</ele>
        <time>2017-06-18T06:51:46.000Z</time>
      </trkpt>
      <trkpt lat="49.2046" lon="1.62431">
        <ele>130.7353515625</ele>
        <time>2017-06-18T06:51:49.000Z</time>
      </trkpt>
      <trkpt lat="49.20452" lon="1.62426">
        <ele>130.630859375</ele>
        <time>2017-06-18T06:51:51.000Z</time>
      </trkpt>
      <trkpt lat="49.20444" lon="1.6241">
        <ele>130.52824401855</ele>
        <time>2017-06-18T06:51:54.000Z</time>
      </trkpt>
      <trkpt lat="49.20439" lon="1.62392">
        <ele>130.41804504395</ele>
        <time>2017-06-18T06:51:57.000Z</time>
      </trkpt>
      <trkpt lat="49.20435" lon="1.6238">
        <ele>130.31294250488</ele>
        <time>2017-06-18T06:51:59.000Z</time>
      </trkpt>
      <trkpt lat="49.2043" lon="1.62363">
        <ele>130.22039794922</ele>
        <time>2017-06-18T06:52:02.000Z</time>
      </trkpt>
      <trkpt lat="49.20425" lon="1.62345">
        <ele>130.1371307373</ele>
        <time>2017-06-18T06:52:05.000Z</time>
      </trkpt>
      <trkpt lat="49.2042" lon="1.62328">
        <ele>130.10113525391</ele>
        <time>2017-06-18T06:52:08.000Z</time>
      </trkpt>
      <trkpt lat="49.20416" lon="1.62317">
        <ele>130.14297485352</ele>
        <time>2017-06-18T06:52:10.000Z</time>
      </trkpt>
      <trkpt lat="49.20412" lon="1.62306">
        <ele>130.24314880371</ele>
        <time>2017-06-18T06:52:12.000Z</time>
      </trkpt>
      <trkpt lat="49.20406" lon="1.62289">
        <ele>130.41757202148</ele>
        <time>2017-06-18T06:52:15.000Z</time>
      </trkpt>
      <trkpt lat="49.20402" lon="1.62278">
        <ele>130.63284301758</ele>
        <time>2017-06-18T06:52:17.000Z</time>
      </trkpt>
      <trkpt lat="49.20396" lon="1.62262">
        <ele>130.86524963379</ele>
        <time>2017-06-18T06:52:20.000Z</time>
      </trkpt>
      <trkpt lat="49.20392" lon="1.62251">
        <ele>131.06399536133</ele>
        <time>2017-06-18T06:52:22.000Z</time>
      </trkpt>
      <trkpt lat="49.20387" lon="1.62236">
        <ele>131.20997619629</ele>
        <time>2017-06-18T06:52:25.000Z</time>
      </trkpt>
      <trkpt lat="49.20383" lon="1.62221">
        <ele>131.28877258301</ele>
        <time>2017-06-18T06:52:28.000Z</time>
      </trkpt>
      <trkpt lat="49.20377" lon="1.62206">
        <ele>131.33180236816</ele>
        <time>2017-06-18T06:52:31.000Z</time>
      </trkpt>
      <trkpt lat="49.20374" lon="1.62194">
        <ele>131.33598327637</ele>
        <time>2017-06-18T06:52:33.000Z</time>
      </trkpt>
      <trkpt lat="49.2037" lon="1.62183">
        <ele>131.32376098633</ele>
        <time>2017-06-18T06:52:35.000Z</time>
      </trkpt>
      <trkpt lat="49.20366" lon="1.62172">
        <ele>131.32363891602</ele>
        <time>2017-06-18T06:52:37.000Z</time>
      </trkpt>
      <trkpt lat="49.2036" lon="1.62154">
        <ele>131.36465454102</ele>
        <time>2017-06-18T06:52:40.000Z</time>
      </trkpt>
      <trkpt lat="49.20356" lon="1.62143">
        <ele>131.44152832031</ele>
        <time>2017-06-18T06:52:42.000Z</time>
      </trkpt>
      <trkpt lat="49.2035" lon="1.62126">
        <ele>131.57707214355</ele>
        <time>2017-06-18T06:52:45.000Z</time>
      </trkpt>
      <trkpt lat="49.20344" lon="1.62108">
        <ele>131.78088378906</ele>
        <time>2017-06-18T06:52:48.000Z</time>
      </trkpt>
      <trkpt lat="49.2034" lon="1.62097">
        <ele>132.03266906738</ele>
        <time>2017-06-18T06:52:50.000Z</time>
      </trkpt>
      <trkpt lat="49.20336" lon="1.62086">
        <ele>132.30819702148</ele>
        <time>2017-06-18T06:52:52.000Z</time>
      </trkpt>
      <trkpt lat="49.20329" lon="1.6207">
        <ele>132.59275817871</ele>
        <time>2017-06-18T06:52:55.000Z</time>
      </trkpt>
      <trkpt lat="49.20322" lon="1.62054">
        <ele>132.83744812012</ele>
        <time>2017-06-18T06:52:58.000Z</time>
      </trkpt>
      <trkpt lat="49.20317" lon="1.62044">
        <ele>133.02461242676</ele>
        <time>2017-06-18T06:53:00.000Z</time>
      </trkpt>
      <trkpt lat="49.2031" lon="1.62028">
        <ele>133.17984008789</ele>
        <time>2017-06-18T06:53:03.000Z</time>
      </trkpt>
      <trkpt lat="49.20302" lon="1.6201">
        <ele>133.29895019531</ele>
        <time>2017-06-18T06:53:06.000Z</time>
      </trkpt>
      <trkpt lat="49.20294" lon="1.61994">
        <ele>133.37437438965</ele>
        <time>2017-06-18T06:53:09.000Z</time>
      </trkpt>
      <trkpt lat="49.20287" lon="1.61978">
        <ele>133.3970489502</ele>
        <time>2017-06-18T06:53:12.000Z</time>
      </trkpt>
      <trkpt lat="49.2028" lon="1.61963">
        <ele>133.38021850586</ele>
        <time>2017-06-18T06:53:15.000Z</time>
      </trkpt>
      <trkpt lat="49.20273" lon="1.61947">
        <ele>133.32229614258</ele>
        <time>2017-06-18T06:53:18.000Z</time>
      </trkpt>
      <trkpt lat="49.20266" lon="1.6193">
        <ele>133.22862243652</ele>
        <time>2017-06-18T06:53:21.000Z</time>
      </trkpt>
      <trkpt lat="49.20261" lon="1.6192">
        <ele>133.13172912598</ele>
        <time>2017-06-18T06:53:23.000Z</time>
      </trkpt>
      <trkpt lat="49.20253" lon="1.61904">
        <ele>133.06571960449</ele>
        <time>2017-06-18T06:53:26.000Z</time>
      </trkpt>
      <trkpt lat="49.20245" lon="1.61887">
        <ele>133.03063964844</ele>
        <time>2017-06-18T06:53:29.000Z</time>
      </trkpt>
      <trkpt lat="49.2024" lon="1.61875">
        <ele>133.02304077148</ele>
        <time>2017-06-18T06:53:31.000Z</time>
      </trkpt>
      <trkpt lat="49.20234" lon="1.61864">
        <ele>133.04048156738</ele>
        <time>2017-06-18T06:53:33.000Z</time>
      </trkpt>
      <trkpt lat="49.20226" lon="1.61847">
        <ele>133.08699035645</ele>
        <time>2017-06-18T06:53:36.000Z</time>
      </trkpt>
      <trkpt lat="49.20222" lon="1.61836">
        <ele>133.15325927734</ele>
        <time>2017-06-18T06:53:38.000Z</time>
      </trkpt>
      <trkpt lat="49.20214" lon="1.6182">
        <ele>133.24716186523</ele>
        <time>2017-06-18T06:53:41.000Z</time>
      </trkpt>
      <trkpt lat="49.2021" lon="1.6181">
        <ele>133.35926818848</ele>
        <time>2017-06-18T06:53:43.000Z</time>
      </trkpt>
      <trkpt lat="49.20204" lon="1.61799">
        <ele>133.4903717041</ele>
        <time>2017-06-18T06:53:45.000Z</time>
      </trkpt>
      <trkpt lat="49.20199" lon="1.61788">
        <ele>133.62991333008</ele>
        <time>2017-06-18T06:53:47.000Z</time>
      </trkpt>
      <trkpt lat="49.20192" lon="1.61773">
        <ele>133.80467224121</ele>
        <time>2017-06-18T06:53:50.000Z</time>
      </trkpt>
      <trkpt lat="49.20185" lon="1.61758">
        <ele>134.00442504883</ele>
        <time>2017-06-18T06:53:53.000Z</time>
      </trkpt>
      <trkpt lat="49.2018" lon="1.61748">
        <ele>134.21228027344</ele>
        <time>2017-06-18T06:53:55.000Z</time>
      </trkpt>
      <trkpt lat="49.20173" lon="1.61733">
        <ele>134.38911437988</ele>
        <time>2017-06-18T06:53:58.000Z</time>
      </trkpt>
      <trkpt lat="49.20165" lon="1.61719">
        <ele>134.53150939941</ele>
        <time>2017-06-18T06:54:01.000Z</time>
      </trkpt>
      <trkpt lat="49.2016" lon="1.61709">
        <ele>134.61526489258</ele>
        <time>2017-06-18T06:54:03.000Z</time>
      </trkpt>
      <trkpt lat="49.20153" lon="1.61694">
        <ele>134.6372833252</ele>
        <time>2017-06-18T06:54:06.000Z</time>
      </trkpt>
      <trkpt lat="49.20148" lon="1.61684">
        <ele>134.62509155273</ele>
        <time>2017-06-18T06:54:08.000Z</time>
      </trkpt>
      <trkpt lat="49.20141" lon="1.6167">
        <ele>134.62089538574</ele>
        <time>2017-06-18T06:54:11.000Z</time>
      </trkpt>
      <trkpt lat="49.20134" lon="1.61655">
        <ele>134.64701843262</ele>
        <time>2017-06-18T06:54:14.000Z</time>
      </trkpt>
      <trkpt lat="49.20129" lon="1.61645">
        <ele>134.7021484375</ele>
        <time>2017-06-18T06:54:16.000Z</time>
      </trkpt>
      <trkpt lat="49.20126" lon="1.61636">
        <ele>134.77830505371</ele>
        <time>2017-06-18T06:54:18.000Z</time>
      </trkpt>
      <trkpt lat="49.20119" lon="1.61624">
        <ele>134.88790893555</ele>
        <time>2017-06-18T06:54:21.000Z</time>
      </trkpt>
      <trkpt lat="49.20113" lon="1.61616">
        <ele>135.015625</ele>
        <time>2017-06-18T06:54:23.000Z</time>
      </trkpt>
      <trkpt lat="49.20108" lon="1.61608">
        <ele>135.142578125</ele>
        <time>2017-06-18T06:54:25.000Z</time>
      </trkpt>
      <trkpt lat="49.20099" lon="1.61596">
        <ele>135.2890625</ele>
        <time>2017-06-18T06:54:28.000Z</time>
      </trkpt>
      <trkpt lat="49.20092" lon="1.61588">
        <ele>135.44921875</ele>
        <time>2017-06-18T06:54:30.000Z</time>
      </trkpt>
      <trkpt lat="49.20082" lon="1.61576">
        <ele>135.62226867676</ele>
        <time>2017-06-18T06:54:33.000Z</time>
      </trkpt>
      <trkpt lat="49.20072" lon="1.61564">
        <ele>135.79531860352</ele>
        <time>2017-06-18T06:54:36.000Z</time>
      </trkpt>
      <trkpt lat="49.20061" lon="1.61552">
        <ele>135.96737670898</ele>
        <time>2017-06-18T06:54:39.000Z</time>
      </trkpt>
      <trkpt lat="49.20049" lon="1.6154">
        <ele>136.12382507324</ele>
        <time>2017-06-18T06:54:42.000Z</time>
      </trkpt>
      <trkpt lat="49.20041" lon="1.61533">
        <ele>136.2685546875</ele>
        <time>2017-06-18T06:54:44.000Z</time>
      </trkpt>
      <trkpt lat="49.2003" lon="1.61521">
        <ele>136.39453125</ele>
        <time>2017-06-18T06:54:47.000Z</time>
      </trkpt>
      <trkpt lat="49.20023" lon="1.61514">
        <ele>136.51171875</ele>
        <time>2017-06-18T06:54:49.000Z</time>
      </trkpt>
      <trkpt lat="49.20016" lon="1.61506">
        <ele>136.619140625</ele>
        <time>2017-06-18T06:54:51.000Z</time>
      </trkpt>
      <trkpt lat="49.20008" lon="1.61498">
        <ele>136.716796875</ele>
        <time>2017-06-18T06:54:53.000Z</time>
      </trkpt>
      <trkpt lat="49.19998" lon="1.61485">
        <ele>136.8203125</ele>
        <time>2017-06-18T06:54:56.000Z</time>
      </trkpt>
      <trkpt lat="49.19988" lon="1.61473">
        <ele>136.919921875</ele>
        <time>2017-06-18T06:54:59.000Z</time>
      </trkpt>
      <trkpt lat="49.19978" lon="1.6146">
        <ele>137.02734375</ele>
        <time>2017-06-18T06:55:02.000Z</time>
      </trkpt>
      <trkpt lat="49.19968" lon="1.61446">
        <ele>137.1416015625</ele>
        <time>2017-06-18T06:55:05.000Z</time>
      </trkpt>
      <trkpt lat="49.19959" lon="1.61433">
        <ele>137.259765625</ele>
        <time>2017-06-18T06:55:08.000Z</time>
      </trkpt>
      <trkpt lat="49.19953" lon="1.61424">
        <ele>137.3681640625</ele>
        <time>2017-06-18T06:55:10.000Z</time>
      </trkpt>
      <trkpt lat="49.19943" lon="1.61409">
        <ele>137.51977539062</ele>
        <time>2017-06-18T06:55:13.000Z</time>
      </trkpt>
      <trkpt lat="49.19936" lon="1.61399">
        <ele>137.72520446777</ele>
        <time>2017-06-18T06:55:15.000Z</time>
      </trkpt>
      <trkpt lat="49.19926" lon="1.61385">
        <ele>138.03868103027</ele>
        <time>2017-06-18T06:55:18.000Z</time>
      </trkpt>
      <trkpt lat="49.19915" lon="1.61369">
        <ele>138.49607849121</ele>
        <time>2017-06-18T06:55:21.000Z</time>
      </trkpt>
      <trkpt lat="49.19909" lon="1.61358">
        <ele>139.0910949707</ele>
        <time>2017-06-18T06:55:23.000Z</time>
      </trkpt>
      <trkpt lat="49.19899" lon="1.61342">
        <ele>139.85969543457</ele>
        <time>2017-06-18T06:55:26.000Z</time>
      </trkpt>
      <trkpt lat="49.19889" lon="1.61327">
        <ele>140.70880126953</ele>
        <time>2017-06-18T06:55:29.000Z</time>
      </trkpt>
      <trkpt lat="49.1988" lon="1.61312">
        <ele>141.44723510742</ele>
        <time>2017-06-18T06:55:32.000Z</time>
      </trkpt>
      <trkpt lat="49.1987" lon="1.61299">
        <ele>142.02229309082</ele>
        <time>2017-06-18T06:55:35.000Z</time>
      </trkpt>
      <trkpt lat="49.19864" lon="1.6129">
        <ele>142.41386413574</ele>
        <time>2017-06-18T06:55:37.000Z</time>
      </trkpt>
      <trkpt lat="49.19859" lon="1.61276">
        <ele>142.48129272461</ele>
        <time>2017-06-18T06:55:40.000Z</time>
      </trkpt>
      <trkpt lat="49.19855" lon="1.61271">
        <ele>142.36303710938</ele>
        <time>2017-06-18T06:55:43.000Z</time>
      </trkpt>
      <trkpt lat="49.19852" lon="1.6127">
        <ele>142.21844482422</ele>
        <time>2017-06-18T06:55:45.000Z</time>
      </trkpt>
      <trkpt lat="49.19846" lon="1.61266">
        <ele>142.05360412598</ele>
        <time>2017-06-18T06:55:47.000Z</time>
      </trkpt>
      <trkpt lat="49.1983" lon="1.61258">
        <ele>141.77416992188</ele>
        <time>2017-06-18T06:55:50.000Z</time>
      </trkpt>
      <trkpt lat="49.19806" lon="1.61251">
        <ele>140.9284362793</ele>
        <time>2017-06-18T06:55:53.000Z</time>
      </trkpt>
      <trkpt lat="49.19785" lon="1.61252">
        <ele>139.61587524414</ele>
        <time>2017-06-18T06:55:56.000Z</time>
      </trkpt>
      <trkpt lat="49.19775" lon="1.61265">
        <ele>138.24349975586</ele>
        <time>2017-06-18T06:55:58.000Z</time>
      </trkpt>
      <trkpt lat="49.19764" lon="1.61293">
        <ele>137.01628112793</ele>
        <time>2017-06-18T06:56:01.000Z</time>
      </trkpt>
      <trkpt lat="49.19757" lon="1.61311">
        <ele>136.03480529785</ele>
        <time>2017-06-18T06:56:03.000Z</time>
      </trkpt>
      <trkpt lat="49.19749" lon="1.61327">
        <ele>135.74230957031</ele>
        <time>2017-06-18T06:56:05.000Z</time>
      </trkpt>
      <trkpt lat="49.19738" lon="1.6135">
        <ele>135.59219360352</ele>
        <time>2017-06-18T06:56:08.000Z</time>
      </trkpt>
      <trkpt lat="49.19728" lon="1.61376">
        <ele>135.15737915039</ele>
        <time>2017-06-18T06:56:11.000Z</time>
      </trkpt>
      <trkpt lat="49.19721" lon="1.61391">
        <ele>134.39009094238</ele>
        <time>2017-06-18T06:56:13.000Z</time>
      </trkpt>
      <trkpt lat="49.19714" lon="1.6142">
        <ele>133.38101196289</ele>
        <time>2017-06-18T06:56:16.000Z</time>
      </trkpt>
      <trkpt lat="49.19708" lon="1.61435">
        <ele>132.33012390137</ele>
        <time>2017-06-18T06:56:18.000Z</time>
      </trkpt>
      <trkpt lat="49.19699" lon="1.61453">
        <ele>131.6111907959</ele>
        <time>2017-06-18T06:56:21.000Z</time>
      </trkpt>
      <trkpt lat="49.19689" lon="1.61478">
        <ele>131.30590820312</ele>
        <time>2017-06-18T06:56:24.000Z</time>
      </trkpt>
      <trkpt lat="49.19679" lon="1.61511">
        <ele>131.38961791992</ele>
        <time>2017-06-18T06:56:27.000Z</time>
      </trkpt>
      <trkpt lat="49.19671" lon="1.61517">
        <ele>131.5011138916</ele>
        <time>2017-06-18T06:56:29.000Z</time>
      </trkpt>
      <trkpt lat="49.19661" lon="1.61536">
        <ele>131.64465332031</ele>
        <time>2017-06-18T06:56:32.000Z</time>
      </trkpt>
      <trkpt lat="49.19652" lon="1.6155">
        <ele>131.77052307129</ele>
        <time>2017-06-18T06:56:35.000Z</time>
      </trkpt>
      <trkpt lat="49.19642" lon="1.61561">
        <ele>131.73553466797</ele>
        <time>2017-06-18T06:56:38.000Z</time>
      </trkpt>
      <trkpt lat="49.1964" lon="1.6157">
        <ele>131.59713745117</ele>
        <time>2017-06-18T06:56:40.000Z</time>
      </trkpt>
      <trkpt lat="49.19639" lon="1.61581">
        <ele>131.75003051758</ele>
        <time>2017-06-18T06:56:43.000Z</time>
      </trkpt>
      <trkpt lat="49.19631" lon="1.61585">
        <ele>131.75607299805</ele>
        <time>2017-06-18T06:56:46.000Z</time>
      </trkpt>
      <trkpt lat="49.19623" lon="1.61586">
        <ele>131.6149597168</ele>
        <time>2017-06-18T06:56:48.000Z</time>
      </trkpt>
      <trkpt lat="49.19613" lon="1.61597">
        <ele>131.50927734375</ele>
        <time>2017-06-18T06:56:51.000Z</time>
      </trkpt>
      <trkpt lat="49.19605" lon="1.61607">
        <ele>131.32818603516</ele>
        <time>2017-06-18T06:56:54.000Z</time>
      </trkpt>
      <trkpt lat="49.19597" lon="1.61609">
        <ele>130.85171508789</ele>
        <time>2017-06-18T06:56:57.000Z</time>
      </trkpt>
      <trkpt lat="49.19583" lon="1.61611">
        <ele>130.27059936523</ele>
        <time>2017-06-18T06:57:00.000Z</time>
      </trkpt>
      <trkpt lat="49.19567" lon="1.61622">
        <ele>129.87564086914</ele>
        <time>2017-06-18T06:57:03.000Z</time>
      </trkpt>
      <trkpt lat="49.19552" lon="1.61634">
        <ele>129.60176086426</ele>
        <time>2017-06-18T06:57:06.000Z</time>
      </trkpt>
      <trkpt lat="49.19537" lon="1.6164">
        <ele>129.27645874023</ele>
        <time>2017-06-18T06:57:09.000Z</time>
      </trkpt>
      <trkpt lat="49.19526" lon="1.61646">
        <ele>129.04643249512</ele>
        <time>2017-06-18T06:57:12.000Z</time>
      </trkpt>
      <trkpt lat="49.1952" lon="1.6165">
        <ele>129.06610107422</ele>
        <time>2017-06-18T06:57:14.000Z</time>
      </trkpt>
      <trkpt lat="49.19513" lon="1.61652">
        <ele>129.04385375977</ele>
        <time>2017-06-18T06:57:17.000Z</time>
      </trkpt>
      <trkpt lat="49.19505" lon="1.61655">
        <ele>128.94866943359</ele>
        <time>2017-06-18T06:57:20.000Z</time>
      </trkpt>
      <trkpt lat="49.19496" lon="1.61661">
        <ele>128.95037841797</ele>
        <time>2017-06-18T06:57:23.000Z</time>
      </trkpt>
      <trkpt lat="49.19491" lon="1.61663">
        <ele>128.9934387207</ele>
        <time>2017-06-18T06:57:25.000Z</time>
      </trkpt>
      <trkpt lat="49.19489" lon="1.61663">
        <ele>129.0016784668</ele>
        <time>2017-06-18T06:57:27.000Z</time>
      </trkpt>
      <trkpt lat="49.19487" lon="1.61666">
        <ele>129.11488342285</ele>
        <time>2017-06-18T06:57:29.000Z</time>
      </trkpt>
      <trkpt lat="49.19487" lon="1.61666">
        <ele>129.11488342285</ele>
        <time>2017-06-18T06:57:39.000Z</time>
      </trkpt>
      <trkpt lat="49.19487" lon="1.6167">
        <ele>129.33740234375</ele>
        <time>2017-06-18T06:57:43.000Z</time>
      </trkpt>
      <trkpt lat="49.19487" lon="1.6167">
        <ele>129.33740234375</ele>
        <time>2017-06-18T06:57:53.000Z</time>
      </trkpt>
      <trkpt lat="49.19487" lon="1.61671">
        <ele>129.53486633301</ele>
        <time>2017-06-18T06:57:57.000Z</time>
      </trkpt>
      <trkpt lat="49.19486" lon="1.61674">
        <ele>129.77249145508</ele>
        <time>2017-06-18T06:58:00.000Z</time>
      </trkpt>
      <trkpt lat="49.19485" lon="1.61678">
        <ele>130.09315490723</ele>
        <time>2017-06-18T06:58:02.000Z</time>
      </trkpt>
      <trkpt lat="49.19486" lon="1.6169">
        <ele>130.63864135742</ele>
        <time>2017-06-18T06:58:05.000Z</time>
      </trkpt>
      <trkpt lat="49.19489" lon="1.61697">
        <ele>131.24557495117</ele>
        <time>2017-06-18T06:58:07.000Z</time>
      </trkpt>
      <trkpt lat="49.19493" lon="1.61705">
        <ele>132.03823852539</ele>
        <time>2017-06-18T06:58:10.000Z</time>
      </trkpt>
      <trkpt lat="49.19498" lon="1.61715">
        <ele>132.99629211426</ele>
        <time>2017-06-18T06:58:13.000Z</time>
      </trkpt>
      <trkpt lat="49.19501" lon="1.61719">
        <ele>133.99266052246</ele>
        <time>2017-06-18T06:58:15.000Z</time>
      </trkpt>
      <trkpt lat="49.19505" lon="1.61724">
        <ele>134.81562805176</ele>
        <time>2017-06-18T06:58:18.000Z</time>
      </trkpt>
      <trkpt lat="49.19507" lon="1.6173">
        <ele>135.62274169922</ele>
        <time>2017-06-18T06:58:21.000Z</time>
      </trkpt>
      <trkpt lat="49.19508" lon="1.61733">
        <ele>136.28926086426</ele>
        <time>2017-06-18T06:58:23.000Z</time>
      </trkpt>
      <trkpt lat="49.19511" lon="1.61739">
        <ele>136.85830688477</ele>
        <time>2017-06-18T06:58:26.000Z</time>
      </trkpt>
      <trkpt lat="49.19514" lon="1.61745">
        <ele>137.45156860352</ele>
        <time>2017-06-18T06:58:29.000Z</time>
      </trkpt>
      <trkpt lat="49.19518" lon="1.6175">
        <ele>138.03538513184</ele>
        <time>2017-06-18T06:58:31.000Z</time>
      </trkpt>
      <trkpt lat="49.19522" lon="1.61755">
        <ele>138.50857543945</ele>
        <time>2017-06-18T06:58:33.000Z</time>
      </trkpt>
      <trkpt lat="49.19528" lon="1.61761">
        <ele>138.94212341309</ele>
        <time>2017-06-18T06:58:36.000Z</time>
      </trkpt>
      <trkpt lat="49.19535" lon="1.61768">
        <ele>139.27003479004</ele>
        <time>2017-06-18T06:58:39.000Z</time>
      </trkpt>
      <trkpt lat="49.1954" lon="1.61772">
        <ele>139.46336364746</ele>
        <time>2017-06-18T06:58:41.000Z</time>
      </trkpt>
      <trkpt lat="49.19545" lon="1.61774">
        <ele>139.54801940918</ele>
        <time>2017-06-18T06:58:43.000Z</time>
      </trkpt>
      <trkpt lat="49.1955" lon="1.6178">
        <ele>139.59623718262</ele>
        <time>2017-06-18T06:58:46.000Z</time>
      </trkpt>
      <trkpt lat="49.19553" lon="1.61784">
        <ele>139.60774230957</ele>
        <time>2017-06-18T06:58:49.000Z</time>
      </trkpt>
      <trkpt lat="49.19552" lon="1.61782">
        <ele>139.59909057617</ele>
        <time>2017-06-18T06:58:57.000Z</time>
      </trkpt>
      <trkpt lat="49.1955" lon="1.6178">
        <ele>139.59147644043</ele>
        <time>2017-06-18T06:59:00.000Z</time>
      </trkpt>
      <trkpt lat="49.19549" lon="1.61779">
        <ele>139.58792114258</ele>
        <time>2017-06-18T06:59:03.000Z</time>
      </trkpt>
      <trkpt lat="49.19548" lon="1.61776">
        <ele>139.59211730957</ele>
        <time>2017-06-18T06:59:05.000Z</time>
      </trkpt>
      <trkpt lat="49.19545" lon="1.61774">
        <ele>139.60430908203</ele>
        <time>2017-06-18T06:59:07.000Z</time>
      </trkpt>
      <trkpt lat="49.19538" lon="1.61772">
        <ele>139.61825561523</ele>
        <time>2017-06-18T06:59:10.000Z</time>
      </trkpt>
      <trkpt lat="49.19532" lon="1.6177">
        <ele>139.62713623047</ele>
        <time>2017-06-18T06:59:13.000Z</time>
      </trkpt>
      <trkpt lat="49.19525" lon="1.6177">
        <ele>139.63626098633</ele>
        <time>2017-06-18T06:59:15.000Z</time>
      </trkpt>
      <trkpt lat="49.19517" lon="1.61768">
        <ele>139.63748168945</ele>
        <time>2017-06-18T06:59:17.000Z</time>
      </trkpt>
      <trkpt lat="49.19504" lon="1.61767">
        <ele>139.63717651367</ele>
        <time>2017-06-18T06:59:20.000Z</time>
      </trkpt>
      <trkpt lat="49.19498" lon="1.6177">
        <ele>139.6512298584</ele>
        <time>2017-06-18T06:59:22.000Z</time>
      </trkpt>
      <trkpt lat="49.19488" lon="1.61773">
        <ele>139.65669250488</ele>
        <time>2017-06-18T06:59:25.000Z</time>
      </trkpt>
      <trkpt lat="49.19477" lon="1.61772">
        <ele>139.62710571289</ele>
        <time>2017-06-18T06:59:28.000Z</time>
      </trkpt>
      <trkpt lat="49.19469" lon="1.61771">
        <ele>139.57766723633</ele>
        <time>2017-06-18T06:59:30.000Z</time>
      </trkpt>
      <trkpt lat="49.19459" lon="1.61774">
        <ele>139.52496337891</ele>
        <time>2017-06-18T06:59:32.000Z</time>
      </trkpt>
      <trkpt lat="49.19447" lon="1.61782">
        <ele>139.48260498047</ele>
        <time>2017-06-18T06:59:35.000Z</time>
      </trkpt>
      <trkpt lat="49.19439" lon="1.61788">
        <ele>139.47372436523</ele>
        <time>2017-06-18T06:59:37.000Z</time>
      </trkpt>
      <trkpt lat="49.19428" lon="1.61802">
        <ele>139.57217407227</ele>
        <time>2017-06-18T06:59:40.000Z</time>
      </trkpt>
      <trkpt lat="49.19422" lon="1.61815">
        <ele>139.77478027344</ele>
        <time>2017-06-18T06:59:42.000Z</time>
      </trkpt>
      <trkpt lat="49.19416" lon="1.61826">
        <ele>140.0428314209</ele>
        <time>2017-06-18T06:59:44.000Z</time>
      </trkpt>
      <trkpt lat="49.1941" lon="1.61841">
        <ele>140.28294372559</ele>
        <time>2017-06-18T06:59:47.000Z</time>
      </trkpt>
      <trkpt lat="49.19405" lon="1.6185">
        <ele>140.4672088623</ele>
        <time>2017-06-18T06:59:49.000Z</time>
      </trkpt>
      <trkpt lat="49.19398" lon="1.61858">
        <ele>140.53239440918</ele>
        <time>2017-06-18T06:59:51.000Z</time>
      </trkpt>
      <trkpt lat="49.19389" lon="1.61875">
        <ele>140.48715209961</ele>
        <time>2017-06-18T06:59:54.000Z</time>
      </trkpt>
      <trkpt lat="49.19384" lon="1.61888">
        <ele>140.38696289062</ele>
        <time>2017-06-18T06:59:56.000Z</time>
      </trkpt>
      <trkpt lat="49.19376" lon="1.61907">
        <ele>140.31631469727</ele>
        <time>2017-06-18T06:59:59.000Z</time>
      </trkpt>
      <trkpt lat="49.19371" lon="1.61919">
        <ele>140.29467773438</ele>
        <time>2017-06-18T07:00:01.000Z</time>
      </trkpt>
      <trkpt lat="49.19361" lon="1.61937">
        <ele>140.26585388184</ele>
        <time>2017-06-18T07:00:04.000Z</time>
      </trkpt>
      <trkpt lat="49.19354" lon="1.61953">
        <ele>140.21659851074</ele>
        <time>2017-06-18T07:00:07.000Z</time>
      </trkpt>
      <trkpt lat="49.19346" lon="1.61965">
        <ele>140.10856628418</ele>
        <time>2017-06-18T07:00:10.000Z</time>
      </trkpt>
      <trkpt lat="49.19335" lon="1.61977">
        <ele>139.90026855469</ele>
        <time>2017-06-18T07:00:13.000Z</time>
      </trkpt>
      <trkpt lat="49.19328" lon="1.61987">
        <ele>139.52883911133</ele>
        <time>2017-06-18T07:00:15.000Z</time>
      </trkpt>
      <trkpt lat="49.19318" lon="1.62008">
        <ele>138.98623657227</ele>
        <time>2017-06-18T07:00:18.000Z</time>
      </trkpt>
      <trkpt lat="49.19313" lon="1.62021">
        <ele>138.37657165527</ele>
        <time>2017-06-18T07:00:20.000Z</time>
      </trkpt>
      <trkpt lat="49.19308" lon="1.6203">
        <ele>137.7279510498</ele>
        <time>2017-06-18T07:00:22.000Z</time>
      </trkpt>
      <trkpt lat="49.19296" lon="1.62037">
        <ele>136.97178649902</ele>
        <time>2017-06-18T07:00:25.000Z</time>
      </trkpt>
      <trkpt lat="49.19287" lon="1.62044">
        <ele>136.244140625</ele>
        <time>2017-06-18T07:00:27.000Z</time>
      </trkpt>
      <trkpt lat="49.1927" lon="1.62048">
        <ele>135.54592895508</ele>
        <time>2017-06-18T07:00:30.000Z</time>
      </trkpt>
      <trkpt lat="49.19258" lon="1.62066">
        <ele>134.92729187012</ele>
        <time>2017-06-18T07:00:33.000Z</time>
      </trkpt>
      <trkpt lat="49.19252" lon="1.62085">
        <ele>134.47506713867</ele>
        <time>2017-06-18T07:00:35.000Z</time>
      </trkpt>
      <trkpt lat="49.19246" lon="1.6211">
        <ele>134.24755859375</ele>
        <time>2017-06-18T07:00:38.000Z</time>
      </trkpt>
      <trkpt lat="49.19241" lon="1.62128">
        <ele>134.14810180664</ele>
        <time>2017-06-18T07:00:40.000Z</time>
      </trkpt>
      <trkpt lat="49.19235" lon="1.62152">
        <ele>134.25534057617</ele>
        <time>2017-06-18T07:00:43.000Z</time>
      </trkpt>
      <trkpt lat="49.19227" lon="1.62175">
        <ele>134.29013061523</ele>
        <time>2017-06-18T07:00:46.000Z</time>
      </trkpt>
      <trkpt lat="49.19221" lon="1.62188">
        <ele>134.09829711914</ele>
        <time>2017-06-18T07:00:48.000Z</time>
      </trkpt>
      <trkpt lat="49.19218" lon="1.62216">
        <ele>133.77389526367</ele>
        <time>2017-06-18T07:00:51.000Z</time>
      </trkpt>
      <trkpt lat="49.1922" lon="1.62242">
        <ele>133.48156738281</ele>
        <time>2017-06-18T07:00:54.000Z</time>
      </trkpt>
      <trkpt lat="49.19223" lon="1.62264">
        <ele>133.17471313477</ele>
        <time>2017-06-18T07:00:57.000Z</time>
      </trkpt>
      <trkpt lat="49.19226" lon="1.62288">
        <ele>132.90980529785</ele>
        <time>2017-06-18T07:01:00.000Z</time>
      </trkpt>
      <trkpt lat="49.19226" lon="1.62313">
        <ele>132.6350402832</ele>
        <time>2017-06-18T07:01:03.000Z</time>
      </trkpt>
      <trkpt lat="49.19229" lon="1.6234">
        <ele>132.4281463623</ele>
        <time>2017-06-18T07:01:06.000Z</time>
      </trkpt>
      <trkpt lat="49.19234" lon="1.62356">
        <ele>132.34959411621</ele>
        <time>2017-06-18T07:01:08.000Z</time>
      </trkpt>
      <trkpt lat="49.19239" lon="1.6238">
        <ele>132.42868041992</ele>
        <time>2017-06-18T07:01:11.000Z</time>
      </trkpt>
      <trkpt lat="49.1924" lon="1.624">
        <ele>132.62033081055</ele>
        <time>2017-06-18T07:01:14.000Z</time>
      </trkpt>
      <trkpt lat="49.19242" lon="1.6242">
        <ele>133.0446472168</ele>
        <time>2017-06-18T07:01:17.000Z</time>
      </trkpt>
      <trkpt lat="49.19243" lon="1.62435">
        <ele>133.53713989258</ele>
        <time>2017-06-18T07:01:19.000Z</time>
      </trkpt>
      <trkpt lat="49.19243" lon="1.62458">
        <ele>133.91848754883</ele>
        <time>2017-06-18T07:01:22.000Z</time>
      </trkpt>
      <trkpt lat="49.19245" lon="1.62478">
        <ele>134.26077270508</ele>
        <time>2017-06-18T07:01:24.000Z</time>
      </trkpt>
      <trkpt lat="49.19246" lon="1.62507">
        <ele>134.56532287598</ele>
        <time>2017-06-18T07:01:27.000Z</time>
      </trkpt>
      <trkpt lat="49.19246" lon="1.62535">
        <ele>134.54846191406</ele>
        <time>2017-06-18T07:01:30.000Z</time>
      </trkpt>
      <trkpt lat="49.19248" lon="1.6255">
        <ele>134.38491821289</ele>
        <time>2017-06-18T07:01:32.000Z</time>
      </trkpt>
      <trkpt lat="49.19254" lon="1.6257">
        <ele>134.00267028809</ele>
        <time>2017-06-18T07:01:35.000Z</time>
      </trkpt>
      <trkpt lat="49.19259" lon="1.62581">
        <ele>133.38407897949</ele>
        <time>2017-06-18T07:01:37.000Z</time>
      </trkpt>
      <trkpt lat="49.19264" lon="1.62596">
        <ele>132.70986938477</ele>
        <time>2017-06-18T07:01:39.000Z</time>
      </trkpt>
      <trkpt lat="49.19267" lon="1.6261">
        <ele>132.25985717773</ele>
        <time>2017-06-18T07:01:41.000Z</time>
      </trkpt>
      <trkpt lat="49.19268" lon="1.62626">
        <ele>131.88258361816</ele>
        <time>2017-06-18T07:01:44.000Z</time>
      </trkpt>
      <trkpt lat="49.1927" lon="1.62643">
        <ele>131.6432800293</ele>
        <time>2017-06-18T07:01:47.000Z</time>
      </trkpt>
      <trkpt lat="49.19273" lon="1.62655">
        <ele>131.51182556152</ele>
        <time>2017-06-18T07:01:49.000Z</time>
      </trkpt>
      <trkpt lat="49.19276" lon="1.62665">
        <ele>131.42877197266</ele>
        <time>2017-06-18T07:01:51.000Z</time>
      </trkpt>
      <trkpt lat="49.1928" lon="1.62684">
        <ele>131.39395141602</ele>
        <time>2017-06-18T07:01:54.000Z</time>
      </trkpt>
      <trkpt lat="49.19283" lon="1.62706">
        <ele>131.41235351562</ele>
        <time>2017-06-18T07:01:57.000Z</time>
      </trkpt>
      <trkpt lat="49.19284" lon="1.62718">
        <ele>131.4655456543</ele>
        <time>2017-06-18T07:01:59.000Z</time>
      </trkpt>
      <trkpt lat="49.19286" lon="1.62742">
        <ele>131.56105041504</ele>
        <time>2017-06-18T07:02:02.000Z</time>
      </trkpt>
      <trkpt lat="49.19285" lon="1.62759">
        <ele>131.64407348633</ele>
        <time>2017-06-18T07:02:04.000Z</time>
      </trkpt>
      <trkpt lat="49.19285" lon="1.62784">
        <ele>131.64335632324</ele>
        <time>2017-06-18T07:02:07.000Z</time>
      </trkpt>
      <trkpt lat="49.19288" lon="1.62809">
        <ele>131.56594848633</ele>
        <time>2017-06-18T07:02:10.000Z</time>
      </trkpt>
      <trkpt lat="49.19291" lon="1.62838">
        <ele>131.42712402344</ele>
        <time>2017-06-18T07:02:13.000Z</time>
      </trkpt>
      <trkpt lat="49.19297" lon="1.62865">
        <ele>131.27548217773</ele>
        <time>2017-06-18T07:02:16.000Z</time>
      </trkpt>
      <trkpt lat="49.19302" lon="1.6289">
        <ele>131.19139099121</ele>
        <time>2017-06-18T07:02:19.000Z</time>
      </trkpt>
      <trkpt lat="49.19305" lon="1.62915">
        <ele>131.22117614746</ele>
        <time>2017-06-18T07:02:22.000Z</time>
      </trkpt>
      <trkpt lat="49.19308" lon="1.62933">
        <ele>131.30014038086</ele>
        <time>2017-06-18T07:02:24.000Z</time>
      </trkpt>
      <trkpt lat="49.19312" lon="1.62952">
        <ele>131.41644287109</ele>
        <time>2017-06-18T07:02:26.000Z</time>
      </trkpt>
      <trkpt lat="49.19316" lon="1.62974">
        <ele>131.5034942627</ele>
        <time>2017-06-18T07:02:29.000Z</time>
      </trkpt>
      <trkpt lat="49.1932" lon="1.62984">
        <ele>131.55014038086</ele>
        <time>2017-06-18T07:02:31.000Z</time>
      </trkpt>
      <trkpt lat="49.19328" lon="1.62997">
        <ele>131.58232116699</ele>
        <time>2017-06-18T07:02:34.000Z</time>
      </trkpt>
      <trkpt lat="49.19334" lon="1.63001">
        <ele>131.64387512207</ele>
        <time>2017-06-18T07:02:36.000Z</time>
      </trkpt>
      <trkpt lat="49.19341" lon="1.63004">
        <ele>131.5902557373</ele>
        <time>2017-06-18T07:02:38.000Z</time>
      </trkpt>
      <trkpt lat="49.19352" lon="1.63014">
        <ele>131.30928039551</ele>
        <time>2017-06-18T07:02:41.000Z</time>
      </trkpt>
      <trkpt lat="49.19385" lon="1.63032">
        <ele>130.44654846191</ele>
        <time>2017-06-18T07:02:45.000Z</time>
      </trkpt>
      <trkpt lat="49.19406" lon="1.63061">
        <ele>129.2220916748</ele>
        <time>2017-06-18T07:02:48.000Z</time>
      </trkpt>
      <trkpt lat="49.19422" lon="1.63085">
        <ele>127.9588470459</ele>
        <time>2017-06-18T07:02:51.000Z</time>
      </trkpt>
      <trkpt lat="49.19427" lon="1.63084">
        <ele>126.91202545166</ele>
        <time>2017-06-18T07:02:53.000Z</time>
      </trkpt>
      <trkpt lat="49.19432" lon="1.63091">
        <ele>126.2498550415</ele>
        <time>2017-06-18T07:02:55.000Z</time>
      </trkpt>
      <trkpt lat="49.19436" lon="1.63098">
        <ele>126.26747894287</ele>
        <time>2017-06-18T07:02:58.000Z</time>
      </trkpt>
      <trkpt lat="49.1944" lon="1.63105">
        <ele>126.73574066162</ele>
        <time>2017-06-18T07:03:01.000Z</time>
      </trkpt>
      <trkpt lat="49.19445" lon="1.6311">
        <ele>127.32558441162</ele>
        <time>2017-06-18T07:03:04.000Z</time>
      </trkpt>
      <trkpt lat="49.1945" lon="1.63114">
        <ele>127.93691253662</ele>
        <time>2017-06-18T07:03:06.000Z</time>
      </trkpt>
      <trkpt lat="49.19455" lon="1.63116">
        <ele>128.5188293457</ele>
        <time>2017-06-18T07:03:08.000Z</time>
      </trkpt>
      <trkpt lat="49.19461" lon="1.63116">
        <ele>129.09741210938</ele>
        <time>2017-06-18T07:03:10.000Z</time>
      </trkpt>
      <trkpt lat="49.19467" lon="1.63115">
        <ele>129.65078735352</ele>
        <time>2017-06-18T07:03:13.000Z</time>
      </trkpt>
      <trkpt lat="49.19474" lon="1.63113">
        <ele>130.19758605957</ele>
        <time>2017-06-18T07:03:16.000Z</time>
      </trkpt>
      <trkpt lat="49.19477" lon="1.63112">
        <ele>130.70460510254</ele>
        <time>2017-06-18T07:03:18.000Z</time>
      </trkpt>
      <trkpt lat="49.19486" lon="1.63113">
        <ele>131.25434875488</ele>
        <time>2017-06-18T07:03:21.000Z</time>
      </trkpt>
      <trkpt lat="49.19493" lon="1.63116">
        <ele>131.84689331055</ele>
        <time>2017-06-18T07:03:24.000Z</time>
      </trkpt>
      <trkpt lat="49.19498" lon="1.63118">
        <ele>132.42922973633</ele>
        <time>2017-06-18T07:03:26.000Z</time>
      </trkpt>
      <trkpt lat="49.19501" lon="1.6312">
        <ele>132.96183776855</ele>
        <time>2017-06-18T07:03:28.000Z</time>
      </trkpt>
      <trkpt lat="49.19503" lon="1.63121">
        <ele>133.4425201416</ele>
        <time>2017-06-18T07:03:31.000Z</time>
      </trkpt>
      <trkpt lat="49.19505" lon="1.6312">
        <ele>133.76480102539</ele>
        <time>2017-06-18T07:03:34.000Z</time>
      </trkpt>
      <trkpt lat="49.19508" lon="1.63116">
        <ele>133.94284057617</ele>
        <time>2017-06-18T07:03:42.000Z</time>
      </trkpt>
      <trkpt lat="49.19508" lon="1.63116">
        <ele>133.94284057617</ele>
        <time>2017-06-18T07:03:52.000Z</time>
      </trkpt>
      <trkpt lat="49.19509" lon="1.63115">
        <ele>134.03143310547</ele>
        <time>2017-06-18T07:04:40.000Z</time>
      </trkpt>
      <trkpt lat="49.1951" lon="1.63116">
        <ele>134.07269287109</ele>
        <time>2017-06-18T07:04:45.000Z</time>
      </trkpt>
      <trkpt lat="49.1951" lon="1.63117">
        <ele>134.09942626953</ele>
        <time>2017-06-18T07:04:48.000Z</time>
      </trkpt>
      <trkpt lat="49.19506" lon="1.63124">
        <ele>134.13446044922</ele>
        <time>2017-06-18T07:04:51.000Z</time>
      </trkpt>
      <trkpt lat="49.19503" lon="1.6313">
        <ele>134.16741943359</ele>
        <time>2017-06-18T07:04:53.000Z</time>
      </trkpt>
      <trkpt lat="49.19501" lon="1.63132">
        <ele>134.18920898438</ele>
        <time>2017-06-18T07:04:55.000Z</time>
      </trkpt>
      <trkpt lat="49.19493" lon="1.63137">
        <ele>134.09423828125</ele>
        <time>2017-06-18T07:04:58.000Z</time>
      </trkpt>
      <trkpt lat="49.19482" lon="1.6315">
        <ele>133.87844848633</ele>
        <time>2017-06-18T07:05:01.000Z</time>
      </trkpt>
      <trkpt lat="49.19473" lon="1.63164">
        <ele>133.56607055664</ele>
        <time>2017-06-18T07:05:04.000Z</time>
      </trkpt>
      <trkpt lat="49.19465" lon="1.63174">
        <ele>133.13784790039</ele>
        <time>2017-06-18T07:05:07.000Z</time>
      </trkpt>
      <trkpt lat="49.19463" lon="1.63178">
        <ele>132.68778991699</ele>
        <time>2017-06-18T07:05:09.000Z</time>
      </trkpt>
      <trkpt lat="49.19461" lon="1.63184">
        <ele>132.3179473877</ele>
        <time>2017-06-18T07:05:12.000Z</time>
      </trkpt>
      <trkpt lat="49.1946" lon="1.6319">
        <ele>132.04943847656</ele>
        <time>2017-06-18T07:05:14.000Z</time>
      </trkpt>
      <trkpt lat="49.19458" lon="1.63198">
        <ele>131.85079956055</ele>
        <time>2017-06-18T07:05:16.000Z</time>
      </trkpt>
      <trkpt lat="49.19454" lon="1.63211">
        <ele>131.72415161133</ele>
        <time>2017-06-18T07:05:19.000Z</time>
      </trkpt>
      <trkpt lat="49.19449" lon="1.63227">
        <ele>131.56777954102</ele>
        <time>2017-06-18T07:05:22.000Z</time>
      </trkpt>
      <trkpt lat="49.19444" lon="1.6324">
        <ele>131.3854675293</ele>
        <time>2017-06-18T07:05:25.000Z</time>
      </trkpt>
      <trkpt lat="49.19438" lon="1.63255">
        <ele>131.17788696289</ele>
        <time>2017-06-18T07:05:28.000Z</time>
      </trkpt>
      <trkpt lat="49.19434" lon="1.63266">
        <ele>131.00199890137</ele>
        <time>2017-06-18T07:05:30.000Z</time>
      </trkpt>
      <trkpt lat="49.19429" lon="1.63285">
        <ele>130.92585754395</ele>
        <time>2017-06-18T07:05:33.000Z</time>
      </trkpt>
      <trkpt lat="49.19425" lon="1.633">
        <ele>130.95703125</ele>
        <time>2017-06-18T07:05:35.000Z</time>
      </trkpt>
      <trkpt lat="49.19418" lon="1.63316">
        <ele>131.07289123535</ele>
        <time>2017-06-18T07:05:38.000Z</time>
      </trkpt>
      <trkpt lat="49.19413" lon="1.63322">
        <ele>131.21018981934</ele>
        <time>2017-06-18T07:05:40.000Z</time>
      </trkpt>
      <trkpt lat="49.19407" lon="1.63332">
        <ele>131.34211730957</ele>
        <time>2017-06-18T07:05:43.000Z</time>
      </trkpt>
      <trkpt lat="49.19402" lon="1.63343">
        <ele>131.47708129883</ele>
        <time>2017-06-18T07:05:45.000Z</time>
      </trkpt>
      <trkpt lat="49.19397" lon="1.63362">
        <ele>131.70239257812</ele>
        <time>2017-06-18T07:05:48.000Z</time>
      </trkpt>
      <trkpt lat="49.19393" lon="1.63375">
        <ele>131.97914123535</ele>
        <time>2017-06-18T07:05:50.000Z</time>
      </trkpt>
      <trkpt lat="49.19384" lon="1.63395">
        <ele>132.37921142578</ele>
        <time>2017-06-18T07:05:53.000Z</time>
      </trkpt>
      <trkpt lat="49.19372" lon="1.63416">
        <ele>132.86096191406</ele>
        <time>2017-06-18T07:05:56.000Z</time>
      </trkpt>
      <trkpt lat="49.19365" lon="1.63427">
        <ele>133.22792053223</ele>
        <time>2017-06-18T07:05:58.000Z</time>
      </trkpt>
      <trkpt lat="49.19352" lon="1.63436">
        <ele>133.3420715332</ele>
        <time>2017-06-18T07:06:01.000Z</time>
      </trkpt>
      <trkpt lat="49.19343" lon="1.63443">
        <ele>133.27967834473</ele>
        <time>2017-06-18T07:06:03.000Z</time>
      </trkpt>
      <trkpt lat="49.19332" lon="1.63454">
        <ele>132.98384094238</ele>
        <time>2017-06-18T07:06:06.000Z</time>
      </trkpt>
      <trkpt lat="49.19323" lon="1.63466">
        <ele>132.45976257324</ele>
        <time>2017-06-18T07:06:08.000Z</time>
      </trkpt>
      <trkpt lat="49.19315" lon="1.63478">
        <ele>131.86331176758</ele>
        <time>2017-06-18T07:06:10.000Z</time>
      </trkpt>
      <trkpt lat="49.193" lon="1.6349">
        <ele>131.17300415039</ele>
        <time>2017-06-18T07:06:13.000Z</time>
      </trkpt>
      <trkpt lat="49.19285" lon="1.63505">
        <ele>130.30184936523</ele>
        <time>2017-06-18T07:06:16.000Z</time>
      </trkpt>
      <trkpt lat="49.19267" lon="1.63529">
        <ele>129.02494812012</ele>
        <time>2017-06-18T07:06:19.000Z</time>
      </trkpt>
      <trkpt lat="49.19258" lon="1.63543">
        <ele>127.59698486328</ele>
        <time>2017-06-18T07:06:21.000Z</time>
      </trkpt>
      <trkpt lat="49.19248" lon="1.63554">
        <ele>125.99835205078</ele>
        <time>2017-06-18T07:06:23.000Z</time>
      </trkpt>
      <trkpt lat="49.19233" lon="1.63572">
        <ele>124.16500091553</ele>
        <time>2017-06-18T07:06:26.000Z</time>
      </trkpt>
      <trkpt lat="49.19215" lon="1.63606">
        <ele>121.94863128662</ele>
        <time>2017-06-18T07:06:29.000Z</time>
      </trkpt>
      <trkpt lat="49.19204" lon="1.63634">
        <ele>119.77770996094</ele>
        <time>2017-06-18T07:06:31.000Z</time>
      </trkpt>
      <trkpt lat="49.19194" lon="1.63667">
        <ele>117.34336090088</ele>
        <time>2017-06-18T07:06:33.000Z</time>
      </trkpt>
      <trkpt lat="49.19187" lon="1.6369">
        <ele>114.98370361328</ele>
        <time>2017-06-18T07:06:35.000Z</time>
      </trkpt>
      <trkpt lat="49.19182" lon="1.63707">
        <ele>112.91186523438</ele>
        <time>2017-06-18T07:06:37.000Z</time>
      </trkpt>
      <trkpt lat="49.19176" lon="1.63721">
        <ele>111.35473632812</ele>
        <time>2017-06-18T07:06:40.000Z</time>
      </trkpt>
      <trkpt lat="49.19175" lon="1.63727">
        <ele>110.23284912109</ele>
        <time>2017-06-18T07:06:42.000Z</time>
      </trkpt>
      <trkpt lat="49.19175" lon="1.63735">
        <ele>109.61663818359</ele>
        <time>2017-06-18T07:06:44.000Z</time>
      </trkpt>
      <trkpt lat="49.19174" lon="1.63741">
        <ele>109.18752288818</ele>
        <time>2017-06-18T07:06:47.000Z</time>
      </trkpt>
      <trkpt lat="49.19173" lon="1.63738">
        <ele>108.92486572266</ele>
        <time>2017-06-18T07:06:49.000Z</time>
      </trkpt>
      <trkpt lat="49.19173" lon="1.63735">
        <ele>108.80760192871</ele>
        <time>2017-06-18T07:06:51.000Z</time>
      </trkpt>
      <trkpt lat="49.19172" lon="1.63731">
        <ele>108.74955749512</ele>
        <time>2017-06-18T07:06:54.000Z</time>
      </trkpt>
      <trkpt lat="49.1917" lon="1.63729">
        <ele>108.72597503662</ele>
        <time>2017-06-18T07:06:57.000Z</time>
      </trkpt>
      <trkpt lat="49.19168" lon="1.63724">
        <ele>108.7367401123</ele>
        <time>2017-06-18T07:07:00.000Z</time>
      </trkpt>
      <trkpt lat="49.19165" lon="1.63718">
        <ele>108.74914550781</ele>
        <time>2017-06-18T07:07:03.000Z</time>
      </trkpt>
      <trkpt lat="49.19163" lon="1.63714">
        <ele>108.78398132324</ele>
        <time>2017-06-18T07:07:05.000Z</time>
      </trkpt>
      <trkpt lat="49.19162" lon="1.6371">
        <ele>108.83436584473</ele>
        <time>2017-06-18T07:07:07.000Z</time>
      </trkpt>
      <trkpt lat="49.1916" lon="1.63706">
        <ele>108.91691589355</ele>
        <time>2017-06-18T07:07:09.000Z</time>
      </trkpt>
      <trkpt lat="49.19159" lon="1.63703">
        <ele>109.01619720459</ele>
        <time>2017-06-18T07:07:11.000Z</time>
      </trkpt>
      <trkpt lat="49.19159" lon="1.63703">
        <ele>109.01619720459</ele>
        <time>2017-06-18T07:07:21.000Z</time>
      </trkpt>
      <trkpt lat="49.19159" lon="1.637">
        <ele>109.11385345459</ele>
        <time>2017-06-18T07:07:28.000Z</time>
      </trkpt>
      <trkpt lat="49.19156" lon="1.6369">
        <ele>109.23216247559</ele>
        <time>2017-06-18T07:07:31.000Z</time>
      </trkpt>
      <trkpt lat="49.19153" lon="1.63683">
        <ele>109.36165618896</ele>
        <time>2017-06-18T07:07:33.000Z</time>
      </trkpt>
      <trkpt lat="49.19149" lon="1.63675">
        <ele>109.50461578369</ele>
        <time>2017-06-18T07:07:35.000Z</time>
      </trkpt>
      <trkpt lat="49.19145" lon="1.63661">
        <ele>109.71296691895</ele>
        <time>2017-06-18T07:07:38.000Z</time>
      </trkpt>
      <trkpt lat="49.19142" lon="1.63651">
        <ele>110.00007629395</ele>
        <time>2017-06-18T07:07:40.000Z</time>
      </trkpt>
      <trkpt lat="49.19138" lon="1.63641">
        <ele>110.31687927246</ele>
        <time>2017-06-18T07:07:42.000Z</time>
      </trkpt>
      <trkpt lat="49.19131" lon="1.63626">
        <ele>110.70227050781</ele>
        <time>2017-06-18T07:07:45.000Z</time>
      </trkpt>
      <trkpt lat="49.19125" lon="1.63609">
        <ele>111.14907073975</ele>
        <time>2017-06-18T07:07:48.000Z</time>
      </trkpt>
      <trkpt lat="49.1912" lon="1.63596">
        <ele>111.56589508057</ele>
        <time>2017-06-18T07:07:50.000Z</time>
      </trkpt>
      <trkpt lat="49.19112" lon="1.63574">
        <ele>111.93113708496</ele>
        <time>2017-06-18T07:07:53.000Z</time>
      </trkpt>
      <trkpt lat="49.19106" lon="1.6356">
        <ele>112.19731140137</ele>
        <time>2017-06-18T07:07:55.000Z</time>
      </trkpt>
      <trkpt lat="49.19098" lon="1.6354">
        <ele>112.29543304443</ele>
        <time>2017-06-18T07:07:58.000Z</time>
      </trkpt>
      <trkpt lat="49.19093" lon="1.63527">
        <ele>112.23545074463</ele>
        <time>2017-06-18T07:08:00.000Z</time>
      </trkpt>
      <trkpt lat="49.19087" lon="1.63513">
        <ele>112.03733062744</ele>
        <time>2017-06-18T07:08:02.000Z</time>
      </trkpt>
      <trkpt lat="49.19079" lon="1.63492">
        <ele>111.788230896</ele>
        <time>2017-06-18T07:08:05.000Z</time>
      </trkpt>
      <trkpt lat="49.19075" lon="1.63478">
        <ele>111.65456390381</ele>
        <time>2017-06-18T07:08:07.000Z</time>
      </trkpt>
      <trkpt lat="49.19069" lon="1.63458">
        <ele>111.73651123047</ele>
        <time>2017-06-18T07:08:10.000Z</time>
      </trkpt>
      <trkpt lat="49.19065" lon="1.63447">
        <ele>111.98166656494</ele>
        <time>2017-06-18T07:08:12.000Z</time>
      </trkpt>
      <trkpt lat="49.1906" lon="1.63434">
        <ele>112.43418121338</ele>
        <time>2017-06-18T07:08:15.000Z</time>
      </trkpt>
      <trkpt lat="49.19058" lon="1.63428">
        <ele>112.95104980469</ele>
        <time>2017-06-18T07:08:17.000Z</time>
      </trkpt>
      <trkpt lat="49.19056" lon="1.63423">
        <ele>113.42879486084</ele>
        <time>2017-06-18T07:08:19.000Z</time>
      </trkpt>
      <trkpt lat="49.19053" lon="1.63417">
        <ele>113.82238769531</ele>
        <time>2017-06-18T07:08:22.000Z</time>
      </trkpt>
      <trkpt lat="49.19051" lon="1.63415">
        <ele>114.14933013916</ele>
        <time>2017-06-18T07:08:25.000Z</time>
      </trkpt>
      <trkpt lat="49.19051" lon="1.63415">
        <ele>114.14933013916</ele>
        <time>2017-06-18T07:08:35.000Z</time>
      </trkpt>
      <trkpt lat="49.19051" lon="1.63417">
        <ele>114.33251953125</ele>
        <time>2017-06-18T07:08:40.000Z</time>
      </trkpt>
      <trkpt lat="49.19046" lon="1.63414">
        <ele>114.53826904297</ele>
        <time>2017-06-18T07:08:43.000Z</time>
      </trkpt>
      <trkpt lat="49.19039" lon="1.63413">
        <ele>114.76657867432</ele>
        <time>2017-06-18T07:08:46.000Z</time>
      </trkpt>
      <trkpt lat="49.19036" lon="1.63411">
        <ele>114.97550201416</ele>
        <time>2017-06-18T07:08:48.000Z</time>
      </trkpt>
      <trkpt lat="49.19031" lon="1.63412">
        <ele>115.18829345703</ele>
        <time>2017-06-18T07:08:50.000Z</time>
      </trkpt>
      <trkpt lat="49.19023" lon="1.63417">
        <ele>115.46547698975</ele>
        <time>2017-06-18T07:08:53.000Z</time>
      </trkpt>
      <trkpt lat="49.19016" lon="1.63417">
        <ele>115.73360443115</ele>
        <time>2017-06-18T07:08:56.000Z</time>
      </trkpt>
      <trkpt lat="49.19011" lon="1.63416">
        <ele>115.97930908203</ele>
        <time>2017-06-18T07:08:58.000Z</time>
      </trkpt>
      <trkpt lat="49.19004" lon="1.63417">
        <ele>116.237449646</ele>
        <time>2017-06-18T07:09:01.000Z</time>
      </trkpt>
      <trkpt lat="49.18997" lon="1.63418">
        <ele>116.53645324707</ele>
        <time>2017-06-18T07:09:04.000Z</time>
      </trkpt>
      <trkpt lat="49.18991" lon="1.63418">
        <ele>116.92024993896</ele>
        <time>2017-06-18T07:09:07.000Z</time>
      </trkpt>
      <trkpt lat="49.18985" lon="1.63417">
        <ele>117.36442565918</ele>
        <time>2017-06-18T07:09:10.000Z</time>
      </trkpt>
      <trkpt lat="49.18978" lon="1.63416">
        <ele>117.88114929199</ele>
        <time>2017-06-18T07:09:13.000Z</time>
      </trkpt>
      <trkpt lat="49.18973" lon="1.63417">
        <ele>118.43900299072</ele>
        <time>2017-06-18T07:09:16.000Z</time>
      </trkpt>
      <trkpt lat="49.18967" lon="1.63418">
        <ele>119.03524017334</ele>
        <time>2017-06-18T07:09:19.000Z</time>
      </trkpt>
      <trkpt lat="49.18963" lon="1.63418">
        <ele>119.5758895874</ele>
        <time>2017-06-18T07:09:21.000Z</time>
      </trkpt>
      <trkpt lat="49.18958" lon="1.63417">
        <ele>120.0795135498</ele>
        <time>2017-06-18T07:09:23.000Z</time>
      </trkpt>
      <trkpt lat="49.18953" lon="1.63417">
        <ele>120.56617736816</ele>
        <time>2017-06-18T07:09:26.000Z</time>
      </trkpt>
      <trkpt lat="49.18948" lon="1.63418">
        <ele>121.03035736084</ele>
        <time>2017-06-18T07:09:28.000Z</time>
      </trkpt>
      <trkpt lat="49.18943" lon="1.63418">
        <ele>121.47916412354</ele>
        <time>2017-06-18T07:09:30.000Z</time>
      </trkpt>
      <trkpt lat="49.18937" lon="1.63418">
        <ele>121.9736328125</ele>
        <time>2017-06-18T07:09:33.000Z</time>
      </trkpt>
      <trkpt lat="49.18932" lon="1.63418">
        <ele>122.47414398193</ele>
        <time>2017-06-18T07:09:35.000Z</time>
      </trkpt>
      <trkpt lat="49.18927" lon="1.63418">
        <ele>122.96823883057</ele>
        <time>2017-06-18T07:09:37.000Z</time>
      </trkpt>
      <trkpt lat="49.1892" lon="1.63417">
        <ele>123.52662658691</ele>
        <time>2017-06-18T07:09:40.000Z</time>
      </trkpt>
      <trkpt lat="49.18914" lon="1.63418">
        <ele>124.08644104004</ele>
        <time>2017-06-18T07:09:43.000Z</time>
      </trkpt>
      <trkpt lat="49.18912" lon="1.63418">
        <ele>124.56337738037</ele>
        <time>2017-06-18T07:09:45.000Z</time>
      </trkpt>
      <trkpt lat="49.18909" lon="1.63416">
        <ele>125.00532531738</ele>
        <time>2017-06-18T07:09:48.000Z</time>
      </trkpt>
      <trkpt lat="49.18906" lon="1.63416">
        <ele>125.39179992676</ele>
        <time>2017-06-18T07:09:50.000Z</time>
      </trkpt>
      <trkpt lat="49.18902" lon="1.63416">
        <ele>125.69515228271</ele>
        <time>2017-06-18T07:09:52.000Z</time>
      </trkpt>
      <trkpt lat="49.18897" lon="1.63416">
        <ele>125.97680664062</ele>
        <time>2017-06-18T07:09:54.000Z</time>
      </trkpt>
      <trkpt lat="49.18892" lon="1.63415">
        <ele>126.3193359375</ele>
        <time>2017-06-18T07:09:57.000Z</time>
      </trkpt>
      <trkpt lat="49.18889" lon="1.63414">
        <ele>126.65971374512</ele>
        <time>2017-06-18T07:09:59.000Z</time>
      </trkpt>
      <trkpt lat="49.18885" lon="1.63413">
        <ele>127.01892089844</ele>
        <time>2017-06-18T07:10:01.000Z</time>
      </trkpt>
      <trkpt lat="49.18878" lon="1.63414">
        <ele>127.4312286377</ele>
        <time>2017-06-18T07:10:04.000Z</time>
      </trkpt>
      <trkpt lat="49.1887" lon="1.63415">
        <ele>127.90010070801</ele>
        <time>2017-06-18T07:10:07.000Z</time>
      </trkpt>
      <trkpt lat="49.1886" lon="1.63414">
        <ele>128.4348449707</ele>
        <time>2017-06-18T07:10:10.000Z</time>
      </trkpt>
      <trkpt lat="49.18852" lon="1.63414">
        <ele>129.04829406738</ele>
        <time>2017-06-18T07:10:13.000Z</time>
      </trkpt>
      <trkpt lat="49.18847" lon="1.63416">
        <ele>129.67747497559</ele>
        <time>2017-06-18T07:10:15.000Z</time>
      </trkpt>
      <trkpt lat="49.1884" lon="1.63416">
        <ele>130.31098937988</ele>
        <time>2017-06-18T07:10:18.000Z</time>
      </trkpt>
      <trkpt lat="49.18831" lon="1.63412">
        <ele>130.9319152832</ele>
        <time>2017-06-18T07:10:21.000Z</time>
      </trkpt>
      <trkpt lat="49.18824" lon="1.6341">
        <ele>131.41398620605</ele>
        <time>2017-06-18T07:10:23.000Z</time>
      </trkpt>
      <trkpt lat="49.18812" lon="1.63409">
        <ele>131.79086303711</ele>
        <time>2017-06-18T07:10:26.000Z</time>
      </trkpt>
      <trkpt lat="49.18801" lon="1.63408">
        <ele>132.11181640625</ele>
        <time>2017-06-18T07:10:29.000Z</time>
      </trkpt>
      <trkpt lat="49.18795" lon="1.6341">
        <ele>132.32821655273</ele>
        <time>2017-06-18T07:10:31.000Z</time>
      </trkpt>
      <trkpt lat="49.18789" lon="1.63413">
        <ele>132.4280090332</ele>
        <time>2017-06-18T07:10:33.000Z</time>
      </trkpt>
      <trkpt lat="49.18779" lon="1.63415">
        <ele>132.52212524414</ele>
        <time>2017-06-18T07:10:36.000Z</time>
      </trkpt>
      <trkpt lat="49.18771" lon="1.63417">
        <ele>132.6021270752</ele>
        <time>2017-06-18T07:10:38.000Z</time>
      </trkpt>
      <trkpt lat="49.18757" lon="1.63421">
        <ele>132.66986083984</ele>
        <time>2017-06-18T07:10:41.000Z</time>
      </trkpt>
      <trkpt lat="49.18745" lon="1.63424">
        <ele>132.68807983398</ele>
        <time>2017-06-18T07:10:44.000Z</time>
      </trkpt>
      <trkpt lat="49.18738" lon="1.63425">
        <ele>132.64259338379</ele>
        <time>2017-06-18T07:10:46.000Z</time>
      </trkpt>
      <trkpt lat="49.18731" lon="1.63427">
        <ele>132.52407836914</ele>
        <time>2017-06-18T07:10:48.000Z</time>
      </trkpt>
      <trkpt lat="49.18718" lon="1.63429">
        <ele>132.2811126709</ele>
        <time>2017-06-18T07:10:51.000Z</time>
      </trkpt>
      <trkpt lat="49.1871" lon="1.63432">
        <ele>131.95678710938</ele>
        <time>2017-06-18T07:10:53.000Z</time>
      </trkpt>
      <trkpt lat="49.18699" lon="1.63437">
        <ele>131.56616210938</ele>
        <time>2017-06-18T07:10:56.000Z</time>
      </trkpt>
      <trkpt lat="49.18687" lon="1.63441">
        <ele>131.1201171875</ele>
        <time>2017-06-18T07:10:59.000Z</time>
      </trkpt>
      <trkpt lat="49.18675" lon="1.63449">
        <ele>130.61395263672</ele>
        <time>2017-06-18T07:11:02.000Z</time>
      </trkpt>
      <trkpt lat="49.18667" lon="1.63452">
        <ele>130.14233398438</ele>
        <time>2017-06-18T07:11:04.000Z</time>
      </trkpt>
      <trkpt lat="49.18658" lon="1.63456">
        <ele>129.642578125</ele>
        <time>2017-06-18T07:11:06.000Z</time>
      </trkpt>
      <trkpt lat="49.18645" lon="1.63462">
        <ele>129.1142578125</ele>
        <time>2017-06-18T07:11:09.000Z</time>
      </trkpt>
      <trkpt lat="49.18632" lon="1.6347">
        <ele>128.57502746582</ele>
        <time>2017-06-18T07:11:12.000Z</time>
      </trkpt>
      <trkpt lat="49.18622" lon="1.63474">
        <ele>128.0788269043</ele>
        <time>2017-06-18T07:11:14.000Z</time>
      </trkpt>
      <trkpt lat="49.18607" lon="1.63481">
        <ele>127.54921722412</ele>
        <time>2017-06-18T07:11:17.000Z</time>
      </trkpt>
      <trkpt lat="49.18596" lon="1.63486">
        <ele>127.05153656006</ele>
        <time>2017-06-18T07:11:19.000Z</time>
      </trkpt>
      <trkpt lat="49.18579" lon="1.63495">
        <ele>126.58846282959</ele>
        <time>2017-06-18T07:11:22.000Z</time>
      </trkpt>
      <trkpt lat="49.18567" lon="1.63501">
        <ele>126.13791656494</ele>
        <time>2017-06-18T07:11:24.000Z</time>
      </trkpt>
      <trkpt lat="49.18549" lon="1.6351">
        <ele>125.57578277588</ele>
        <time>2017-06-18T07:11:27.000Z</time>
      </trkpt>
      <trkpt lat="49.18532" lon="1.63518">
        <ele>124.93326568604</ele>
        <time>2017-06-18T07:11:30.000Z</time>
      </trkpt>
      <trkpt lat="49.1852" lon="1.63525">
        <ele>124.2290802002</ele>
        <time>2017-06-18T07:11:32.000Z</time>
      </trkpt>
      <trkpt lat="49.18509" lon="1.63533">
        <ele>123.49057769775</ele>
        <time>2017-06-18T07:11:34.000Z</time>
      </trkpt>
      <trkpt lat="49.18491" lon="1.63546">
        <ele>122.5496673584</ele>
        <time>2017-06-18T07:11:37.000Z</time>
      </trkpt>
      <trkpt lat="49.18474" lon="1.63563">
        <ele>121.43775939941</ele>
        <time>2017-06-18T07:11:40.000Z</time>
      </trkpt>
      <trkpt lat="49.18457" lon="1.6358">
        <ele>120.23889160156</ele>
        <time>2017-06-18T07:11:43.000Z</time>
      </trkpt>
      <trkpt lat="49.18446" lon="1.63589">
        <ele>119.03350830078</ele>
        <time>2017-06-18T07:11:45.000Z</time>
      </trkpt>
      <trkpt lat="49.18428" lon="1.6359">
        <ele>117.68253326416</ele>
        <time>2017-06-18T07:11:48.000Z</time>
      </trkpt>
      <trkpt lat="49.18417" lon="1.63585">
        <ele>116.40769195557</ele>
        <time>2017-06-18T07:11:50.000Z</time>
      </trkpt>
      <trkpt lat="49.18402" lon="1.6358">
        <ele>115.19787597656</ele>
        <time>2017-06-18T07:11:53.000Z</time>
      </trkpt>
      <trkpt lat="49.18395" lon="1.63586">
        <ele>114.19462585449</ele>
        <time>2017-06-18T07:11:55.000Z</time>
      </trkpt>
      <trkpt lat="49.18386" lon="1.63592">
        <ele>113.22703552246</ele>
        <time>2017-06-18T07:11:57.000Z</time>
      </trkpt>
      <trkpt lat="49.18373" lon="1.63606">
        <ele>112.42490386963</ele>
        <time>2017-06-18T07:12:00.000Z</time>
      </trkpt>
      <trkpt lat="49.18365" lon="1.63629">
        <ele>111.90586090088</ele>
        <time>2017-06-18T07:12:03.000Z</time>
      </trkpt>
      <trkpt lat="49.18357" lon="1.63648">
        <ele>111.69504547119</ele>
        <time>2017-06-18T07:12:06.000Z</time>
      </trkpt>
      <trkpt lat="49.18349" lon="1.63667">
        <ele>111.54396057129</ele>
        <time>2017-06-18T07:12:09.000Z</time>
      </trkpt>
      <trkpt lat="49.18348" lon="1.63693">
        <ele>111.61769104004</ele>
        <time>2017-06-18T07:12:12.000Z</time>
      </trkpt>
      <trkpt lat="49.18348" lon="1.63717">
        <ele>111.96547698975</ele>
        <time>2017-06-18T07:12:15.000Z</time>
      </trkpt>
      <trkpt lat="49.18349" lon="1.63741">
        <ele>112.44599914551</ele>
        <time>2017-06-18T07:12:18.000Z</time>
      </trkpt>
      <trkpt lat="49.18349" lon="1.63765">
        <ele>113.02380371094</ele>
        <time>2017-06-18T07:12:21.000Z</time>
      </trkpt>
      <trkpt lat="49.18344" lon="1.63787">
        <ele>113.63185882568</ele>
        <time>2017-06-18T07:12:24.000Z</time>
      </trkpt>
      <trkpt lat="49.1834" lon="1.63801">
        <ele>114.1266708374</ele>
        <time>2017-06-18T07:12:26.000Z</time>
      </trkpt>
      <trkpt lat="49.18334" lon="1.6382">
        <ele>114.47369384766</ele>
        <time>2017-06-18T07:12:29.000Z</time>
      </trkpt>
      <trkpt lat="49.18331" lon="1.6383">
        <ele>114.6403427124</ele>
        <time>2017-06-18T07:12:31.000Z</time>
      </trkpt>
      <trkpt lat="49.18325" lon="1.63844">
        <ele>114.65124511719</ele>
        <time>2017-06-18T07:12:34.000Z</time>
      </trkpt>
      <trkpt lat="49.1832" lon="1.63861">
        <ele>114.61756896973</ele>
        <time>2017-06-18T07:12:37.000Z</time>
      </trkpt>
      <trkpt lat="49.18316" lon="1.63878">
        <ele>114.58964538574</ele>
        <time>2017-06-18T07:12:40.000Z</time>
      </trkpt>
      <trkpt lat="49.18312" lon="1.63895">
        <ele>114.57975006104</ele>
        <time>2017-06-18T07:12:43.000Z</time>
      </trkpt>
      <trkpt lat="49.18307" lon="1.63909">
        <ele>114.60276794434</ele>
        <time>2017-06-18T07:12:46.000Z</time>
      </trkpt>
      <trkpt lat="49.18305" lon="1.63919">
        <ele>114.693359375</ele>
        <time>2017-06-18T07:12:48.000Z</time>
      </trkpt>
      <trkpt lat="49.18301" lon="1.63934">
        <ele>114.79111480713</ele>
        <time>2017-06-18T07:12:51.000Z</time>
      </trkpt>
      <trkpt lat="49.18292" lon="1.63948">
        <ele>114.82643890381</ele>
        <time>2017-06-18T07:12:54.000Z</time>
      </trkpt>
      <trkpt lat="49.1828" lon="1.63954">
        <ele>114.76298522949</ele>
        <time>2017-06-18T07:12:57.000Z</time>
      </trkpt>
      <trkpt lat="49.18269" lon="1.63957">
        <ele>114.60262298584</ele>
        <time>2017-06-18T07:13:00.000Z</time>
      </trkpt>
      <trkpt lat="49.18259" lon="1.63957">
        <ele>114.3536529541</ele>
        <time>2017-06-18T07:13:03.000Z</time>
      </trkpt>
      <trkpt lat="49.18252" lon="1.63955">
        <ele>114.07625579834</ele>
        <time>2017-06-18T07:13:05.000Z</time>
      </trkpt>
      <trkpt lat="49.18241" lon="1.63953">
        <ele>113.85217285156</ele>
        <time>2017-06-18T07:13:08.000Z</time>
      </trkpt>
      <trkpt lat="49.18229" lon="1.63951">
        <ele>113.72448730469</ele>
        <time>2017-06-18T07:13:11.000Z</time>
      </trkpt>
      <trkpt lat="49.18216" lon="1.63948">
        <ele>113.68464660645</ele>
        <time>2017-06-18T07:13:14.000Z</time>
      </trkpt>
      <trkpt lat="49.18206" lon="1.63944">
        <ele>113.70513916016</ele>
        <time>2017-06-18T07:13:16.000Z</time>
      </trkpt>
      <trkpt lat="49.18192" lon="1.63931">
        <ele>113.7075958252</ele>
        <time>2017-06-18T07:13:19.000Z</time>
      </trkpt>
      <trkpt lat="49.18182" lon="1.63927">
        <ele>113.67970275879</ele>
        <time>2017-06-18T07:13:21.000Z</time>
      </trkpt>
      <trkpt lat="49.18171" lon="1.63934">
        <ele>113.69641113281</ele>
        <time>2017-06-18T07:13:24.000Z</time>
      </trkpt>
      <trkpt lat="49.18163" lon="1.63945">
        <ele>113.77996826172</ele>
        <time>2017-06-18T07:13:27.000Z</time>
      </trkpt>
      <trkpt lat="49.18156" lon="1.63952">
        <ele>113.92765045166</ele>
        <time>2017-06-18T07:13:29.000Z</time>
      </trkpt>
      <trkpt lat="49.18148" lon="1.63961">
        <ele>114.22863769531</ele>
        <time>2017-06-18T07:13:32.000Z</time>
      </trkpt>
      <trkpt lat="49.18139" lon="1.63969">
        <ele>114.64622497559</ele>
        <time>2017-06-18T07:13:35.000Z</time>
      </trkpt>
      <trkpt lat="49.18131" lon="1.63977">
        <ele>115.11930084229</ele>
        <time>2017-06-18T07:13:38.000Z</time>
      </trkpt>
      <trkpt lat="49.18127" lon="1.63984">
        <ele>115.60815429688</ele>
        <time>2017-06-18T07:13:40.000Z</time>
      </trkpt>
      <trkpt lat="49.18122" lon="1.63993">
        <ele>116.2017364502</ele>
        <time>2017-06-18T07:13:43.000Z</time>
      </trkpt>
      <trkpt lat="49.18116" lon="1.64004">
        <ele>116.84907531738</ele>
        <time>2017-06-18T07:13:46.000Z</time>
      </trkpt>
      <trkpt lat="49.18108" lon="1.64016">
        <ele>117.48524475098</ele>
        <time>2017-06-18T07:13:49.000Z</time>
      </trkpt>
      <trkpt lat="49.18102" lon="1.64024">
        <ele>118.06613922119</ele>
        <time>2017-06-18T07:13:51.000Z</time>
      </trkpt>
      <trkpt lat="49.18096" lon="1.64039">
        <ele>118.66889953613</ele>
        <time>2017-06-18T07:13:54.000Z</time>
      </trkpt>
      <trkpt lat="49.18092" lon="1.64052">
        <ele>119.22924804688</ele>
        <time>2017-06-18T07:13:57.000Z</time>
      </trkpt>
      <trkpt lat="49.18087" lon="1.6406">
        <ele>119.756690979</ele>
        <time>2017-06-18T07:13:59.000Z</time>
      </trkpt>
      <trkpt lat="49.18079" lon="1.64071">
        <ele>120.29557800293</ele>
        <time>2017-06-18T07:14:02.000Z</time>
      </trkpt>
      <trkpt lat="49.18073" lon="1.64087">
        <ele>120.81774902344</ele>
        <time>2017-06-18T07:14:05.000Z</time>
      </trkpt>
      <trkpt lat="49.18064" lon="1.64102">
        <ele>121.16318511963</ele>
        <time>2017-06-18T07:14:08.000Z</time>
      </trkpt>
      <trkpt lat="49.18059" lon="1.64113">
        <ele>121.37978363037</ele>
        <time>2017-06-18T07:14:10.000Z</time>
      </trkpt>
      <trkpt lat="49.18054" lon="1.64132">
        <ele>121.51168060303</ele>
        <time>2017-06-18T07:14:13.000Z</time>
      </trkpt>
      <trkpt lat="49.18047" lon="1.64147">
        <ele>121.61977386475</ele>
        <time>2017-06-18T07:14:16.000Z</time>
      </trkpt>
      <trkpt lat="49.18042" lon="1.64157">
        <ele>121.74839782715</ele>
        <time>2017-06-18T07:14:19.000Z</time>
      </trkpt>
      <trkpt lat="49.18038" lon="1.64165">
        <ele>121.99052429199</ele>
        <time>2017-06-18T07:14:21.000Z</time>
      </trkpt>
      <trkpt lat="49.18034" lon="1.64173">
        <ele>122.29756164551</ele>
        <time>2017-06-18T07:14:23.000Z</time>
      </trkpt>
      <trkpt lat="49.18026" lon="1.64186">
        <ele>122.69606781006</ele>
        <time>2017-06-18T07:14:26.000Z</time>
      </trkpt>
      <trkpt lat="49.18019" lon="1.64198">
        <ele>123.1407623291</ele>
        <time>2017-06-18T07:14:29.000Z</time>
      </trkpt>
      <trkpt lat="49.18015" lon="1.64207">
        <ele>123.59837341309</ele>
        <time>2017-06-18T07:14:31.000Z</time>
      </trkpt>
      <trkpt lat="49.18013" lon="1.64216">
        <ele>124.06093597412</ele>
        <time>2017-06-18T07:14:33.000Z</time>
      </trkpt>
      <trkpt lat="49.18008" lon="1.6423">
        <ele>124.60693359375</ele>
        <time>2017-06-18T07:14:36.000Z</time>
      </trkpt>
      <trkpt lat="49.18002" lon="1.64243">
        <ele>125.21938323975</ele>
        <time>2017-06-18T07:14:39.000Z</time>
      </trkpt>
      <trkpt lat="49.17998" lon="1.64252">
        <ele>125.81214904785</ele>
        <time>2017-06-18T07:14:41.000Z</time>
      </trkpt>
      <trkpt lat="49.1799" lon="1.64264">
        <ele>126.45328521729</ele>
        <time>2017-06-18T07:14:44.000Z</time>
      </trkpt>
      <trkpt lat="49.17981" lon="1.64277">
        <ele>127.17695617676</ele>
        <time>2017-06-18T07:14:47.000Z</time>
      </trkpt>
      <trkpt lat="49.17976" lon="1.64281">
        <ele>127.81699371338</ele>
        <time>2017-06-18T07:14:49.000Z</time>
      </trkpt>
      <trkpt lat="49.17971" lon="1.64286">
        <ele>128.3392791748</ele>
        <time>2017-06-18T07:14:51.000Z</time>
      </trkpt>
      <trkpt lat="49.17963" lon="1.64294">
        <ele>128.87005615234</ele>
        <time>2017-06-18T07:14:54.000Z</time>
      </trkpt>
      <trkpt lat="49.1796" lon="1.64298">
        <ele>129.31645202637</ele>
        <time>2017-06-18T07:14:56.000Z</time>
      </trkpt>
      <trkpt lat="49.17954" lon="1.64301">
        <ele>129.66401672363</ele>
        <time>2017-06-18T07:14:59.000Z</time>
      </trkpt>
      <trkpt lat="49.17949" lon="1.64301">
        <ele>129.97232055664</ele>
        <time>2017-06-18T07:15:01.000Z</time>
      </trkpt>
      <trkpt lat="49.17938" lon="1.64303">
        <ele>130.28295898438</ele>
        <time>2017-06-18T07:15:04.000Z</time>
      </trkpt>
      <trkpt lat="49.17928" lon="1.64308">
        <ele>130.57821655273</ele>
        <time>2017-06-18T07:15:07.000Z</time>
      </trkpt>
      <trkpt lat="49.17919" lon="1.64313">
        <ele>130.91082763672</ele>
        <time>2017-06-18T07:15:10.000Z</time>
      </trkpt>
      <trkpt lat="49.1791" lon="1.64315">
        <ele>131.14753723145</ele>
        <time>2017-06-18T07:15:13.000Z</time>
      </trkpt>
      <trkpt lat="49.17905" lon="1.64315">
        <ele>131.29725646973</ele>
        <time>2017-06-18T07:15:15.000Z</time>
      </trkpt>
      <trkpt lat="49.17896" lon="1.64315">
        <ele>131.28042602539</ele>
        <time>2017-06-18T07:15:17.000Z</time>
      </trkpt>
      <trkpt lat="49.17887" lon="1.64321">
        <ele>131.15411376953</ele>
        <time>2017-06-18T07:15:20.000Z</time>
      </trkpt>
      <trkpt lat="49.17878" lon="1.64332">
        <ele>131.01274108887</ele>
        <time>2017-06-18T07:15:23.000Z</time>
      </trkpt>
      <trkpt lat="49.17871" lon="1.64339">
        <ele>130.90246582031</ele>
        <time>2017-06-18T07:15:25.000Z</time>
      </trkpt>
      <trkpt lat="49.17865" lon="1.64353">
        <ele>130.8726348877</ele>
        <time>2017-06-18T07:15:28.000Z</time>
      </trkpt>
      <trkpt lat="49.1786" lon="1.6436">
        <ele>130.9400177002</ele>
        <time>2017-06-18T07:15:30.000Z</time>
      </trkpt>
      <trkpt lat="49.17854" lon="1.64372">
        <ele>131.04711914062</ele>
        <time>2017-06-18T07:15:33.000Z</time>
      </trkpt>
      <trkpt lat="49.17849" lon="1.64379">
        <ele>131.08470153809</ele>
        <time>2017-06-18T07:15:35.000Z</time>
      </trkpt>
      <trkpt lat="49.17844" lon="1.64387">
        <ele>131.14538574219</ele>
        <time>2017-06-18T07:15:38.000Z</time>
      </trkpt>
      <trkpt lat="49.17844" lon="1.64394">
        <ele>131.23698425293</ele>
        <time>2017-06-18T07:15:41.000Z</time>
      </trkpt>
      <trkpt lat="49.17843" lon="1.64399">
        <ele>131.35690307617</ele>
        <time>2017-06-18T07:15:43.000Z</time>
      </trkpt>
      <trkpt lat="49.17843" lon="1.644">
        <ele>131.46200561523</ele>
        <time>2017-06-18T07:15:45.000Z</time>
      </trkpt>
      <trkpt lat="49.17843" lon="1.64404">
        <ele>131.5838470459</ele>
        <time>2017-06-18T07:15:48.000Z</time>
      </trkpt>
      <trkpt lat="49.17844" lon="1.64412">
        <ele>131.74813842773</ele>
        <time>2017-06-18T07:15:51.000Z</time>
      </trkpt>
      <trkpt lat="49.17844" lon="1.64414">
        <ele>131.88061523438</ele>
        <time>2017-06-18T07:15:53.000Z</time>
      </trkpt>
      <trkpt lat="49.17843" lon="1.64412">
        <ele>131.96937561035</ele>
        <time>2017-06-18T07:16:00.000Z</time>
      </trkpt>
      <trkpt lat="49.17841" lon="1.6441">
        <ele>132.01960754395</ele>
        <time>2017-06-18T07:16:02.000Z</time>
      </trkpt>
      <trkpt lat="49.17838" lon="1.64405">
        <ele>131.99932861328</ele>
        <time>2017-06-18T07:16:05.000Z</time>
      </trkpt>
      <trkpt lat="49.17828" lon="1.64396">
        <ele>131.73713684082</ele>
        <time>2017-06-18T07:16:08.000Z</time>
      </trkpt>
      <trkpt lat="49.17815" lon="1.64387">
        <ele>131.12788391113</ele>
        <time>2017-06-18T07:16:11.000Z</time>
      </trkpt>
      <trkpt lat="49.17802" lon="1.6439">
        <ele>130.30581665039</ele>
        <time>2017-06-18T07:16:14.000Z</time>
      </trkpt>
      <trkpt lat="49.17796" lon="1.64397">
        <ele>129.44941711426</ele>
        <time>2017-06-18T07:16:16.000Z</time>
      </trkpt>
      <trkpt lat="49.17791" lon="1.64407">
        <ele>128.62829589844</ele>
        <time>2017-06-18T07:16:19.000Z</time>
      </trkpt>
      <trkpt lat="49.17788" lon="1.6441">
        <ele>127.96557617188</ele>
        <time>2017-06-18T07:16:21.000Z</time>
      </trkpt>
      <trkpt lat="49.17782" lon="1.64416">
        <ele>127.55004882812</ele>
        <time>2017-06-18T07:16:23.000Z</time>
      </trkpt>
      <trkpt lat="49.1777" lon="1.64429">
        <ele>127.24269104004</ele>
        <time>2017-06-18T07:16:26.000Z</time>
      </trkpt>
      <trkpt lat="49.17763" lon="1.6444">
        <ele>126.97283935547</ele>
        <time>2017-06-18T07:16:28.000Z</time>
      </trkpt>
      <trkpt lat="49.17755" lon="1.64457">
        <ele>126.72644042969</ele>
        <time>2017-06-18T07:16:31.000Z</time>
      </trkpt>
      <trkpt lat="49.17748" lon="1.64469">
        <ele>126.4867401123</ele>
        <time>2017-06-18T07:16:34.000Z</time>
      </trkpt>
      <trkpt lat="49.17744" lon="1.64476">
        <ele>126.29650878906</ele>
        <time>2017-06-18T07:16:36.000Z</time>
      </trkpt>
      <trkpt lat="49.1773" lon="1.6449">
        <ele>126.02616882324</ele>
        <time>2017-06-18T07:16:39.000Z</time>
      </trkpt>
      <trkpt lat="49.17722" lon="1.645">
        <ele>125.67668151855</ele>
        <time>2017-06-18T07:16:41.000Z</time>
      </trkpt>
      <trkpt lat="49.17715" lon="1.64521">
        <ele>125.38648986816</ele>
        <time>2017-06-18T07:16:44.000Z</time>
      </trkpt>
      <trkpt lat="49.17714" lon="1.64532">
        <ele>125.20268249512</ele>
        <time>2017-06-18T07:16:47.000Z</time>
      </trkpt>
      <trkpt lat="49.17712" lon="1.64546">
        <ele>125.1510848999</ele>
        <time>2017-06-18T07:16:50.000Z</time>
      </trkpt>
      <trkpt lat="49.17707" lon="1.64561">
        <ele>125.37953948975</ele>
        <time>2017-06-18T07:16:53.000Z</time>
      </trkpt>
      <trkpt lat="49.17704" lon="1.64573">
        <ele>125.76718902588</ele>
        <time>2017-06-18T07:16:55.000Z</time>
      </trkpt>
      <trkpt lat="49.17699" lon="1.64583">
        <ele>126.12312316895</ele>
        <time>2017-06-18T07:16:57.000Z</time>
      </trkpt>
      <trkpt lat="49.17696" lon="1.64589">
        <ele>126.34150695801</ele>
        <time>2017-06-18T07:17:00.000Z</time>
      </trkpt>
      <trkpt lat="49.17695" lon="1.64591">
        <ele>126.45097351074</ele>
        <time>2017-06-18T07:17:02.000Z</time>
      </trkpt>
      <trkpt lat="49.17694" lon="1.64593">
        <ele>126.47219085693</ele>
        <time>2017-06-18T07:17:04.000Z</time>
      </trkpt>
      <trkpt lat="49.1769" lon="1.64595">
        <ele>126.37044525146</ele>
        <time>2017-06-18T07:17:07.000Z</time>
      </trkpt>
      <trkpt lat="49.17678" lon="1.64598">
        <ele>126.0234375</ele>
        <time>2017-06-18T07:17:10.000Z</time>
      </trkpt>
      <trkpt lat="49.17668" lon="1.64607">
        <ele>125.5517578125</ele>
        <time>2017-06-18T07:17:12.000Z</time>
      </trkpt>
      <trkpt lat="49.17657" lon="1.64619">
        <ele>124.71197509766</ele>
        <time>2017-06-18T07:17:15.000Z</time>
      </trkpt>
      <trkpt lat="49.17653" lon="1.64642">
        <ele>123.78337097168</ele>
        <time>2017-06-18T07:17:18.000Z</time>
      </trkpt>
      <trkpt lat="49.17655" lon="1.64654">
        <ele>122.98630523682</ele>
        <time>2017-06-18T07:17:20.000Z</time>
      </trkpt>
      <trkpt lat="49.17656" lon="1.64662">
        <ele>122.434425354</ele>
        <time>2017-06-18T07:17:22.000Z</time>
      </trkpt>
      <trkpt lat="49.17654" lon="1.64672">
        <ele>122.0830078125</ele>
        <time>2017-06-18T07:17:25.000Z</time>
      </trkpt>
      <trkpt lat="49.17648" lon="1.64681">
        <ele>121.96228027344</ele>
        <time>2017-06-18T07:17:28.000Z</time>
      </trkpt>
      <trkpt lat="49.17639" lon="1.64691">
        <ele>121.7368927002</ele>
        <time>2017-06-18T07:17:31.000Z</time>
      </trkpt>
      <trkpt lat="49.17635" lon="1.64697">
        <ele>121.36999511719</ele>
        <time>2017-06-18T07:17:33.000Z</time>
      </trkpt>
      <trkpt lat="49.17634" lon="1.64715">
        <ele>121.05352783203</ele>
        <time>2017-06-18T07:17:36.000Z</time>
      </trkpt>
      <trkpt lat="49.17631" lon="1.64732">
        <ele>120.74987792969</ele>
        <time>2017-06-18T07:17:39.000Z</time>
      </trkpt>
      <trkpt lat="49.17629" lon="1.64743">
        <ele>120.62180328369</ele>
        <time>2017-06-18T07:17:41.000Z</time>
      </trkpt>
      <trkpt lat="49.17624" lon="1.64754">
        <ele>120.61657714844</ele>
        <time>2017-06-18T07:17:44.000Z</time>
      </trkpt>
      <trkpt lat="49.17616" lon="1.64766">
        <ele>120.55969238281</ele>
        <time>2017-06-18T07:17:47.000Z</time>
      </trkpt>
      <trkpt lat="49.17609" lon="1.64776">
        <ele>120.29872131348</ele>
        <time>2017-06-18T07:17:49.000Z</time>
      </trkpt>
      <trkpt lat="49.17602" lon="1.64786">
        <ele>119.90682220459</ele>
        <time>2017-06-18T07:17:51.000Z</time>
      </trkpt>
      <trkpt lat="49.17594" lon="1.64799">
        <ele>119.39929199219</ele>
        <time>2017-06-18T07:17:54.000Z</time>
      </trkpt>
      <trkpt lat="49.1759" lon="1.64804">
        <ele>118.915184021</ele>
        <time>2017-06-18T07:17:56.000Z</time>
      </trkpt>
      <trkpt lat="49.17584" lon="1.6481">
        <ele>118.46598815918</ele>
        <time>2017-06-18T07:17:58.000Z</time>
      </trkpt>
      <trkpt lat="49.17577" lon="1.64822">
        <ele>118.08488464355</ele>
        <time>2017-06-18T07:18:01.000Z</time>
      </trkpt>
      <trkpt lat="49.17572" lon="1.64829">
        <ele>117.75661468506</ele>
        <time>2017-06-18T07:18:03.000Z</time>
      </trkpt>
      <trkpt lat="49.17568" lon="1.64838">
        <ele>117.56485748291</ele>
        <time>2017-06-18T07:18:05.000Z</time>
      </trkpt>
      <trkpt lat="49.17564" lon="1.64848">
        <ele>117.50708007812</ele>
        <time>2017-06-18T07:18:07.000Z</time>
      </trkpt>
      <trkpt lat="49.17557" lon="1.64867">
        <ele>117.7105255127</ele>
        <time>2017-06-18T07:18:10.000Z</time>
      </trkpt>
      <trkpt lat="49.17556" lon="1.64885">
        <ele>118.24334716797</ele>
        <time>2017-06-18T07:18:13.000Z</time>
      </trkpt>
      <trkpt lat="49.17554" lon="1.64897">
        <ele>119.01802825928</ele>
        <time>2017-06-18T07:18:16.000Z</time>
      </trkpt>
      <trkpt lat="49.17549" lon="1.64904">
        <ele>119.71449279785</ele>
        <time>2017-06-18T07:18:18.000Z</time>
      </trkpt>
      <trkpt lat="49.1754" lon="1.64917">
        <ele>120.29960632324</ele>
        <time>2017-06-18T07:18:21.000Z</time>
      </trkpt>
      <trkpt lat="49.17537" lon="1.64927">
        <ele>120.74711608887</ele>
        <time>2017-06-18T07:18:23.000Z</time>
      </trkpt>
      <trkpt lat="49.17534" lon="1.64939">
        <ele>120.9900894165</ele>
        <time>2017-06-18T07:18:25.000Z</time>
      </trkpt>
      <trkpt lat="49.17534" lon="1.64949">
        <ele>121.14749908447</ele>
        <time>2017-06-18T07:18:27.000Z</time>
      </trkpt>
      <trkpt lat="49.17533" lon="1.64957">
        <ele>121.40920257568</ele>
        <time>2017-06-18T07:18:29.000Z</time>
      </trkpt>
      <trkpt lat="49.17532" lon="1.6497">
        <ele>121.83949279785</ele>
        <time>2017-06-18T07:18:32.000Z</time>
      </trkpt>
      <trkpt lat="49.1753" lon="1.64976">
        <ele>122.27020263672</ele>
        <time>2017-06-18T07:18:35.000Z</time>
      </trkpt>
      <trkpt lat="49.17527" lon="1.64981">
        <ele>122.61979675293</ele>
        <time>2017-06-18T07:18:37.000Z</time>
      </trkpt>
      <trkpt lat="49.17526" lon="1.64985">
        <ele>122.87156677246</ele>
        <time>2017-06-18T07:18:42.000Z</time>
      </trkpt>
      <trkpt lat="49.17525" lon="1.64987">
        <ele>123.07383728027</ele>
        <time>2017-06-18T07:18:47.000Z</time>
      </trkpt>
      <trkpt lat="49.17525" lon="1.64989">
        <ele>123.16355895996</ele>
        <time>2017-06-18T07:18:50.000Z</time>
      </trkpt>
      <trkpt lat="49.17525" lon="1.64989">
        <ele>123.16355895996</ele>
        <time>2017-06-18T07:19:00.000Z</time>
      </trkpt>
      <trkpt lat="49.17524" lon="1.64992">
        <ele>123.23455810547</ele>
        <time>2017-06-18T07:19:13.000Z</time>
      </trkpt>
      <trkpt lat="49.1752" lon="1.64992">
        <ele>123.20760345459</ele>
        <time>2017-06-18T07:19:16.000Z</time>
      </trkpt>
      <trkpt lat="49.17519" lon="1.6499">
        <ele>123.11116790771</ele>
        <time>2017-06-18T07:19:18.000Z</time>
      </trkpt>
      <trkpt lat="49.17519" lon="1.64989">
        <ele>122.96486663818</ele>
        <time>2017-06-18T07:19:23.000Z</time>
      </trkpt>
      <trkpt lat="49.17521" lon="1.6499">
        <ele>122.85648345947</ele>
        <time>2017-06-18T07:19:26.000Z</time>
      </trkpt>
      <trkpt lat="49.17523" lon="1.64992">
        <ele>122.82511901855</ele>
        <time>2017-06-18T07:19:33.000Z</time>
      </trkpt>
      <trkpt lat="49.17523" lon="1.64992">
        <ele>122.82511901855</ele>
        <time>2017-06-18T07:19:43.000Z</time>
      </trkpt>
      <trkpt lat="49.17521" lon="1.64991">
        <ele>122.83078765869</ele>
        <time>2017-06-18T07:19:54.000Z</time>
      </trkpt>
      <trkpt lat="49.17523" lon="1.64994">
        <ele>122.97874450684</ele>
        <time>2017-06-18T07:20:00.000Z</time>
      </trkpt>
      <trkpt lat="49.17522" lon="1.64995">
        <ele>123.15451812744</ele>
        <time>2017-06-18T07:20:05.000Z</time>
      </trkpt>
      <trkpt lat="49.17524" lon="1.65">
        <ele>123.37129211426</ele>
        <time>2017-06-18T07:20:08.000Z</time>
      </trkpt>
      <trkpt lat="49.17525" lon="1.65002">
        <ele>123.53908538818</ele>
        <time>2017-06-18T07:20:11.000Z</time>
      </trkpt>
      <trkpt lat="49.17525" lon="1.65005">
        <ele>123.78177642822</ele>
        <time>2017-06-18T07:20:13.000Z</time>
      </trkpt>
      <trkpt lat="49.17524" lon="1.65007">
        <ele>123.94077301025</ele>
        <time>2017-06-18T07:20:22.000Z</time>
      </trkpt>
      <trkpt lat="49.17519" lon="1.65005">
        <ele>123.96475982666</ele>
        <time>2017-06-18T07:20:25.000Z</time>
      </trkpt>
      <trkpt lat="49.17514" lon="1.65004">
        <ele>123.75422668457</ele>
        <time>2017-06-18T07:20:27.000Z</time>
      </trkpt>
      <trkpt lat="49.17508" lon="1.65007">
        <ele>123.38484191895</ele>
        <time>2017-06-18T07:20:30.000Z</time>
      </trkpt>
      <trkpt lat="49.17505" lon="1.65011">
        <ele>122.98128509521</ele>
        <time>2017-06-18T07:20:32.000Z</time>
      </trkpt>
      <trkpt lat="49.17501" lon="1.6502">
        <ele>122.55355072021</ele>
        <time>2017-06-18T07:20:35.000Z</time>
      </trkpt>
      <trkpt lat="49.17498" lon="1.65025">
        <ele>122.2327041626</ele>
        <time>2017-06-18T07:20:37.000Z</time>
      </trkpt>
      <trkpt lat="49.17489" lon="1.65034">
        <ele>121.88175201416</ele>
        <time>2017-06-18T07:20:40.000Z</time>
      </trkpt>
      <trkpt lat="49.17483" lon="1.65042">
        <ele>121.55358886719</ele>
        <time>2017-06-18T07:20:42.000Z</time>
      </trkpt>
      <trkpt lat="49.17478" lon="1.65055">
        <ele>121.23854064941</ele>
        <time>2017-06-18T07:20:44.000Z</time>
      </trkpt>
      <trkpt lat="49.17477" lon="1.65067">
        <ele>121.04921722412</ele>
        <time>2017-06-18T07:20:46.000Z</time>
      </trkpt>
      <trkpt lat="49.17478" lon="1.65075">
        <ele>120.99829101562</ele>
        <time>2017-06-18T07:20:49.000Z</time>
      </trkpt>
      <trkpt lat="49.17479" lon="1.65079">
        <ele>121.18300628662</ele>
        <time>2017-06-18T07:20:51.000Z</time>
      </trkpt>
      <trkpt lat="49.17481" lon="1.65078">
        <ele>121.49631500244</ele>
        <time>2017-06-18T07:20:54.000Z</time>
      </trkpt>
      <trkpt lat="49.17477" lon="1.65081">
        <ele>121.74995422363</ele>
        <time>2017-06-18T07:20:56.000Z</time>
      </trkpt>
      <trkpt lat="49.17472" lon="1.65096">
        <ele>121.87996673584</ele>
        <time>2017-06-18T07:20:59.000Z</time>
      </trkpt>
      <trkpt lat="49.17466" lon="1.65102">
        <ele>121.78186035156</ele>
        <time>2017-06-18T07:21:01.000Z</time>
      </trkpt>
      <trkpt lat="49.17456" lon="1.65105">
        <ele>121.388671875</ele>
        <time>2017-06-18T07:21:04.000Z</time>
      </trkpt>
      <trkpt lat="49.1745" lon="1.65114">
        <ele>120.85317230225</ele>
        <time>2017-06-18T07:21:07.000Z</time>
      </trkpt>
      <trkpt lat="49.17447" lon="1.65122">
        <ele>120.37099456787</ele>
        <time>2017-06-18T07:21:10.000Z</time>
      </trkpt>
      <trkpt lat="49.17447" lon="1.65125">
        <ele>119.92446136475</ele>
        <time>2017-06-18T07:21:13.000Z</time>
      </trkpt>
      <trkpt lat="49.17447" lon="1.65132">
        <ele>119.639503479</ele>
        <time>2017-06-18T07:21:19.000Z</time>
      </trkpt>
      <trkpt lat="49.17446" lon="1.65135">
        <ele>119.58563232422</ele>
        <time>2017-06-18T07:21:22.000Z</time>
      </trkpt>
      <trkpt lat="49.17445" lon="1.65137">
        <ele>119.60931396484</ele>
        <time>2017-06-18T07:21:24.000Z</time>
      </trkpt>
      <trkpt lat="49.17444" lon="1.65138">
        <ele>119.63763427734</ele>
        <time>2017-06-18T07:21:29.000Z</time>
      </trkpt>
      <trkpt lat="49.17442" lon="1.65137">
        <ele>119.59661865234</ele>
        <time>2017-06-18T07:21:32.000Z</time>
      </trkpt>
      <trkpt lat="49.17439" lon="1.65133">
        <ele>119.3896484375</ele>
        <time>2017-06-18T07:21:35.000Z</time>
      </trkpt>
      <trkpt lat="49.17424" lon="1.65132">
        <ele>118.78310394287</ele>
        <time>2017-06-18T07:21:38.000Z</time>
      </trkpt>
      <trkpt lat="49.17414" lon="1.65132">
        <ele>117.86938476562</ele>
        <time>2017-06-18T07:21:40.000Z</time>
      </trkpt>
      <trkpt lat="49.17402" lon="1.65135">
        <ele>116.41528320312</ele>
        <time>2017-06-18T07:21:43.000Z</time>
      </trkpt>
      <trkpt lat="49.17397" lon="1.65135">
        <ele>114.782371521</ele>
        <time>2017-06-18T07:21:45.000Z</time>
      </trkpt>
      <trkpt lat="49.17394" lon="1.65134">
        <ele>113.12490081787</ele>
        <time>2017-06-18T07:21:48.000Z</time>
      </trkpt>
      <trkpt lat="49.17393" lon="1.65134">
        <ele>111.77187347412</ele>
        <time>2017-06-18T07:21:51.000Z</time>
      </trkpt>
      <trkpt lat="49.17391" lon="1.65133">
        <ele>110.69173431396</ele>
        <time>2017-06-18T07:21:53.000Z</time>
      </trkpt>
      <trkpt lat="49.17387" lon="1.65129">
        <ele>109.9309463501</ele>
        <time>2017-06-18T07:21:56.000Z</time>
      </trkpt>
      <trkpt lat="49.17385" lon="1.65129">
        <ele>109.28002929688</ele>
        <time>2017-06-18T07:21:59.000Z</time>
      </trkpt>
      <trkpt lat="49.17383" lon="1.65126">
        <ele>108.65877532959</ele>
        <time>2017-06-18T07:22:05.000Z</time>
      </trkpt>
      <trkpt lat="49.17381" lon="1.65118">
        <ele>107.92620849609</ele>
        <time>2017-06-18T07:22:08.000Z</time>
      </trkpt>
      <trkpt lat="49.17381" lon="1.65097">
        <ele>107.047706604</ele>
        <time>2017-06-18T07:22:11.000Z</time>
      </trkpt>
      <trkpt lat="49.17379" lon="1.65074">
        <ele>106.0827255249</ele>
        <time>2017-06-18T07:22:14.000Z</time>
      </trkpt>
      <trkpt lat="49.17373" lon="1.65057">
        <ele>104.74523925781</ele>
        <time>2017-06-18T07:22:16.000Z</time>
      </trkpt>
      <trkpt lat="49.17362" lon="1.65036">
        <ele>102.72208404541</ele>
        <time>2017-06-18T07:22:19.000Z</time>
      </trkpt>
      <trkpt lat="49.17356" lon="1.65021">
        <ele>100.50002288818</ele>
        <time>2017-06-18T07:22:21.000Z</time>
      </trkpt>
      <trkpt lat="49.17351" lon="1.65001">
        <ele>98.051651000977</ele>
        <time>2017-06-18T07:22:24.000Z</time>
      </trkpt>
      <trkpt lat="49.17343" lon="1.64988">
        <ele>95.323364257812</ele>
        <time>2017-06-18T07:22:26.000Z</time>
      </trkpt>
      <trkpt lat="49.17339" lon="1.64965">
        <ele>92.471710205078</ele>
        <time>2017-06-18T07:22:28.000Z</time>
      </trkpt>
      <trkpt lat="49.17335" lon="1.64947">
        <ele>89.878112792969</ele>
        <time>2017-06-18T07:22:31.000Z</time>
      </trkpt>
      <trkpt lat="49.17331" lon="1.64931">
        <ele>87.168258666992</ele>
        <time>2017-06-18T07:22:33.000Z</time>
      </trkpt>
      <trkpt lat="49.17324" lon="1.64916">
        <ele>84.297775268555</ele>
        <time>2017-06-18T07:22:36.000Z</time>
      </trkpt>
      <trkpt lat="49.17319" lon="1.64908">
        <ele>81.680862426758</ele>
        <time>2017-06-18T07:22:39.000Z</time>
      </trkpt>
      <trkpt lat="49.17315" lon="1.64899">
        <ele>79.348342895508</ele>
        <time>2017-06-18T07:22:41.000Z</time>
      </trkpt>
      <trkpt lat="49.17308" lon="1.64884">
        <ele>77.141571044922</ele>
        <time>2017-06-18T07:22:44.000Z</time>
      </trkpt>
      <trkpt lat="49.17302" lon="1.64872">
        <ele>75.102180480957</ele>
        <time>2017-06-18T07:22:47.000Z</time>
      </trkpt>
      <trkpt lat="49.17299" lon="1.64862">
        <ele>73.518692016602</ele>
        <time>2017-06-18T07:22:49.000Z</time>
      </trkpt>
      <trkpt lat="49.17299" lon="1.64853">
        <ele>72.213729858398</ele>
        <time>2017-06-18T07:22:52.000Z</time>
      </trkpt>
      <trkpt lat="49.17299" lon="1.64853">
        <ele>72.213729858398</ele>
        <time>2017-06-18T07:23:02.000Z</time>
      </trkpt>
      <trkpt lat="49.17299" lon="1.64846">
        <ele>71.222778320312</ele>
        <time>2017-06-18T07:23:10.000Z</time>
      </trkpt>
      <trkpt lat="49.17299" lon="1.64844">
        <ele>70.63761138916</ele>
        <time>2017-06-18T07:23:13.000Z</time>
      </trkpt>
      <trkpt lat="49.17299" lon="1.64841">
        <ele>70.377906799316</ele>
        <time>2017-06-18T07:23:16.000Z</time>
      </trkpt>
      <trkpt lat="49.17299" lon="1.64839">
        <ele>70.242561340332</ele>
        <time>2017-06-18T07:23:18.000Z</time>
      </trkpt>
      <trkpt lat="49.17298" lon="1.6484">
        <ele>70.145057678223</ele>
        <time>2017-06-18T07:23:24.000Z</time>
      </trkpt>
      <trkpt lat="49.17297" lon="1.6484">
        <ele>70.033760070801</ele>
        <time>2017-06-18T07:23:27.000Z</time>
      </trkpt>
      <trkpt lat="49.17297" lon="1.6484">
        <ele>70.033760070801</ele>
        <time>2017-06-18T07:23:47.000Z</time>
      </trkpt>
      <trkpt lat="49.17295" lon="1.64841">
        <ele>69.9072265625</ele>
        <time>2017-06-18T07:24:14.000Z</time>
      </trkpt>
      <trkpt lat="49.17296" lon="1.6484">
        <ele>69.814498901367</ele>
        <time>2017-06-18T07:24:17.000Z</time>
      </trkpt>
      <trkpt lat="49.17297" lon="1.64841">
        <ele>69.780723571777</ele>
        <time>2017-06-18T07:24:23.000Z</time>
      </trkpt>
      <trkpt lat="49.17297" lon="1.64841">
        <ele>69.780723571777</ele>
        <time>2017-06-18T07:24:43.000Z</time>
      </trkpt>
      <trkpt lat="49.17299" lon="1.64839">
        <ele>69.814140319824</ele>
        <time>2017-06-18T07:25:17.000Z</time>
      </trkpt>
      <trkpt lat="49.17299" lon="1.64839">
        <ele>69.814140319824</ele>
        <time>2017-06-18T07:25:37.000Z</time>
      </trkpt>
      <trkpt lat="49.17298" lon="1.64839">
        <ele>69.85090637207</ele>
        <time>2017-06-18T07:25:59.000Z</time>
      </trkpt>
      <trkpt lat="49.17295" lon="1.64844">
        <ele>69.841354370117</ele>
        <time>2017-06-18T07:26:01.000Z</time>
      </trkpt>
      <trkpt lat="49.17287" lon="1.64855">
        <ele>69.629043579102</ele>
        <time>2017-06-18T07:26:04.000Z</time>
      </trkpt>
      <trkpt lat="49.17281" lon="1.64864">
        <ele>69.190689086914</ele>
        <time>2017-06-18T07:26:06.000Z</time>
      </trkpt>
      <trkpt lat="49.1727" lon="1.64879">
        <ele>68.308616638184</ele>
        <time>2017-06-18T07:26:09.000Z</time>
      </trkpt>
      <trkpt lat="49.17264" lon="1.64889">
        <ele>67.164710998535</ele>
        <time>2017-06-18T07:26:11.000Z</time>
      </trkpt>
      <trkpt lat="49.17253" lon="1.64906">
        <ele>65.511604309082</ele>
        <time>2017-06-18T07:26:14.000Z</time>
      </trkpt>
      <trkpt lat="49.17244" lon="1.64922">
        <ele>63.86368560791</ele>
        <time>2017-06-18T07:26:17.000Z</time>
      </trkpt>
      <trkpt lat="49.17234" lon="1.64942">
        <ele>62.505401611328</ele>
        <time>2017-06-18T07:26:20.000Z</time>
      </trkpt>
      <trkpt lat="49.17228" lon="1.64954">
        <ele>61.571311950684</ele>
        <time>2017-06-18T07:26:22.000Z</time>
      </trkpt>
      <trkpt lat="49.17219" lon="1.64974">
        <ele>60.888763427734</ele>
        <time>2017-06-18T07:26:25.000Z</time>
      </trkpt>
      <trkpt lat="49.17211" lon="1.64994">
        <ele>60.677318572998</ele>
        <time>2017-06-18T07:26:28.000Z</time>
      </trkpt>
      <trkpt lat="49.17204" lon="1.65016">
        <ele>60.651111602783</ele>
        <time>2017-06-18T07:26:31.000Z</time>
      </trkpt>
      <trkpt lat="49.17197" lon="1.65038">
        <ele>60.533130645752</ele>
        <time>2017-06-18T07:26:34.000Z</time>
      </trkpt>
      <trkpt lat="49.1719" lon="1.65061">
        <ele>60.346199035645</ele>
        <time>2017-06-18T07:26:37.000Z</time>
      </trkpt>
      <trkpt lat="49.17185" lon="1.65077">
        <ele>60.089221954346</ele>
        <time>2017-06-18T07:26:39.000Z</time>
      </trkpt>
      <trkpt lat="49.17177" lon="1.651">
        <ele>59.914772033691</ele>
        <time>2017-06-18T07:26:42.000Z</time>
      </trkpt>
      <trkpt lat="49.1717" lon="1.65124">
        <ele>59.672142028809</ele>
        <time>2017-06-18T07:26:45.000Z</time>
      </trkpt>
      <trkpt lat="49.17164" lon="1.65141">
        <ele>59.463684082031</ele>
        <time>2017-06-18T07:26:47.000Z</time>
      </trkpt>
      <trkpt lat="49.17159" lon="1.65158">
        <ele>59.494853973389</ele>
        <time>2017-06-18T07:26:49.000Z</time>
      </trkpt>
      <trkpt lat="49.17149" lon="1.65183">
        <ele>60.107227325439</ele>
        <time>2017-06-18T07:26:52.000Z</time>
      </trkpt>
      <trkpt lat="49.17142" lon="1.65198">
        <ele>61.045585632324</ele>
        <time>2017-06-18T07:26:54.000Z</time>
      </trkpt>
      <trkpt lat="49.17131" lon="1.6522">
        <ele>62.302600860596</ele>
        <time>2017-06-18T07:26:57.000Z</time>
      </trkpt>
      <trkpt lat="49.17124" lon="1.65235">
        <ele>63.582103729248</ele>
        <time>2017-06-18T07:26:59.000Z</time>
      </trkpt>
      <trkpt lat="49.17111" lon="1.65258">
        <ele>64.578536987305</ele>
        <time>2017-06-18T07:27:02.000Z</time>
      </trkpt>
      <trkpt lat="49.17102" lon="1.65274">
        <ele>64.942390441895</ele>
        <time>2017-06-18T07:27:04.000Z</time>
      </trkpt>
      <trkpt lat="49.17092" lon="1.6529">
        <ele>64.793426513672</ele>
        <time>2017-06-18T07:27:06.000Z</time>
      </trkpt>
      <trkpt lat="49.17078" lon="1.65314">
        <ele>64.169853210449</ele>
        <time>2017-06-18T07:27:09.000Z</time>
      </trkpt>
      <trkpt lat="49.17067" lon="1.6533">
        <ele>63.487682342529</ele>
        <time>2017-06-18T07:27:11.000Z</time>
      </trkpt>
      <trkpt lat="49.17049" lon="1.65353">
        <ele>62.947826385498</ele>
        <time>2017-06-18T07:27:14.000Z</time>
      </trkpt>
      <trkpt lat="49.17037" lon="1.65368">
        <ele>62.417533874512</ele>
        <time>2017-06-18T07:27:16.000Z</time>
      </trkpt>
      <trkpt lat="49.1702" lon="1.65393">
        <ele>61.568756103516</ele>
        <time>2017-06-18T07:27:19.000Z</time>
      </trkpt>
      <trkpt lat="49.17003" lon="1.65414">
        <ele>60.084442138672</ele>
        <time>2017-06-18T07:27:22.000Z</time>
      </trkpt>
      <trkpt lat="49.16991" lon="1.65428">
        <ele>58.581687927246</ele>
        <time>2017-06-18T07:27:24.000Z</time>
      </trkpt>
      <trkpt lat="49.16978" lon="1.6544">
        <ele>57.071998596191</ele>
        <time>2017-06-18T07:27:26.000Z</time>
      </trkpt>
      <trkpt lat="49.16964" lon="1.6545">
        <ele>55.645732879639</ele>
        <time>2017-06-18T07:27:28.000Z</time>
      </trkpt>
      <trkpt lat="49.16945" lon="1.65459">
        <ele>54.499382019043</ele>
        <time>2017-06-18T07:27:31.000Z</time>
      </trkpt>
      <trkpt lat="49.16931" lon="1.65465">
        <ele>53.977996826172</ele>
        <time>2017-06-18T07:27:33.000Z</time>
      </trkpt>
      <trkpt lat="49.16911" lon="1.65475">
        <ele>53.127983093262</ele>
        <time>2017-06-18T07:27:36.000Z</time>
      </trkpt>
      <trkpt lat="49.16897" lon="1.65481">
        <ele>52.142528533936</ele>
        <time>2017-06-18T07:27:38.000Z</time>
      </trkpt>
      <trkpt lat="49.16878" lon="1.65494">
        <ele>51.006633758545</ele>
        <time>2017-06-18T07:27:41.000Z</time>
      </trkpt>
      <trkpt lat="49.16866" lon="1.655">
        <ele>49.974685668945</ele>
        <time>2017-06-18T07:27:43.000Z</time>
      </trkpt>
      <trkpt lat="49.16853" lon="1.65507">
        <ele>49.16987991333</ele>
        <time>2017-06-18T07:27:45.000Z</time>
      </trkpt>
      <trkpt lat="49.16839" lon="1.65513">
        <ele>48.634696960449</ele>
        <time>2017-06-18T07:27:47.000Z</time>
      </trkpt>
      <trkpt lat="49.16821" lon="1.65526">
        <ele>48.180858612061</ele>
        <time>2017-06-18T07:27:50.000Z</time>
      </trkpt>
      <trkpt lat="49.16808" lon="1.65534">
        <ele>47.922092437744</ele>
        <time>2017-06-18T07:27:52.000Z</time>
      </trkpt>
      <trkpt lat="49.1679" lon="1.65545">
        <ele>47.718196868896</ele>
        <time>2017-06-18T07:27:55.000Z</time>
      </trkpt>
      <trkpt lat="49.1678" lon="1.65552">
        <ele>47.426666259766</ele>
        <time>2017-06-18T07:27:57.000Z</time>
      </trkpt>
      <trkpt lat="49.16764" lon="1.65564">
        <ele>46.998058319092</ele>
        <time>2017-06-18T07:28:00.000Z</time>
      </trkpt>
      <trkpt lat="49.16754" lon="1.65572">
        <ele>46.401336669922</ele>
        <time>2017-06-18T07:28:02.000Z</time>
      </trkpt>
      <trkpt lat="49.1674" lon="1.65584">
        <ele>45.698806762695</ele>
        <time>2017-06-18T07:28:05.000Z</time>
      </trkpt>
      <trkpt lat="49.16724" lon="1.65597">
        <ele>45.206043243408</ele>
        <time>2017-06-18T07:28:08.000Z</time>
      </trkpt>
      <trkpt lat="49.16707" lon="1.65614">
        <ele>44.871204376221</ele>
        <time>2017-06-18T07:28:11.000Z</time>
      </trkpt>
      <trkpt lat="49.16697" lon="1.65622">
        <ele>44.737827301025</ele>
        <time>2017-06-18T07:28:13.000Z</time>
      </trkpt>
      <trkpt lat="49.16687" lon="1.65632">
        <ele>44.759941101074</ele>
        <time>2017-06-18T07:28:15.000Z</time>
      </trkpt>
      <trkpt lat="49.16673" lon="1.6564">
        <ele>44.832633972168</ele>
        <time>2017-06-18T07:28:18.000Z</time>
      </trkpt>
      <trkpt lat="49.16665" lon="1.65646">
        <ele>44.736824035645</ele>
        <time>2017-06-18T07:28:20.000Z</time>
      </trkpt>
      <trkpt lat="49.16655" lon="1.65653">
        <ele>44.541877746582</ele>
        <time>2017-06-18T07:28:22.000Z</time>
      </trkpt>
      <trkpt lat="49.16642" lon="1.65662">
        <ele>44.297523498535</ele>
        <time>2017-06-18T07:28:25.000Z</time>
      </trkpt>
      <trkpt lat="49.16633" lon="1.65669">
        <ele>44.056701660156</ele>
        <time>2017-06-18T07:28:27.000Z</time>
      </trkpt>
      <trkpt lat="49.16623" lon="1.65675">
        <ele>43.908763885498</ele>
        <time>2017-06-18T07:28:29.000Z</time>
      </trkpt>
      <trkpt lat="49.16613" lon="1.65682">
        <ele>43.813426971436</ele>
        <time>2017-06-18T07:28:31.000Z</time>
      </trkpt>
      <trkpt lat="49.166" lon="1.65692">
        <ele>43.709964752197</ele>
        <time>2017-06-18T07:28:34.000Z</time>
      </trkpt>
      <trkpt lat="49.16588" lon="1.65702">
        <ele>43.592491149902</ele>
        <time>2017-06-18T07:28:37.000Z</time>
      </trkpt>
      <trkpt lat="49.16581" lon="1.65708">
        <ele>43.475769042969</ele>
        <time>2017-06-18T07:28:39.000Z</time>
      </trkpt>
      <trkpt lat="49.16574" lon="1.65713">
        <ele>43.387115478516</ele>
        <time>2017-06-18T07:28:41.000Z</time>
      </trkpt>
      <trkpt lat="49.16565" lon="1.65712">
        <ele>43.367645263672</ele>
        <time>2017-06-18T07:28:44.000Z</time>
      </trkpt>
      <trkpt lat="49.16562" lon="1.657">
        <ele>43.421455383301</ele>
        <time>2017-06-18T07:28:47.000Z</time>
      </trkpt>
      <trkpt lat="49.16563" lon="1.65685">
        <ele>43.554725646973</ele>
        <time>2017-06-18T07:28:50.000Z</time>
      </trkpt>
      <trkpt lat="49.16562" lon="1.65679">
        <ele>43.726093292236</ele>
        <time>2017-06-18T07:28:52.000Z</time>
      </trkpt>
      <trkpt lat="49.16557" lon="1.65675">
        <ele>43.902500152588</ele>
        <time>2017-06-18T07:28:55.000Z</time>
      </trkpt>
      <trkpt lat="49.16546" lon="1.65673">
        <ele>44.118438720703</ele>
        <time>2017-06-18T07:28:58.000Z</time>
      </trkpt>
      <trkpt lat="49.16542" lon="1.65672">
        <ele>44.340919494629</ele>
        <time>2017-06-18T07:29:00.000Z</time>
      </trkpt>
      <trkpt lat="49.16537" lon="1.65671">
        <ele>44.597305297852</ele>
        <time>2017-06-18T07:29:02.000Z</time>
      </trkpt>
      <trkpt lat="49.16529" lon="1.65668">
        <ele>44.925834655762</ele>
        <time>2017-06-18T07:29:05.000Z</time>
      </trkpt>
      <trkpt lat="49.16521" lon="1.65665">
        <ele>45.285926818848</ele>
        <time>2017-06-18T07:29:08.000Z</time>
      </trkpt>
      <trkpt lat="49.16516" lon="1.6566">
        <ele>45.60523223877</ele>
        <time>2017-06-18T07:29:11.000Z</time>
      </trkpt>
      <trkpt lat="49.1651" lon="1.65659">
        <ele>45.943065643311</ele>
        <time>2017-06-18T07:29:14.000Z</time>
      </trkpt>
      <trkpt lat="49.16504" lon="1.65657">
        <ele>46.295391082764</ele>
        <time>2017-06-18T07:29:16.000Z</time>
      </trkpt>
      <trkpt lat="49.16494" lon="1.65652">
        <ele>46.741077423096</ele>
        <time>2017-06-18T07:29:19.000Z</time>
      </trkpt>
      <trkpt lat="49.16489" lon="1.65648">
        <ele>47.2275390625</ele>
        <time>2017-06-18T07:29:21.000Z</time>
      </trkpt>
      <trkpt lat="49.16485" lon="1.65647">
        <ele>47.730567932129</ele>
        <time>2017-06-18T07:29:23.000Z</time>
      </trkpt>
      <trkpt lat="49.16477" lon="1.65645">
        <ele>48.36124420166</ele>
        <time>2017-06-18T07:29:26.000Z</time>
      </trkpt>
      <trkpt lat="49.1647" lon="1.65644">
        <ele>49.080242156982</ele>
        <time>2017-06-18T07:29:29.000Z</time>
      </trkpt>
      <trkpt lat="49.16465" lon="1.65643">
        <ele>49.709697723389</ele>
        <time>2017-06-18T07:29:31.000Z</time>
      </trkpt>
      <trkpt lat="49.16457" lon="1.65641">
        <ele>50.393970489502</ele>
        <time>2017-06-18T07:29:34.000Z</time>
      </trkpt>
      <trkpt lat="49.16447" lon="1.65642">
        <ele>51.206665039062</ele>
        <time>2017-06-18T07:29:37.000Z</time>
      </trkpt>
      <trkpt lat="49.1644" lon="1.65644">
        <ele>51.989837646484</ele>
        <time>2017-06-18T07:29:39.000Z</time>
      </trkpt>
      <trkpt lat="49.16431" lon="1.65647">
        <ele>52.842205047607</ele>
        <time>2017-06-18T07:29:42.000Z</time>
      </trkpt>
      <trkpt lat="49.16425" lon="1.65649">
        <ele>53.738273620605</ele>
        <time>2017-06-18T07:29:44.000Z</time>
      </trkpt>
      <trkpt lat="49.1642" lon="1.65651">
        <ele>54.588703155518</ele>
        <time>2017-06-18T07:29:46.000Z</time>
      </trkpt>
      <trkpt lat="49.16413" lon="1.65654">
        <ele>55.34822845459</ele>
        <time>2017-06-18T07:29:49.000Z</time>
      </trkpt>
      <trkpt lat="49.16409" lon="1.65654">
        <ele>55.994609832764</ele>
        <time>2017-06-18T07:29:51.000Z</time>
      </trkpt>
      <trkpt lat="49.16404" lon="1.65654">
        <ele>56.467334747314</ele>
        <time>2017-06-18T07:29:53.000Z</time>
      </trkpt>
      <trkpt lat="49.16398" lon="1.65655">
        <ele>56.860420227051</ele>
        <time>2017-06-18T07:29:56.000Z</time>
      </trkpt>
      <trkpt lat="49.16393" lon="1.65656">
        <ele>57.16646194458</ele>
        <time>2017-06-18T07:29:58.000Z</time>
      </trkpt>
      <trkpt lat="49.16387" lon="1.65656">
        <ele>57.407112121582</ele>
        <time>2017-06-18T07:30:01.000Z</time>
      </trkpt>
      <trkpt lat="49.16381" lon="1.65655">
        <ele>57.659141540527</ele>
        <time>2017-06-18T07:30:04.000Z</time>
      </trkpt>
      <trkpt lat="49.16374" lon="1.65653">
        <ele>57.923988342285</ele>
        <time>2017-06-18T07:30:07.000Z</time>
      </trkpt>
      <trkpt lat="49.1637" lon="1.65652">
        <ele>58.167213439941</ele>
        <time>2017-06-18T07:30:09.000Z</time>
      </trkpt>
      <trkpt lat="49.16366" lon="1.65651">
        <ele>58.401111602783</ele>
        <time>2017-06-18T07:30:11.000Z</time>
      </trkpt>
      <trkpt lat="49.1636" lon="1.65648">
        <ele>58.642517089844</ele>
        <time>2017-06-18T07:30:14.000Z</time>
      </trkpt>
      <trkpt lat="49.16356" lon="1.65645">
        <ele>58.883239746094</ele>
        <time>2017-06-18T07:30:16.000Z</time>
      </trkpt>
      <trkpt lat="49.16349" lon="1.65642">
        <ele>59.141792297363</ele>
        <time>2017-06-18T07:30:19.000Z</time>
      </trkpt>
      <trkpt lat="49.16344" lon="1.65641">
        <ele>59.415374755859</ele>
        <time>2017-06-18T07:30:21.000Z</time>
      </trkpt>
      <trkpt lat="49.16337" lon="1.6564">
        <ele>59.740394592285</ele>
        <time>2017-06-18T07:30:24.000Z</time>
      </trkpt>
      <trkpt lat="49.1633" lon="1.65638">
        <ele>60.108448028564</ele>
        <time>2017-06-18T07:30:27.000Z</time>
      </trkpt>
      <trkpt lat="49.16326" lon="1.65634">
        <ele>60.501121520996</ele>
        <time>2017-06-18T07:30:29.000Z</time>
      </trkpt>
      <trkpt lat="49.16319" lon="1.6563">
        <ele>60.939979553223</ele>
        <time>2017-06-18T07:30:32.000Z</time>
      </trkpt>
      <trkpt lat="49.16314" lon="1.65628">
        <ele>61.40580368042</ele>
        <time>2017-06-18T07:30:34.000Z</time>
      </trkpt>
      <trkpt lat="49.16306" lon="1.65627">
        <ele>61.910339355469</ele>
        <time>2017-06-18T07:30:37.000Z</time>
      </trkpt>
      <trkpt lat="49.16299" lon="1.65624">
        <ele>62.41234588623</ele>
        <time>2017-06-18T07:30:40.000Z</time>
      </trkpt>
      <trkpt lat="49.16291" lon="1.6562">
        <ele>62.956592559814</ele>
        <time>2017-06-18T07:30:43.000Z</time>
      </trkpt>
      <trkpt lat="49.16286" lon="1.65619">
        <ele>63.452796936035</ele>
        <time>2017-06-18T07:30:45.000Z</time>
      </trkpt>
      <trkpt lat="49.1628" lon="1.65617">
        <ele>63.971618652344</ele>
        <time>2017-06-18T07:30:48.000Z</time>
      </trkpt>
      <trkpt lat="49.16272" lon="1.65613">
        <ele>64.477600097656</ele>
        <time>2017-06-18T07:30:51.000Z</time>
      </trkpt>
      <trkpt lat="49.16267" lon="1.65612">
        <ele>64.945251464844</ele>
        <time>2017-06-18T07:30:53.000Z</time>
      </trkpt>
      <trkpt lat="49.1626" lon="1.65609">
        <ele>65.400199890137</ele>
        <time>2017-06-18T07:30:56.000Z</time>
      </trkpt>
      <trkpt lat="49.16253" lon="1.65605">
        <ele>65.882377624512</ele>
        <time>2017-06-18T07:30:59.000Z</time>
      </trkpt>
      <trkpt lat="49.16246" lon="1.656">
        <ele>66.305946350098</ele>
        <time>2017-06-18T07:31:02.000Z</time>
      </trkpt>
      <trkpt lat="49.16243" lon="1.65598">
        <ele>66.632667541504</ele>
        <time>2017-06-18T07:31:04.000Z</time>
      </trkpt>
      <trkpt lat="49.16235" lon="1.65593">
        <ele>66.938346862793</ele>
        <time>2017-06-18T07:31:07.000Z</time>
      </trkpt>
      <trkpt lat="49.16228" lon="1.6559">
        <ele>67.192245483398</ele>
        <time>2017-06-18T07:31:10.000Z</time>
      </trkpt>
      <trkpt lat="49.16224" lon="1.65586">
        <ele>67.398620605469</ele>
        <time>2017-06-18T07:31:12.000Z</time>
      </trkpt>
      <trkpt lat="49.16217" lon="1.6558">
        <ele>67.640739440918</ele>
        <time>2017-06-18T07:31:15.000Z</time>
      </trkpt>
      <trkpt lat="49.16212" lon="1.65577">
        <ele>67.91471862793</ele>
        <time>2017-06-18T07:31:17.000Z</time>
      </trkpt>
      <trkpt lat="49.16205" lon="1.65572">
        <ele>68.211036682129</ele>
        <time>2017-06-18T07:31:20.000Z</time>
      </trkpt>
      <trkpt lat="49.162" lon="1.65571">
        <ele>68.495079040527</ele>
        <time>2017-06-18T07:31:22.000Z</time>
      </trkpt>
      <trkpt lat="49.16194" lon="1.65571">
        <ele>68.771133422852</ele>
        <time>2017-06-18T07:31:25.000Z</time>
      </trkpt>
      <trkpt lat="49.16189" lon="1.65571">
        <ele>69.006484985352</ele>
        <time>2017-06-18T07:31:27.000Z</time>
      </trkpt>
      <trkpt lat="49.16184" lon="1.6557">
        <ele>69.240829467773</ele>
        <time>2017-06-18T07:31:29.000Z</time>
      </trkpt>
      <trkpt lat="49.16177" lon="1.65566">
        <ele>69.481262207031</ele>
        <time>2017-06-18T07:31:32.000Z</time>
      </trkpt>
      <trkpt lat="49.16172" lon="1.65564">
        <ele>69.728317260742</ele>
        <time>2017-06-18T07:31:34.000Z</time>
      </trkpt>
      <trkpt lat="49.16165" lon="1.65559">
        <ele>69.988746643066</ele>
        <time>2017-06-18T07:31:37.000Z</time>
      </trkpt>
      <trkpt lat="49.16161" lon="1.65555">
        <ele>70.211120605469</ele>
        <time>2017-06-18T07:31:39.000Z</time>
      </trkpt>
      <trkpt lat="49.16157" lon="1.65552">
        <ele>70.389801025391</ele>
        <time>2017-06-18T07:31:41.000Z</time>
      </trkpt>
      <trkpt lat="49.16151" lon="1.65546">
        <ele>70.505470275879</ele>
        <time>2017-06-18T07:31:44.000Z</time>
      </trkpt>
      <trkpt lat="49.16148" lon="1.65543">
        <ele>70.576080322266</ele>
        <time>2017-06-18T07:31:46.000Z</time>
      </trkpt>
      <trkpt lat="49.16144" lon="1.65539">
        <ele>70.595901489258</ele>
        <time>2017-06-18T07:31:48.000Z</time>
      </trkpt>
      <trkpt lat="49.16138" lon="1.65533">
        <ele>70.635704040527</ele>
        <time>2017-06-18T07:31:51.000Z</time>
      </trkpt>
      <trkpt lat="49.16135" lon="1.65528">
        <ele>70.690048217773</ele>
        <time>2017-06-18T07:31:53.000Z</time>
      </trkpt>
      <trkpt lat="49.16131" lon="1.65521">
        <ele>70.761985778809</ele>
        <time>2017-06-18T07:31:56.000Z</time>
      </trkpt>
      <trkpt lat="49.16128" lon="1.65516">
        <ele>70.848533630371</ele>
        <time>2017-06-18T07:31:58.000Z</time>
      </trkpt>
      <trkpt lat="49.16124" lon="1.65508">
        <ele>70.966102600098</ele>
        <time>2017-06-18T07:32:01.000Z</time>
      </trkpt>
      <trkpt lat="49.16122" lon="1.65503">
        <ele>71.093925476074</ele>
        <time>2017-06-18T07:32:03.000Z</time>
      </trkpt>
      <trkpt lat="49.16119" lon="1.65493">
        <ele>71.254661560059</ele>
        <time>2017-06-18T07:32:06.000Z</time>
      </trkpt>
      <trkpt lat="49.16117" lon="1.65482">
        <ele>71.446090698242</ele>
        <time>2017-06-18T07:32:09.000Z</time>
      </trkpt>
      <trkpt lat="49.16116" lon="1.65475">
        <ele>71.658111572266</ele>
        <time>2017-06-18T07:32:11.000Z</time>
      </trkpt>
      <trkpt lat="49.16115" lon="1.65464">
        <ele>71.888870239258</ele>
        <time>2017-06-18T07:32:14.000Z</time>
      </trkpt>
      <trkpt lat="49.16114" lon="1.65458">
        <ele>72.124313354492</ele>
        <time>2017-06-18T07:32:16.000Z</time>
      </trkpt>
      <trkpt lat="49.16113" lon="1.65447">
        <ele>72.364242553711</ele>
        <time>2017-06-18T07:32:19.000Z</time>
      </trkpt>
      <trkpt lat="49.16111" lon="1.65437">
        <ele>72.602195739746</ele>
        <time>2017-06-18T07:32:22.000Z</time>
      </trkpt>
      <trkpt lat="49.16111" lon="1.6543">
        <ele>72.836837768555</ele>
        <time>2017-06-18T07:32:24.000Z</time>
      </trkpt>
      <trkpt lat="49.1611" lon="1.6542">
        <ele>73.067611694336</ele>
        <time>2017-06-18T07:32:27.000Z</time>
      </trkpt>
      <trkpt lat="49.16109" lon="1.65413">
        <ele>73.308609008789</ele>
        <time>2017-06-18T07:32:29.000Z</time>
      </trkpt>
      <trkpt lat="49.16108" lon="1.65402">
        <ele>73.574775695801</ele>
        <time>2017-06-18T07:32:32.000Z</time>
      </trkpt>
      <trkpt lat="49.16106" lon="1.65391">
        <ele>73.867263793945</ele>
        <time>2017-06-18T07:32:35.000Z</time>
      </trkpt>
      <trkpt lat="49.16105" lon="1.6538">
        <ele>74.20246887207</ele>
        <time>2017-06-18T07:32:38.000Z</time>
      </trkpt>
      <trkpt lat="49.16105" lon="1.65369">
        <ele>74.566444396973</ele>
        <time>2017-06-18T07:32:41.000Z</time>
      </trkpt>
      <trkpt lat="49.16104" lon="1.65362">
        <ele>74.940223693848</ele>
        <time>2017-06-18T07:32:43.000Z</time>
      </trkpt>
      <trkpt lat="49.16102" lon="1.6535">
        <ele>75.312568664551</ele>
        <time>2017-06-18T07:32:46.000Z</time>
      </trkpt>
      <trkpt lat="49.16101" lon="1.65339">
        <ele>75.68424987793</ele>
        <time>2017-06-18T07:32:49.000Z</time>
      </trkpt>
      <trkpt lat="49.16098" lon="1.65327">
        <ele>76.055648803711</ele>
        <time>2017-06-18T07:32:52.000Z</time>
      </trkpt>
      <trkpt lat="49.16095" lon="1.65319">
        <ele>76.399765014648</ele>
        <time>2017-06-18T07:32:54.000Z</time>
      </trkpt>
      <trkpt lat="49.16091" lon="1.65307">
        <ele>76.771682739258</ele>
        <time>2017-06-18T07:32:57.000Z</time>
      </trkpt>
      <trkpt lat="49.16088" lon="1.65299">
        <ele>77.116020202637</ele>
        <time>2017-06-18T07:32:59.000Z</time>
      </trkpt>
      <trkpt lat="49.16082" lon="1.65289">
        <ele>77.455589294434</ele>
        <time>2017-06-18T07:33:02.000Z</time>
      </trkpt>
      <trkpt lat="49.16076" lon="1.65278">
        <ele>77.783042907715</ele>
        <time>2017-06-18T07:33:05.000Z</time>
      </trkpt>
      <trkpt lat="49.16071" lon="1.65271">
        <ele>78.097938537598</ele>
        <time>2017-06-18T07:33:07.000Z</time>
      </trkpt>
      <trkpt lat="49.16066" lon="1.65264">
        <ele>78.374404907227</ele>
        <time>2017-06-18T07:33:09.000Z</time>
      </trkpt>
      <trkpt lat="49.16059" lon="1.65254">
        <ele>78.665649414062</ele>
        <time>2017-06-18T07:33:12.000Z</time>
      </trkpt>
      <trkpt lat="49.16054" lon="1.65248">
        <ele>78.921432495117</ele>
        <time>2017-06-18T07:33:14.000Z</time>
      </trkpt>
      <trkpt lat="49.16049" lon="1.65241">
        <ele>79.141273498535</ele>
        <time>2017-06-18T07:33:16.000Z</time>
      </trkpt>
      <trkpt lat="49.16041" lon="1.65231">
        <ele>79.369644165039</ele>
        <time>2017-06-18T07:33:19.000Z</time>
      </trkpt>
      <trkpt lat="49.16036" lon="1.65224">
        <ele>79.591972351074</ele>
        <time>2017-06-18T07:33:21.000Z</time>
      </trkpt>
      <trkpt lat="49.16028" lon="1.65214">
        <ele>79.806015014648</ele>
        <time>2017-06-18T07:33:24.000Z</time>
      </trkpt>
      <trkpt lat="49.16023" lon="1.65207">
        <ele>80.023391723633</ele>
        <time>2017-06-18T07:33:26.000Z</time>
      </trkpt>
      <trkpt lat="49.16018" lon="1.652">
        <ele>80.255920410156</ele>
        <time>2017-06-18T07:33:28.000Z</time>
      </trkpt>
      <trkpt lat="49.1601" lon="1.65189">
        <ele>80.511512756348</ele>
        <time>2017-06-18T07:33:31.000Z</time>
      </trkpt>
      <trkpt lat="49.16002" lon="1.65178">
        <ele>80.80989074707</ele>
        <time>2017-06-18T07:33:34.000Z</time>
      </trkpt>
      <trkpt lat="49.15994" lon="1.65167">
        <ele>81.126266479492</ele>
        <time>2017-06-18T07:33:37.000Z</time>
      </trkpt>
      <trkpt lat="49.15989" lon="1.65159">
        <ele>81.41569519043</ele>
        <time>2017-06-18T07:33:39.000Z</time>
      </trkpt>
      <trkpt lat="49.15981" lon="1.65147">
        <ele>81.688453674316</ele>
        <time>2017-06-18T07:33:42.000Z</time>
      </trkpt>
      <trkpt lat="49.15973" lon="1.65134">
        <ele>81.920883178711</ele>
        <time>2017-06-18T07:33:45.000Z</time>
      </trkpt>
      <trkpt lat="49.15965" lon="1.65123">
        <ele>82.109283447266</ele>
        <time>2017-06-18T07:33:48.000Z</time>
      </trkpt>
      <trkpt lat="49.15957" lon="1.65111">
        <ele>82.266738891602</ele>
        <time>2017-06-18T07:33:51.000Z</time>
      </trkpt>
      <trkpt lat="49.15952" lon="1.65103">
        <ele>82.439376831055</ele>
        <time>2017-06-18T07:33:53.000Z</time>
      </trkpt>
      <trkpt lat="49.15945" lon="1.65092">
        <ele>82.635665893555</ele>
        <time>2017-06-18T07:33:56.000Z</time>
      </trkpt>
      <trkpt lat="49.1594" lon="1.65084">
        <ele>82.83553314209</ele>
        <time>2017-06-18T07:33:58.000Z</time>
      </trkpt>
      <trkpt lat="49.15933" lon="1.65074">
        <ele>83.059852600098</ele>
        <time>2017-06-18T07:34:01.000Z</time>
      </trkpt>
      <trkpt lat="49.15929" lon="1.65066">
        <ele>83.28491973877</ele>
        <time>2017-06-18T07:34:03.000Z</time>
      </trkpt>
      <trkpt lat="49.15922" lon="1.65054">
        <ele>83.549285888672</ele>
        <time>2017-06-18T07:34:06.000Z</time>
      </trkpt>
      <trkpt lat="49.15916" lon="1.65042">
        <ele>83.836715698242</ele>
        <time>2017-06-18T07:34:09.000Z</time>
      </trkpt>
      <trkpt lat="49.15912" lon="1.65034">
        <ele>84.170455932617</ele>
        <time>2017-06-18T07:34:11.000Z</time>
      </trkpt>
      <trkpt lat="49.15908" lon="1.65025">
        <ele>84.530685424805</ele>
        <time>2017-06-18T07:34:13.000Z</time>
      </trkpt>
      <trkpt lat="49.15903" lon="1.65012">
        <ele>84.981651306152</ele>
        <time>2017-06-18T07:34:16.000Z</time>
      </trkpt>
      <trkpt lat="49.159" lon="1.65">
        <ele>85.478393554688</ele>
        <time>2017-06-18T07:34:19.000Z</time>
      </trkpt>
      <trkpt lat="49.15898" lon="1.64993">
        <ele>85.977523803711</ele>
        <time>2017-06-18T07:34:21.000Z</time>
      </trkpt>
      <trkpt lat="49.15896" lon="1.64986">
        <ele>86.467529296875</ele>
        <time>2017-06-18T07:34:23.000Z</time>
      </trkpt>
      <trkpt lat="49.15894" lon="1.6498">
        <ele>86.945732116699</ele>
        <time>2017-06-18T07:34:25.000Z</time>
      </trkpt>
      <trkpt lat="49.15891" lon="1.64971">
        <ele>87.39705657959</ele>
        <time>2017-06-18T07:34:28.000Z</time>
      </trkpt>
      <trkpt lat="49.15889" lon="1.64965">
        <ele>87.802108764648</ele>
        <time>2017-06-18T07:34:30.000Z</time>
      </trkpt>
      <trkpt lat="49.15888" lon="1.6496">
        <ele>88.198181152344</ele>
        <time>2017-06-18T07:34:32.000Z</time>
      </trkpt>
      <trkpt lat="49.15886" lon="1.64955">
        <ele>88.588691711426</ele>
        <time>2017-06-18T07:34:34.000Z</time>
      </trkpt>
      <trkpt lat="49.15884" lon="1.64948">
        <ele>89.000755310059</ele>
        <time>2017-06-18T07:34:37.000Z</time>
      </trkpt>
      <trkpt lat="49.15881" lon="1.64941">
        <ele>89.403793334961</ele>
        <time>2017-06-18T07:34:40.000Z</time>
      </trkpt>
      <trkpt lat="49.15879" lon="1.64934">
        <ele>89.844833374023</ele>
        <time>2017-06-18T07:34:43.000Z</time>
      </trkpt>
      <trkpt lat="49.15878" lon="1.64929">
        <ele>90.28369140625</ele>
        <time>2017-06-18T07:34:45.000Z</time>
      </trkpt>
      <trkpt lat="49.15876" lon="1.64922">
        <ele>90.756042480469</ele>
        <time>2017-06-18T07:34:48.000Z</time>
      </trkpt>
      <trkpt lat="49.15874" lon="1.64918">
        <ele>91.197677612305</ele>
        <time>2017-06-18T07:34:50.000Z</time>
      </trkpt>
      <trkpt lat="49.15873" lon="1.64914">
        <ele>91.610046386719</ele>
        <time>2017-06-18T07:34:52.000Z</time>
      </trkpt>
      <trkpt lat="49.15871" lon="1.6491">
        <ele>91.976516723633</ele>
        <time>2017-06-18T07:34:54.000Z</time>
      </trkpt>
      <trkpt lat="49.1587" lon="1.64905">
        <ele>92.34114074707</ele>
        <time>2017-06-18T07:34:56.000Z</time>
      </trkpt>
      <trkpt lat="49.15868" lon="1.64899">
        <ele>92.707527160645</ele>
        <time>2017-06-18T07:34:59.000Z</time>
      </trkpt>
      <trkpt lat="49.15867" lon="1.64895">
        <ele>93.07080078125</ele>
        <time>2017-06-18T07:35:01.000Z</time>
      </trkpt>
      <trkpt lat="49.15865" lon="1.64889">
        <ele>93.462043762207</ele>
        <time>2017-06-18T07:35:04.000Z</time>
      </trkpt>
      <trkpt lat="49.15863" lon="1.64884">
        <ele>93.862258911133</ele>
        <time>2017-06-18T07:35:06.000Z</time>
      </trkpt>
      <trkpt lat="49.15862" lon="1.64878">
        <ele>94.292175292969</ele>
        <time>2017-06-18T07:35:09.000Z</time>
      </trkpt>
      <trkpt lat="49.15859" lon="1.64872">
        <ele>94.713310241699</ele>
        <time>2017-06-18T07:35:12.000Z</time>
      </trkpt>
      <trkpt lat="49.15857" lon="1.64867">
        <ele>95.156639099121</ele>
        <time>2017-06-18T07:35:15.000Z</time>
      </trkpt>
      <trkpt lat="49.15855" lon="1.64864">
        <ele>95.548027038574</ele>
        <time>2017-06-18T07:35:17.000Z</time>
      </trkpt>
      <trkpt lat="49.15853" lon="1.64859">
        <ele>95.944358825684</ele>
        <time>2017-06-18T07:35:20.000Z</time>
      </trkpt>
      <trkpt lat="49.15852" lon="1.64856">
        <ele>96.296852111816</ele>
        <time>2017-06-18T07:35:22.000Z</time>
      </trkpt>
      <trkpt lat="49.1585" lon="1.64853">
        <ele>96.613487243652</ele>
        <time>2017-06-18T07:35:24.000Z</time>
      </trkpt>
      <trkpt lat="49.15847" lon="1.64848">
        <ele>96.916221618652</ele>
        <time>2017-06-18T07:35:27.000Z</time>
      </trkpt>
      <trkpt lat="49.15845" lon="1.64843">
        <ele>97.256309509277</ele>
        <time>2017-06-18T07:35:30.000Z</time>
      </trkpt>
      <trkpt lat="49.15842" lon="1.64838">
        <ele>97.603706359863</ele>
        <time>2017-06-18T07:35:33.000Z</time>
      </trkpt>
      <trkpt lat="49.15839" lon="1.64832">
        <ele>97.987236022949</ele>
        <time>2017-06-18T07:35:36.000Z</time>
      </trkpt>
      <trkpt lat="49.15836" lon="1.64827">
        <ele>98.41340637207</ele>
        <time>2017-06-18T07:35:39.000Z</time>
      </trkpt>
      <trkpt lat="49.15834" lon="1.64822">
        <ele>98.868705749512</ele>
        <time>2017-06-18T07:35:42.000Z</time>
      </trkpt>
      <trkpt lat="49.15831" lon="1.64816">
        <ele>99.360504150391</ele>
        <time>2017-06-18T07:35:45.000Z</time>
      </trkpt>
      <trkpt lat="49.15829" lon="1.64812">
        <ele>99.847145080566</ele>
        <time>2017-06-18T07:35:47.000Z</time>
      </trkpt>
      <trkpt lat="49.15827" lon="1.64808">
        <ele>100.33451843262</ele>
        <time>2017-06-18T07:35:49.000Z</time>
      </trkpt>
      <trkpt lat="49.15826" lon="1.64804">
        <ele>100.80233764648</ele>
        <time>2017-06-18T07:35:51.000Z</time>
      </trkpt>
      <trkpt lat="49.15824" lon="1.64801">
        <ele>101.25350189209</ele>
        <time>2017-06-18T07:35:53.000Z</time>
      </trkpt>
      <trkpt lat="49.15821" lon="1.64795">
        <ele>101.7078704834</ele>
        <time>2017-06-18T07:35:56.000Z</time>
      </trkpt>
      <trkpt lat="49.15819" lon="1.64792">
        <ele>102.16535949707</ele>
        <time>2017-06-18T07:35:58.000Z</time>
      </trkpt>
      <trkpt lat="49.15816" lon="1.64787">
        <ele>102.65451812744</ele>
        <time>2017-06-18T07:36:01.000Z</time>
      </trkpt>
      <trkpt lat="49.15813" lon="1.64781">
        <ele>103.19248962402</ele>
        <time>2017-06-18T07:36:04.000Z</time>
      </trkpt>
      <trkpt lat="49.1581" lon="1.64776">
        <ele>103.76838684082</ele>
        <time>2017-06-18T07:36:07.000Z</time>
      </trkpt>
      <trkpt lat="49.15808" lon="1.6477">
        <ele>104.3514175415</ele>
        <time>2017-06-18T07:36:10.000Z</time>
      </trkpt>
      <trkpt lat="49.15806" lon="1.64767">
        <ele>104.93632507324</ele>
        <time>2017-06-18T07:36:12.000Z</time>
      </trkpt>
      <trkpt lat="49.15805" lon="1.64763">
        <ele>105.47180175781</ele>
        <time>2017-06-18T07:36:14.000Z</time>
      </trkpt>
      <trkpt lat="49.15802" lon="1.64758">
        <ele>105.99674987793</ele>
        <time>2017-06-18T07:36:17.000Z</time>
      </trkpt>
      <trkpt lat="49.15801" lon="1.64754">
        <ele>106.481590271</ele>
        <time>2017-06-18T07:36:19.000Z</time>
      </trkpt>
      <trkpt lat="49.15799" lon="1.64751">
        <ele>106.92004394531</ele>
        <time>2017-06-18T07:36:21.000Z</time>
      </trkpt>
      <trkpt lat="49.15797" lon="1.64745">
        <ele>107.38323974609</ele>
        <time>2017-06-18T07:36:24.000Z</time>
      </trkpt>
      <trkpt lat="49.15795" lon="1.6474">
        <ele>107.88028717041</ele>
        <time>2017-06-18T07:36:27.000Z</time>
      </trkpt>
      <trkpt lat="49.15793" lon="1.64735">
        <ele>108.33603668213</ele>
        <time>2017-06-18T07:36:30.000Z</time>
      </trkpt>
      <trkpt lat="49.15791" lon="1.64731">
        <ele>108.79305267334</ele>
        <time>2017-06-18T07:36:33.000Z</time>
      </trkpt>
      <trkpt lat="49.1579" lon="1.64726">
        <ele>109.25289154053</ele>
        <time>2017-06-18T07:36:36.000Z</time>
      </trkpt>
      <trkpt lat="49.15789" lon="1.64723">
        <ele>109.64996337891</ele>
        <time>2017-06-18T07:36:38.000Z</time>
      </trkpt>
      <trkpt lat="49.15788" lon="1.64718">
        <ele>110.02303314209</ele>
        <time>2017-06-18T07:36:41.000Z</time>
      </trkpt>
      <trkpt lat="49.15787" lon="1.64715">
        <ele>110.35997009277</ele>
        <time>2017-06-18T07:36:43.000Z</time>
      </trkpt>
      <trkpt lat="49.15785" lon="1.64712">
        <ele>110.67793273926</ele>
        <time>2017-06-18T07:36:45.000Z</time>
      </trkpt>
      <trkpt lat="49.15784" lon="1.64708">
        <ele>110.97133636475</ele>
        <time>2017-06-18T07:36:47.000Z</time>
      </trkpt>
      <trkpt lat="49.15782" lon="1.64702">
        <ele>111.32053375244</ele>
        <time>2017-06-18T07:36:50.000Z</time>
      </trkpt>
      <trkpt lat="49.15781" lon="1.64697">
        <ele>111.65936279297</ele>
        <time>2017-06-18T07:36:52.000Z</time>
      </trkpt>
      <trkpt lat="49.15778" lon="1.64691">
        <ele>112.05159759521</ele>
        <time>2017-06-18T07:36:55.000Z</time>
      </trkpt>
      <trkpt lat="49.15776" lon="1.64685">
        <ele>112.47315979004</ele>
        <time>2017-06-18T07:36:58.000Z</time>
      </trkpt>
      <trkpt lat="49.15775" lon="1.64681">
        <ele>112.89753723145</ele>
        <time>2017-06-18T07:37:00.000Z</time>
      </trkpt>
      <trkpt lat="49.15773" lon="1.64676">
        <ele>113.30415344238</ele>
        <time>2017-06-18T07:37:03.000Z</time>
      </trkpt>
      <trkpt lat="49.15771" lon="1.64672">
        <ele>113.70497131348</ele>
        <time>2017-06-18T07:37:05.000Z</time>
      </trkpt>
      <trkpt lat="49.15769" lon="1.64666">
        <ele>114.10032653809</ele>
        <time>2017-06-18T07:37:08.000Z</time>
      </trkpt>
      <trkpt lat="49.15768" lon="1.64662">
        <ele>114.47238922119</ele>
        <time>2017-06-18T07:37:10.000Z</time>
      </trkpt>
      <trkpt lat="49.15767" lon="1.64659">
        <ele>114.85760498047</ele>
        <time>2017-06-18T07:37:12.000Z</time>
      </trkpt>
      <trkpt lat="49.15765" lon="1.64653">
        <ele>115.27823638916</ele>
        <time>2017-06-18T07:37:15.000Z</time>
      </trkpt>
      <trkpt lat="49.15763" lon="1.64647">
        <ele>115.7548828125</ele>
        <time>2017-06-18T07:37:18.000Z</time>
      </trkpt>
      <trkpt lat="49.15762" lon="1.64643">
        <ele>116.21966552734</ele>
        <time>2017-06-18T07:37:20.000Z</time>
      </trkpt>
      <trkpt lat="49.15761" lon="1.64639">
        <ele>116.69467926025</ele>
        <time>2017-06-18T07:37:22.000Z</time>
      </trkpt>
      <trkpt lat="49.15759" lon="1.64632">
        <ele>117.22138977051</ele>
        <time>2017-06-18T07:37:25.000Z</time>
      </trkpt>
      <trkpt lat="49.15757" lon="1.64626">
        <ele>117.76078033447</ele>
        <time>2017-06-18T07:37:28.000Z</time>
      </trkpt>
      <trkpt lat="49.15755" lon="1.64622">
        <ele>118.26390075684</ele>
        <time>2017-06-18T07:37:30.000Z</time>
      </trkpt>
      <trkpt lat="49.15754" lon="1.64618">
        <ele>118.77597808838</ele>
        <time>2017-06-18T07:37:32.000Z</time>
      </trkpt>
      <trkpt lat="49.15752" lon="1.64611">
        <ele>119.35084533691</ele>
        <time>2017-06-18T07:37:35.000Z</time>
      </trkpt>
      <trkpt lat="49.15751" lon="1.64604">
        <ele>119.93227386475</ele>
        <time>2017-06-18T07:37:38.000Z</time>
      </trkpt>
      <trkpt lat="49.1575" lon="1.646">
        <ele>120.46537780762</ele>
        <time>2017-06-18T07:37:40.000Z</time>
      </trkpt>
      <trkpt lat="49.15749" lon="1.64593">
        <ele>121.05208587646</ele>
        <time>2017-06-18T07:37:43.000Z</time>
      </trkpt>
      <trkpt lat="49.15748" lon="1.64586">
        <ele>121.68354797363</ele>
        <time>2017-06-18T07:37:46.000Z</time>
      </trkpt>
      <trkpt lat="49.15748" lon="1.64581">
        <ele>122.26866149902</ele>
        <time>2017-06-18T07:37:48.000Z</time>
      </trkpt>
      <trkpt lat="49.15747" lon="1.64574">
        <ele>122.88083648682</ele>
        <time>2017-06-18T07:37:51.000Z</time>
      </trkpt>
      <trkpt lat="49.15747" lon="1.6457">
        <ele>123.51121520996</ele>
        <time>2017-06-18T07:37:53.000Z</time>
      </trkpt>
      <trkpt lat="49.15747" lon="1.64562">
        <ele>124.16383361816</ele>
        <time>2017-06-18T07:37:56.000Z</time>
      </trkpt>
      <trkpt lat="49.15747" lon="1.64558">
        <ele>124.78383636475</ele>
        <time>2017-06-18T07:37:58.000Z</time>
      </trkpt>
      <trkpt lat="49.15747" lon="1.64553">
        <ele>125.41090393066</ele>
        <time>2017-06-18T07:38:00.000Z</time>
      </trkpt>
      <trkpt lat="49.15746" lon="1.64545">
        <ele>126.0414276123</ele>
        <time>2017-06-18T07:38:03.000Z</time>
      </trkpt>
      <trkpt lat="49.15747" lon="1.64537">
        <ele>126.72299957275</ele>
        <time>2017-06-18T07:38:06.000Z</time>
      </trkpt>
      <trkpt lat="49.15748" lon="1.64533">
        <ele>127.33686828613</ele>
        <time>2017-06-18T07:38:08.000Z</time>
      </trkpt>
      <trkpt lat="49.15748" lon="1.64528">
        <ele>127.94293212891</ele>
        <time>2017-06-18T07:38:10.000Z</time>
      </trkpt>
      <trkpt lat="49.15749" lon="1.64521">
        <ele>128.59268188477</ele>
        <time>2017-06-18T07:38:13.000Z</time>
      </trkpt>
      <trkpt lat="49.15748" lon="1.64514">
        <ele>129.22816467285</ele>
        <time>2017-06-18T07:38:16.000Z</time>
      </trkpt>
      <trkpt lat="49.15748" lon="1.64509">
        <ele>129.81503295898</ele>
        <time>2017-06-18T07:38:18.000Z</time>
      </trkpt>
      <trkpt lat="49.15748" lon="1.64502">
        <ele>130.4651184082</ele>
        <time>2017-06-18T07:38:21.000Z</time>
      </trkpt>
      <trkpt lat="49.15749" lon="1.64497">
        <ele>131.07606506348</ele>
        <time>2017-06-18T07:38:23.000Z</time>
      </trkpt>
      <trkpt lat="49.15749" lon="1.64493">
        <ele>131.55545043945</ele>
        <time>2017-06-18T07:38:25.000Z</time>
      </trkpt>
      <trkpt lat="49.1575" lon="1.64488">
        <ele>131.90194702148</ele>
        <time>2017-06-18T07:38:27.000Z</time>
      </trkpt>
      <trkpt lat="49.15749" lon="1.64483">
        <ele>132.1706237793</ele>
        <time>2017-06-18T07:38:29.000Z</time>
      </trkpt>
      <trkpt lat="49.15748" lon="1.64476">
        <ele>132.32809448242</ele>
        <time>2017-06-18T07:38:32.000Z</time>
      </trkpt>
      <trkpt lat="49.15747" lon="1.64469">
        <ele>132.46878051758</ele>
        <time>2017-06-18T07:38:35.000Z</time>
      </trkpt>
      <trkpt lat="49.15745" lon="1.64462">
        <ele>132.63264465332</ele>
        <time>2017-06-18T07:38:38.000Z</time>
      </trkpt>
      <trkpt lat="49.15744" lon="1.64457">
        <ele>132.80235290527</ele>
        <time>2017-06-18T07:38:40.000Z</time>
      </trkpt>
      <trkpt lat="49.15741" lon="1.64451">
        <ele>132.98184204102</ele>
        <time>2017-06-18T07:38:43.000Z</time>
      </trkpt>
      <trkpt lat="49.1574" lon="1.64446">
        <ele>133.13787841797</ele>
        <time>2017-06-18T07:38:45.000Z</time>
      </trkpt>
      <trkpt lat="49.15739" lon="1.64442">
        <ele>133.27944946289</ele>
        <time>2017-06-18T07:38:47.000Z</time>
      </trkpt>
      <trkpt lat="49.15737" lon="1.64437">
        <ele>133.40060424805</ele>
        <time>2017-06-18T07:38:49.000Z</time>
      </trkpt>
      <trkpt lat="49.15735" lon="1.64431">
        <ele>133.52389526367</ele>
        <time>2017-06-18T07:38:52.000Z</time>
      </trkpt>
      <trkpt lat="49.15733" lon="1.64424">
        <ele>133.6374206543</ele>
        <time>2017-06-18T07:38:55.000Z</time>
      </trkpt>
      <trkpt lat="49.15731" lon="1.64417">
        <ele>133.75207519531</ele>
        <time>2017-06-18T07:38:58.000Z</time>
      </trkpt>
      <trkpt lat="49.15728" lon="1.64411">
        <ele>133.86965942383</ele>
        <time>2017-06-18T07:39:01.000Z</time>
      </trkpt>
      <trkpt lat="49.15725" lon="1.64403">
        <ele>133.99681091309</ele>
        <time>2017-06-18T07:39:04.000Z</time>
      </trkpt>
      <trkpt lat="49.15724" lon="1.64399">
        <ele>134.11660766602</ele>
        <time>2017-06-18T07:39:06.000Z</time>
      </trkpt>
      <trkpt lat="49.15721" lon="1.64391">
        <ele>134.24368286133</ele>
        <time>2017-06-18T07:39:09.000Z</time>
      </trkpt>
      <trkpt lat="49.15718" lon="1.64387">
        <ele>134.37133789062</ele>
        <time>2017-06-18T07:39:11.000Z</time>
      </trkpt>
      <trkpt lat="49.15716" lon="1.64382">
        <ele>134.49993896484</ele>
        <time>2017-06-18T07:39:13.000Z</time>
      </trkpt>
      <trkpt lat="49.15713" lon="1.64375">
        <ele>134.63955688477</ele>
        <time>2017-06-18T07:39:16.000Z</time>
      </trkpt>
      <trkpt lat="49.1571" lon="1.6437">
        <ele>134.78546142578</ele>
        <time>2017-06-18T07:39:18.000Z</time>
      </trkpt>
      <trkpt lat="49.15707" lon="1.64363">
        <ele>134.94367980957</ele>
        <time>2017-06-18T07:39:21.000Z</time>
      </trkpt>
      <trkpt lat="49.15704" lon="1.64358">
        <ele>135.11590576172</ele>
        <time>2017-06-18T07:39:23.000Z</time>
      </trkpt>
      <trkpt lat="49.15701" lon="1.64349">
        <ele>135.31924438477</ele>
        <time>2017-06-18T07:39:26.000Z</time>
      </trkpt>
      <trkpt lat="49.15699" lon="1.64343">
        <ele>135.52011108398</ele>
        <time>2017-06-18T07:39:28.000Z</time>
      </trkpt>
      <trkpt lat="49.15697" lon="1.64337">
        <ele>135.73931884766</ele>
        <time>2017-06-18T07:39:30.000Z</time>
      </trkpt>
      <trkpt lat="49.15694" lon="1.64329">
        <ele>135.94401550293</ele>
        <time>2017-06-18T07:39:33.000Z</time>
      </trkpt>
      <trkpt lat="49.15692" lon="1.64324">
        <ele>136.11569213867</ele>
        <time>2017-06-18T07:39:36.000Z</time>
      </trkpt>
      <trkpt lat="49.15691" lon="1.64323">
        <ele>136.23330688477</ele>
        <time>2017-06-18T07:39:39.000Z</time>
      </trkpt>
      <trkpt lat="49.15693" lon="1.64323">
        <ele>136.30851745605</ele>
        <time>2017-06-18T07:39:49.000Z</time>
      </trkpt>
      <trkpt lat="49.15691" lon="1.64322">
        <ele>136.34376525879</ele>
        <time>2017-06-18T07:39:58.000Z</time>
      </trkpt>
      <trkpt lat="49.15693" lon="1.64322">
        <ele>136.34323120117</ele>
        <time>2017-06-18T07:40:17.000Z</time>
      </trkpt>
      <trkpt lat="49.15692" lon="1.6432">
        <ele>136.33909606934</ele>
        <time>2017-06-18T07:40:34.000Z</time>
      </trkpt>
      <trkpt lat="49.15691" lon="1.64318">
        <ele>136.33448791504</ele>
        <time>2017-06-18T07:40:39.000Z</time>
      </trkpt>
      <trkpt lat="49.15688" lon="1.64312">
        <ele>136.34126281738</ele>
        <time>2017-06-18T07:40:42.000Z</time>
      </trkpt>
      <trkpt lat="49.15684" lon="1.64304">
        <ele>136.34727478027</ele>
        <time>2017-06-18T07:40:45.000Z</time>
      </trkpt>
      <trkpt lat="49.1568" lon="1.64295">
        <ele>136.35627746582</ele>
        <time>2017-06-18T07:40:48.000Z</time>
      </trkpt>
      <trkpt lat="49.15675" lon="1.64283">
        <ele>136.35452270508</ele>
        <time>2017-06-18T07:40:51.000Z</time>
      </trkpt>
      <trkpt lat="49.15669" lon="1.64266">
        <ele>136.32424926758</ele>
        <time>2017-06-18T07:40:54.000Z</time>
      </trkpt>
      <trkpt lat="49.15665" lon="1.64255">
        <ele>136.25871276855</ele>
        <time>2017-06-18T07:40:56.000Z</time>
      </trkpt>
      <trkpt lat="49.1566" lon="1.64244">
        <ele>136.17910766602</ele>
        <time>2017-06-18T07:40:58.000Z</time>
      </trkpt>
      <trkpt lat="49.15652" lon="1.64228">
        <ele>136.11386108398</ele>
        <time>2017-06-18T07:41:01.000Z</time>
      </trkpt>
      <trkpt lat="49.15648" lon="1.64217">
        <ele>136.06416320801</ele>
        <time>2017-06-18T07:41:03.000Z</time>
      </trkpt>
      <trkpt lat="49.15639" lon="1.64199">
        <ele>136.04431152344</ele>
        <time>2017-06-18T07:41:06.000Z</time>
      </trkpt>
      <trkpt lat="49.1563" lon="1.64179">
        <ele>136.04516601562</ele>
        <time>2017-06-18T07:41:09.000Z</time>
      </trkpt>
      <trkpt lat="49.15622" lon="1.64159">
        <ele>136.01126098633</ele>
        <time>2017-06-18T07:41:12.000Z</time>
      </trkpt>
      <trkpt lat="49.15614" lon="1.64136">
        <ele>135.85960388184</ele>
        <time>2017-06-18T07:41:15.000Z</time>
      </trkpt>
      <trkpt lat="49.15607" lon="1.64112">
        <ele>135.57272338867</ele>
        <time>2017-06-18T07:41:18.000Z</time>
      </trkpt>
      <trkpt lat="49.15599" lon="1.64087">
        <ele>135.11909484863</ele>
        <time>2017-06-18T07:41:21.000Z</time>
      </trkpt>
      <trkpt lat="49.15593" lon="1.64059">
        <ele>134.59187316895</ele>
        <time>2017-06-18T07:41:24.000Z</time>
      </trkpt>
      <trkpt lat="49.15585" lon="1.64029">
        <ele>134.04275512695</ele>
        <time>2017-06-18T07:41:27.000Z</time>
      </trkpt>
      <trkpt lat="49.15581" lon="1.64008">
        <ele>133.54179382324</ele>
        <time>2017-06-18T07:41:29.000Z</time>
      </trkpt>
      <trkpt lat="49.15575" lon="1.63974">
        <ele>133.04995727539</ele>
        <time>2017-06-18T07:41:32.000Z</time>
      </trkpt>
      <trkpt lat="49.15568" lon="1.63941">
        <ele>132.54122924805</ele>
        <time>2017-06-18T07:41:35.000Z</time>
      </trkpt>
      <trkpt lat="49.15562" lon="1.63905">
        <ele>131.98886108398</ele>
        <time>2017-06-18T07:41:38.000Z</time>
      </trkpt>
      <trkpt lat="49.15555" lon="1.63867">
        <ele>131.45143127441</ele>
        <time>2017-06-18T07:41:41.000Z</time>
      </trkpt>
      <trkpt lat="49.15548" lon="1.6383">
        <ele>130.91482543945</ele>
        <time>2017-06-18T07:41:44.000Z</time>
      </trkpt>
      <trkpt lat="49.15541" lon="1.63793">
        <ele>130.76400756836</ele>
        <time>2017-06-18T07:41:47.000Z</time>
      </trkpt>
      <trkpt lat="49.15538" lon="1.63767">
        <ele>130.98374938965</ele>
        <time>2017-06-18T07:41:49.000Z</time>
      </trkpt>
      <trkpt lat="49.15533" lon="1.63737">
        <ele>131.42948913574</ele>
        <time>2017-06-18T07:41:51.000Z</time>
      </trkpt>
      <trkpt lat="49.15527" lon="1.63714">
        <ele>131.84251403809</ele>
        <time>2017-06-18T07:41:53.000Z</time>
      </trkpt>
      <trkpt lat="49.15522" lon="1.63689">
        <ele>132.24418640137</ele>
        <time>2017-06-18T07:41:55.000Z</time>
      </trkpt>
      <trkpt lat="49.15521" lon="1.63656">
        <ele>132.46626281738</ele>
        <time>2017-06-18T07:41:57.000Z</time>
      </trkpt>
      <trkpt lat="49.15526" lon="1.63621">
        <ele>132.66450500488</ele>
        <time>2017-06-18T07:42:00.000Z</time>
      </trkpt>
      <trkpt lat="49.15515" lon="1.63588">
        <ele>132.47331237793</ele>
        <time>2017-06-18T07:42:03.000Z</time>
      </trkpt>
      <trkpt lat="49.15505" lon="1.63555">
        <ele>131.96980285645</ele>
        <time>2017-06-18T07:42:06.000Z</time>
      </trkpt>
      <trkpt lat="49.15499" lon="1.6352">
        <ele>131.22129821777</ele>
        <time>2017-06-18T07:42:09.000Z</time>
      </trkpt>
      <trkpt lat="49.1549" lon="1.63498">
        <ele>130.12637329102</ele>
        <time>2017-06-18T07:42:11.000Z</time>
      </trkpt>
      <trkpt lat="49.15477" lon="1.6348">
        <ele>128.59791564941</ele>
        <time>2017-06-18T07:42:13.000Z</time>
      </trkpt>
      <trkpt lat="49.15459" lon="1.63456">
        <ele>127.11698150635</ele>
        <time>2017-06-18T07:42:16.000Z</time>
      </trkpt>
      <trkpt lat="49.1545" lon="1.63444">
        <ele>125.96854400635</ele>
        <time>2017-06-18T07:42:18.000Z</time>
      </trkpt>
      <trkpt lat="49.15435" lon="1.63428">
        <ele>125.09593200684</ele>
        <time>2017-06-18T07:42:21.000Z</time>
      </trkpt>
      <trkpt lat="49.1542" lon="1.63414">
        <ele>124.50511169434</ele>
        <time>2017-06-18T07:42:24.000Z</time>
      </trkpt>
      <trkpt lat="49.15401" lon="1.63417">
        <ele>124.04585266113</ele>
        <time>2017-06-18T07:42:27.000Z</time>
      </trkpt>
      <trkpt lat="49.15378" lon="1.63427">
        <ele>123.55635070801</ele>
        <time>2017-06-18T07:42:30.000Z</time>
      </trkpt>
      <trkpt lat="49.15353" lon="1.6344">
        <ele>122.76412200928</ele>
        <time>2017-06-18T07:42:33.000Z</time>
      </trkpt>
      <trkpt lat="49.15335" lon="1.63451">
        <ele>121.68029785156</ele>
        <time>2017-06-18T07:42:35.000Z</time>
      </trkpt>
      <trkpt lat="49.15317" lon="1.63464">
        <ele>120.23709869385</ele>
        <time>2017-06-18T07:42:37.000Z</time>
      </trkpt>
      <trkpt lat="49.15298" lon="1.63478">
        <ele>118.59033203125</ele>
        <time>2017-06-18T07:42:39.000Z</time>
      </trkpt>
      <trkpt lat="49.15282" lon="1.63493">
        <ele>116.88984680176</ele>
        <time>2017-06-18T07:42:41.000Z</time>
      </trkpt>
      <trkpt lat="49.15266" lon="1.63503">
        <ele>115.32960510254</ele>
        <time>2017-06-18T07:42:43.000Z</time>
      </trkpt>
      <trkpt lat="49.15256" lon="1.63511">
        <ele>113.926612854</ele>
        <time>2017-06-18T07:42:45.000Z</time>
      </trkpt>
      <trkpt lat="49.1525" lon="1.63524">
        <ele>112.66426849365</ele>
        <time>2017-06-18T07:42:48.000Z</time>
      </trkpt>
      <trkpt lat="49.15252" lon="1.63536">
        <ele>111.61689758301</ele>
        <time>2017-06-18T07:42:50.000Z</time>
      </trkpt>
      <trkpt lat="49.15255" lon="1.63549">
        <ele>110.77290344238</ele>
        <time>2017-06-18T07:42:52.000Z</time>
      </trkpt>
      <trkpt lat="49.15261" lon="1.63575">
        <ele>109.91516113281</ele>
        <time>2017-06-18T07:42:55.000Z</time>
      </trkpt>
      <trkpt lat="49.15265" lon="1.63595">
        <ele>109.08884429932</ele>
        <time>2017-06-18T07:42:57.000Z</time>
      </trkpt>
      <trkpt lat="49.1527" lon="1.63624">
        <ele>108.26985168457</ele>
        <time>2017-06-18T07:43:00.000Z</time>
      </trkpt>
      <trkpt lat="49.15275" lon="1.63656">
        <ele>107.35200500488</ele>
        <time>2017-06-18T07:43:03.000Z</time>
      </trkpt>
      <trkpt lat="49.15279" lon="1.63678">
        <ele>106.41408538818</ele>
        <time>2017-06-18T07:43:05.000Z</time>
      </trkpt>
      <trkpt lat="49.15281" lon="1.63712">
        <ele>105.4806060791</ele>
        <time>2017-06-18T07:43:08.000Z</time>
      </trkpt>
      <trkpt lat="49.15282" lon="1.63737">
        <ele>104.51591491699</ele>
        <time>2017-06-18T07:43:10.000Z</time>
      </trkpt>
      <trkpt lat="49.15282" lon="1.63763">
        <ele>103.54797363281</ele>
        <time>2017-06-18T07:43:12.000Z</time>
      </trkpt>
      <trkpt lat="49.15279" lon="1.63799">
        <ele>102.49424743652</ele>
        <time>2017-06-18T07:43:15.000Z</time>
      </trkpt>
      <trkpt lat="49.15273" lon="1.63835">
        <ele>101.23754882812</ele>
        <time>2017-06-18T07:43:18.000Z</time>
      </trkpt>
      <trkpt lat="49.15266" lon="1.63871">
        <ele>99.902099609375</ele>
        <time>2017-06-18T07:43:21.000Z</time>
      </trkpt>
      <trkpt lat="49.15261" lon="1.63894">
        <ele>98.521987915039</ele>
        <time>2017-06-18T07:43:23.000Z</time>
      </trkpt>
      <trkpt lat="49.15253" lon="1.6393">
        <ele>96.980819702148</ele>
        <time>2017-06-18T07:43:26.000Z</time>
      </trkpt>
      <trkpt lat="49.15245" lon="1.63968">
        <ele>95.506973266602</ele>
        <time>2017-06-18T07:43:29.000Z</time>
      </trkpt>
      <trkpt lat="49.15238" lon="1.64007">
        <ele>94.216918945312</ele>
        <time>2017-06-18T07:43:32.000Z</time>
      </trkpt>
      <trkpt lat="49.15234" lon="1.64033">
        <ele>93.266403198242</ele>
        <time>2017-06-18T07:43:34.000Z</time>
      </trkpt>
      <trkpt lat="49.15225" lon="1.6407">
        <ele>92.533721923828</ele>
        <time>2017-06-18T07:43:37.000Z</time>
      </trkpt>
      <trkpt lat="49.15217" lon="1.6411">
        <ele>92.240821838379</ele>
        <time>2017-06-18T07:43:40.000Z</time>
      </trkpt>
      <trkpt lat="49.1521" lon="1.6415">
        <ele>92.257629394531</ele>
        <time>2017-06-18T07:43:43.000Z</time>
      </trkpt>
      <trkpt lat="49.15202" lon="1.64193">
        <ele>92.205154418945</ele>
        <time>2017-06-18T07:43:46.000Z</time>
      </trkpt>
      <trkpt lat="49.15197" lon="1.6422">
        <ele>91.850440979004</ele>
        <time>2017-06-18T07:43:48.000Z</time>
      </trkpt>
      <trkpt lat="49.15191" lon="1.64248">
        <ele>91.16040802002</ele>
        <time>2017-06-18T07:43:50.000Z</time>
      </trkpt>
      <trkpt lat="49.15186" lon="1.64276">
        <ele>90.14143371582</ele>
        <time>2017-06-18T07:43:52.000Z</time>
      </trkpt>
      <trkpt lat="49.15178" lon="1.64301">
        <ele>88.690788269043</ele>
        <time>2017-06-18T07:43:54.000Z</time>
      </trkpt>
      <trkpt lat="49.15161" lon="1.64339">
        <ele>86.965774536133</ele>
        <time>2017-06-18T07:43:57.000Z</time>
      </trkpt>
      <trkpt lat="49.1515" lon="1.64364">
        <ele>85.429733276367</ele>
        <time>2017-06-18T07:43:59.000Z</time>
      </trkpt>
      <trkpt lat="49.15134" lon="1.64401">
        <ele>83.917671203613</ele>
        <time>2017-06-18T07:44:02.000Z</time>
      </trkpt>
      <trkpt lat="49.1512" lon="1.64441">
        <ele>82.20076751709</ele>
        <time>2017-06-18T07:44:05.000Z</time>
      </trkpt>
      <trkpt lat="49.15107" lon="1.64482">
        <ele>80.247329711914</ele>
        <time>2017-06-18T07:44:08.000Z</time>
      </trkpt>
      <trkpt lat="49.15095" lon="1.64524">
        <ele>78.130798339844</ele>
        <time>2017-06-18T07:44:11.000Z</time>
      </trkpt>
      <trkpt lat="49.15087" lon="1.64552">
        <ele>75.634948730469</ele>
        <time>2017-06-18T07:44:13.000Z</time>
      </trkpt>
      <trkpt lat="49.15078" lon="1.64595">
        <ele>73.092552185059</ele>
        <time>2017-06-18T07:44:16.000Z</time>
      </trkpt>
      <trkpt lat="49.1507" lon="1.64638">
        <ele>70.95824432373</ele>
        <time>2017-06-18T07:44:19.000Z</time>
      </trkpt>
      <trkpt lat="49.15063" lon="1.64684">
        <ele>69.312705993652</ele>
        <time>2017-06-18T07:44:22.000Z</time>
      </trkpt>
      <trkpt lat="49.15058" lon="1.64731">
        <ele>68.080078125</ele>
        <time>2017-06-18T07:44:25.000Z</time>
      </trkpt>
      <trkpt lat="49.15055" lon="1.64775">
        <ele>67.025688171387</ele>
        <time>2017-06-18T07:44:28.000Z</time>
      </trkpt>
      <trkpt lat="49.15054" lon="1.64818">
        <ele>66.024192810059</ele>
        <time>2017-06-18T07:44:31.000Z</time>
      </trkpt>
      <trkpt lat="49.15054" lon="1.64848">
        <ele>64.788108825684</ele>
        <time>2017-06-18T07:44:33.000Z</time>
      </trkpt>
      <trkpt lat="49.15054" lon="1.64893">
        <ele>63.157501220703</ele>
        <time>2017-06-18T07:44:36.000Z</time>
      </trkpt>
      <trkpt lat="49.15056" lon="1.64923">
        <ele>61.426849365234</ele>
        <time>2017-06-18T07:44:38.000Z</time>
      </trkpt>
      <trkpt lat="49.1506" lon="1.64968">
        <ele>59.509666442871</ele>
        <time>2017-06-18T07:44:41.000Z</time>
      </trkpt>
      <trkpt lat="49.15062" lon="1.64996">
        <ele>57.589588165283</ele>
        <time>2017-06-18T07:44:43.000Z</time>
      </trkpt>
      <trkpt lat="49.15064" lon="1.65025">
        <ele>55.680591583252</ele>
        <time>2017-06-18T07:44:45.000Z</time>
      </trkpt>
      <trkpt lat="49.15067" lon="1.65066">
        <ele>53.895832061768</ele>
        <time>2017-06-18T07:44:48.000Z</time>
      </trkpt>
      <trkpt lat="49.15069" lon="1.65092">
        <ele>52.1875</ele>
        <time>2017-06-18T07:44:50.000Z</time>
      </trkpt>
      <trkpt lat="49.1507" lon="1.65119">
        <ele>50.64022064209</ele>
        <time>2017-06-18T07:44:52.000Z</time>
      </trkpt>
      <trkpt lat="49.15072" lon="1.65159">
        <ele>48.940864562988</ele>
        <time>2017-06-18T07:44:55.000Z</time>
      </trkpt>
      <trkpt lat="49.15074" lon="1.65198">
        <ele>46.848571777344</ele>
        <time>2017-06-18T07:44:58.000Z</time>
      </trkpt>
      <trkpt lat="49.15075" lon="1.65226">
        <ele>44.611869812012</ele>
        <time>2017-06-18T07:45:00.000Z</time>
      </trkpt>
      <trkpt lat="49.15079" lon="1.65261">
        <ele>42.128578186035</ele>
        <time>2017-06-18T07:45:03.000Z</time>
      </trkpt>
      <trkpt lat="49.15079" lon="1.65276">
        <ele>39.848503112793</ele>
        <time>2017-06-18T07:45:05.000Z</time>
      </trkpt>
      <trkpt lat="49.15078" lon="1.65287">
        <ele>37.942710876465</ele>
        <time>2017-06-18T07:45:08.000Z</time>
      </trkpt>
      <trkpt lat="49.15079" lon="1.65292">
        <ele>36.654640197754</ele>
        <time>2017-06-18T07:45:11.000Z</time>
      </trkpt>
      <trkpt lat="49.15081" lon="1.65296">
        <ele>35.858936309814</ele>
        <time>2017-06-18T07:45:13.000Z</time>
      </trkpt>
      <trkpt lat="49.15081" lon="1.65301">
        <ele>35.554168701172</ele>
        <time>2017-06-18T07:45:15.000Z</time>
      </trkpt>
      <trkpt lat="49.15081" lon="1.65303">
        <ele>35.343048095703</ele>
        <time>2017-06-18T07:45:18.000Z</time>
      </trkpt>
      <trkpt lat="49.15079" lon="1.65303">
        <ele>35.217132568359</ele>
        <time>2017-06-18T07:45:20.000Z</time>
      </trkpt>
      <trkpt lat="49.15079" lon="1.65304">
        <ele>35.1220703125</ele>
        <time>2017-06-18T07:45:26.000Z</time>
      </trkpt>
      <trkpt lat="49.15079" lon="1.65307">
        <ele>35.040596008301</ele>
        <time>2017-06-18T07:45:28.000Z</time>
      </trkpt>
      <trkpt lat="49.15079" lon="1.65313">
        <ele>34.946083068848</ele>
        <time>2017-06-18T07:45:30.000Z</time>
      </trkpt>
      <trkpt lat="49.1508" lon="1.65326">
        <ele>34.777366638184</ele>
        <time>2017-06-18T07:45:33.000Z</time>
      </trkpt>
      <trkpt lat="49.15081" lon="1.65334">
        <ele>34.551124572754</ele>
        <time>2017-06-18T07:45:35.000Z</time>
      </trkpt>
      <trkpt lat="49.15083" lon="1.6535">
        <ele>34.265651702881</ele>
        <time>2017-06-18T07:45:38.000Z</time>
      </trkpt>
      <trkpt lat="49.15084" lon="1.65362">
        <ele>33.945381164551</ele>
        <time>2017-06-18T07:45:40.000Z</time>
      </trkpt>
      <trkpt lat="49.15086" lon="1.65375">
        <ele>33.605182647705</ele>
        <time>2017-06-18T07:45:42.000Z</time>
      </trkpt>
      <trkpt lat="49.1509" lon="1.65393">
        <ele>33.251640319824</ele>
        <time>2017-06-18T07:45:45.000Z</time>
      </trkpt>
      <trkpt lat="49.1509" lon="1.65401">
        <ele>32.903865814209</ele>
        <time>2017-06-18T07:45:47.000Z</time>
      </trkpt>
      <trkpt lat="49.15083" lon="1.65404">
        <ele>32.644466400146</ele>
        <time>2017-06-18T07:45:50.000Z</time>
      </trkpt>
      <trkpt lat="49.15075" lon="1.65399">
        <ele>32.426494598389</ele>
        <time>2017-06-18T07:45:53.000Z</time>
      </trkpt>
      <trkpt lat="49.15073" lon="1.65398">
        <ele>32.270900726318</ele>
        <time>2017-06-18T07:45:55.000Z</time>
      </trkpt>
      <trkpt lat="49.15071" lon="1.65397">
        <ele>32.218326568604</ele>
        <time>2017-06-18T07:45:57.000Z</time>
      </trkpt>
      <trkpt lat="49.15068" lon="1.65395">
        <ele>32.209167480469</ele>
        <time>2017-06-18T07:46:00.000Z</time>
      </trkpt>
      <trkpt lat="49.15063" lon="1.65393">
        <ele>32.169189453125</ele>
        <time>2017-06-18T07:46:03.000Z</time>
      </trkpt>
      <trkpt lat="49.1506" lon="1.65392">
        <ele>32.133666992188</ele>
        <time>2017-06-18T07:46:05.000Z</time>
      </trkpt>
      <trkpt lat="49.15054" lon="1.6539">
        <ele>32.078796386719</ele>
        <time>2017-06-18T07:46:08.000Z</time>
      </trkpt>
      <trkpt lat="49.15049" lon="1.65389">
        <ele>32.007934570312</ele>
        <time>2017-06-18T07:46:11.000Z</time>
      </trkpt>
      <trkpt lat="49.15046" lon="1.65387">
        <ele>31.937805175781</ele>
        <time>2017-06-18T07:46:13.000Z</time>
      </trkpt>
      <trkpt lat="49.15041" lon="1.65386">
        <ele>31.861022949219</ele>
        <time>2017-06-18T07:46:16.000Z</time>
      </trkpt>
      <trkpt lat="49.15033" lon="1.65384">
        <ele>31.770324707031</ele>
        <time>2017-06-18T07:46:19.000Z</time>
      </trkpt>
      <trkpt lat="49.15027" lon="1.65382">
        <ele>31.684936523438</ele>
        <time>2017-06-18T07:46:21.000Z</time>
      </trkpt>
      <trkpt lat="49.15018" lon="1.65379">
        <ele>31.587524414062</ele>
        <time>2017-06-18T07:46:24.000Z</time>
      </trkpt>
      <trkpt lat="49.15007" lon="1.65373">
        <ele>31.469055175781</ele>
        <time>2017-06-18T07:46:27.000Z</time>
      </trkpt>
      <trkpt lat="49.14996" lon="1.65369">
        <ele>31.339420318604</ele>
        <time>2017-06-18T07:46:30.000Z</time>
      </trkpt>
      <trkpt lat="49.14988" lon="1.65368">
        <ele>31.212884902954</ele>
        <time>2017-06-18T07:46:33.000Z</time>
      </trkpt>
      <trkpt lat="49.14981" lon="1.65366">
        <ele>31.094131469727</ele>
        <time>2017-06-18T07:46:36.000Z</time>
      </trkpt>
      <trkpt lat="49.14965" lon="1.65361">
        <ele>30.979236602783</ele>
        <time>2017-06-18T07:46:39.000Z</time>
      </trkpt>
      <trkpt lat="49.14953" lon="1.65358">
        <ele>30.875583648682</ele>
        <time>2017-06-18T07:46:41.000Z</time>
      </trkpt>
      <trkpt lat="49.14936" lon="1.65352">
        <ele>30.785013198853</ele>
        <time>2017-06-18T07:46:44.000Z</time>
      </trkpt>
      <trkpt lat="49.14918" lon="1.65346">
        <ele>30.70178604126</ele>
        <time>2017-06-18T07:46:47.000Z</time>
      </trkpt>
      <trkpt lat="49.14906" lon="1.65343">
        <ele>30.64984703064</ele>
        <time>2017-06-18T07:46:49.000Z</time>
      </trkpt>
      <trkpt lat="49.14895" lon="1.6534">
        <ele>30.647090911865</ele>
        <time>2017-06-18T07:46:51.000Z</time>
      </trkpt>
      <trkpt lat="49.14878" lon="1.65335">
        <ele>30.696294784546</ele>
        <time>2017-06-18T07:46:54.000Z</time>
      </trkpt>
      <trkpt lat="49.14867" lon="1.65332">
        <ele>30.819387435913</ele>
        <time>2017-06-18T07:46:56.000Z</time>
      </trkpt>
      <trkpt lat="49.14856" lon="1.65329">
        <ele>31.030511856079</ele>
        <time>2017-06-18T07:46:58.000Z</time>
      </trkpt>
      <trkpt lat="49.1484" lon="1.65326">
        <ele>31.311176300049</ele>
        <time>2017-06-18T07:47:01.000Z</time>
      </trkpt>
      <trkpt lat="49.14824" lon="1.65323">
        <ele>31.603931427002</ele>
        <time>2017-06-18T07:47:04.000Z</time>
      </trkpt>
      <trkpt lat="49.14812" lon="1.65321">
        <ele>31.888675689697</ele>
        <time>2017-06-18T07:47:06.000Z</time>
      </trkpt>
      <trkpt lat="49.14797" lon="1.65316">
        <ele>32.223701477051</ele>
        <time>2017-06-18T07:47:09.000Z</time>
      </trkpt>
      <trkpt lat="49.14787" lon="1.65313">
        <ele>32.560237884521</ele>
        <time>2017-06-18T07:47:11.000Z</time>
      </trkpt>
      <trkpt lat="49.14777" lon="1.65311">
        <ele>32.860389709473</ele>
        <time>2017-06-18T07:47:13.000Z</time>
      </trkpt>
      <trkpt lat="49.14761" lon="1.65307">
        <ele>33.239376068115</ele>
        <time>2017-06-18T07:47:16.000Z</time>
      </trkpt>
      <trkpt lat="49.14744" lon="1.65303">
        <ele>33.694702148438</ele>
        <time>2017-06-18T07:47:19.000Z</time>
      </trkpt>
      <trkpt lat="49.14729" lon="1.653">
        <ele>34.131416320801</ele>
        <time>2017-06-18T07:47:22.000Z</time>
      </trkpt>
      <trkpt lat="49.14717" lon="1.65298">
        <ele>34.530689239502</ele>
        <time>2017-06-18T07:47:24.000Z</time>
      </trkpt>
      <trkpt lat="49.14707" lon="1.65296">
        <ele>34.887763977051</ele>
        <time>2017-06-18T07:47:26.000Z</time>
      </trkpt>
      <trkpt lat="49.14696" lon="1.65295">
        <ele>35.131942749023</ele>
        <time>2017-06-18T07:47:28.000Z</time>
      </trkpt>
      <trkpt lat="49.1468" lon="1.65293">
        <ele>35.304054260254</ele>
        <time>2017-06-18T07:47:31.000Z</time>
      </trkpt>
      <trkpt lat="49.14666" lon="1.65288">
        <ele>35.528602600098</ele>
        <time>2017-06-18T07:47:34.000Z</time>
      </trkpt>
      <trkpt lat="49.14652" lon="1.65283">
        <ele>35.820461273193</ele>
        <time>2017-06-18T07:47:37.000Z</time>
      </trkpt>
      <trkpt lat="49.1464" lon="1.6528">
        <ele>36.132301330566</ele>
        <time>2017-06-18T07:47:40.000Z</time>
      </trkpt>
      <trkpt lat="49.14626" lon="1.65276">
        <ele>36.492931365967</ele>
        <time>2017-06-18T07:47:43.000Z</time>
      </trkpt>
      <trkpt lat="49.14608" lon="1.65272">
        <ele>36.845703125</ele>
        <time>2017-06-18T07:47:46.000Z</time>
      </trkpt>
      <trkpt lat="49.14589" lon="1.65271">
        <ele>36.98560333252</ele>
        <time>2017-06-18T07:47:49.000Z</time>
      </trkpt>
      <trkpt lat="49.14575" lon="1.65269">
        <ele>37.014877319336</ele>
        <time>2017-06-18T07:47:51.000Z</time>
      </trkpt>
      <trkpt lat="49.14563" lon="1.65264">
        <ele>37.096378326416</ele>
        <time>2017-06-18T07:47:53.000Z</time>
      </trkpt>
      <trkpt lat="49.14542" lon="1.65253">
        <ele>37.302612304688</ele>
        <time>2017-06-18T07:47:56.000Z</time>
      </trkpt>
      <trkpt lat="49.14529" lon="1.65244">
        <ele>37.786327362061</ele>
        <time>2017-06-18T07:47:59.000Z</time>
      </trkpt>
      <trkpt lat="49.1451" lon="1.65242">
        <ele>38.317192077637</ele>
        <time>2017-06-18T07:48:02.000Z</time>
      </trkpt>
      <trkpt lat="49.14498" lon="1.65238">
        <ele>38.976474761963</ele>
        <time>2017-06-18T07:48:04.000Z</time>
      </trkpt>
      <trkpt lat="49.1448" lon="1.6523">
        <ele>39.830085754395</ele>
        <time>2017-06-18T07:48:07.000Z</time>
      </trkpt>
      <trkpt lat="49.14453" lon="1.65229">
        <ele>40.290630340576</ele>
        <time>2017-06-18T07:48:10.000Z</time>
      </trkpt>
      <trkpt lat="49.14442" lon="1.65223">
        <ele>40.61238861084</ele>
        <time>2017-06-18T07:48:12.000Z</time>
      </trkpt>
      <trkpt lat="49.14427" lon="1.65216">
        <ele>41.073081970215</ele>
        <time>2017-06-18T07:48:15.000Z</time>
      </trkpt>
      <trkpt lat="49.14415" lon="1.65215">
        <ele>41.341270446777</ele>
        <time>2017-06-18T07:48:17.000Z</time>
      </trkpt>
      <trkpt lat="49.14404" lon="1.65214">
        <ele>41.384956359863</ele>
        <time>2017-06-18T07:48:19.000Z</time>
      </trkpt>
      <trkpt lat="49.14392" lon="1.65212">
        <ele>41.741439819336</ele>
        <time>2017-06-18T07:48:21.000Z</time>
      </trkpt>
      <trkpt lat="49.14375" lon="1.65207">
        <ele>42.133567810059</ele>
        <time>2017-06-18T07:48:24.000Z</time>
      </trkpt>
      <trkpt lat="49.14363" lon="1.65205">
        <ele>42.476623535156</ele>
        <time>2017-06-18T07:48:26.000Z</time>
      </trkpt>
      <trkpt lat="49.14353" lon="1.65206">
        <ele>42.871520996094</ele>
        <time>2017-06-18T07:48:28.000Z</time>
      </trkpt>
      <trkpt lat="49.14343" lon="1.65205">
        <ele>43.237686157227</ele>
        <time>2017-06-18T07:48:31.000Z</time>
      </trkpt>
      <trkpt lat="49.14336" lon="1.65205">
        <ele>43.523094177246</ele>
        <time>2017-06-18T07:48:33.000Z</time>
      </trkpt>
      <trkpt lat="49.1433" lon="1.65204">
        <ele>43.621215820312</ele>
        <time>2017-06-18T07:48:35.000Z</time>
      </trkpt>
      <trkpt lat="49.14321" lon="1.65201">
        <ele>43.762714385986</ele>
        <time>2017-06-18T07:48:38.000Z</time>
      </trkpt>
      <trkpt lat="49.14314" lon="1.65196">
        <ele>44.057350158691</ele>
        <time>2017-06-18T07:48:40.000Z</time>
      </trkpt>
      <trkpt lat="49.14304" lon="1.65196">
        <ele>44.308494567871</ele>
        <time>2017-06-18T07:48:42.000Z</time>
      </trkpt>
      <trkpt lat="49.14288" lon="1.65198">
        <ele>44.417804718018</ele>
        <time>2017-06-18T07:48:45.000Z</time>
      </trkpt>
      <trkpt lat="49.14279" lon="1.652">
        <ele>44.395839691162</ele>
        <time>2017-06-18T07:48:47.000Z</time>
      </trkpt>
      <trkpt lat="49.14265" lon="1.65203">
        <ele>44.110511779785</ele>
        <time>2017-06-18T07:48:50.000Z</time>
      </trkpt>
      <trkpt lat="49.14251" lon="1.65201">
        <ele>43.718757629395</ele>
        <time>2017-06-18T07:48:53.000Z</time>
      </trkpt>
      <trkpt lat="49.14233" lon="1.65195">
        <ele>43.35538482666</ele>
        <time>2017-06-18T07:48:56.000Z</time>
      </trkpt>
      <trkpt lat="49.14217" lon="1.6519">
        <ele>43.093536376953</ele>
        <time>2017-06-18T07:48:59.000Z</time>
      </trkpt>
      <trkpt lat="49.14205" lon="1.65187">
        <ele>42.901264190674</ele>
        <time>2017-06-18T07:49:02.000Z</time>
      </trkpt>
      <trkpt lat="49.14189" lon="1.65183">
        <ele>42.752593994141</ele>
        <time>2017-06-18T07:49:05.000Z</time>
      </trkpt>
      <trkpt lat="49.14177" lon="1.65177">
        <ele>42.580295562744</ele>
        <time>2017-06-18T07:49:07.000Z</time>
      </trkpt>
      <trkpt lat="49.14159" lon="1.65172">
        <ele>42.520622253418</ele>
        <time>2017-06-18T07:49:10.000Z</time>
      </trkpt>
      <trkpt lat="49.14146" lon="1.65173">
        <ele>42.683784484863</ele>
        <time>2017-06-18T07:49:12.000Z</time>
      </trkpt>
      <trkpt lat="49.14128" lon="1.65174">
        <ele>43.131324768066</ele>
        <time>2017-06-18T07:49:15.000Z</time>
      </trkpt>
      <trkpt lat="49.14112" lon="1.65175">
        <ele>43.93970489502</ele>
        <time>2017-06-18T07:49:18.000Z</time>
      </trkpt>
      <trkpt lat="49.14103" lon="1.65174">
        <ele>44.902824401855</ele>
        <time>2017-06-18T07:49:20.000Z</time>
      </trkpt>
      <trkpt lat="49.14092" lon="1.65176">
        <ele>45.867328643799</ele>
        <time>2017-06-18T07:49:23.000Z</time>
      </trkpt>
      <trkpt lat="49.14074" lon="1.65179">
        <ele>46.794792175293</ele>
        <time>2017-06-18T07:49:26.000Z</time>
      </trkpt>
      <trkpt lat="49.14051" lon="1.65184">
        <ele>47.571460723877</ele>
        <time>2017-06-18T07:49:29.000Z</time>
      </trkpt>
      <trkpt lat="49.14034" lon="1.65186">
        <ele>48.296165466309</ele>
        <time>2017-06-18T07:49:32.000Z</time>
      </trkpt>
      <trkpt lat="49.14022" lon="1.65189">
        <ele>48.875164031982</ele>
        <time>2017-06-18T07:49:35.000Z</time>
      </trkpt>
      <trkpt lat="49.14016" lon="1.65195">
        <ele>49.168170928955</ele>
        <time>2017-06-18T07:49:37.000Z</time>
      </trkpt>
      <trkpt lat="49.14007" lon="1.652">
        <ele>49.224536895752</ele>
        <time>2017-06-18T07:49:39.000Z</time>
      </trkpt>
      <trkpt lat="49.13996" lon="1.65201">
        <ele>49.302375793457</ele>
        <time>2017-06-18T07:49:41.000Z</time>
      </trkpt>
      <trkpt lat="49.13981" lon="1.65209">
        <ele>49.029426574707</ele>
        <time>2017-06-18T07:49:44.000Z</time>
      </trkpt>
      <trkpt lat="49.13967" lon="1.6523">
        <ele>47.949981689453</ele>
        <time>2017-06-18T07:49:47.000Z</time>
      </trkpt>
      <trkpt lat="49.13951" lon="1.65253">
        <ele>46.23811340332</ele>
        <time>2017-06-18T07:49:50.000Z</time>
      </trkpt>
      <trkpt lat="49.13939" lon="1.65267">
        <ele>44.340980529785</ele>
        <time>2017-06-18T07:49:52.000Z</time>
      </trkpt>
      <trkpt lat="49.13921" lon="1.65295">
        <ele>41.797313690186</ele>
        <time>2017-06-18T07:49:55.000Z</time>
      </trkpt>
      <trkpt lat="49.1391" lon="1.65307">
        <ele>39.203155517578</ele>
        <time>2017-06-18T07:49:57.000Z</time>
      </trkpt>
      <trkpt lat="49.13893" lon="1.65323">
        <ele>37.081665039062</ele>
        <time>2017-06-18T07:50:00.000Z</time>
      </trkpt>
      <trkpt lat="49.13877" lon="1.65338">
        <ele>35.541786193848</ele>
        <time>2017-06-18T07:50:03.000Z</time>
      </trkpt>
      <trkpt lat="49.13865" lon="1.65348">
        <ele>34.243618011475</ele>
        <time>2017-06-18T07:50:05.000Z</time>
      </trkpt>
      <trkpt lat="49.13849" lon="1.65355">
        <ele>33.485336303711</ele>
        <time>2017-06-18T07:50:08.000Z</time>
      </trkpt>
      <trkpt lat="49.13839" lon="1.65358">
        <ele>32.936042785645</ele>
        <time>2017-06-18T07:50:10.000Z</time>
      </trkpt>
      <trkpt lat="49.13828" lon="1.65358">
        <ele>32.71516418457</ele>
        <time>2017-06-18T07:50:12.000Z</time>
      </trkpt>
      <trkpt lat="49.13813" lon="1.6537">
        <ele>32.554420471191</ele>
        <time>2017-06-18T07:50:15.000Z</time>
      </trkpt>
      <trkpt lat="49.13806" lon="1.65386">
        <ele>32.248138427734</ele>
        <time>2017-06-18T07:50:18.000Z</time>
      </trkpt>
      <trkpt lat="49.13798" lon="1.65388">
        <ele>31.900964736938</ele>
        <time>2017-06-18T07:50:21.000Z</time>
      </trkpt>
      <trkpt lat="49.13791" lon="1.65386">
        <ele>31.55419921875</ele>
        <time>2017-06-18T07:50:23.000Z</time>
      </trkpt>
      <trkpt lat="49.13782" lon="1.65388">
        <ele>31.161254882812</ele>
        <time>2017-06-18T07:50:25.000Z</time>
      </trkpt>
      <trkpt lat="49.13769" lon="1.65393">
        <ele>30.842529296875</ele>
        <time>2017-06-18T07:50:28.000Z</time>
      </trkpt>
      <trkpt lat="49.1376" lon="1.65395">
        <ele>30.64453125</ele>
        <time>2017-06-18T07:50:30.000Z</time>
      </trkpt>
      <trkpt lat="49.1375" lon="1.65397">
        <ele>30.44482421875</ele>
        <time>2017-06-18T07:50:32.000Z</time>
      </trkpt>
      <trkpt lat="49.13736" lon="1.65399">
        <ele>30.228414535522</ele>
        <time>2017-06-18T07:50:35.000Z</time>
      </trkpt>
      <trkpt lat="49.13721" lon="1.65402">
        <ele>30.028804779053</ele>
        <time>2017-06-18T07:50:38.000Z</time>
      </trkpt>
      <trkpt lat="49.13711" lon="1.65403">
        <ele>29.898082733154</ele>
        <time>2017-06-18T07:50:40.000Z</time>
      </trkpt>
      <trkpt lat="49.137" lon="1.65404">
        <ele>29.807811737061</ele>
        <time>2017-06-18T07:50:42.000Z</time>
      </trkpt>
      <trkpt lat="49.13684" lon="1.65404">
        <ele>29.76703453064</ele>
        <time>2017-06-18T07:50:45.000Z</time>
      </trkpt>
      <trkpt lat="49.13674" lon="1.65404">
        <ele>29.742778778076</ele>
        <time>2017-06-18T07:50:47.000Z</time>
      </trkpt>
      <trkpt lat="49.13657" lon="1.65403">
        <ele>29.722751617432</ele>
        <time>2017-06-18T07:50:50.000Z</time>
      </trkpt>
      <trkpt lat="49.13647" lon="1.65401">
        <ele>29.69970703125</ele>
        <time>2017-06-18T07:50:52.000Z</time>
      </trkpt>
      <trkpt lat="49.13631" lon="1.65397">
        <ele>29.670429229736</ele>
        <time>2017-06-18T07:50:55.000Z</time>
      </trkpt>
      <trkpt lat="49.13615" lon="1.65393">
        <ele>29.608585357666</ele>
        <time>2017-06-18T07:50:58.000Z</time>
      </trkpt>
      <trkpt lat="49.13604" lon="1.65391">
        <ele>29.520160675049</ele>
        <time>2017-06-18T07:51:00.000Z</time>
      </trkpt>
      <trkpt lat="49.13588" lon="1.65387">
        <ele>29.415044784546</ele>
        <time>2017-06-18T07:51:03.000Z</time>
      </trkpt>
      <trkpt lat="49.13578" lon="1.65384">
        <ele>29.351505279541</ele>
        <time>2017-06-18T07:51:05.000Z</time>
      </trkpt>
      <trkpt lat="49.13562" lon="1.65379">
        <ele>29.393550872803</ele>
        <time>2017-06-18T07:51:08.000Z</time>
      </trkpt>
      <trkpt lat="49.13551" lon="1.65373">
        <ele>29.536382675171</ele>
        <time>2017-06-18T07:51:10.000Z</time>
      </trkpt>
      <trkpt lat="49.1354" lon="1.65367">
        <ele>29.777318954468</ele>
        <time>2017-06-18T07:51:12.000Z</time>
      </trkpt>
      <trkpt lat="49.13524" lon="1.65357">
        <ele>30.156402587891</ele>
        <time>2017-06-18T07:51:15.000Z</time>
      </trkpt>
      <trkpt lat="49.13513" lon="1.65351">
        <ele>30.574346542358</ele>
        <time>2017-06-18T07:51:17.000Z</time>
      </trkpt>
      <trkpt lat="49.13497" lon="1.65341">
        <ele>30.98464012146</ele>
        <time>2017-06-18T07:51:20.000Z</time>
      </trkpt>
      <trkpt lat="49.13485" lon="1.65335">
        <ele>31.34983253479</ele>
        <time>2017-06-18T07:51:22.000Z</time>
      </trkpt>
      <trkpt lat="49.13478" lon="1.65328">
        <ele>31.750606536865</ele>
        <time>2017-06-18T07:51:24.000Z</time>
      </trkpt>
      <trkpt lat="49.13468" lon="1.65317">
        <ele>32.244861602783</ele>
        <time>2017-06-18T07:51:27.000Z</time>
      </trkpt>
      <trkpt lat="49.13463" lon="1.6531">
        <ele>32.820957183838</ele>
        <time>2017-06-18T07:51:29.000Z</time>
      </trkpt>
      <trkpt lat="49.13451" lon="1.65302">
        <ele>33.464115142822</ele>
        <time>2017-06-18T07:51:32.000Z</time>
      </trkpt>
      <trkpt lat="49.13433" lon="1.65289">
        <ele>34.3232421875</ele>
        <time>2017-06-18T07:51:35.000Z</time>
      </trkpt>
      <trkpt lat="49.13416" lon="1.65284">
        <ele>35.168655395508</ele>
        <time>2017-06-18T07:51:38.000Z</time>
      </trkpt>
      <trkpt lat="49.13403" lon="1.65276">
        <ele>35.767013549805</ele>
        <time>2017-06-18T07:51:41.000Z</time>
      </trkpt>
      <trkpt lat="49.13395" lon="1.65269">
        <ele>36.181751251221</ele>
        <time>2017-06-18T07:51:43.000Z</time>
      </trkpt>
      <trkpt lat="49.13386" lon="1.65263">
        <ele>36.364429473877</ele>
        <time>2017-06-18T07:51:45.000Z</time>
      </trkpt>
      <trkpt lat="49.13374" lon="1.65256">
        <ele>36.143280029297</ele>
        <time>2017-06-18T07:51:47.000Z</time>
      </trkpt>
      <trkpt lat="49.13355" lon="1.65247">
        <ele>35.522808074951</ele>
        <time>2017-06-18T07:51:50.000Z</time>
      </trkpt>
      <trkpt lat="49.13343" lon="1.65242">
        <ele>34.76766204834</ele>
        <time>2017-06-18T07:51:52.000Z</time>
      </trkpt>
      <trkpt lat="49.13325" lon="1.65233">
        <ele>33.870151519775</ele>
        <time>2017-06-18T07:51:55.000Z</time>
      </trkpt>
      <trkpt lat="49.13313" lon="1.65228">
        <ele>32.978950500488</ele>
        <time>2017-06-18T07:51:57.000Z</time>
      </trkpt>
      <trkpt lat="49.13298" lon="1.65223">
        <ele>32.097263336182</ele>
        <time>2017-06-18T07:51:59.000Z</time>
      </trkpt>
      <trkpt lat="49.13285" lon="1.65213">
        <ele>31.457406997681</ele>
        <time>2017-06-18T07:52:02.000Z</time>
      </trkpt>
      <trkpt lat="49.13274" lon="1.65204">
        <ele>30.9245262146</ele>
        <time>2017-06-18T07:52:04.000Z</time>
      </trkpt>
      <trkpt lat="49.1326" lon="1.65193">
        <ele>30.463054656982</ele>
        <time>2017-06-18T07:52:07.000Z</time>
      </trkpt>
      <trkpt lat="49.13245" lon="1.6518">
        <ele>30.002059936523</ele>
        <time>2017-06-18T07:52:10.000Z</time>
      </trkpt>
      <trkpt lat="49.13234" lon="1.65172">
        <ele>29.689167022705</ele>
        <time>2017-06-18T07:52:12.000Z</time>
      </trkpt>
      <trkpt lat="49.13219" lon="1.65159">
        <ele>29.512420654297</ele>
        <time>2017-06-18T07:52:15.000Z</time>
      </trkpt>
      <trkpt lat="49.13206" lon="1.65145">
        <ele>29.538196563721</ele>
        <time>2017-06-18T07:52:18.000Z</time>
      </trkpt>
      <trkpt lat="49.13196" lon="1.65136">
        <ele>29.7021484375</ele>
        <time>2017-06-18T07:52:20.000Z</time>
      </trkpt>
      <trkpt lat="49.13186" lon="1.65128">
        <ele>29.957706451416</ele>
        <time>2017-06-18T07:52:22.000Z</time>
      </trkpt>
      <trkpt lat="49.13172" lon="1.65113">
        <ele>30.231708526611</ele>
        <time>2017-06-18T07:52:25.000Z</time>
      </trkpt>
      <trkpt lat="49.13163" lon="1.65104">
        <ele>30.436309814453</ele>
        <time>2017-06-18T07:52:27.000Z</time>
      </trkpt>
      <trkpt lat="49.13148" lon="1.65092">
        <ele>30.4873046875</ele>
        <time>2017-06-18T07:52:30.000Z</time>
      </trkpt>
      <trkpt lat="49.13136" lon="1.65076">
        <ele>30.548471450806</ele>
        <time>2017-06-18T07:52:33.000Z</time>
      </trkpt>
      <trkpt lat="49.13126" lon="1.65067">
        <ele>30.611806869507</ele>
        <time>2017-06-18T07:52:35.000Z</time>
      </trkpt>
      <trkpt lat="49.13117" lon="1.65057">
        <ele>30.665008544922</ele>
        <time>2017-06-18T07:52:37.000Z</time>
      </trkpt>
      <trkpt lat="49.13108" lon="1.65047">
        <ele>30.696376800537</ele>
        <time>2017-06-18T07:52:39.000Z</time>
      </trkpt>
      <trkpt lat="49.13096" lon="1.65031">
        <ele>30.727478027344</ele>
        <time>2017-06-18T07:52:42.000Z</time>
      </trkpt>
      <trkpt lat="49.13087" lon="1.65018">
        <ele>30.697454452515</ele>
        <time>2017-06-18T07:52:44.000Z</time>
      </trkpt>
      <trkpt lat="49.1308" lon="1.65007">
        <ele>30.646678924561</ele>
        <time>2017-06-18T07:52:46.000Z</time>
      </trkpt>
      <trkpt lat="49.13068" lon="1.64989">
        <ele>30.655666351318</ele>
        <time>2017-06-18T07:52:49.000Z</time>
      </trkpt>
      <trkpt lat="49.13057" lon="1.64972">
        <ele>30.720102310181</ele>
        <time>2017-06-18T07:52:52.000Z</time>
      </trkpt>
      <trkpt lat="49.13046" lon="1.64955">
        <ele>30.826946258545</ele>
        <time>2017-06-18T07:52:55.000Z</time>
      </trkpt>
      <trkpt lat="49.13039" lon="1.64944">
        <ele>30.953033447266</ele>
        <time>2017-06-18T07:52:57.000Z</time>
      </trkpt>
      <trkpt lat="49.13032" lon="1.64933">
        <ele>31.062021255493</ele>
        <time>2017-06-18T07:52:59.000Z</time>
      </trkpt>
      <trkpt lat="49.13023" lon="1.64919">
        <ele>31.065052032471</ele>
        <time>2017-06-18T07:53:02.000Z</time>
      </trkpt>
      <trkpt lat="49.13018" lon="1.64909">
        <ele>31.059886932373</ele>
        <time>2017-06-18T07:53:04.000Z</time>
      </trkpt>
      <trkpt lat="49.13008" lon="1.64893">
        <ele>31.074380874634</ele>
        <time>2017-06-18T07:53:07.000Z</time>
      </trkpt>
      <trkpt lat="49.12998" lon="1.64877">
        <ele>31.09928894043</ele>
        <time>2017-06-18T07:53:10.000Z</time>
      </trkpt>
      <trkpt lat="49.12991" lon="1.64867">
        <ele>31.178457260132</ele>
        <time>2017-06-18T07:53:12.000Z</time>
      </trkpt>
      <trkpt lat="49.1298" lon="1.64852">
        <ele>31.326358795166</ele>
        <time>2017-06-18T07:53:15.000Z</time>
      </trkpt>
      <trkpt lat="49.12973" lon="1.64842">
        <ele>31.438770294189</ele>
        <time>2017-06-18T07:53:17.000Z</time>
      </trkpt>
      <trkpt lat="49.12964" lon="1.64827">
        <ele>31.560384750366</ele>
        <time>2017-06-18T07:53:20.000Z</time>
      </trkpt>
      <trkpt lat="49.12959" lon="1.64816">
        <ele>31.75630569458</ele>
        <time>2017-06-18T07:53:22.000Z</time>
      </trkpt>
      <trkpt lat="49.12952" lon="1.64808">
        <ele>31.930339813232</ele>
        <time>2017-06-18T07:53:24.000Z</time>
      </trkpt>
      <trkpt lat="49.12941" lon="1.64792">
        <ele>32.107765197754</ele>
        <time>2017-06-18T07:53:27.000Z</time>
      </trkpt>
      <trkpt lat="49.12935" lon="1.6478">
        <ele>32.347583770752</ele>
        <time>2017-06-18T07:53:29.000Z</time>
      </trkpt>
      <trkpt lat="49.1293" lon="1.64771">
        <ele>32.579372406006</ele>
        <time>2017-06-18T07:53:31.000Z</time>
      </trkpt>
      <trkpt lat="49.12922" lon="1.64757">
        <ele>32.73397064209</ele>
        <time>2017-06-18T07:53:34.000Z</time>
      </trkpt>
      <trkpt lat="49.12912" lon="1.6475">
        <ele>32.817443847656</ele>
        <time>2017-06-18T07:53:37.000Z</time>
      </trkpt>
      <trkpt lat="49.12913" lon="1.64747">
        <ele>32.913764953613</ele>
        <time>2017-06-18T07:53:39.000Z</time>
      </trkpt>
      <trkpt lat="49.12906" lon="1.64736">
        <ele>33.034172058105</ele>
        <time>2017-06-18T07:53:42.000Z</time>
      </trkpt>
      <trkpt lat="49.12901" lon="1.64727">
        <ele>33.188106536865</ele>
        <time>2017-06-18T07:53:45.000Z</time>
      </trkpt>
      <trkpt lat="49.12893" lon="1.64715">
        <ele>33.388927459717</ele>
        <time>2017-06-18T07:53:48.000Z</time>
      </trkpt>
      <trkpt lat="49.12888" lon="1.64707">
        <ele>33.674613952637</ele>
        <time>2017-06-18T07:53:50.000Z</time>
      </trkpt>
      <trkpt lat="49.12883" lon="1.64698">
        <ele>33.943531036377</ele>
        <time>2017-06-18T07:53:52.000Z</time>
      </trkpt>
      <trkpt lat="49.12876" lon="1.64686">
        <ele>34.145027160645</ele>
        <time>2017-06-18T07:53:55.000Z</time>
      </trkpt>
      <trkpt lat="49.12867" lon="1.64673">
        <ele>34.243881225586</ele>
        <time>2017-06-18T07:53:58.000Z</time>
      </trkpt>
      <trkpt lat="49.1286" lon="1.64664">
        <ele>34.269989013672</ele>
        <time>2017-06-18T07:54:00.000Z</time>
      </trkpt>
      <trkpt lat="49.12856" lon="1.64652">
        <ele>34.350452423096</ele>
        <time>2017-06-18T07:54:02.000Z</time>
      </trkpt>
      <trkpt lat="49.12849" lon="1.64641">
        <ele>34.423950195312</ele>
        <time>2017-06-18T07:54:04.000Z</time>
      </trkpt>
      <trkpt lat="49.12841" lon="1.64632">
        <ele>34.425216674805</ele>
        <time>2017-06-18T07:54:06.000Z</time>
      </trkpt>
      <trkpt lat="49.12835" lon="1.6462">
        <ele>34.473365783691</ele>
        <time>2017-06-18T07:54:08.000Z</time>
      </trkpt>
      <trkpt lat="49.12823" lon="1.64604">
        <ele>34.548126220703</ele>
        <time>2017-06-18T07:54:11.000Z</time>
      </trkpt>
      <trkpt lat="49.12812" lon="1.64586">
        <ele>34.545787811279</ele>
        <time>2017-06-18T07:54:14.000Z</time>
      </trkpt>
      <trkpt lat="49.12802" lon="1.64567">
        <ele>34.590400695801</ele>
        <time>2017-06-18T07:54:17.000Z</time>
      </trkpt>
      <trkpt lat="49.12791" lon="1.6455">
        <ele>34.713493347168</ele>
        <time>2017-06-18T07:54:20.000Z</time>
      </trkpt>
      <trkpt lat="49.1278" lon="1.64533">
        <ele>34.801616668701</ele>
        <time>2017-06-18T07:54:23.000Z</time>
      </trkpt>
      <trkpt lat="49.12768" lon="1.64515">
        <ele>34.800575256348</ele>
        <time>2017-06-18T07:54:26.000Z</time>
      </trkpt>
      <trkpt lat="49.1276" lon="1.64504">
        <ele>34.723098754883</ele>
        <time>2017-06-18T07:54:28.000Z</time>
      </trkpt>
      <trkpt lat="49.12751" lon="1.64493">
        <ele>34.54825592041</ele>
        <time>2017-06-18T07:54:30.000Z</time>
      </trkpt>
      <trkpt lat="49.12737" lon="1.6448">
        <ele>34.439888000488</ele>
        <time>2017-06-18T07:54:33.000Z</time>
      </trkpt>
      <trkpt lat="49.12726" lon="1.64459">
        <ele>34.591041564941</ele>
        <time>2017-06-18T07:54:36.000Z</time>
      </trkpt>
      <trkpt lat="49.12719" lon="1.64447">
        <ele>34.887763977051</ele>
        <time>2017-06-18T07:54:38.000Z</time>
      </trkpt>
      <trkpt lat="49.12705" lon="1.64431">
        <ele>35.191814422607</ele>
        <time>2017-06-18T07:54:41.000Z</time>
      </trkpt>
      <trkpt lat="49.12694" lon="1.64415">
        <ele>35.481616973877</ele>
        <time>2017-06-18T07:54:44.000Z</time>
      </trkpt>
      <trkpt lat="49.12685" lon="1.64404">
        <ele>35.685482025146</ele>
        <time>2017-06-18T07:54:46.000Z</time>
      </trkpt>
      <trkpt lat="49.12671" lon="1.6439">
        <ele>35.515594482422</ele>
        <time>2017-06-18T07:54:49.000Z</time>
      </trkpt>
      <trkpt lat="49.12655" lon="1.64375">
        <ele>35.313232421875</ele>
        <time>2017-06-18T07:54:52.000Z</time>
      </trkpt>
      <trkpt lat="49.12642" lon="1.6436">
        <ele>35.238815307617</ele>
        <time>2017-06-18T07:54:55.000Z</time>
      </trkpt>
      <trkpt lat="49.12631" lon="1.6435">
        <ele>35.183387756348</ele>
        <time>2017-06-18T07:54:57.000Z</time>
      </trkpt>
      <trkpt lat="49.12618" lon="1.64335">
        <ele>35.089279174805</ele>
        <time>2017-06-18T07:55:00.000Z</time>
      </trkpt>
      <trkpt lat="49.12604" lon="1.64323">
        <ele>35.038734436035</ele>
        <time>2017-06-18T07:55:03.000Z</time>
      </trkpt>
      <trkpt lat="49.12591" lon="1.64308">
        <ele>34.970378875732</ele>
        <time>2017-06-18T07:55:06.000Z</time>
      </trkpt>
      <trkpt lat="49.12577" lon="1.64294">
        <ele>34.861373901367</ele>
        <time>2017-06-18T07:55:09.000Z</time>
      </trkpt>
      <trkpt lat="49.12568" lon="1.64284">
        <ele>34.844429016113</ele>
        <time>2017-06-18T07:55:11.000Z</time>
      </trkpt>
      <trkpt lat="49.12554" lon="1.6427">
        <ele>34.907188415527</ele>
        <time>2017-06-18T07:55:14.000Z</time>
      </trkpt>
      <trkpt lat="49.12546" lon="1.64261">
        <ele>35.069721221924</ele>
        <time>2017-06-18T07:55:16.000Z</time>
      </trkpt>
      <trkpt lat="49.12532" lon="1.64246">
        <ele>35.230266571045</ele>
        <time>2017-06-18T07:55:19.000Z</time>
      </trkpt>
      <trkpt lat="49.12523" lon="1.64238">
        <ele>35.366897583008</ele>
        <time>2017-06-18T07:55:21.000Z</time>
      </trkpt>
      <trkpt lat="49.12516" lon="1.64229">
        <ele>35.502269744873</ele>
        <time>2017-06-18T07:55:23.000Z</time>
      </trkpt>
      <trkpt lat="49.12505" lon="1.64215">
        <ele>35.680931091309</ele>
        <time>2017-06-18T07:55:26.000Z</time>
      </trkpt>
      <trkpt lat="49.12491" lon="1.64201">
        <ele>35.950122833252</ele>
        <time>2017-06-18T07:55:29.000Z</time>
      </trkpt>
      <trkpt lat="49.12482" lon="1.64192">
        <ele>36.275493621826</ele>
        <time>2017-06-18T07:55:31.000Z</time>
      </trkpt>
      <trkpt lat="49.12473" lon="1.64183">
        <ele>36.67366027832</ele>
        <time>2017-06-18T07:55:33.000Z</time>
      </trkpt>
      <trkpt lat="49.12458" lon="1.64169">
        <ele>37.07479095459</ele>
        <time>2017-06-18T07:55:36.000Z</time>
      </trkpt>
      <trkpt lat="49.1245" lon="1.64159">
        <ele>37.387001037598</ele>
        <time>2017-06-18T07:55:38.000Z</time>
      </trkpt>
      <trkpt lat="49.12441" lon="1.64151">
        <ele>37.574119567871</ele>
        <time>2017-06-18T07:55:40.000Z</time>
      </trkpt>
      <trkpt lat="49.12431" lon="1.64143">
        <ele>37.630207061768</ele>
        <time>2017-06-18T07:55:42.000Z</time>
      </trkpt>
      <trkpt lat="49.12416" lon="1.64128">
        <ele>37.606346130371</ele>
        <time>2017-06-18T07:55:45.000Z</time>
      </trkpt>
      <trkpt lat="49.1241" lon="1.64119">
        <ele>37.541584014893</ele>
        <time>2017-06-18T07:55:47.000Z</time>
      </trkpt>
      <trkpt lat="49.12396" lon="1.64107">
        <ele>37.474681854248</ele>
        <time>2017-06-18T07:55:50.000Z</time>
      </trkpt>
      <trkpt lat="49.12383" lon="1.64098">
        <ele>37.386981964111</ele>
        <time>2017-06-18T07:55:53.000Z</time>
      </trkpt>
      <trkpt lat="49.12376" lon="1.64091">
        <ele>37.353275299072</ele>
        <time>2017-06-18T07:55:55.000Z</time>
      </trkpt>
      <trkpt lat="49.1237" lon="1.6408">
        <ele>37.360206604004</ele>
        <time>2017-06-18T07:55:57.000Z</time>
      </trkpt>
      <trkpt lat="49.1236" lon="1.64067">
        <ele>37.357738494873</ele>
        <time>2017-06-18T07:56:00.000Z</time>
      </trkpt>
      <trkpt lat="49.12352" lon="1.64059">
        <ele>37.34090423584</ele>
        <time>2017-06-18T07:56:02.000Z</time>
      </trkpt>
      <trkpt lat="49.12345" lon="1.64052">
        <ele>37.357559204102</ele>
        <time>2017-06-18T07:56:04.000Z</time>
      </trkpt>
      <trkpt lat="49.1233" lon="1.64039">
        <ele>37.321662902832</ele>
        <time>2017-06-18T07:56:07.000Z</time>
      </trkpt>
      <trkpt lat="49.12313" lon="1.64023">
        <ele>37.258918762207</ele>
        <time>2017-06-18T07:56:10.000Z</time>
      </trkpt>
      <trkpt lat="49.12301" lon="1.64014">
        <ele>37.142280578613</ele>
        <time>2017-06-18T07:56:12.000Z</time>
      </trkpt>
      <trkpt lat="49.12291" lon="1.64003">
        <ele>37.035499572754</ele>
        <time>2017-06-18T07:56:14.000Z</time>
      </trkpt>
      <trkpt lat="49.12276" lon="1.63988">
        <ele>36.924461364746</ele>
        <time>2017-06-18T07:56:17.000Z</time>
      </trkpt>
      <trkpt lat="49.12261" lon="1.63975">
        <ele>36.807357788086</ele>
        <time>2017-06-18T07:56:20.000Z</time>
      </trkpt>
      <trkpt lat="49.12252" lon="1.63965">
        <ele>36.665447235107</ele>
        <time>2017-06-18T07:56:22.000Z</time>
      </trkpt>
      <trkpt lat="49.12243" lon="1.63953">
        <ele>36.610328674316</ele>
        <time>2017-06-18T07:56:24.000Z</time>
      </trkpt>
      <trkpt lat="49.12233" lon="1.63944">
        <ele>36.601463317871</ele>
        <time>2017-06-18T07:56:26.000Z</time>
      </trkpt>
      <trkpt lat="49.1222" lon="1.63931">
        <ele>36.634838104248</ele>
        <time>2017-06-18T07:56:29.000Z</time>
      </trkpt>
      <trkpt lat="49.12209" lon="1.63918">
        <ele>36.745811462402</ele>
        <time>2017-06-18T07:56:32.000Z</time>
      </trkpt>
      <trkpt lat="49.12195" lon="1.63909">
        <ele>36.828876495361</ele>
        <time>2017-06-18T07:56:35.000Z</time>
      </trkpt>
      <trkpt lat="49.1219" lon="1.63903">
        <ele>36.851207733154</ele>
        <time>2017-06-18T07:56:37.000Z</time>
      </trkpt>
      <trkpt lat="49.1219" lon="1.63899">
        <ele>36.843948364258</ele>
        <time>2017-06-18T07:56:39.000Z</time>
      </trkpt>
      <trkpt lat="49.12187" lon="1.63895">
        <ele>36.803344726562</ele>
        <time>2017-06-18T07:56:41.000Z</time>
      </trkpt>
      <trkpt lat="49.12177" lon="1.63884">
        <ele>36.733856201172</ele>
        <time>2017-06-18T07:56:44.000Z</time>
      </trkpt>
      <trkpt lat="49.12171" lon="1.63876">
        <ele>36.697814941406</ele>
        <time>2017-06-18T07:56:46.000Z</time>
      </trkpt>
      <trkpt lat="49.12159" lon="1.63863">
        <ele>36.648536682129</ele>
        <time>2017-06-18T07:56:49.000Z</time>
      </trkpt>
      <trkpt lat="49.12145" lon="1.6385">
        <ele>36.557983398438</ele>
        <time>2017-06-18T07:56:52.000Z</time>
      </trkpt>
      <trkpt lat="49.12135" lon="1.63842">
        <ele>36.44603729248</ele>
        <time>2017-06-18T07:56:54.000Z</time>
      </trkpt>
      <trkpt lat="49.12122" lon="1.63825">
        <ele>36.363128662109</ele>
        <time>2017-06-18T07:56:57.000Z</time>
      </trkpt>
      <trkpt lat="49.12105" lon="1.63812">
        <ele>36.301918029785</ele>
        <time>2017-06-18T07:57:00.000Z</time>
      </trkpt>
      <trkpt lat="49.12095" lon="1.63805">
        <ele>36.266944885254</ele>
        <time>2017-06-18T07:57:02.000Z</time>
      </trkpt>
      <trkpt lat="49.12087" lon="1.63793">
        <ele>36.310352325439</ele>
        <time>2017-06-18T07:57:05.000Z</time>
      </trkpt>
      <trkpt lat="49.12082" lon="1.63787">
        <ele>36.40608215332</ele>
        <time>2017-06-18T07:57:08.000Z</time>
      </trkpt>
      <trkpt lat="49.12081" lon="1.63789">
        <ele>36.465339660645</ele>
        <time>2017-06-18T07:57:11.000Z</time>
      </trkpt>
      <trkpt lat="49.12083" lon="1.63786">
        <ele>36.544631958008</ele>
        <time>2017-06-18T07:57:13.000Z</time>
      </trkpt>
      <trkpt lat="49.1208" lon="1.63788">
        <ele>36.599498748779</ele>
        <time>2017-06-18T07:57:15.000Z</time>
      </trkpt>
      <trkpt lat="49.1208" lon="1.63788">
        <ele>36.599498748779</ele>
        <time>2017-06-18T07:57:25.000Z</time>
      </trkpt>
      <trkpt lat="49.12079" lon="1.63788">
        <ele>36.597190856934</ele>
        <time>2017-06-18T07:57:36.000Z</time>
      </trkpt>
      <trkpt lat="49.12078" lon="1.63788">
        <ele>36.56640625</ele>
        <time>2017-06-18T07:57:43.000Z</time>
      </trkpt>
      <trkpt lat="49.12076" lon="1.63789">
        <ele>36.55099105835</ele>
        <time>2017-06-18T07:57:45.000Z</time>
      </trkpt>
      <trkpt lat="49.12078" lon="1.63788">
        <ele>36.524829864502</ele>
        <time>2017-06-18T07:57:50.000Z</time>
      </trkpt>
      <trkpt lat="49.1208" lon="1.63787">
        <ele>36.530281066895</ele>
        <time>2017-06-18T07:57:52.000Z</time>
      </trkpt>
      <trkpt lat="49.12083" lon="1.63787">
        <ele>36.553031921387</ele>
        <time>2017-06-18T07:57:55.000Z</time>
      </trkpt>
      <trkpt lat="49.12081" lon="1.63786">
        <ele>36.581241607666</ele>
        <time>2017-06-18T07:58:03.000Z</time>
      </trkpt>
      <trkpt lat="49.12083" lon="1.63786">
        <ele>36.626960754395</ele>
        <time>2017-06-18T07:58:08.000Z</time>
      </trkpt>
      <trkpt lat="49.12086" lon="1.63786">
        <ele>36.669380187988</ele>
        <time>2017-06-18T07:58:11.000Z</time>
      </trkpt>
      <trkpt lat="49.12086" lon="1.63783">
        <ele>36.723991394043</ele>
        <time>2017-06-18T07:58:14.000Z</time>
      </trkpt>
      <trkpt lat="49.12085" lon="1.63783">
        <ele>36.763732910156</ele>
        <time>2017-06-18T07:58:17.000Z</time>
      </trkpt>
      <trkpt lat="49.12083" lon="1.63787">
        <ele>36.770408630371</ele>
        <time>2017-06-18T07:58:19.000Z</time>
      </trkpt>
      <trkpt lat="49.12082" lon="1.63788">
        <ele>36.756999969482</ele>
        <time>2017-06-18T07:58:22.000Z</time>
      </trkpt>
      <trkpt lat="49.12082" lon="1.63788">
        <ele>36.756999969482</ele>
        <time>2017-06-18T07:58:32.000Z</time>
      </trkpt>
      <trkpt lat="49.12082" lon="1.63786">
        <ele>36.736522674561</ele>
        <time>2017-06-18T07:58:42.000Z</time>
      </trkpt>
      <trkpt lat="49.12083" lon="1.63788">
        <ele>36.683605194092</ele>
        <time>2017-06-18T07:58:45.000Z</time>
      </trkpt>
      <trkpt lat="49.12084" lon="1.6379">
        <ele>36.629104614258</ele>
        <time>2017-06-18T07:58:47.000Z</time>
      </trkpt>
      <trkpt lat="49.12076" lon="1.63792">
        <ele>36.568035125732</ele>
        <time>2017-06-18T07:58:50.000Z</time>
      </trkpt>
      <trkpt lat="49.12072" lon="1.63792">
        <ele>36.505882263184</ele>
        <time>2017-06-18T07:58:53.000Z</time>
      </trkpt>
      <trkpt lat="49.12071" lon="1.63792">
        <ele>36.428932189941</ele>
        <time>2017-06-18T07:58:56.000Z</time>
      </trkpt>
      <trkpt lat="49.12071" lon="1.63792">
        <ele>36.428932189941</ele>
        <time>2017-06-18T07:59:06.000Z</time>
      </trkpt>
      <trkpt lat="49.12073" lon="1.63789">
        <ele>36.383140563965</ele>
        <time>2017-06-18T07:59:12.000Z</time>
      </trkpt>
      <trkpt lat="49.12073" lon="1.63788">
        <ele>36.355285644531</ele>
        <time>2017-06-18T07:59:17.000Z</time>
      </trkpt>
      <trkpt lat="49.12074" lon="1.63787">
        <ele>36.379951477051</ele>
        <time>2017-06-18T07:59:22.000Z</time>
      </trkpt>
      <trkpt lat="49.12074" lon="1.63788">
        <ele>36.406719207764</ele>
        <time>2017-06-18T07:59:28.000Z</time>
      </trkpt>
      <trkpt lat="49.12075" lon="1.63792">
        <ele>36.42028427124</ele>
        <time>2017-06-18T07:59:31.000Z</time>
      </trkpt>
      <trkpt lat="49.12075" lon="1.63793">
        <ele>36.406784057617</ele>
        <time>2017-06-18T07:59:34.000Z</time>
      </trkpt>
      <trkpt lat="49.12078" lon="1.63795">
        <ele>36.377536773682</ele>
        <time>2017-06-18T07:59:36.000Z</time>
      </trkpt>
      <trkpt lat="49.1208" lon="1.63798">
        <ele>36.324813842773</ele>
        <time>2017-06-18T07:59:38.000Z</time>
      </trkpt>
      <trkpt lat="49.12081" lon="1.63798">
        <ele>36.286430358887</ele>
        <time>2017-06-18T07:59:42.000Z</time>
      </trkpt>
      <trkpt lat="49.1208" lon="1.63797">
        <ele>36.268943786621</ele>
        <time>2017-06-18T07:59:45.000Z</time>
      </trkpt>
      <trkpt lat="49.12081" lon="1.63795">
        <ele>36.271331787109</ele>
        <time>2017-06-18T07:59:52.000Z</time>
      </trkpt>
      <trkpt lat="49.12081" lon="1.63795">
        <ele>36.271331787109</ele>
        <time>2017-06-18T08:00:02.000Z</time>
      </trkpt>
      <trkpt lat="49.1208" lon="1.63796">
        <ele>36.271614074707</ele>
        <time>2017-06-18T08:00:11.000Z</time>
      </trkpt>
      <trkpt lat="49.12078" lon="1.63796">
        <ele>36.28116607666</ele>
        <time>2017-06-18T08:00:16.000Z</time>
      </trkpt>
      <trkpt lat="49.1208" lon="1.63796">
        <ele>36.292381286621</ele>
        <time>2017-06-18T08:00:23.000Z</time>
      </trkpt>
      <trkpt lat="49.1208" lon="1.63796">
        <ele>36.292381286621</ele>
        <time>2017-06-18T08:00:33.000Z</time>
      </trkpt>
      <trkpt lat="49.12078" lon="1.63794">
        <ele>36.305973052979</ele>
        <time>2017-06-18T08:00:36.000Z</time>
      </trkpt>
      <trkpt lat="49.1208" lon="1.63795">
        <ele>36.301795959473</ele>
        <time>2017-06-18T08:00:39.000Z</time>
      </trkpt>
      <trkpt lat="49.12081" lon="1.63795">
        <ele>36.312686920166</ele>
        <time>2017-06-18T08:00:43.000Z</time>
      </trkpt>
      <trkpt lat="49.12086" lon="1.63801">
        <ele>36.306716918945</ele>
        <time>2017-06-18T08:00:46.000Z</time>
      </trkpt>
      <trkpt lat="49.12094" lon="1.63809">
        <ele>36.270355224609</ele>
        <time>2017-06-18T08:00:49.000Z</time>
      </trkpt>
      <trkpt lat="49.12104" lon="1.63819">
        <ele>36.209095001221</ele>
        <time>2017-06-18T08:00:52.000Z</time>
      </trkpt>
      <trkpt lat="49.12114" lon="1.63829">
        <ele>36.126003265381</ele>
        <time>2017-06-18T08:00:55.000Z</time>
      </trkpt>
      <trkpt lat="49.12122" lon="1.63837">
        <ele>36.041175842285</ele>
        <time>2017-06-18T08:00:57.000Z</time>
      </trkpt>
      <trkpt lat="49.12136" lon="1.6385">
        <ele>36.02124786377</ele>
        <time>2017-06-18T08:01:00.000Z</time>
      </trkpt>
      <trkpt lat="49.12146" lon="1.6386">
        <ele>36.049633026123</ele>
        <time>2017-06-18T08:01:02.000Z</time>
      </trkpt>
      <trkpt lat="49.12161" lon="1.63874">
        <ele>36.127346038818</ele>
        <time>2017-06-18T08:01:05.000Z</time>
      </trkpt>
      <trkpt lat="49.1217" lon="1.63884">
        <ele>36.241050720215</ele>
        <time>2017-06-18T08:01:07.000Z</time>
      </trkpt>
      <trkpt lat="49.1218" lon="1.63897">
        <ele>36.36856842041</ele>
        <time>2017-06-18T08:01:10.000Z</time>
      </trkpt>
      <trkpt lat="49.12184" lon="1.639">
        <ele>36.460906982422</ele>
        <time>2017-06-18T08:01:13.000Z</time>
      </trkpt>
      <trkpt lat="49.12188" lon="1.63903">
        <ele>36.542533874512</ele>
        <time>2017-06-18T08:01:15.000Z</time>
      </trkpt>
      <trkpt lat="49.12199" lon="1.63911">
        <ele>36.630310058594</ele>
        <time>2017-06-18T08:01:18.000Z</time>
      </trkpt>
      <trkpt lat="49.12211" lon="1.63925">
        <ele>36.718109130859</ele>
        <time>2017-06-18T08:01:21.000Z</time>
      </trkpt>
      <trkpt lat="49.12225" lon="1.63939">
        <ele>36.775768280029</ele>
        <time>2017-06-18T08:01:24.000Z</time>
      </trkpt>
      <trkpt lat="49.12234" lon="1.63948">
        <ele>36.796363830566</ele>
        <time>2017-06-18T08:01:26.000Z</time>
      </trkpt>
      <trkpt lat="49.12243" lon="1.63957">
        <ele>36.759162902832</ele>
        <time>2017-06-18T08:01:28.000Z</time>
      </trkpt>
      <trkpt lat="49.12257" lon="1.63973">
        <ele>36.665382385254</ele>
        <time>2017-06-18T08:01:31.000Z</time>
      </trkpt>
      <trkpt lat="49.12272" lon="1.63986">
        <ele>36.607852935791</ele>
        <time>2017-06-18T08:01:34.000Z</time>
      </trkpt>
      <trkpt lat="49.12282" lon="1.63997">
        <ele>36.570037841797</ele>
        <time>2017-06-18T08:01:36.000Z</time>
      </trkpt>
      <trkpt lat="49.12297" lon="1.64012">
        <ele>36.587650299072</ele>
        <time>2017-06-18T08:01:39.000Z</time>
      </trkpt>
      <trkpt lat="49.12306" lon="1.64022">
        <ele>36.657745361328</ele>
        <time>2017-06-18T08:01:41.000Z</time>
      </trkpt>
      <trkpt lat="49.12321" lon="1.64037">
        <ele>36.734352111816</ele>
        <time>2017-06-18T08:01:44.000Z</time>
      </trkpt>
      <trkpt lat="49.12331" lon="1.64047">
        <ele>36.747077941895</ele>
        <time>2017-06-18T08:01:46.000Z</time>
      </trkpt>
      <trkpt lat="49.12345" lon="1.64063">
        <ele>36.767436981201</ele>
        <time>2017-06-18T08:01:49.000Z</time>
      </trkpt>
      <trkpt lat="49.12361" lon="1.64078">
        <ele>36.799240112305</ele>
        <time>2017-06-18T08:01:52.000Z</time>
      </trkpt>
      <trkpt lat="49.12371" lon="1.64087">
        <ele>36.847534179688</ele>
        <time>2017-06-18T08:01:54.000Z</time>
      </trkpt>
      <trkpt lat="49.12386" lon="1.64101">
        <ele>36.942756652832</ele>
        <time>2017-06-18T08:01:57.000Z</time>
      </trkpt>
      <trkpt lat="49.12396" lon="1.64112">
        <ele>37.052116394043</ele>
        <time>2017-06-18T08:01:59.000Z</time>
      </trkpt>
      <trkpt lat="49.12411" lon="1.64126">
        <ele>37.129539489746</ele>
        <time>2017-06-18T08:02:02.000Z</time>
      </trkpt>
      <trkpt lat="49.12426" lon="1.64142">
        <ele>37.166160583496</ele>
        <time>2017-06-18T08:02:05.000Z</time>
      </trkpt>
      <trkpt lat="49.12443" lon="1.64157">
        <ele>37.238574981689</ele>
        <time>2017-06-18T08:02:08.000Z</time>
      </trkpt>
      <trkpt lat="49.12459" lon="1.64172">
        <ele>37.298431396484</ele>
        <time>2017-06-18T08:02:11.000Z</time>
      </trkpt>
      <trkpt lat="49.12474" lon="1.64189">
        <ele>37.255699157715</ele>
        <time>2017-06-18T08:02:14.000Z</time>
      </trkpt>
      <trkpt lat="49.1249" lon="1.64206">
        <ele>37.081932067871</ele>
        <time>2017-06-18T08:02:17.000Z</time>
      </trkpt>
      <trkpt lat="49.12506" lon="1.64221">
        <ele>36.788501739502</ele>
        <time>2017-06-18T08:02:20.000Z</time>
      </trkpt>
      <trkpt lat="49.12521" lon="1.64236">
        <ele>36.409717559814</ele>
        <time>2017-06-18T08:02:23.000Z</time>
      </trkpt>
      <trkpt lat="49.12537" lon="1.64252">
        <ele>35.982738494873</ele>
        <time>2017-06-18T08:02:26.000Z</time>
      </trkpt>
      <trkpt lat="49.12552" lon="1.64267">
        <ele>35.670978546143</ele>
        <time>2017-06-18T08:02:29.000Z</time>
      </trkpt>
      <trkpt lat="49.12568" lon="1.64285">
        <ele>35.427661895752</ele>
        <time>2017-06-18T08:02:32.000Z</time>
      </trkpt>
      <trkpt lat="49.12578" lon="1.64296">
        <ele>35.236362457275</ele>
        <time>2017-06-18T08:02:34.000Z</time>
      </trkpt>
      <trkpt lat="49.12595" lon="1.64311">
        <ele>35.077079772949</ele>
        <time>2017-06-18T08:02:37.000Z</time>
      </trkpt>
      <trkpt lat="49.12605" lon="1.64321">
        <ele>34.991962432861</ele>
        <time>2017-06-18T08:02:39.000Z</time>
      </trkpt>
      <trkpt lat="49.12616" lon="1.64332">
        <ele>34.925842285156</ele>
        <time>2017-06-18T08:02:41.000Z</time>
      </trkpt>
      <trkpt lat="49.12634" lon="1.64346">
        <ele>35.081245422363</ele>
        <time>2017-06-18T08:02:44.000Z</time>
      </trkpt>
      <trkpt lat="49.1265" lon="1.64364">
        <ele>35.27885055542</ele>
        <time>2017-06-18T08:02:47.000Z</time>
      </trkpt>
      <trkpt lat="49.12665" lon="1.64382">
        <ele>35.339263916016</ele>
        <time>2017-06-18T08:02:50.000Z</time>
      </trkpt>
      <trkpt lat="49.1268" lon="1.64399">
        <ele>35.413257598877</ele>
        <time>2017-06-18T08:02:53.000Z</time>
      </trkpt>
      <trkpt lat="49.12691" lon="1.64413">
        <ele>35.448642730713</ele>
        <time>2017-06-18T08:02:55.000Z</time>
      </trkpt>
      <trkpt lat="49.127" lon="1.64425">
        <ele>35.386444091797</ele>
        <time>2017-06-18T08:02:57.000Z</time>
      </trkpt>
      <trkpt lat="49.12715" lon="1.64443">
        <ele>35.435188293457</ele>
        <time>2017-06-18T08:03:00.000Z</time>
      </trkpt>
      <trkpt lat="49.1273" lon="1.64462">
        <ele>35.577156066895</ele>
        <time>2017-06-18T08:03:03.000Z</time>
      </trkpt>
      <trkpt lat="49.12739" lon="1.64475">
        <ele>35.554782867432</ele>
        <time>2017-06-18T08:03:05.000Z</time>
      </trkpt>
      <trkpt lat="49.12752" lon="1.64495">
        <ele>35.292156219482</ele>
        <time>2017-06-18T08:03:08.000Z</time>
      </trkpt>
      <trkpt lat="49.12761" lon="1.64508">
        <ele>34.989429473877</ele>
        <time>2017-06-18T08:03:10.000Z</time>
      </trkpt>
      <trkpt lat="49.12774" lon="1.64529">
        <ele>34.686866760254</ele>
        <time>2017-06-18T08:03:13.000Z</time>
      </trkpt>
      <trkpt lat="49.12783" lon="1.64543">
        <ele>34.453002929688</ele>
        <time>2017-06-18T08:03:15.000Z</time>
      </trkpt>
      <trkpt lat="49.12795" lon="1.64563">
        <ele>34.309467315674</ele>
        <time>2017-06-18T08:03:18.000Z</time>
      </trkpt>
      <trkpt lat="49.12809" lon="1.64584">
        <ele>34.379161834717</ele>
        <time>2017-06-18T08:03:21.000Z</time>
      </trkpt>
      <trkpt lat="49.12822" lon="1.64603">
        <ele>34.483497619629</ele>
        <time>2017-06-18T08:03:24.000Z</time>
      </trkpt>
      <trkpt lat="49.1283" lon="1.64616">
        <ele>34.455787658691</ele>
        <time>2017-06-18T08:03:26.000Z</time>
      </trkpt>
      <trkpt lat="49.12844" lon="1.64637">
        <ele>34.407073974609</ele>
        <time>2017-06-18T08:03:29.000Z</time>
      </trkpt>
      <trkpt lat="49.12851" lon="1.6465">
        <ele>34.332824707031</ele>
        <time>2017-06-18T08:03:31.000Z</time>
      </trkpt>
      <trkpt lat="49.12864" lon="1.64669">
        <ele>34.289161682129</ele>
        <time>2017-06-18T08:03:34.000Z</time>
      </trkpt>
      <trkpt lat="49.12875" lon="1.64689">
        <ele>34.220134735107</ele>
        <time>2017-06-18T08:03:37.000Z</time>
      </trkpt>
      <trkpt lat="49.12882" lon="1.64701">
        <ele>34.169212341309</ele>
        <time>2017-06-18T08:03:39.000Z</time>
      </trkpt>
      <trkpt lat="49.12894" lon="1.64721">
        <ele>34.046550750732</ele>
        <time>2017-06-18T08:03:42.000Z</time>
      </trkpt>
      <trkpt lat="49.12902" lon="1.64737">
        <ele>33.846252441406</ele>
        <time>2017-06-18T08:03:45.000Z</time>
      </trkpt>
      <trkpt lat="49.12912" lon="1.64751">
        <ele>33.554580688477</ele>
        <time>2017-06-18T08:03:48.000Z</time>
      </trkpt>
      <trkpt lat="49.12925" lon="1.64768">
        <ele>33.244430541992</ele>
        <time>2017-06-18T08:03:51.000Z</time>
      </trkpt>
      <trkpt lat="49.12938" lon="1.64786">
        <ele>32.964317321777</ele>
        <time>2017-06-18T08:03:54.000Z</time>
      </trkpt>
      <trkpt lat="49.12949" lon="1.64806">
        <ele>32.657043457031</ele>
        <time>2017-06-18T08:03:57.000Z</time>
      </trkpt>
      <trkpt lat="49.12961" lon="1.64827">
        <ele>32.360305786133</ele>
        <time>2017-06-18T08:04:00.000Z</time>
      </trkpt>
      <trkpt lat="49.1297" lon="1.64841">
        <ele>32.120002746582</ele>
        <time>2017-06-18T08:04:02.000Z</time>
      </trkpt>
      <trkpt lat="49.12979" lon="1.64855">
        <ele>31.876239776611</ele>
        <time>2017-06-18T08:04:04.000Z</time>
      </trkpt>
      <trkpt lat="49.12988" lon="1.64868">
        <ele>31.595142364502</ele>
        <time>2017-06-18T08:04:06.000Z</time>
      </trkpt>
      <trkpt lat="49.13002" lon="1.64889">
        <ele>31.314672470093</ele>
        <time>2017-06-18T08:04:09.000Z</time>
      </trkpt>
      <trkpt lat="49.13014" lon="1.64912">
        <ele>31.083597183228</ele>
        <time>2017-06-18T08:04:12.000Z</time>
      </trkpt>
      <trkpt lat="49.13023" lon="1.64925">
        <ele>30.911554336548</ele>
        <time>2017-06-18T08:04:14.000Z</time>
      </trkpt>
      <trkpt lat="49.13035" lon="1.64945">
        <ele>30.79404258728</ele>
        <time>2017-06-18T08:04:17.000Z</time>
      </trkpt>
      <trkpt lat="49.13049" lon="1.64966">
        <ele>30.715698242188</ele>
        <time>2017-06-18T08:04:20.000Z</time>
      </trkpt>
      <trkpt lat="49.13057" lon="1.64979">
        <ele>30.703227996826</ele>
        <time>2017-06-18T08:04:22.000Z</time>
      </trkpt>
      <trkpt lat="49.13072" lon="1.65001">
        <ele>30.687881469727</ele>
        <time>2017-06-18T08:04:25.000Z</time>
      </trkpt>
      <trkpt lat="49.13087" lon="1.65022">
        <ele>30.632314682007</ele>
        <time>2017-06-18T08:04:28.000Z</time>
      </trkpt>
      <trkpt lat="49.13101" lon="1.65042">
        <ele>30.569244384766</ele>
        <time>2017-06-18T08:04:31.000Z</time>
      </trkpt>
      <trkpt lat="49.13112" lon="1.65053">
        <ele>30.546148300171</ele>
        <time>2017-06-18T08:04:33.000Z</time>
      </trkpt>
      <trkpt lat="49.13123" lon="1.65064">
        <ele>30.547719955444</ele>
        <time>2017-06-18T08:04:35.000Z</time>
      </trkpt>
      <trkpt lat="49.13139" lon="1.65084">
        <ele>30.516138076782</ele>
        <time>2017-06-18T08:04:38.000Z</time>
      </trkpt>
      <trkpt lat="49.13155" lon="1.65102">
        <ele>30.507663726807</ele>
        <time>2017-06-18T08:04:41.000Z</time>
      </trkpt>
      <trkpt lat="49.1317" lon="1.65119">
        <ele>30.426788330078</ele>
        <time>2017-06-18T08:04:44.000Z</time>
      </trkpt>
      <trkpt lat="49.13187" lon="1.65135">
        <ele>30.276178359985</ele>
        <time>2017-06-18T08:04:47.000Z</time>
      </trkpt>
      <trkpt lat="49.13203" lon="1.65151">
        <ele>30.047649383545</ele>
        <time>2017-06-18T08:04:50.000Z</time>
      </trkpt>
      <trkpt lat="49.13214" lon="1.65161">
        <ele>29.831104278564</ele>
        <time>2017-06-18T08:04:52.000Z</time>
      </trkpt>
      <trkpt lat="49.13231" lon="1.65177">
        <ele>29.556692123413</ele>
        <time>2017-06-18T08:04:55.000Z</time>
      </trkpt>
      <trkpt lat="49.13249" lon="1.65192">
        <ele>29.283803939819</ele>
        <time>2017-06-18T08:04:58.000Z</time>
      </trkpt>
      <trkpt lat="49.13261" lon="1.65202">
        <ele>29.116815567017</ele>
        <time>2017-06-18T08:05:00.000Z</time>
      </trkpt>
      <trkpt lat="49.13279" lon="1.65217">
        <ele>29.139032363892</ele>
        <time>2017-06-18T08:05:03.000Z</time>
      </trkpt>
      <trkpt lat="49.13298" lon="1.65232">
        <ele>29.321346282959</ele>
        <time>2017-06-18T08:05:06.000Z</time>
      </trkpt>
      <trkpt lat="49.13309" lon="1.65241">
        <ele>29.583246231079</ele>
        <time>2017-06-18T08:05:08.000Z</time>
      </trkpt>
      <trkpt lat="49.13327" lon="1.65254">
        <ele>29.96537399292</ele>
        <time>2017-06-18T08:05:11.000Z</time>
      </trkpt>
      <trkpt lat="49.13344" lon="1.65264">
        <ele>30.567111968994</ele>
        <time>2017-06-18T08:05:14.000Z</time>
      </trkpt>
      <trkpt lat="49.13356" lon="1.65271">
        <ele>31.250442504883</ele>
        <time>2017-06-18T08:05:16.000Z</time>
      </trkpt>
      <trkpt lat="49.13373" lon="1.6528">
        <ele>32.050987243652</ele>
        <time>2017-06-18T08:05:19.000Z</time>
      </trkpt>
      <trkpt lat="49.13384" lon="1.65286">
        <ele>32.923271179199</ele>
        <time>2017-06-18T08:05:21.000Z</time>
      </trkpt>
      <trkpt lat="49.13399" lon="1.65295">
        <ele>33.756233215332</ele>
        <time>2017-06-18T08:05:24.000Z</time>
      </trkpt>
      <trkpt lat="49.1341" lon="1.65305">
        <ele>34.215488433838</ele>
        <time>2017-06-18T08:05:26.000Z</time>
      </trkpt>
      <trkpt lat="49.1343" lon="1.65314">
        <ele>34.36107635498</ele>
        <time>2017-06-18T08:05:29.000Z</time>
      </trkpt>
      <trkpt lat="49.13445" lon="1.65326">
        <ele>34.083038330078</ele>
        <time>2017-06-18T08:05:32.000Z</time>
      </trkpt>
      <trkpt lat="49.13462" lon="1.6533">
        <ele>33.625915527344</ele>
        <time>2017-06-18T08:05:35.000Z</time>
      </trkpt>
      <trkpt lat="49.13477" lon="1.65339">
        <ele>33.040824890137</ele>
        <time>2017-06-18T08:05:38.000Z</time>
      </trkpt>
      <trkpt lat="49.13492" lon="1.6534">
        <ele>32.523330688477</ele>
        <time>2017-06-18T08:05:40.000Z</time>
      </trkpt>
      <trkpt lat="49.13505" lon="1.65342">
        <ele>32.097923278809</ele>
        <time>2017-06-18T08:05:42.000Z</time>
      </trkpt>
      <trkpt lat="49.13524" lon="1.65356">
        <ele>31.773845672607</ele>
        <time>2017-06-18T08:05:45.000Z</time>
      </trkpt>
      <trkpt lat="49.1354" lon="1.65367">
        <ele>31.417638778687</ele>
        <time>2017-06-18T08:05:48.000Z</time>
      </trkpt>
      <trkpt lat="49.13551" lon="1.65376">
        <ele>31.045299530029</ele>
        <time>2017-06-18T08:05:50.000Z</time>
      </trkpt>
      <trkpt lat="49.13568" lon="1.65385">
        <ele>30.55463218689</ele>
        <time>2017-06-18T08:05:53.000Z</time>
      </trkpt>
      <trkpt lat="49.13586" lon="1.65392">
        <ele>29.997562408447</ele>
        <time>2017-06-18T08:05:56.000Z</time>
      </trkpt>
      <trkpt lat="49.13604" lon="1.65398">
        <ele>29.584941864014</ele>
        <time>2017-06-18T08:05:59.000Z</time>
      </trkpt>
      <trkpt lat="49.1362" lon="1.65403">
        <ele>29.298645019531</ele>
        <time>2017-06-18T08:06:02.000Z</time>
      </trkpt>
      <trkpt lat="49.13633" lon="1.65406">
        <ele>29.122547149658</ele>
        <time>2017-06-18T08:06:04.000Z</time>
      </trkpt>
      <trkpt lat="49.13651" lon="1.65409">
        <ele>29.084100723267</ele>
        <time>2017-06-18T08:06:07.000Z</time>
      </trkpt>
      <trkpt lat="49.1367" lon="1.6541">
        <ele>29.17533493042</ele>
        <time>2017-06-18T08:06:10.000Z</time>
      </trkpt>
      <trkpt lat="49.13681" lon="1.6541">
        <ele>29.242290496826</ele>
        <time>2017-06-18T08:06:12.000Z</time>
      </trkpt>
      <trkpt lat="49.13697" lon="1.65414">
        <ele>29.260753631592</ele>
        <time>2017-06-18T08:06:15.000Z</time>
      </trkpt>
      <trkpt lat="49.13714" lon="1.65414">
        <ele>29.257934570312</ele>
        <time>2017-06-18T08:06:18.000Z</time>
      </trkpt>
      <trkpt lat="49.1373" lon="1.65411">
        <ele>29.273056030273</ele>
        <time>2017-06-18T08:06:21.000Z</time>
      </trkpt>
      <trkpt lat="49.13741" lon="1.65409">
        <ele>29.272165298462</ele>
        <time>2017-06-18T08:06:23.000Z</time>
      </trkpt>
      <trkpt lat="49.13751" lon="1.65407">
        <ele>29.291757583618</ele>
        <time>2017-06-18T08:06:25.000Z</time>
      </trkpt>
      <trkpt lat="49.13767" lon="1.65403">
        <ele>29.426183700562</ele>
        <time>2017-06-18T08:06:28.000Z</time>
      </trkpt>
      <trkpt lat="49.13778" lon="1.654">
        <ele>29.624500274658</ele>
        <time>2017-06-18T08:06:30.000Z</time>
      </trkpt>
      <trkpt lat="49.13792" lon="1.65394">
        <ele>29.883508682251</ele>
        <time>2017-06-18T08:06:33.000Z</time>
      </trkpt>
      <trkpt lat="49.13802" lon="1.65392">
        <ele>30.1611328125</ele>
        <time>2017-06-18T08:06:35.000Z</time>
      </trkpt>
      <trkpt lat="49.13811" lon="1.65393">
        <ele>30.444213867188</ele>
        <time>2017-06-18T08:06:38.000Z</time>
      </trkpt>
      <trkpt lat="49.13815" lon="1.65392">
        <ele>30.6689453125</ele>
        <time>2017-06-18T08:06:40.000Z</time>
      </trkpt>
      <trkpt lat="49.13824" lon="1.65387">
        <ele>30.910034179688</ele>
        <time>2017-06-18T08:06:43.000Z</time>
      </trkpt>
      <trkpt lat="49.13835" lon="1.65379">
        <ele>31.154499053955</ele>
        <time>2017-06-18T08:06:46.000Z</time>
      </trkpt>
      <trkpt lat="49.13843" lon="1.65371">
        <ele>31.410034179688</ele>
        <time>2017-06-18T08:06:48.000Z</time>
      </trkpt>
      <trkpt lat="49.13855" lon="1.65359">
        <ele>31.721038818359</ele>
        <time>2017-06-18T08:06:51.000Z</time>
      </trkpt>
      <trkpt lat="49.13864" lon="1.65355">
        <ele>32.010322570801</ele>
        <time>2017-06-18T08:06:53.000Z</time>
      </trkpt>
      <trkpt lat="49.13873" lon="1.6535">
        <ele>32.234802246094</ele>
        <time>2017-06-18T08:06:55.000Z</time>
      </trkpt>
      <trkpt lat="49.13887" lon="1.65336">
        <ele>32.397666931152</ele>
        <time>2017-06-18T08:06:58.000Z</time>
      </trkpt>
      <trkpt lat="49.13897" lon="1.65325">
        <ele>32.690971374512</ele>
        <time>2017-06-18T08:07:00.000Z</time>
      </trkpt>
      <trkpt lat="49.13911" lon="1.65311">
        <ele>33.188362121582</ele>
        <time>2017-06-18T08:07:03.000Z</time>
      </trkpt>
      <trkpt lat="49.13921" lon="1.65303">
        <ele>33.820178985596</ele>
        <time>2017-06-18T08:07:05.000Z</time>
      </trkpt>
      <trkpt lat="49.13935" lon="1.65287">
        <ele>34.729057312012</ele>
        <time>2017-06-18T08:07:08.000Z</time>
      </trkpt>
      <trkpt lat="49.13944" lon="1.65277">
        <ele>35.783020019531</ele>
        <time>2017-06-18T08:07:10.000Z</time>
      </trkpt>
      <trkpt lat="49.13958" lon="1.6526">
        <ele>36.946571350098</ele>
        <time>2017-06-18T08:07:13.000Z</time>
      </trkpt>
      <trkpt lat="49.13972" lon="1.65249">
        <ele>38.000137329102</ele>
        <time>2017-06-18T08:07:16.000Z</time>
      </trkpt>
      <trkpt lat="49.13987" lon="1.65234">
        <ele>39.463924407959</ele>
        <time>2017-06-18T08:07:19.000Z</time>
      </trkpt>
      <trkpt lat="49.13998" lon="1.65231">
        <ele>40.669151306152</ele>
        <time>2017-06-18T08:07:21.000Z</time>
      </trkpt>
      <trkpt lat="49.14013" lon="1.6522">
        <ele>41.942584991455</ele>
        <time>2017-06-18T08:07:24.000Z</time>
      </trkpt>
      <trkpt lat="49.14022" lon="1.65214">
        <ele>43.032379150391</ele>
        <time>2017-06-18T08:07:26.000Z</time>
      </trkpt>
      <trkpt lat="49.14032" lon="1.65209">
        <ele>44.052619934082</ele>
        <time>2017-06-18T08:07:28.000Z</time>
      </trkpt>
      <trkpt lat="49.14045" lon="1.65209">
        <ele>44.360191345215</ele>
        <time>2017-06-18T08:07:31.000Z</time>
      </trkpt>
      <trkpt lat="49.14064" lon="1.65201">
        <ele>44.6946144104</ele>
        <time>2017-06-18T08:07:34.000Z</time>
      </trkpt>
      <trkpt lat="49.14076" lon="1.65196">
        <ele>44.804634094238</ele>
        <time>2017-06-18T08:07:36.000Z</time>
      </trkpt>
      <trkpt lat="49.14095" lon="1.65191">
        <ele>44.735515594482</ele>
        <time>2017-06-18T08:07:39.000Z</time>
      </trkpt>
      <trkpt lat="49.14111" lon="1.6519">
        <ele>44.371147155762</ele>
        <time>2017-06-18T08:07:42.000Z</time>
      </trkpt>
      <trkpt lat="49.14133" lon="1.65181">
        <ele>44.158336639404</ele>
        <time>2017-06-18T08:07:45.000Z</time>
      </trkpt>
      <trkpt lat="49.14146" lon="1.6518">
        <ele>43.705646514893</ele>
        <time>2017-06-18T08:07:47.000Z</time>
      </trkpt>
      <trkpt lat="49.14166" lon="1.65179">
        <ele>42.981025695801</ele>
        <time>2017-06-18T08:07:50.000Z</time>
      </trkpt>
      <trkpt lat="49.14183" lon="1.65183">
        <ele>42.442649841309</ele>
        <time>2017-06-18T08:07:53.000Z</time>
      </trkpt>
      <trkpt lat="49.14195" lon="1.65187">
        <ele>42.120880126953</ele>
        <time>2017-06-18T08:07:55.000Z</time>
      </trkpt>
      <trkpt lat="49.14208" lon="1.65186">
        <ele>42.030902862549</ele>
        <time>2017-06-18T08:07:57.000Z</time>
      </trkpt>
      <trkpt lat="49.1422" lon="1.65189">
        <ele>42.200946807861</ele>
        <time>2017-06-18T08:07:59.000Z</time>
      </trkpt>
      <trkpt lat="49.14233" lon="1.65194">
        <ele>42.621505737305</ele>
        <time>2017-06-18T08:08:01.000Z</time>
      </trkpt>
      <trkpt lat="49.14251" lon="1.652">
        <ele>42.894107818604</ele>
        <time>2017-06-18T08:08:04.000Z</time>
      </trkpt>
      <trkpt lat="49.14271" lon="1.65204">
        <ele>43.089599609375</ele>
        <time>2017-06-18T08:08:07.000Z</time>
      </trkpt>
      <trkpt lat="49.14281" lon="1.6521">
        <ele>42.844360351562</ele>
        <time>2017-06-18T08:08:09.000Z</time>
      </trkpt>
      <trkpt lat="49.14293" lon="1.65212">
        <ele>42.505981445312</ele>
        <time>2017-06-18T08:08:11.000Z</time>
      </trkpt>
      <trkpt lat="49.14306" lon="1.65213">
        <ele>42.157531738281</ele>
        <time>2017-06-18T08:08:13.000Z</time>
      </trkpt>
      <trkpt lat="49.14322" lon="1.65215">
        <ele>41.825263977051</ele>
        <time>2017-06-18T08:08:16.000Z</time>
      </trkpt>
      <trkpt lat="49.14334" lon="1.65216">
        <ele>41.54806137085</ele>
        <time>2017-06-18T08:08:19.000Z</time>
      </trkpt>
      <trkpt lat="49.14346" lon="1.6522">
        <ele>41.362419128418</ele>
        <time>2017-06-18T08:08:22.000Z</time>
      </trkpt>
      <trkpt lat="49.14355" lon="1.65224">
        <ele>41.017314910889</ele>
        <time>2017-06-18T08:08:24.000Z</time>
      </trkpt>
      <trkpt lat="49.14367" lon="1.65227">
        <ele>40.558979034424</ele>
        <time>2017-06-18T08:08:27.000Z</time>
      </trkpt>
      <trkpt lat="49.14378" lon="1.65232">
        <ele>39.910377502441</ele>
        <time>2017-06-18T08:08:30.000Z</time>
      </trkpt>
      <trkpt lat="49.1439" lon="1.65235">
        <ele>39.112590789795</ele>
        <time>2017-06-18T08:08:32.000Z</time>
      </trkpt>
      <trkpt lat="49.14406" lon="1.6524">
        <ele>38.195198059082</ele>
        <time>2017-06-18T08:08:35.000Z</time>
      </trkpt>
      <trkpt lat="49.14423" lon="1.65241">
        <ele>37.445827484131</ele>
        <time>2017-06-18T08:08:38.000Z</time>
      </trkpt>
      <trkpt lat="49.14435" lon="1.65241">
        <ele>36.918922424316</ele>
        <time>2017-06-18T08:08:40.000Z</time>
      </trkpt>
      <trkpt lat="49.14452" lon="1.65247">
        <ele>36.493236541748</ele>
        <time>2017-06-18T08:08:43.000Z</time>
      </trkpt>
      <trkpt lat="49.14466" lon="1.65256">
        <ele>36.064575195312</ele>
        <time>2017-06-18T08:08:46.000Z</time>
      </trkpt>
      <trkpt lat="49.14481" lon="1.65263">
        <ele>35.860496520996</ele>
        <time>2017-06-18T08:08:49.000Z</time>
      </trkpt>
      <trkpt lat="49.14498" lon="1.6527">
        <ele>35.649242401123</ele>
        <time>2017-06-18T08:08:52.000Z</time>
      </trkpt>
      <trkpt lat="49.14508" lon="1.65273">
        <ele>35.308040618896</ele>
        <time>2017-06-18T08:08:54.000Z</time>
      </trkpt>
      <trkpt lat="49.14518" lon="1.65275">
        <ele>35.079627990723</ele>
        <time>2017-06-18T08:08:56.000Z</time>
      </trkpt>
      <trkpt lat="49.14526" lon="1.65276">
        <ele>35.002819061279</ele>
        <time>2017-06-18T08:08:58.000Z</time>
      </trkpt>
      <trkpt lat="49.1454" lon="1.65281">
        <ele>34.891120910645</ele>
        <time>2017-06-18T08:09:01.000Z</time>
      </trkpt>
      <trkpt lat="49.14556" lon="1.65286">
        <ele>34.695137023926</ele>
        <time>2017-06-18T08:09:04.000Z</time>
      </trkpt>
      <trkpt lat="49.14566" lon="1.65291">
        <ele>34.41658782959</ele>
        <time>2017-06-18T08:09:06.000Z</time>
      </trkpt>
      <trkpt lat="49.14582" lon="1.65293">
        <ele>34.095970153809</ele>
        <time>2017-06-18T08:09:09.000Z</time>
      </trkpt>
      <trkpt lat="49.14592" lon="1.65294">
        <ele>33.783992767334</ele>
        <time>2017-06-18T08:09:11.000Z</time>
      </trkpt>
      <trkpt lat="49.14603" lon="1.65297">
        <ele>33.482555389404</ele>
        <time>2017-06-18T08:09:13.000Z</time>
      </trkpt>
      <trkpt lat="49.14618" lon="1.65301">
        <ele>33.237949371338</ele>
        <time>2017-06-18T08:09:16.000Z</time>
      </trkpt>
      <trkpt lat="49.14627" lon="1.65303">
        <ele>33.045604705811</ele>
        <time>2017-06-18T08:09:18.000Z</time>
      </trkpt>
      <trkpt lat="49.14642" lon="1.65308">
        <ele>32.777954101562</ele>
        <time>2017-06-18T08:09:21.000Z</time>
      </trkpt>
      <trkpt lat="49.14652" lon="1.65311">
        <ele>32.443737030029</ele>
        <time>2017-06-18T08:09:23.000Z</time>
      </trkpt>
      <trkpt lat="49.14669" lon="1.65314">
        <ele>32.145233154297</ele>
        <time>2017-06-18T08:09:26.000Z</time>
      </trkpt>
      <trkpt lat="49.1468" lon="1.65314">
        <ele>31.905630111694</ele>
        <time>2017-06-18T08:09:28.000Z</time>
      </trkpt>
      <trkpt lat="49.14696" lon="1.65315">
        <ele>31.73822593689</ele>
        <time>2017-06-18T08:09:31.000Z</time>
      </trkpt>
      <trkpt lat="49.14708" lon="1.65314">
        <ele>31.741039276123</ele>
        <time>2017-06-18T08:09:33.000Z</time>
      </trkpt>
      <trkpt lat="49.14719" lon="1.65315">
        <ele>31.829296112061</ele>
        <time>2017-06-18T08:09:35.000Z</time>
      </trkpt>
      <trkpt lat="49.14735" lon="1.65317">
        <ele>31.908466339111</ele>
        <time>2017-06-18T08:09:38.000Z</time>
      </trkpt>
      <trkpt lat="49.1475" lon="1.65321">
        <ele>31.867324829102</ele>
        <time>2017-06-18T08:09:41.000Z</time>
      </trkpt>
      <trkpt lat="49.1476" lon="1.65323">
        <ele>31.756225585938</ele>
        <time>2017-06-18T08:09:43.000Z</time>
      </trkpt>
      <trkpt lat="49.14771" lon="1.65325">
        <ele>31.54155921936</ele>
        <time>2017-06-18T08:09:45.000Z</time>
      </trkpt>
      <trkpt lat="49.14787" lon="1.6533">
        <ele>31.207021713257</ele>
        <time>2017-06-18T08:09:48.000Z</time>
      </trkpt>
      <trkpt lat="49.14798" lon="1.65332">
        <ele>30.881317138672</ele>
        <time>2017-06-18T08:09:50.000Z</time>
      </trkpt>
      <trkpt lat="49.14809" lon="1.65334">
        <ele>30.667928695679</ele>
        <time>2017-06-18T08:09:52.000Z</time>
      </trkpt>
      <trkpt lat="49.14819" lon="1.65338">
        <ele>30.531768798828</ele>
        <time>2017-06-18T08:09:54.000Z</time>
      </trkpt>
      <trkpt lat="49.14835" lon="1.65344">
        <ele>30.465921401978</ele>
        <time>2017-06-18T08:09:57.000Z</time>
      </trkpt>
      <trkpt lat="49.14853" lon="1.65345">
        <ele>30.48496055603</ele>
        <time>2017-06-18T08:10:00.000Z</time>
      </trkpt>
      <trkpt lat="49.14864" lon="1.65347">
        <ele>30.513080596924</ele>
        <time>2017-06-18T08:10:02.000Z</time>
      </trkpt>
      <trkpt lat="49.1488" lon="1.65349">
        <ele>30.520599365234</ele>
        <time>2017-06-18T08:10:05.000Z</time>
      </trkpt>
      <trkpt lat="49.14893" lon="1.65349">
        <ele>30.508911132812</ele>
        <time>2017-06-18T08:10:07.000Z</time>
      </trkpt>
      <trkpt lat="49.14904" lon="1.65352">
        <ele>30.452789306641</ele>
        <time>2017-06-18T08:10:09.000Z</time>
      </trkpt>
      <trkpt lat="49.14915" lon="1.65354">
        <ele>30.394744873047</ele>
        <time>2017-06-18T08:10:11.000Z</time>
      </trkpt>
      <trkpt lat="49.14931" lon="1.6536">
        <ele>30.351104736328</ele>
        <time>2017-06-18T08:10:14.000Z</time>
      </trkpt>
      <trkpt lat="49.14942" lon="1.65361">
        <ele>30.343677520752</ele>
        <time>2017-06-18T08:10:16.000Z</time>
      </trkpt>
      <trkpt lat="49.14958" lon="1.65364">
        <ele>30.369903564453</ele>
        <time>2017-06-18T08:10:19.000Z</time>
      </trkpt>
      <trkpt lat="49.14975" lon="1.65368">
        <ele>30.450408935547</ele>
        <time>2017-06-18T08:10:22.000Z</time>
      </trkpt>
      <trkpt lat="49.14985" lon="1.65371">
        <ele>30.566051483154</ele>
        <time>2017-06-18T08:10:24.000Z</time>
      </trkpt>
      <trkpt lat="49.15" lon="1.65379">
        <ele>30.686792373657</ele>
        <time>2017-06-18T08:10:27.000Z</time>
      </trkpt>
      <trkpt lat="49.15015" lon="1.65386">
        <ele>30.826461791992</ele>
        <time>2017-06-18T08:10:30.000Z</time>
      </trkpt>
      <trkpt lat="49.15031" lon="1.6539">
        <ele>30.986333847046</ele>
        <time>2017-06-18T08:10:33.000Z</time>
      </trkpt>
      <trkpt lat="49.15046" lon="1.65398">
        <ele>31.152877807617</ele>
        <time>2017-06-18T08:10:36.000Z</time>
      </trkpt>
      <trkpt lat="49.15057" lon="1.65401">
        <ele>31.330270767212</ele>
        <time>2017-06-18T08:10:38.000Z</time>
      </trkpt>
      <trkpt lat="49.15071" lon="1.65406">
        <ele>31.547485351562</ele>
        <time>2017-06-18T08:10:41.000Z</time>
      </trkpt>
      <trkpt lat="49.15082" lon="1.65408">
        <ele>31.764038085938</ele>
        <time>2017-06-18T08:10:44.000Z</time>
      </trkpt>
      <trkpt lat="49.15088" lon="1.65407">
        <ele>31.912836074829</ele>
        <time>2017-06-18T08:10:47.000Z</time>
      </trkpt>
      <trkpt lat="49.15088" lon="1.65406">
        <ele>32.021614074707</ele>
        <time>2017-06-18T08:10:50.000Z</time>
      </trkpt>
      <trkpt lat="49.15088" lon="1.65406">
        <ele>32.021614074707</ele>
        <time>2017-06-18T08:11:00.000Z</time>
      </trkpt>
      <trkpt lat="49.15088" lon="1.65404">
        <ele>32.10863494873</ele>
        <time>2017-06-18T08:11:02.000Z</time>
      </trkpt>
      <trkpt lat="49.15088" lon="1.65404">
        <ele>32.10863494873</ele>
        <time>2017-06-18T08:11:12.000Z</time>
      </trkpt>
      <trkpt lat="49.1509" lon="1.65405">
        <ele>32.134143829346</ele>
        <time>2017-06-18T08:11:13.000Z</time>
      </trkpt>
      <trkpt lat="49.15099" lon="1.65408">
        <ele>32.048774719238</ele>
        <time>2017-06-18T08:11:16.000Z</time>
      </trkpt>
      <trkpt lat="49.15109" lon="1.6541">
        <ele>31.900579452515</ele>
        <time>2017-06-18T08:11:19.000Z</time>
      </trkpt>
      <trkpt lat="49.15121" lon="1.65416">
        <ele>31.607660293579</ele>
        <time>2017-06-18T08:11:22.000Z</time>
      </trkpt>
      <trkpt lat="49.15135" lon="1.6542">
        <ele>31.200201034546</ele>
        <time>2017-06-18T08:11:25.000Z</time>
      </trkpt>
      <trkpt lat="49.15143" lon="1.65425">
        <ele>30.751718521118</ele>
        <time>2017-06-18T08:11:27.000Z</time>
      </trkpt>
      <trkpt lat="49.15151" lon="1.65428">
        <ele>30.312124252319</ele>
        <time>2017-06-18T08:11:29.000Z</time>
      </trkpt>
      <trkpt lat="49.15166" lon="1.65431">
        <ele>29.840759277344</ele>
        <time>2017-06-18T08:11:32.000Z</time>
      </trkpt>
      <trkpt lat="49.15182" lon="1.65435">
        <ele>29.494800567627</ele>
        <time>2017-06-18T08:11:35.000Z</time>
      </trkpt>
      <trkpt lat="49.15194" lon="1.65438">
        <ele>29.232885360718</ele>
        <time>2017-06-18T08:11:37.000Z</time>
      </trkpt>
      <trkpt lat="49.1521" lon="1.65445">
        <ele>28.990692138672</ele>
        <time>2017-06-18T08:11:40.000Z</time>
      </trkpt>
      <trkpt lat="49.15226" lon="1.65452">
        <ele>28.759328842163</ele>
        <time>2017-06-18T08:11:43.000Z</time>
      </trkpt>
      <trkpt lat="49.15243" lon="1.65457">
        <ele>28.579864501953</ele>
        <time>2017-06-18T08:11:46.000Z</time>
      </trkpt>
      <trkpt lat="49.15259" lon="1.65462">
        <ele>28.452320098877</ele>
        <time>2017-06-18T08:11:49.000Z</time>
      </trkpt>
      <trkpt lat="49.15276" lon="1.65466">
        <ele>28.446359634399</ele>
        <time>2017-06-18T08:11:52.000Z</time>
      </trkpt>
      <trkpt lat="49.15289" lon="1.65476">
        <ele>28.50092124939</ele>
        <time>2017-06-18T08:11:55.000Z</time>
      </trkpt>
      <trkpt lat="49.15305" lon="1.65483">
        <ele>28.650899887085</ele>
        <time>2017-06-18T08:11:58.000Z</time>
      </trkpt>
      <trkpt lat="49.1532" lon="1.65488">
        <ele>28.895120620728</ele>
        <time>2017-06-18T08:12:01.000Z</time>
      </trkpt>
      <trkpt lat="49.15336" lon="1.65498">
        <ele>29.070291519165</ele>
        <time>2017-06-18T08:12:04.000Z</time>
      </trkpt>
      <trkpt lat="49.15345" lon="1.65504">
        <ele>29.14394569397</ele>
        <time>2017-06-18T08:12:06.000Z</time>
      </trkpt>
      <trkpt lat="49.15357" lon="1.65514">
        <ele>29.221975326538</ele>
        <time>2017-06-18T08:12:09.000Z</time>
      </trkpt>
      <trkpt lat="49.15374" lon="1.65522">
        <ele>29.266052246094</ele>
        <time>2017-06-18T08:12:12.000Z</time>
      </trkpt>
      <trkpt lat="49.15383" lon="1.65528">
        <ele>29.266067504883</ele>
        <time>2017-06-18T08:12:14.000Z</time>
      </trkpt>
      <trkpt lat="49.15395" lon="1.65538">
        <ele>29.271902084351</ele>
        <time>2017-06-18T08:12:17.000Z</time>
      </trkpt>
      <trkpt lat="49.15408" lon="1.65549">
        <ele>29.216943740845</ele>
        <time>2017-06-18T08:12:20.000Z</time>
      </trkpt>
      <trkpt lat="49.15417" lon="1.65557">
        <ele>29.082317352295</ele>
        <time>2017-06-18T08:12:22.000Z</time>
      </trkpt>
      <trkpt lat="49.15426" lon="1.65566">
        <ele>28.932621002197</ele>
        <time>2017-06-18T08:12:24.000Z</time>
      </trkpt>
      <trkpt lat="49.15434" lon="1.65574">
        <ele>28.772583007812</ele>
        <time>2017-06-18T08:12:26.000Z</time>
      </trkpt>
      <trkpt lat="49.15447" lon="1.65584">
        <ele>28.606191635132</ele>
        <time>2017-06-18T08:12:29.000Z</time>
      </trkpt>
      <trkpt lat="49.15462" lon="1.656">
        <ele>28.496240615845</ele>
        <time>2017-06-18T08:12:32.000Z</time>
      </trkpt>
      <trkpt lat="49.15477" lon="1.65615">
        <ele>28.437335968018</ele>
        <time>2017-06-18T08:12:35.000Z</time>
      </trkpt>
      <trkpt lat="49.15486" lon="1.65634">
        <ele>28.358892440796</ele>
        <time>2017-06-18T08:12:38.000Z</time>
      </trkpt>
      <trkpt lat="49.155" lon="1.65647">
        <ele>28.299438476562</ele>
        <time>2017-06-18T08:12:41.000Z</time>
      </trkpt>
      <trkpt lat="49.1551" lon="1.65662">
        <ele>28.287975311279</ele>
        <time>2017-06-18T08:12:43.000Z</time>
      </trkpt>
      <trkpt lat="49.15518" lon="1.65676">
        <ele>28.288879394531</ele>
        <time>2017-06-18T08:12:45.000Z</time>
      </trkpt>
      <trkpt lat="49.15527" lon="1.65692">
        <ele>28.309289932251</ele>
        <time>2017-06-18T08:12:48.000Z</time>
      </trkpt>
      <trkpt lat="49.15534" lon="1.65707">
        <ele>28.370082855225</ele>
        <time>2017-06-18T08:12:50.000Z</time>
      </trkpt>
      <trkpt lat="49.15547" lon="1.65726">
        <ele>28.48561668396</ele>
        <time>2017-06-18T08:12:53.000Z</time>
      </trkpt>
      <trkpt lat="49.15552" lon="1.65742">
        <ele>28.60892868042</ele>
        <time>2017-06-18T08:12:55.000Z</time>
      </trkpt>
      <trkpt lat="49.15557" lon="1.65755">
        <ele>28.725656509399</ele>
        <time>2017-06-18T08:12:57.000Z</time>
      </trkpt>
      <trkpt lat="49.15565" lon="1.65774">
        <ele>28.806182861328</ele>
        <time>2017-06-18T08:13:00.000Z</time>
      </trkpt>
      <trkpt lat="49.15575" lon="1.65796">
        <ele>28.832550048828</ele>
        <time>2017-06-18T08:13:03.000Z</time>
      </trkpt>
      <trkpt lat="49.15582" lon="1.6581">
        <ele>28.775287628174</ele>
        <time>2017-06-18T08:13:05.000Z</time>
      </trkpt>
      <trkpt lat="49.15592" lon="1.65829">
        <ele>28.633026123047</ele>
        <time>2017-06-18T08:13:08.000Z</time>
      </trkpt>
      <trkpt lat="49.15601" lon="1.6585">
        <ele>28.412296295166</ele>
        <time>2017-06-18T08:13:11.000Z</time>
      </trkpt>
      <trkpt lat="49.15606" lon="1.65864">
        <ele>28.148595809937</ele>
        <time>2017-06-18T08:13:13.000Z</time>
      </trkpt>
      <trkpt lat="49.15613" lon="1.65878">
        <ele>27.871845245361</ele>
        <time>2017-06-18T08:13:15.000Z</time>
      </trkpt>
      <trkpt lat="49.15624" lon="1.65902">
        <ele>27.536041259766</ele>
        <time>2017-06-18T08:13:18.000Z</time>
      </trkpt>
      <trkpt lat="49.1563" lon="1.65915">
        <ele>27.215270996094</ele>
        <time>2017-06-18T08:13:20.000Z</time>
      </trkpt>
      <trkpt lat="49.15638" lon="1.65937">
        <ele>26.982385635376</ele>
        <time>2017-06-18T08:13:23.000Z</time>
      </trkpt>
      <trkpt lat="49.15648" lon="1.65956">
        <ele>26.830310821533</ele>
        <time>2017-06-18T08:13:26.000Z</time>
      </trkpt>
      <trkpt lat="49.15657" lon="1.65977">
        <ele>26.752330780029</ele>
        <time>2017-06-18T08:13:29.000Z</time>
      </trkpt>
      <trkpt lat="49.15668" lon="1.65998">
        <ele>26.783168792725</ele>
        <time>2017-06-18T08:13:32.000Z</time>
      </trkpt>
      <trkpt lat="49.15679" lon="1.66017">
        <ele>26.904485702515</ele>
        <time>2017-06-18T08:13:35.000Z</time>
      </trkpt>
      <trkpt lat="49.15689" lon="1.66034">
        <ele>27.054773330688</ele>
        <time>2017-06-18T08:13:38.000Z</time>
      </trkpt>
      <trkpt lat="49.15696" lon="1.66047">
        <ele>27.213451385498</ele>
        <time>2017-06-18T08:13:40.000Z</time>
      </trkpt>
      <trkpt lat="49.15703" lon="1.66056">
        <ele>27.371765136719</ele>
        <time>2017-06-18T08:13:42.000Z</time>
      </trkpt>
      <trkpt lat="49.1571" lon="1.6607">
        <ele>27.538970947266</ele>
        <time>2017-06-18T08:13:45.000Z</time>
      </trkpt>
      <trkpt lat="49.15715" lon="1.6608">
        <ele>27.689147949219</ele>
        <time>2017-06-18T08:13:47.000Z</time>
      </trkpt>
      <trkpt lat="49.15726" lon="1.66094">
        <ele>27.806634902954</ele>
        <time>2017-06-18T08:13:50.000Z</time>
      </trkpt>
      <trkpt lat="49.15731" lon="1.66106">
        <ele>27.894245147705</ele>
        <time>2017-06-18T08:13:52.000Z</time>
      </trkpt>
      <trkpt lat="49.15749" lon="1.66127">
        <ele>27.958782196045</ele>
        <time>2017-06-18T08:13:55.000Z</time>
      </trkpt>
      <trkpt lat="49.15761" lon="1.66147">
        <ele>28.01015663147</ele>
        <time>2017-06-18T08:13:58.000Z</time>
      </trkpt>
      <trkpt lat="49.15773" lon="1.66161">
        <ele>28.02935218811</ele>
        <time>2017-06-18T08:14:01.000Z</time>
      </trkpt>
      <trkpt lat="49.15786" lon="1.66182">
        <ele>27.972631454468</ele>
        <time>2017-06-18T08:14:04.000Z</time>
      </trkpt>
      <trkpt lat="49.15796" lon="1.66204">
        <ele>27.841119766235</ele>
        <time>2017-06-18T08:14:07.000Z</time>
      </trkpt>
      <trkpt lat="49.15806" lon="1.66214">
        <ele>27.688329696655</ele>
        <time>2017-06-18T08:14:09.000Z</time>
      </trkpt>
      <trkpt lat="49.15822" lon="1.66228">
        <ele>27.501876831055</ele>
        <time>2017-06-18T08:14:12.000Z</time>
      </trkpt>
      <trkpt lat="49.15837" lon="1.66245">
        <ele>27.320087432861</ele>
        <time>2017-06-18T08:14:15.000Z</time>
      </trkpt>
      <trkpt lat="49.15847" lon="1.66254">
        <ele>27.234893798828</ele>
        <time>2017-06-18T08:14:17.000Z</time>
      </trkpt>
      <trkpt lat="49.1586" lon="1.66272">
        <ele>27.259944915771</ele>
        <time>2017-06-18T08:14:20.000Z</time>
      </trkpt>
      <trkpt lat="49.15874" lon="1.66285">
        <ele>27.365055084229</ele>
        <time>2017-06-18T08:14:23.000Z</time>
      </trkpt>
      <trkpt lat="49.15887" lon="1.66303">
        <ele>27.542316436768</ele>
        <time>2017-06-18T08:14:26.000Z</time>
      </trkpt>
      <trkpt lat="49.15901" lon="1.66317">
        <ele>27.807453155518</ele>
        <time>2017-06-18T08:14:29.000Z</time>
      </trkpt>
      <trkpt lat="49.15908" lon="1.66327">
        <ele>28.087198257446</ele>
        <time>2017-06-18T08:14:31.000Z</time>
      </trkpt>
      <trkpt lat="49.15923" lon="1.66343">
        <ele>28.354663848877</ele>
        <time>2017-06-18T08:14:34.000Z</time>
      </trkpt>
      <trkpt lat="49.15933" lon="1.66346">
        <ele>28.532464981079</ele>
        <time>2017-06-18T08:14:36.000Z</time>
      </trkpt>
      <trkpt lat="49.15949" lon="1.66358">
        <ele>28.585424423218</ele>
        <time>2017-06-18T08:14:39.000Z</time>
      </trkpt>
      <trkpt lat="49.15961" lon="1.66363">
        <ele>28.512802124023</ele>
        <time>2017-06-18T08:14:41.000Z</time>
      </trkpt>
      <trkpt lat="49.15977" lon="1.66372">
        <ele>28.336517333984</ele>
        <time>2017-06-18T08:14:44.000Z</time>
      </trkpt>
      <trkpt lat="49.15994" lon="1.6638">
        <ele>28.077209472656</ele>
        <time>2017-06-18T08:14:47.000Z</time>
      </trkpt>
      <trkpt lat="49.16005" lon="1.6639">
        <ele>27.826446533203</ele>
        <time>2017-06-18T08:14:49.000Z</time>
      </trkpt>
      <trkpt lat="49.16019" lon="1.66401">
        <ele>27.676233291626</ele>
        <time>2017-06-18T08:14:52.000Z</time>
      </trkpt>
      <trkpt lat="49.16031" lon="1.66407">
        <ele>27.608417510986</ele>
        <time>2017-06-18T08:14:54.000Z</time>
      </trkpt>
      <trkpt lat="49.16044" lon="1.66408">
        <ele>27.655612945557</ele>
        <time>2017-06-18T08:14:56.000Z</time>
      </trkpt>
      <trkpt lat="49.1606" lon="1.66417">
        <ele>27.844263076782</ele>
        <time>2017-06-18T08:14:59.000Z</time>
      </trkpt>
      <trkpt lat="49.16072" lon="1.66423">
        <ele>28.141620635986</ele>
        <time>2017-06-18T08:15:01.000Z</time>
      </trkpt>
      <trkpt lat="49.16082" lon="1.66431">
        <ele>28.486301422119</ele>
        <time>2017-06-18T08:15:03.000Z</time>
      </trkpt>
      <trkpt lat="49.16093" lon="1.66436">
        <ele>28.825967788696</ele>
        <time>2017-06-18T08:15:05.000Z</time>
      </trkpt>
      <trkpt lat="49.16106" lon="1.66448">
        <ele>29.195816040039</ele>
        <time>2017-06-18T08:15:08.000Z</time>
      </trkpt>
      <trkpt lat="49.16118" lon="1.66456">
        <ele>29.569696426392</ele>
        <time>2017-06-18T08:15:10.000Z</time>
      </trkpt>
      <trkpt lat="49.16137" lon="1.66465">
        <ele>29.988986968994</ele>
        <time>2017-06-18T08:15:13.000Z</time>
      </trkpt>
      <trkpt lat="49.16154" lon="1.66473">
        <ele>30.492218017578</ele>
        <time>2017-06-18T08:15:16.000Z</time>
      </trkpt>
      <trkpt lat="49.16174" lon="1.66475">
        <ele>31.00510597229</ele>
        <time>2017-06-18T08:15:19.000Z</time>
      </trkpt>
      <trkpt lat="49.16192" lon="1.66483">
        <ele>31.464986801147</ele>
        <time>2017-06-18T08:15:22.000Z</time>
      </trkpt>
      <trkpt lat="49.16204" lon="1.66486">
        <ele>31.810541152954</ele>
        <time>2017-06-18T08:15:24.000Z</time>
      </trkpt>
      <trkpt lat="49.16214" lon="1.66495">
        <ele>32.039276123047</ele>
        <time>2017-06-18T08:15:26.000Z</time>
      </trkpt>
      <trkpt lat="49.16233" lon="1.66491">
        <ele>31.955673217773</ele>
        <time>2017-06-18T08:15:29.000Z</time>
      </trkpt>
      <trkpt lat="49.16249" lon="1.665">
        <ele>31.758571624756</ele>
        <time>2017-06-18T08:15:32.000Z</time>
      </trkpt>
      <trkpt lat="49.16268" lon="1.66501">
        <ele>31.475631713867</ele>
        <time>2017-06-18T08:15:35.000Z</time>
      </trkpt>
      <trkpt lat="49.16281" lon="1.66508">
        <ele>31.177042007446</ele>
        <time>2017-06-18T08:15:37.000Z</time>
      </trkpt>
      <trkpt lat="49.16293" lon="1.66511">
        <ele>30.821325302124</ele>
        <time>2017-06-18T08:15:39.000Z</time>
      </trkpt>
      <trkpt lat="49.16308" lon="1.66509">
        <ele>30.573955535889</ele>
        <time>2017-06-18T08:15:41.000Z</time>
      </trkpt>
      <trkpt lat="49.16319" lon="1.66513">
        <ele>30.347589492798</ele>
        <time>2017-06-18T08:15:43.000Z</time>
      </trkpt>
      <trkpt lat="49.16343" lon="1.66494">
        <ele>30.3303565979</ele>
        <time>2017-06-18T08:15:46.000Z</time>
      </trkpt>
      <trkpt lat="49.1636" lon="1.66493">
        <ele>30.484058380127</ele>
        <time>2017-06-18T08:15:49.000Z</time>
      </trkpt>
      <trkpt lat="49.16371" lon="1.66487">
        <ele>30.81173324585</ele>
        <time>2017-06-18T08:15:51.000Z</time>
      </trkpt>
      <trkpt lat="49.16387" lon="1.66489">
        <ele>31.263561248779</ele>
        <time>2017-06-18T08:15:54.000Z</time>
      </trkpt>
      <trkpt lat="49.16397" lon="1.66491">
        <ele>31.815654754639</ele>
        <time>2017-06-18T08:15:56.000Z</time>
      </trkpt>
      <trkpt lat="49.16414" lon="1.66495">
        <ele>32.298320770264</ele>
        <time>2017-06-18T08:15:59.000Z</time>
      </trkpt>
      <trkpt lat="49.16419" lon="1.66494">
        <ele>32.686428070068</ele>
        <time>2017-06-18T08:16:02.000Z</time>
      </trkpt>
      <trkpt lat="49.1642" lon="1.66487">
        <ele>33.002365112305</ele>
        <time>2017-06-18T08:16:04.000Z</time>
      </trkpt>
      <trkpt lat="49.1642" lon="1.66472">
        <ele>33.333026885986</ele>
        <time>2017-06-18T08:16:07.000Z</time>
      </trkpt>
      <trkpt lat="49.1642" lon="1.6646">
        <ele>33.697151184082</ele>
        <time>2017-06-18T08:16:09.000Z</time>
      </trkpt>
      <trkpt lat="49.1642" lon="1.66446">
        <ele>34.074684143066</ele>
        <time>2017-06-18T08:16:12.000Z</time>
      </trkpt>
      <trkpt lat="49.1642" lon="1.66436">
        <ele>34.490631103516</ele>
        <time>2017-06-18T08:16:14.000Z</time>
      </trkpt>
      <trkpt lat="49.16419" lon="1.66425">
        <ele>34.927181243896</ele>
        <time>2017-06-18T08:16:17.000Z</time>
      </trkpt>
      <trkpt lat="49.1642" lon="1.66416">
        <ele>35.322574615479</ele>
        <time>2017-06-18T08:16:19.000Z</time>
      </trkpt>
      <trkpt lat="49.16419" lon="1.66406">
        <ele>35.629875183105</ele>
        <time>2017-06-18T08:16:21.000Z</time>
      </trkpt>
      <trkpt lat="49.16418" lon="1.66394">
        <ele>35.83687210083</ele>
        <time>2017-06-18T08:16:23.000Z</time>
      </trkpt>
      <trkpt lat="49.16422" lon="1.66377">
        <ele>35.985824584961</ele>
        <time>2017-06-18T08:16:26.000Z</time>
      </trkpt>
      <trkpt lat="49.16423" lon="1.66368">
        <ele>36.062019348145</ele>
        <time>2017-06-18T08:16:28.000Z</time>
      </trkpt>
      <trkpt lat="49.16426" lon="1.66358">
        <ele>36.091999053955</ele>
        <time>2017-06-18T08:16:30.000Z</time>
      </trkpt>
      <trkpt lat="49.16429" lon="1.66347">
        <ele>36.140434265137</ele>
        <time>2017-06-18T08:16:32.000Z</time>
      </trkpt>
      <trkpt lat="49.16433" lon="1.66331">
        <ele>36.223297119141</ele>
        <time>2017-06-18T08:16:35.000Z</time>
      </trkpt>
      <trkpt lat="49.16433" lon="1.66319">
        <ele>36.335182189941</ele>
        <time>2017-06-18T08:16:38.000Z</time>
      </trkpt>
      <trkpt lat="49.16433" lon="1.66311">
        <ele>36.462097167969</ele>
        <time>2017-06-18T08:16:40.000Z</time>
      </trkpt>
      <trkpt lat="49.16433" lon="1.66302">
        <ele>36.608589172363</ele>
        <time>2017-06-18T08:16:42.000Z</time>
      </trkpt>
      <trkpt lat="49.16437" lon="1.66284">
        <ele>36.827842712402</ele>
        <time>2017-06-18T08:16:45.000Z</time>
      </trkpt>
      <trkpt lat="49.16439" lon="1.66272">
        <ele>37.077140808105</ele>
        <time>2017-06-18T08:16:48.000Z</time>
      </trkpt>
      <trkpt lat="49.16441" lon="1.66267">
        <ele>37.319976806641</ele>
        <time>2017-06-18T08:16:50.000Z</time>
      </trkpt>
      <trkpt lat="49.16446" lon="1.66263">
        <ele>37.593437194824</ele>
        <time>2017-06-18T08:16:52.000Z</time>
      </trkpt>
      <trkpt lat="49.16447" lon="1.66259">
        <ele>37.860832214355</ele>
        <time>2017-06-18T08:16:55.000Z</time>
      </trkpt>
      <trkpt lat="49.16449" lon="1.66257">
        <ele>38.068714141846</ele>
        <time>2017-06-18T08:16:58.000Z</time>
      </trkpt>
      <trkpt lat="49.16451" lon="1.66257">
        <ele>38.226795196533</ele>
        <time>2017-06-18T08:17:00.000Z</time>
      </trkpt>
      <trkpt lat="49.16454" lon="1.66252">
        <ele>38.404888153076</ele>
        <time>2017-06-18T08:17:03.000Z</time>
      </trkpt>
      <trkpt lat="49.16459" lon="1.66249">
        <ele>38.591594696045</ele>
        <time>2017-06-18T08:17:06.000Z</time>
      </trkpt>
      <trkpt lat="49.16461" lon="1.66248">
        <ele>38.779777526855</ele>
        <time>2017-06-18T08:17:09.000Z</time>
      </trkpt>
      <trkpt lat="49.16465" lon="1.66245">
        <ele>38.992908477783</ele>
        <time>2017-06-18T08:17:12.000Z</time>
      </trkpt>
      <trkpt lat="49.16466" lon="1.66246">
        <ele>39.190414428711</ele>
        <time>2017-06-18T08:17:18.000Z</time>
      </trkpt>
      <trkpt lat="49.16465" lon="1.66248">
        <ele>39.312110900879</ele>
        <time>2017-06-18T08:17:25.000Z</time>
      </trkpt>
      <trkpt lat="49.16464" lon="1.66245">
        <ele>39.383953094482</ele>
        <time>2017-06-18T08:17:30.000Z</time>
      </trkpt>
      <trkpt lat="49.16464" lon="1.66243">
        <ele>39.440227508545</ele>
        <time>2017-06-18T08:17:34.000Z</time>
      </trkpt>
      <trkpt lat="49.16463" lon="1.66242">
        <ele>39.445930480957</ele>
        <time>2017-06-18T08:17:36.000Z</time>
      </trkpt>
      <trkpt lat="49.16463" lon="1.6624">
        <ele>39.455535888672</ele>
        <time>2017-06-18T08:17:42.000Z</time>
      </trkpt>
      <trkpt lat="49.16463" lon="1.66244">
        <ele>39.465209960938</ele>
        <time>2017-06-18T08:17:45.000Z</time>
      </trkpt>
      <trkpt lat="49.16462" lon="1.66245">
        <ele>39.441513061523</ele>
        <time>2017-06-18T08:17:50.000Z</time>
      </trkpt>
      <trkpt lat="49.1646" lon="1.66247">
        <ele>39.385318756104</ele>
        <time>2017-06-18T08:17:53.000Z</time>
      </trkpt>
      <trkpt lat="49.16459" lon="1.66248">
        <ele>39.299201965332</ele>
        <time>2017-06-18T08:17:57.000Z</time>
      </trkpt>
      <trkpt lat="49.16459" lon="1.66248">
        <ele>39.299201965332</ele>
        <time>2017-06-18T08:18:07.000Z</time>
      </trkpt>
      <trkpt lat="49.16459" lon="1.66245">
        <ele>39.232074737549</ele>
        <time>2017-06-18T08:18:08.000Z</time>
      </trkpt>
      <trkpt lat="49.16461" lon="1.66246">
        <ele>39.196884155273</ele>
        <time>2017-06-18T08:18:13.000Z</time>
      </trkpt>
      <trkpt lat="49.16461" lon="1.66246">
        <ele>39.196884155273</ele>
        <time>2017-06-18T08:18:23.000Z</time>
      </trkpt>
      <trkpt lat="49.16464" lon="1.66244">
        <ele>39.225440979004</ele>
        <time>2017-06-18T08:18:29.000Z</time>
      </trkpt>
      <trkpt lat="49.16467" lon="1.66242">
        <ele>39.316913604736</ele>
        <time>2017-06-18T08:18:35.000Z</time>
      </trkpt>
      <trkpt lat="49.16466" lon="1.66242">
        <ele>39.425556182861</ele>
        <time>2017-06-18T08:18:37.000Z</time>
      </trkpt>
      <trkpt lat="49.16467" lon="1.66243">
        <ele>39.518043518066</ele>
        <time>2017-06-18T08:18:40.000Z</time>
      </trkpt>
      <trkpt lat="49.16468" lon="1.6624">
        <ele>39.630809783936</ele>
        <time>2017-06-18T08:18:48.000Z</time>
      </trkpt>
      <trkpt lat="49.16468" lon="1.66242">
        <ele>39.687622070312</ele>
        <time>2017-06-18T08:18:51.000Z</time>
      </trkpt>
      <trkpt lat="49.16468" lon="1.66241">
        <ele>39.709037780762</ele>
        <time>2017-06-18T08:18:54.000Z</time>
      </trkpt>
      <trkpt lat="49.16469" lon="1.66237">
        <ele>39.771755218506</ele>
        <time>2017-06-18T08:18:57.000Z</time>
      </trkpt>
      <trkpt lat="49.16472" lon="1.66235">
        <ele>39.87548828125</ele>
        <time>2017-06-18T08:19:01.000Z</time>
      </trkpt>
      <trkpt lat="49.16472" lon="1.66233">
        <ele>39.959362030029</ele>
        <time>2017-06-18T08:19:04.000Z</time>
      </trkpt>
      <trkpt lat="49.16471" lon="1.66233">
        <ele>40.045455932617</ele>
        <time>2017-06-18T08:19:06.000Z</time>
      </trkpt>
      <trkpt lat="49.16471" lon="1.66233">
        <ele>40.045455932617</ele>
        <time>2017-06-18T08:19:16.000Z</time>
      </trkpt>
      <trkpt lat="49.16468" lon="1.66236">
        <ele>40.068229675293</ele>
        <time>2017-06-18T08:19:18.000Z</time>
      </trkpt>
      <trkpt lat="49.16468" lon="1.66236">
        <ele>40.068229675293</ele>
        <time>2017-06-18T08:19:28.000Z</time>
      </trkpt>
      <trkpt lat="49.16467" lon="1.66238">
        <ele>40.037384033203</ele>
        <time>2017-06-18T08:19:45.000Z</time>
      </trkpt>
      <trkpt lat="49.16465" lon="1.6624">
        <ele>39.935493469238</ele>
        <time>2017-06-18T08:19:48.000Z</time>
      </trkpt>
      <trkpt lat="49.16465" lon="1.6624">
        <ele>39.935493469238</ele>
        <time>2017-06-18T08:19:58.000Z</time>
      </trkpt>
      <trkpt lat="49.16464" lon="1.66244">
        <ele>39.785831451416</ele>
        <time>2017-06-18T08:20:14.000Z</time>
      </trkpt>
      <trkpt lat="49.16464" lon="1.66245">
        <ele>39.636180877686</ele>
        <time>2017-06-18T08:20:19.000Z</time>
      </trkpt>
      <trkpt lat="49.16466" lon="1.66245">
        <ele>39.563571929932</ele>
        <time>2017-06-18T08:20:23.000Z</time>
      </trkpt>
      <trkpt lat="49.16466" lon="1.66245">
        <ele>39.563571929932</ele>
        <time>2017-06-18T08:20:33.000Z</time>
      </trkpt>
      <trkpt lat="49.16468" lon="1.66244">
        <ele>39.534427642822</ele>
        <time>2017-06-18T08:20:34.000Z</time>
      </trkpt>
      <trkpt lat="49.16467" lon="1.66245">
        <ele>39.515586853027</ele>
        <time>2017-06-18T08:20:39.000Z</time>
      </trkpt>
      <trkpt lat="49.16467" lon="1.66245">
        <ele>39.515586853027</ele>
        <time>2017-06-18T08:20:49.000Z</time>
      </trkpt>
      <trkpt lat="49.16468" lon="1.66246">
        <ele>39.543651580811</ele>
        <time>2017-06-18T08:20:57.000Z</time>
      </trkpt>
      <trkpt lat="49.16468" lon="1.66248">
        <ele>39.568866729736</ele>
        <time>2017-06-18T08:21:05.000Z</time>
      </trkpt>
      <trkpt lat="49.16469" lon="1.66248">
        <ele>39.584648132324</ele>
        <time>2017-06-18T08:21:10.000Z</time>
      </trkpt>
      <trkpt lat="49.16468" lon="1.66247">
        <ele>39.573444366455</ele>
        <time>2017-06-18T08:21:16.000Z</time>
      </trkpt>
      <trkpt lat="49.16467" lon="1.66246">
        <ele>39.575260162354</ele>
        <time>2017-06-18T08:21:19.000Z</time>
      </trkpt>
      <trkpt lat="49.16465" lon="1.66246">
        <ele>39.542881011963</ele>
        <time>2017-06-18T08:21:24.000Z</time>
      </trkpt>
      <trkpt lat="49.16464" lon="1.66244">
        <ele>39.524955749512</ele>
        <time>2017-06-18T08:21:28.000Z</time>
      </trkpt>
      <trkpt lat="49.16463" lon="1.66244">
        <ele>39.485927581787</ele>
        <time>2017-06-18T08:21:34.000Z</time>
      </trkpt>
      <trkpt lat="49.16464" lon="1.66243">
        <ele>39.471397399902</ele>
        <time>2017-06-18T08:21:43.000Z</time>
      </trkpt>
      <trkpt lat="49.16465" lon="1.66242">
        <ele>39.46333694458</ele>
        <time>2017-06-18T08:21:45.000Z</time>
      </trkpt>
      <trkpt lat="49.16465" lon="1.66243">
        <ele>39.482425689697</ele>
        <time>2017-06-18T08:21:47.000Z</time>
      </trkpt>
      <trkpt lat="49.16467" lon="1.66244">
        <ele>39.511825561523</ele>
        <time>2017-06-18T08:21:50.000Z</time>
      </trkpt>
      <trkpt lat="49.16466" lon="1.66241">
        <ele>39.556476593018</ele>
        <time>2017-06-18T08:21:53.000Z</time>
      </trkpt>
      <trkpt lat="49.16464" lon="1.66241">
        <ele>39.564552307129</ele>
        <time>2017-06-18T08:21:56.000Z</time>
      </trkpt>
      <trkpt lat="49.16463" lon="1.66242">
        <ele>39.550445556641</ele>
        <time>2017-06-18T08:21:59.000Z</time>
      </trkpt>
      <trkpt lat="49.16461" lon="1.66244">
        <ele>39.506717681885</ele>
        <time>2017-06-18T08:22:05.000Z</time>
      </trkpt>
      <trkpt lat="49.16461" lon="1.66244">
        <ele>39.506717681885</ele>
        <time>2017-06-18T08:22:15.000Z</time>
      </trkpt>
      <trkpt lat="49.16462" lon="1.66245">
        <ele>39.453804016113</ele>
        <time>2017-06-18T08:22:16.000Z</time>
      </trkpt>
      <trkpt lat="49.16463" lon="1.6625">
        <ele>39.370403289795</ele>
        <time>2017-06-18T08:22:19.000Z</time>
      </trkpt>
      <trkpt lat="49.16468" lon="1.66255">
        <ele>39.335422515869</ele>
        <time>2017-06-18T08:22:21.000Z</time>
      </trkpt>
      <trkpt lat="49.16479" lon="1.66259">
        <ele>39.387481689453</ele>
        <time>2017-06-18T08:22:24.000Z</time>
      </trkpt>
      <trkpt lat="49.16486" lon="1.66264">
        <ele>39.493385314941</ele>
        <time>2017-06-18T08:22:26.000Z</time>
      </trkpt>
      <trkpt lat="49.16492" lon="1.6627">
        <ele>39.616992950439</ele>
        <time>2017-06-18T08:22:28.000Z</time>
      </trkpt>
      <trkpt lat="49.16497" lon="1.66275">
        <ele>39.777618408203</ele>
        <time>2017-06-18T08:22:30.000Z</time>
      </trkpt>
      <trkpt lat="49.16504" lon="1.66281">
        <ele>40.018135070801</ele>
        <time>2017-06-18T08:22:33.000Z</time>
      </trkpt>
      <trkpt lat="49.16508" lon="1.66285">
        <ele>40.28999710083</ele>
        <time>2017-06-18T08:22:35.000Z</time>
      </trkpt>
      <trkpt lat="49.16515" lon="1.66288">
        <ele>40.720226287842</ele>
        <time>2017-06-18T08:22:38.000Z</time>
      </trkpt>
      <trkpt lat="49.16521" lon="1.66289">
        <ele>41.282413482666</ele>
        <time>2017-06-18T08:22:40.000Z</time>
      </trkpt>
      <trkpt lat="49.16527" lon="1.66289">
        <ele>42.027610778809</ele>
        <time>2017-06-18T08:22:43.000Z</time>
      </trkpt>
      <trkpt lat="49.16531" lon="1.66291">
        <ele>42.741004943848</ele>
        <time>2017-06-18T08:22:45.000Z</time>
      </trkpt>
      <trkpt lat="49.16533" lon="1.66297">
        <ele>43.339160919189</ele>
        <time>2017-06-18T08:22:47.000Z</time>
      </trkpt>
      <trkpt lat="49.16539" lon="1.663">
        <ele>43.8740234375</ele>
        <time>2017-06-18T08:22:50.000Z</time>
      </trkpt>
      <trkpt lat="49.16544" lon="1.66302">
        <ele>44.367542266846</ele>
        <time>2017-06-18T08:22:52.000Z</time>
      </trkpt>
      <trkpt lat="49.16547" lon="1.66304">
        <ele>44.725303649902</ele>
        <time>2017-06-18T08:22:54.000Z</time>
      </trkpt>
      <trkpt lat="49.16553" lon="1.66305">
        <ele>45.143211364746</ele>
        <time>2017-06-18T08:22:57.000Z</time>
      </trkpt>
      <trkpt lat="49.16556" lon="1.66301">
        <ele>45.736469268799</ele>
        <time>2017-06-18T08:22:59.000Z</time>
      </trkpt>
      <trkpt lat="49.16558" lon="1.66299">
        <ele>46.308856964111</ele>
        <time>2017-06-18T08:23:01.000Z</time>
      </trkpt>
      <trkpt lat="49.16563" lon="1.66298">
        <ele>46.90308380127</ele>
        <time>2017-06-18T08:23:04.000Z</time>
      </trkpt>
      <trkpt lat="49.16566" lon="1.663">
        <ele>47.527198791504</ele>
        <time>2017-06-18T08:23:07.000Z</time>
      </trkpt>
      <trkpt lat="49.16569" lon="1.66301">
        <ele>48.050758361816</ele>
        <time>2017-06-18T08:23:09.000Z</time>
      </trkpt>
      <trkpt lat="49.16574" lon="1.66304">
        <ele>48.497230529785</ele>
        <time>2017-06-18T08:23:12.000Z</time>
      </trkpt>
      <trkpt lat="49.16579" lon="1.66306">
        <ele>48.912269592285</ele>
        <time>2017-06-18T08:23:15.000Z</time>
      </trkpt>
      <trkpt lat="49.16582" lon="1.66308">
        <ele>49.250968933105</ele>
        <time>2017-06-18T08:23:18.000Z</time>
      </trkpt>
      <trkpt lat="49.16586" lon="1.66309">
        <ele>49.54322052002</ele>
        <time>2017-06-18T08:23:21.000Z</time>
      </trkpt>
      <trkpt lat="49.1659" lon="1.66313">
        <ele>49.792362213135</ele>
        <time>2017-06-18T08:23:24.000Z</time>
      </trkpt>
      <trkpt lat="49.16594" lon="1.66313">
        <ele>50.011657714844</ele>
        <time>2017-06-18T08:23:27.000Z</time>
      </trkpt>
      <trkpt lat="49.16598" lon="1.66315">
        <ele>50.180809020996</ele>
        <time>2017-06-18T08:23:30.000Z</time>
      </trkpt>
      <trkpt lat="49.16601" lon="1.66318">
        <ele>50.27730178833</ele>
        <time>2017-06-18T08:23:33.000Z</time>
      </trkpt>
      <trkpt lat="49.16604" lon="1.6632">
        <ele>50.357860565186</ele>
        <time>2017-06-18T08:23:36.000Z</time>
      </trkpt>
      <trkpt lat="49.16606" lon="1.6632">
        <ele>50.459762573242</ele>
        <time>2017-06-18T08:23:38.000Z</time>
      </trkpt>
      <trkpt lat="49.16608" lon="1.66317">
        <ele>50.631637573242</ele>
        <time>2017-06-18T08:23:41.000Z</time>
      </trkpt>
      <trkpt lat="49.16608" lon="1.6631">
        <ele>50.932792663574</ele>
        <time>2017-06-18T08:23:44.000Z</time>
      </trkpt>
      <trkpt lat="49.16608" lon="1.66306">
        <ele>51.324424743652</ele>
        <time>2017-06-18T08:23:46.000Z</time>
      </trkpt>
      <trkpt lat="49.16605" lon="1.663">
        <ele>51.790596008301</ele>
        <time>2017-06-18T08:23:49.000Z</time>
      </trkpt>
      <trkpt lat="49.16605" lon="1.66296">
        <ele>52.317577362061</ele>
        <time>2017-06-18T08:23:51.000Z</time>
      </trkpt>
      <trkpt lat="49.16605" lon="1.6629">
        <ele>52.849433898926</ele>
        <time>2017-06-18T08:23:54.000Z</time>
      </trkpt>
      <trkpt lat="49.16605" lon="1.66286">
        <ele>53.308280944824</ele>
        <time>2017-06-18T08:23:56.000Z</time>
      </trkpt>
      <trkpt lat="49.16605" lon="1.66283">
        <ele>53.778144836426</ele>
        <time>2017-06-18T08:23:58.000Z</time>
      </trkpt>
      <trkpt lat="49.16605" lon="1.66277">
        <ele>54.266803741455</ele>
        <time>2017-06-18T08:24:01.000Z</time>
      </trkpt>
      <trkpt lat="49.16603" lon="1.66271">
        <ele>54.801002502441</ele>
        <time>2017-06-18T08:24:04.000Z</time>
      </trkpt>
      <trkpt lat="49.166" lon="1.66264">
        <ele>55.307788848877</ele>
        <time>2017-06-18T08:24:07.000Z</time>
      </trkpt>
      <trkpt lat="49.16598" lon="1.6626">
        <ele>55.817840576172</ele>
        <time>2017-06-18T08:24:09.000Z</time>
      </trkpt>
      <trkpt lat="49.16595" lon="1.66256">
        <ele>56.284790039062</ele>
        <time>2017-06-18T08:24:11.000Z</time>
      </trkpt>
      <trkpt lat="49.16592" lon="1.66253">
        <ele>56.678955078125</ele>
        <time>2017-06-18T08:24:13.000Z</time>
      </trkpt>
      <trkpt lat="49.1659" lon="1.66248">
        <ele>57.015907287598</ele>
        <time>2017-06-18T08:24:15.000Z</time>
      </trkpt>
      <trkpt lat="49.16588" lon="1.66243">
        <ele>57.331657409668</ele>
        <time>2017-06-18T08:24:18.000Z</time>
      </trkpt>
      <trkpt lat="49.16586" lon="1.66237">
        <ele>57.643371582031</ele>
        <time>2017-06-18T08:24:21.000Z</time>
      </trkpt>
      <trkpt lat="49.16584" lon="1.66232">
        <ele>57.987770080566</ele>
        <time>2017-06-18T08:24:23.000Z</time>
      </trkpt>
      <trkpt lat="49.16583" lon="1.66225">
        <ele>58.411918640137</ele>
        <time>2017-06-18T08:24:26.000Z</time>
      </trkpt>
      <trkpt lat="49.16584" lon="1.66219">
        <ele>58.894542694092</ele>
        <time>2017-06-18T08:24:29.000Z</time>
      </trkpt>
      <trkpt lat="49.16584" lon="1.66214">
        <ele>59.399269104004</ele>
        <time>2017-06-18T08:24:32.000Z</time>
      </trkpt>
      <trkpt lat="49.16584" lon="1.66209">
        <ele>59.926616668701</ele>
        <time>2017-06-18T08:24:35.000Z</time>
      </trkpt>
      <trkpt lat="49.16584" lon="1.66205">
        <ele>60.451915740967</ele>
        <time>2017-06-18T08:24:37.000Z</time>
      </trkpt>
      <trkpt lat="49.16584" lon="1.66202">
        <ele>60.919078826904</ele>
        <time>2017-06-18T08:24:39.000Z</time>
      </trkpt>
      <trkpt lat="49.16585" lon="1.66197">
        <ele>61.361797332764</ele>
        <time>2017-06-18T08:24:42.000Z</time>
      </trkpt>
      <trkpt lat="49.16586" lon="1.66192">
        <ele>61.797760009766</ele>
        <time>2017-06-18T08:24:45.000Z</time>
      </trkpt>
      <trkpt lat="49.16587" lon="1.66188">
        <ele>62.22554397583</ele>
        <time>2017-06-18T08:24:48.000Z</time>
      </trkpt>
      <trkpt lat="49.16588" lon="1.66183">
        <ele>62.676067352295</ele>
        <time>2017-06-18T08:24:51.000Z</time>
      </trkpt>
      <trkpt lat="49.16589" lon="1.6618">
        <ele>63.131023406982</ele>
        <time>2017-06-18T08:24:53.000Z</time>
      </trkpt>
      <trkpt lat="49.16589" lon="1.66177">
        <ele>63.555870056152</ele>
        <time>2017-06-18T08:24:55.000Z</time>
      </trkpt>
      <trkpt lat="49.16591" lon="1.66172">
        <ele>63.98482131958</ele>
        <time>2017-06-18T08:24:58.000Z</time>
      </trkpt>
      <trkpt lat="49.16593" lon="1.66169">
        <ele>64.393051147461</ele>
        <time>2017-06-18T08:25:00.000Z</time>
      </trkpt>
      <trkpt lat="49.16595" lon="1.66167">
        <ele>64.779647827148</ele>
        <time>2017-06-18T08:25:02.000Z</time>
      </trkpt>
      <trkpt lat="49.16599" lon="1.66163">
        <ele>65.100601196289</ele>
        <time>2017-06-18T08:25:05.000Z</time>
      </trkpt>
      <trkpt lat="49.16603" lon="1.66159">
        <ele>65.367233276367</ele>
        <time>2017-06-18T08:25:08.000Z</time>
      </trkpt>
      <trkpt lat="49.16606" lon="1.66154">
        <ele>65.531387329102</ele>
        <time>2017-06-18T08:25:11.000Z</time>
      </trkpt>
      <trkpt lat="49.16608" lon="1.66151">
        <ele>65.63786315918</ele>
        <time>2017-06-18T08:25:13.000Z</time>
      </trkpt>
      <trkpt lat="49.16611" lon="1.66149">
        <ele>65.688575744629</ele>
        <time>2017-06-18T08:25:15.000Z</time>
      </trkpt>
      <trkpt lat="49.16613" lon="1.66147">
        <ele>65.756393432617</ele>
        <time>2017-06-18T08:25:17.000Z</time>
      </trkpt>
      <trkpt lat="49.16617" lon="1.66143">
        <ele>65.834091186523</ele>
        <time>2017-06-18T08:25:20.000Z</time>
      </trkpt>
      <trkpt lat="49.16623" lon="1.66144">
        <ele>65.990013122559</ele>
        <time>2017-06-18T08:25:23.000Z</time>
      </trkpt>
      <trkpt lat="49.16626" lon="1.66144">
        <ele>66.176383972168</ele>
        <time>2017-06-18T08:25:25.000Z</time>
      </trkpt>
      <trkpt lat="49.16631" lon="1.66142">
        <ele>66.398933410645</ele>
        <time>2017-06-18T08:25:28.000Z</time>
      </trkpt>
      <trkpt lat="49.16635" lon="1.6614">
        <ele>66.650856018066</ele>
        <time>2017-06-18T08:25:31.000Z</time>
      </trkpt>
      <trkpt lat="49.1664" lon="1.66138">
        <ele>66.943977355957</ele>
        <time>2017-06-18T08:25:34.000Z</time>
      </trkpt>
      <trkpt lat="49.16643" lon="1.66136">
        <ele>67.198875427246</ele>
        <time>2017-06-18T08:25:36.000Z</time>
      </trkpt>
      <trkpt lat="49.16647" lon="1.66134">
        <ele>67.461639404297</ele>
        <time>2017-06-18T08:25:38.000Z</time>
      </trkpt>
      <trkpt lat="49.1665" lon="1.66131">
        <ele>67.71794128418</ele>
        <time>2017-06-18T08:25:40.000Z</time>
      </trkpt>
      <trkpt lat="49.16653" lon="1.66129">
        <ele>67.969802856445</ele>
        <time>2017-06-18T08:25:42.000Z</time>
      </trkpt>
      <trkpt lat="49.16656" lon="1.66127">
        <ele>68.191795349121</ele>
        <time>2017-06-18T08:25:44.000Z</time>
      </trkpt>
      <trkpt lat="49.1666" lon="1.66124">
        <ele>68.448181152344</ele>
        <time>2017-06-18T08:25:47.000Z</time>
      </trkpt>
      <trkpt lat="49.16665" lon="1.66123">
        <ele>68.741249084473</ele>
        <time>2017-06-18T08:25:50.000Z</time>
      </trkpt>
      <trkpt lat="49.1667" lon="1.66121">
        <ele>69.054733276367</ele>
        <time>2017-06-18T08:25:53.000Z</time>
      </trkpt>
      <trkpt lat="49.16673" lon="1.6612">
        <ele>69.36003112793</ele>
        <time>2017-06-18T08:25:55.000Z</time>
      </trkpt>
      <trkpt lat="49.16676" lon="1.6612">
        <ele>69.672927856445</ele>
        <time>2017-06-18T08:25:57.000Z</time>
      </trkpt>
      <trkpt lat="49.16679" lon="1.66119">
        <ele>69.961143493652</ele>
        <time>2017-06-18T08:25:59.000Z</time>
      </trkpt>
      <trkpt lat="49.16685" lon="1.66118">
        <ele>70.238327026367</ele>
        <time>2017-06-18T08:26:02.000Z</time>
      </trkpt>
      <trkpt lat="49.1669" lon="1.66117">
        <ele>70.533042907715</ele>
        <time>2017-06-18T08:26:05.000Z</time>
      </trkpt>
      <trkpt lat="49.16693" lon="1.66116">
        <ele>70.834770202637</ele>
        <time>2017-06-18T08:26:07.000Z</time>
      </trkpt>
      <trkpt lat="49.16697" lon="1.66116">
        <ele>71.142959594727</ele>
        <time>2017-06-18T08:26:09.000Z</time>
      </trkpt>
      <trkpt lat="49.16703" lon="1.66115">
        <ele>71.480606079102</ele>
        <time>2017-06-18T08:26:12.000Z</time>
      </trkpt>
      <trkpt lat="49.16708" lon="1.66115">
        <ele>71.822677612305</ele>
        <time>2017-06-18T08:26:15.000Z</time>
      </trkpt>
      <trkpt lat="49.16714" lon="1.66116">
        <ele>72.162322998047</ele>
        <time>2017-06-18T08:26:18.000Z</time>
      </trkpt>
      <trkpt lat="49.16718" lon="1.66116">
        <ele>72.504272460938</ele>
        <time>2017-06-18T08:26:20.000Z</time>
      </trkpt>
      <trkpt lat="49.16724" lon="1.66116">
        <ele>72.88166809082</ele>
        <time>2017-06-18T08:26:23.000Z</time>
      </trkpt>
      <trkpt lat="49.1673" lon="1.66115">
        <ele>73.275192260742</ele>
        <time>2017-06-18T08:26:26.000Z</time>
      </trkpt>
      <trkpt lat="49.16737" lon="1.66115">
        <ele>73.680725097656</ele>
        <time>2017-06-18T08:26:29.000Z</time>
      </trkpt>
      <trkpt lat="49.16743" lon="1.66115">
        <ele>74.097915649414</ele>
        <time>2017-06-18T08:26:32.000Z</time>
      </trkpt>
      <trkpt lat="49.16748" lon="1.66115">
        <ele>74.529647827148</ele>
        <time>2017-06-18T08:26:34.000Z</time>
      </trkpt>
      <trkpt lat="49.16755" lon="1.66115">
        <ele>75.03636932373</ele>
        <time>2017-06-18T08:26:37.000Z</time>
      </trkpt>
      <trkpt lat="49.16761" lon="1.66116">
        <ele>75.648086547852</ele>
        <time>2017-06-18T08:26:40.000Z</time>
      </trkpt>
      <trkpt lat="49.16768" lon="1.66116">
        <ele>76.342636108398</ele>
        <time>2017-06-18T08:26:43.000Z</time>
      </trkpt>
      <trkpt lat="49.16773" lon="1.66117">
        <ele>77.110534667969</ele>
        <time>2017-06-18T08:26:46.000Z</time>
      </trkpt>
      <trkpt lat="49.16778" lon="1.66117">
        <ele>77.954299926758</ele>
        <time>2017-06-18T08:26:49.000Z</time>
      </trkpt>
      <trkpt lat="49.16783" lon="1.66117">
        <ele>78.780799865723</ele>
        <time>2017-06-18T08:26:52.000Z</time>
      </trkpt>
      <trkpt lat="49.16786" lon="1.66117">
        <ele>79.503890991211</ele>
        <time>2017-06-18T08:26:54.000Z</time>
      </trkpt>
      <trkpt lat="49.16789" lon="1.66117">
        <ele>80.123916625977</ele>
        <time>2017-06-18T08:26:56.000Z</time>
      </trkpt>
      <trkpt lat="49.16793" lon="1.66117">
        <ele>80.707275390625</ele>
        <time>2017-06-18T08:26:59.000Z</time>
      </trkpt>
      <trkpt lat="49.16796" lon="1.66117">
        <ele>81.221572875977</ele>
        <time>2017-06-18T08:27:01.000Z</time>
      </trkpt>
      <trkpt lat="49.168" lon="1.66118">
        <ele>81.719741821289</ele>
        <time>2017-06-18T08:27:04.000Z</time>
      </trkpt>
      <trkpt lat="49.16804" lon="1.66118">
        <ele>82.24348449707</ele>
        <time>2017-06-18T08:27:07.000Z</time>
      </trkpt>
      <trkpt lat="49.16809" lon="1.66116">
        <ele>82.847953796387</ele>
        <time>2017-06-18T08:27:10.000Z</time>
      </trkpt>
      <trkpt lat="49.16811" lon="1.66116">
        <ele>83.419448852539</ele>
        <time>2017-06-18T08:27:12.000Z</time>
      </trkpt>
      <trkpt lat="49.16815" lon="1.66115">
        <ele>84.032302856445</ele>
        <time>2017-06-18T08:27:15.000Z</time>
      </trkpt>
      <trkpt lat="49.16819" lon="1.66116">
        <ele>84.633293151855</ele>
        <time>2017-06-18T08:27:18.000Z</time>
      </trkpt>
      <trkpt lat="49.16824" lon="1.66116">
        <ele>85.261260986328</ele>
        <time>2017-06-18T08:27:21.000Z</time>
      </trkpt>
      <trkpt lat="49.16828" lon="1.66115">
        <ele>85.863174438477</ele>
        <time>2017-06-18T08:27:24.000Z</time>
      </trkpt>
      <trkpt lat="49.16833" lon="1.66116">
        <ele>86.497230529785</ele>
        <time>2017-06-18T08:27:27.000Z</time>
      </trkpt>
      <trkpt lat="49.16838" lon="1.66116">
        <ele>87.169944763184</ele>
        <time>2017-06-18T08:27:30.000Z</time>
      </trkpt>
      <trkpt lat="49.1684" lon="1.66116">
        <ele>87.8076171875</ele>
        <time>2017-06-18T08:27:32.000Z</time>
      </trkpt>
      <trkpt lat="49.16844" lon="1.66117">
        <ele>88.393653869629</ele>
        <time>2017-06-18T08:27:35.000Z</time>
      </trkpt>
      <trkpt lat="49.16847" lon="1.66118">
        <ele>88.933113098145</ele>
        <time>2017-06-18T08:27:37.000Z</time>
      </trkpt>
      <trkpt lat="49.16851" lon="1.6612">
        <ele>89.444351196289</ele>
        <time>2017-06-18T08:27:40.000Z</time>
      </trkpt>
      <trkpt lat="49.16854" lon="1.66121">
        <ele>89.877220153809</ele>
        <time>2017-06-18T08:27:42.000Z</time>
      </trkpt>
      <trkpt lat="49.16857" lon="1.66121">
        <ele>90.319885253906</ele>
        <time>2017-06-18T08:27:44.000Z</time>
      </trkpt>
      <trkpt lat="49.16861" lon="1.6612">
        <ele>90.829162597656</ele>
        <time>2017-06-18T08:27:47.000Z</time>
      </trkpt>
      <trkpt lat="49.16866" lon="1.66119">
        <ele>91.427536010742</ele>
        <time>2017-06-18T08:27:50.000Z</time>
      </trkpt>
      <trkpt lat="49.16869" lon="1.6612">
        <ele>92.00390625</ele>
        <time>2017-06-18T08:27:52.000Z</time>
      </trkpt>
      <trkpt lat="49.16872" lon="1.6612">
        <ele>92.597389221191</ele>
        <time>2017-06-18T08:27:54.000Z</time>
      </trkpt>
      <trkpt lat="49.16877" lon="1.66121">
        <ele>93.255355834961</ele>
        <time>2017-06-18T08:27:57.000Z</time>
      </trkpt>
      <trkpt lat="49.16881" lon="1.66119">
        <ele>93.907341003418</ele>
        <time>2017-06-18T08:28:00.000Z</time>
      </trkpt>
      <trkpt lat="49.16883" lon="1.66118">
        <ele>94.483169555664</ele>
        <time>2017-06-18T08:28:02.000Z</time>
      </trkpt>
      <trkpt lat="49.16887" lon="1.66116">
        <ele>95.116638183594</ele>
        <time>2017-06-18T08:28:05.000Z</time>
      </trkpt>
      <trkpt lat="49.16891" lon="1.66113">
        <ele>95.843780517578</ele>
        <time>2017-06-18T08:28:08.000Z</time>
      </trkpt>
      <trkpt lat="49.16894" lon="1.66109">
        <ele>96.589202880859</ele>
        <time>2017-06-18T08:28:11.000Z</time>
      </trkpt>
      <trkpt lat="49.16895" lon="1.66108">
        <ele>97.238204956055</ele>
        <time>2017-06-18T08:28:14.000Z</time>
      </trkpt>
      <trkpt lat="49.16896" lon="1.66108">
        <ele>97.831268310547</ele>
        <time>2017-06-18T08:28:16.000Z</time>
      </trkpt>
      <trkpt lat="49.16898" lon="1.66108">
        <ele>98.340866088867</ele>
        <time>2017-06-18T08:28:19.000Z</time>
      </trkpt>
      <trkpt lat="49.16899" lon="1.6611">
        <ele>98.671615600586</ele>
        <time>2017-06-18T08:28:22.000Z</time>
      </trkpt>
      <trkpt lat="49.16901" lon="1.66111">
        <ele>98.851097106934</ele>
        <time>2017-06-18T08:28:24.000Z</time>
      </trkpt>
      <trkpt lat="49.16902" lon="1.66111">
        <ele>99.01628112793</ele>
        <time>2017-06-18T08:28:26.000Z</time>
      </trkpt>
      <trkpt lat="49.16903" lon="1.66112">
        <ele>99.165725708008</ele>
        <time>2017-06-18T08:28:28.000Z</time>
      </trkpt>
      <trkpt lat="49.16906" lon="1.6611">
        <ele>99.379852294922</ele>
        <time>2017-06-18T08:28:31.000Z</time>
      </trkpt>
      <trkpt lat="49.16908" lon="1.66108">
        <ele>99.68318939209</ele>
        <time>2017-06-18T08:28:33.000Z</time>
      </trkpt>
      <trkpt lat="49.16911" lon="1.66105">
        <ele>100.09867095947</ele>
        <time>2017-06-18T08:28:36.000Z</time>
      </trkpt>
      <trkpt lat="49.16912" lon="1.66103">
        <ele>100.56909179688</ele>
        <time>2017-06-18T08:28:38.000Z</time>
      </trkpt>
      <trkpt lat="49.16914" lon="1.66102">
        <ele>101.10520172119</ele>
        <time>2017-06-18T08:28:40.000Z</time>
      </trkpt>
      <trkpt lat="49.16916" lon="1.661">
        <ele>101.59635925293</ele>
        <time>2017-06-18T08:28:42.000Z</time>
      </trkpt>
      <trkpt lat="49.16919" lon="1.66097">
        <ele>102.11186218262</ele>
        <time>2017-06-18T08:28:45.000Z</time>
      </trkpt>
      <trkpt lat="49.1692" lon="1.66095">
        <ele>102.53829193115</ele>
        <time>2017-06-18T08:28:47.000Z</time>
      </trkpt>
      <trkpt lat="49.16922" lon="1.66093">
        <ele>102.9338760376</ele>
        <time>2017-06-18T08:28:50.000Z</time>
      </trkpt>
      <trkpt lat="49.16924" lon="1.66092">
        <ele>103.27905273438</ele>
        <time>2017-06-18T08:28:53.000Z</time>
      </trkpt>
      <trkpt lat="49.16926" lon="1.66089">
        <ele>103.63307952881</ele>
        <time>2017-06-18T08:28:56.000Z</time>
      </trkpt>
      <trkpt lat="49.1693" lon="1.66081">
        <ele>104.02093505859</ele>
        <time>2017-06-18T08:28:59.000Z</time>
      </trkpt>
      <trkpt lat="49.16932" lon="1.66077">
        <ele>104.40407562256</ele>
        <time>2017-06-18T08:29:01.000Z</time>
      </trkpt>
      <trkpt lat="49.16934" lon="1.66074">
        <ele>104.75798034668</ele>
        <time>2017-06-18T08:29:03.000Z</time>
      </trkpt>
      <trkpt lat="49.16937" lon="1.66071">
        <ele>105.12292480469</ele>
        <time>2017-06-18T08:29:06.000Z</time>
      </trkpt>
      <trkpt lat="49.1694" lon="1.66069">
        <ele>105.46254730225</ele>
        <time>2017-06-18T08:29:09.000Z</time>
      </trkpt>
      <trkpt lat="49.16941" lon="1.66068">
        <ele>105.67304992676</ele>
        <time>2017-06-18T08:29:11.000Z</time>
      </trkpt>
      <trkpt lat="49.16944" lon="1.66065">
        <ele>105.88970947266</ele>
        <time>2017-06-18T08:29:14.000Z</time>
      </trkpt>
      <trkpt lat="49.16946" lon="1.66062">
        <ele>106.11177825928</ele>
        <time>2017-06-18T08:29:16.000Z</time>
      </trkpt>
      <trkpt lat="49.16947" lon="1.66058">
        <ele>106.32102203369</ele>
        <time>2017-06-18T08:29:19.000Z</time>
      </trkpt>
      <trkpt lat="49.16948" lon="1.66054">
        <ele>106.50764465332</ele>
        <time>2017-06-18T08:29:21.000Z</time>
      </trkpt>
      <trkpt lat="49.16949" lon="1.66051">
        <ele>106.69738769531</ele>
        <time>2017-06-18T08:29:23.000Z</time>
      </trkpt>
      <trkpt lat="49.16951" lon="1.66046">
        <ele>106.88535308838</ele>
        <time>2017-06-18T08:29:26.000Z</time>
      </trkpt>
      <trkpt lat="49.16952" lon="1.66042">
        <ele>107.06675720215</ele>
        <time>2017-06-18T08:29:29.000Z</time>
      </trkpt>
      <trkpt lat="49.16953" lon="1.6604">
        <ele>107.24179840088</ele>
        <time>2017-06-18T08:29:31.000Z</time>
      </trkpt>
      <trkpt lat="49.16955" lon="1.66039">
        <ele>107.41780853271</ele>
        <time>2017-06-18T08:29:33.000Z</time>
      </trkpt>
      <trkpt lat="49.16956" lon="1.66034">
        <ele>107.61875915527</ele>
        <time>2017-06-18T08:29:36.000Z</time>
      </trkpt>
      <trkpt lat="49.16958" lon="1.66029">
        <ele>107.82188415527</ele>
        <time>2017-06-18T08:29:39.000Z</time>
      </trkpt>
      <trkpt lat="49.16961" lon="1.66024">
        <ele>108.0544052124</ele>
        <time>2017-06-18T08:29:42.000Z</time>
      </trkpt>
      <trkpt lat="49.16963" lon="1.66017">
        <ele>108.34233093262</ele>
        <time>2017-06-18T08:29:45.000Z</time>
      </trkpt>
      <trkpt lat="49.16967" lon="1.66013">
        <ele>108.68701171875</ele>
        <time>2017-06-18T08:29:48.000Z</time>
      </trkpt>
      <trkpt lat="49.16971" lon="1.66009">
        <ele>109.07437896729</ele>
        <time>2017-06-18T08:29:51.000Z</time>
      </trkpt>
      <trkpt lat="49.16973" lon="1.66006">
        <ele>109.47483062744</ele>
        <time>2017-06-18T08:29:53.000Z</time>
      </trkpt>
      <trkpt lat="49.16977" lon="1.66003">
        <ele>109.8888092041</ele>
        <time>2017-06-18T08:29:56.000Z</time>
      </trkpt>
      <trkpt lat="49.16981" lon="1.66">
        <ele>110.31365966797</ele>
        <time>2017-06-18T08:29:59.000Z</time>
      </trkpt>
      <trkpt lat="49.16983" lon="1.65995">
        <ele>110.69826507568</ele>
        <time>2017-06-18T08:30:02.000Z</time>
      </trkpt>
      <trkpt lat="49.16986" lon="1.6599">
        <ele>111.04991149902</ele>
        <time>2017-06-18T08:30:05.000Z</time>
      </trkpt>
      <trkpt lat="49.1699" lon="1.65986">
        <ele>111.42026519775</ele>
        <time>2017-06-18T08:30:08.000Z</time>
      </trkpt>
      <trkpt lat="49.16992" lon="1.65983">
        <ele>111.76379394531</ele>
        <time>2017-06-18T08:30:10.000Z</time>
      </trkpt>
      <trkpt lat="49.16996" lon="1.65979">
        <ele>112.09560394287</ele>
        <time>2017-06-18T08:30:13.000Z</time>
      </trkpt>
      <trkpt lat="49.17" lon="1.65975">
        <ele>112.47709655762</ele>
        <time>2017-06-18T08:30:16.000Z</time>
      </trkpt>
      <trkpt lat="49.17003" lon="1.65972">
        <ele>112.83760070801</ele>
        <time>2017-06-18T08:30:18.000Z</time>
      </trkpt>
      <trkpt lat="49.17005" lon="1.65969">
        <ele>113.15824890137</ele>
        <time>2017-06-18T08:30:20.000Z</time>
      </trkpt>
      <trkpt lat="49.1701" lon="1.65965">
        <ele>113.49864196777</ele>
        <time>2017-06-18T08:30:23.000Z</time>
      </trkpt>
      <trkpt lat="49.17014" lon="1.65962">
        <ele>113.8221282959</ele>
        <time>2017-06-18T08:30:25.000Z</time>
      </trkpt>
      <trkpt lat="49.17019" lon="1.65959">
        <ele>114.13110351562</ele>
        <time>2017-06-18T08:30:28.000Z</time>
      </trkpt>
      <trkpt lat="49.17023" lon="1.65954">
        <ele>114.48262786865</ele>
        <time>2017-06-18T08:30:31.000Z</time>
      </trkpt>
      <trkpt lat="49.17027" lon="1.65951">
        <ele>114.8531036377</ele>
        <time>2017-06-18T08:30:33.000Z</time>
      </trkpt>
      <trkpt lat="49.17031" lon="1.65947">
        <ele>115.22214508057</ele>
        <time>2017-06-18T08:30:35.000Z</time>
      </trkpt>
      <trkpt lat="49.17035" lon="1.65944">
        <ele>115.60107421875</ele>
        <time>2017-06-18T08:30:37.000Z</time>
      </trkpt>
      <trkpt lat="49.17039" lon="1.65941">
        <ele>115.9642791748</ele>
        <time>2017-06-18T08:30:39.000Z</time>
      </trkpt>
      <trkpt lat="49.17045" lon="1.65936">
        <ele>116.36241149902</ele>
        <time>2017-06-18T08:30:42.000Z</time>
      </trkpt>
      <trkpt lat="49.17052" lon="1.65931">
        <ele>116.84140777588</ele>
        <time>2017-06-18T08:30:45.000Z</time>
      </trkpt>
      <trkpt lat="49.17056" lon="1.65928">
        <ele>117.33644866943</ele>
        <time>2017-06-18T08:30:47.000Z</time>
      </trkpt>
      <trkpt lat="49.17063" lon="1.65924">
        <ele>117.88105773926</ele>
        <time>2017-06-18T08:30:50.000Z</time>
      </trkpt>
      <trkpt lat="49.17069" lon="1.65919">
        <ele>118.48417663574</ele>
        <time>2017-06-18T08:30:53.000Z</time>
      </trkpt>
      <trkpt lat="49.17075" lon="1.65914">
        <ele>119.07639312744</ele>
        <time>2017-06-18T08:30:56.000Z</time>
      </trkpt>
      <trkpt lat="49.17081" lon="1.65909">
        <ele>119.62634277344</ele>
        <time>2017-06-18T08:30:59.000Z</time>
      </trkpt>
      <trkpt lat="49.17086" lon="1.65906">
        <ele>120.1424407959</ele>
        <time>2017-06-18T08:31:01.000Z</time>
      </trkpt>
      <trkpt lat="49.17093" lon="1.65901">
        <ele>120.5873260498</ele>
        <time>2017-06-18T08:31:04.000Z</time>
      </trkpt>
      <trkpt lat="49.171" lon="1.65896">
        <ele>120.95705413818</ele>
        <time>2017-06-18T08:31:07.000Z</time>
      </trkpt>
      <trkpt lat="49.17105" lon="1.65892">
        <ele>121.2631072998</ele>
        <time>2017-06-18T08:31:09.000Z</time>
      </trkpt>
      <trkpt lat="49.17112" lon="1.65888">
        <ele>121.51882171631</ele>
        <time>2017-06-18T08:31:12.000Z</time>
      </trkpt>
      <trkpt lat="49.17117" lon="1.65885">
        <ele>121.76303863525</ele>
        <time>2017-06-18T08:31:14.000Z</time>
      </trkpt>
      <trkpt lat="49.17122" lon="1.65882">
        <ele>121.99172210693</ele>
        <time>2017-06-18T08:31:16.000Z</time>
      </trkpt>
      <trkpt lat="49.17129" lon="1.65876">
        <ele>122.22678375244</ele>
        <time>2017-06-18T08:31:19.000Z</time>
      </trkpt>
      <trkpt lat="49.17134" lon="1.65873">
        <ele>122.46189117432</ele>
        <time>2017-06-18T08:31:21.000Z</time>
      </trkpt>
      <trkpt lat="49.17141" lon="1.65869">
        <ele>122.70562744141</ele>
        <time>2017-06-18T08:31:24.000Z</time>
      </trkpt>
      <trkpt lat="49.17148" lon="1.65864">
        <ele>122.9521484375</ele>
        <time>2017-06-18T08:31:27.000Z</time>
      </trkpt>
      <trkpt lat="49.17155" lon="1.6586">
        <ele>123.21974945068</ele>
        <time>2017-06-18T08:31:30.000Z</time>
      </trkpt>
      <trkpt lat="49.17162" lon="1.65856">
        <ele>123.48693847656</ele>
        <time>2017-06-18T08:31:33.000Z</time>
      </trkpt>
      <trkpt lat="49.17168" lon="1.65852">
        <ele>123.750831604</ele>
        <time>2017-06-18T08:31:35.000Z</time>
      </trkpt>
      <trkpt lat="49.17175" lon="1.65846">
        <ele>123.98988342285</ele>
        <time>2017-06-18T08:31:38.000Z</time>
      </trkpt>
      <trkpt lat="49.17182" lon="1.6584">
        <ele>124.20170593262</ele>
        <time>2017-06-18T08:31:41.000Z</time>
      </trkpt>
      <trkpt lat="49.17189" lon="1.65833">
        <ele>124.36053466797</ele>
        <time>2017-06-18T08:31:44.000Z</time>
      </trkpt>
      <trkpt lat="49.17194" lon="1.65829">
        <ele>124.44367980957</ele>
        <time>2017-06-18T08:31:46.000Z</time>
      </trkpt>
      <trkpt lat="49.172" lon="1.65822">
        <ele>124.45556640625</ele>
        <time>2017-06-18T08:31:49.000Z</time>
      </trkpt>
      <trkpt lat="49.17207" lon="1.65815">
        <ele>124.41096496582</ele>
        <time>2017-06-18T08:31:52.000Z</time>
      </trkpt>
      <trkpt lat="49.17212" lon="1.65809">
        <ele>124.32722473145</ele>
        <time>2017-06-18T08:31:54.000Z</time>
      </trkpt>
      <trkpt lat="49.1722" lon="1.65801">
        <ele>124.21148681641</ele>
        <time>2017-06-18T08:31:57.000Z</time>
      </trkpt>
      <trkpt lat="49.17229" lon="1.65791">
        <ele>124.08042144775</ele>
        <time>2017-06-18T08:32:00.000Z</time>
      </trkpt>
      <trkpt lat="49.17237" lon="1.6578">
        <ele>123.95237731934</ele>
        <time>2017-06-18T08:32:03.000Z</time>
      </trkpt>
      <trkpt lat="49.17242" lon="1.65773">
        <ele>123.82791900635</ele>
        <time>2017-06-18T08:32:05.000Z</time>
      </trkpt>
      <trkpt lat="49.17249" lon="1.65763">
        <ele>123.69899749756</ele>
        <time>2017-06-18T08:32:08.000Z</time>
      </trkpt>
      <trkpt lat="49.17254" lon="1.65757">
        <ele>123.59770202637</ele>
        <time>2017-06-18T08:32:10.000Z</time>
      </trkpt>
      <trkpt lat="49.17259" lon="1.65751">
        <ele>123.52577209473</ele>
        <time>2017-06-18T08:32:12.000Z</time>
      </trkpt>
      <trkpt lat="49.17267" lon="1.6574">
        <ele>123.53269195557</ele>
        <time>2017-06-18T08:32:15.000Z</time>
      </trkpt>
      <trkpt lat="49.17277" lon="1.65728">
        <ele>123.62113952637</ele>
        <time>2017-06-18T08:32:18.000Z</time>
      </trkpt>
      <trkpt lat="49.17283" lon="1.6572">
        <ele>123.77210998535</ele>
        <time>2017-06-18T08:32:20.000Z</time>
      </trkpt>
      <trkpt lat="49.1729" lon="1.65712">
        <ele>123.96772766113</ele>
        <time>2017-06-18T08:32:22.000Z</time>
      </trkpt>
      <trkpt lat="49.17295" lon="1.65705">
        <ele>124.20159912109</ele>
        <time>2017-06-18T08:32:25.000Z</time>
      </trkpt>
      <trkpt lat="49.17301" lon="1.65702">
        <ele>124.43035888672</ele>
        <time>2017-06-18T08:32:27.000Z</time>
      </trkpt>
      <trkpt lat="49.1731" lon="1.65696">
        <ele>124.673828125</ele>
        <time>2017-06-18T08:32:30.000Z</time>
      </trkpt>
      <trkpt lat="49.17319" lon="1.65685">
        <ele>124.93813323975</ele>
        <time>2017-06-18T08:32:33.000Z</time>
      </trkpt>
      <trkpt lat="49.17324" lon="1.65677">
        <ele>125.19055175781</ele>
        <time>2017-06-18T08:32:35.000Z</time>
      </trkpt>
      <trkpt lat="49.17333" lon="1.65665">
        <ele>125.46298980713</ele>
        <time>2017-06-18T08:32:38.000Z</time>
      </trkpt>
      <trkpt lat="49.17342" lon="1.65652">
        <ele>125.6321182251</ele>
        <time>2017-06-18T08:32:41.000Z</time>
      </trkpt>
      <trkpt lat="49.17349" lon="1.65644">
        <ele>125.68308258057</ele>
        <time>2017-06-18T08:32:43.000Z</time>
      </trkpt>
      <trkpt lat="49.17356" lon="1.65635">
        <ele>125.63761901855</ele>
        <time>2017-06-18T08:32:45.000Z</time>
      </trkpt>
      <trkpt lat="49.17367" lon="1.6562">
        <ele>125.49922180176</ele>
        <time>2017-06-18T08:32:48.000Z</time>
      </trkpt>
      <trkpt lat="49.17378" lon="1.65603">
        <ele>125.26187896729</ele>
        <time>2017-06-18T08:32:51.000Z</time>
      </trkpt>
      <trkpt lat="49.17385" lon="1.6559">
        <ele>125.06233978271</ele>
        <time>2017-06-18T08:32:53.000Z</time>
      </trkpt>
      <trkpt lat="49.17395" lon="1.65571">
        <ele>124.88175201416</ele>
        <time>2017-06-18T08:32:56.000Z</time>
      </trkpt>
      <trkpt lat="49.17406" lon="1.65552">
        <ele>124.72969055176</ele>
        <time>2017-06-18T08:32:59.000Z</time>
      </trkpt>
      <trkpt lat="49.17412" lon="1.65538">
        <ele>124.64497375488</ele>
        <time>2017-06-18T08:33:01.000Z</time>
      </trkpt>
      <trkpt lat="49.17419" lon="1.65528">
        <ele>124.61924743652</ele>
        <time>2017-06-18T08:33:03.000Z</time>
      </trkpt>
      <trkpt lat="49.17424" lon="1.65518">
        <ele>124.63987731934</ele>
        <time>2017-06-18T08:33:05.000Z</time>
      </trkpt>
      <trkpt lat="49.17432" lon="1.65502">
        <ele>124.71948242188</ele>
        <time>2017-06-18T08:33:08.000Z</time>
      </trkpt>
      <trkpt lat="49.17437" lon="1.65491">
        <ele>124.81126403809</ele>
        <time>2017-06-18T08:33:10.000Z</time>
      </trkpt>
      <trkpt lat="49.17446" lon="1.65474">
        <ele>124.89304351807</ele>
        <time>2017-06-18T08:33:13.000Z</time>
      </trkpt>
      <trkpt lat="49.17455" lon="1.65457">
        <ele>124.95771789551</ele>
        <time>2017-06-18T08:33:16.000Z</time>
      </trkpt>
      <trkpt lat="49.17464" lon="1.65438">
        <ele>124.99629211426</ele>
        <time>2017-06-18T08:33:19.000Z</time>
      </trkpt>
      <trkpt lat="49.1747" lon="1.65427">
        <ele>125</ele>
        <time>2017-06-18T08:33:21.000Z</time>
      </trkpt>
      <trkpt lat="49.17476" lon="1.65418">
        <ele>125</ele>
        <time>2017-06-18T08:33:23.000Z</time>
      </trkpt>
      <trkpt lat="49.17482" lon="1.65409">
        <ele>125.03596496582</ele>
        <time>2017-06-18T08:33:25.000Z</time>
      </trkpt>
      <trkpt lat="49.17487" lon="1.65399">
        <ele>125.12846374512</ele>
        <time>2017-06-18T08:33:27.000Z</time>
      </trkpt>
      <trkpt lat="49.17494" lon="1.65385">
        <ele>125.33158874512</ele>
        <time>2017-06-18T08:33:30.000Z</time>
      </trkpt>
      <trkpt lat="49.17498" lon="1.65376">
        <ele>125.61653137207</ele>
        <time>2017-06-18T08:33:32.000Z</time>
      </trkpt>
      <trkpt lat="49.17505" lon="1.65364">
        <ele>126.02223968506</ele>
        <time>2017-06-18T08:33:35.000Z</time>
      </trkpt>
      <trkpt lat="49.17511" lon="1.65352">
        <ele>126.51953125</ele>
        <time>2017-06-18T08:33:38.000Z</time>
      </trkpt>
      <trkpt lat="49.17517" lon="1.65341">
        <ele>127.08781433105</ele>
        <time>2017-06-18T08:33:41.000Z</time>
      </trkpt>
      <trkpt lat="49.17521" lon="1.65334">
        <ele>127.62854003906</ele>
        <time>2017-06-18T08:33:43.000Z</time>
      </trkpt>
      <trkpt lat="49.17529" lon="1.65324">
        <ele>128.18495178223</ele>
        <time>2017-06-18T08:33:46.000Z</time>
      </trkpt>
      <trkpt lat="49.17536" lon="1.65322">
        <ele>128.67807006836</ele>
        <time>2017-06-18T08:33:48.000Z</time>
      </trkpt>
      <trkpt lat="49.17546" lon="1.65336">
        <ele>129.05358886719</ele>
        <time>2017-06-18T08:33:51.000Z</time>
      </trkpt>
      <trkpt lat="49.17553" lon="1.65348">
        <ele>129.24426269531</ele>
        <time>2017-06-18T08:33:53.000Z</time>
      </trkpt>
      <trkpt lat="49.1756" lon="1.65359">
        <ele>129.30058288574</ele>
        <time>2017-06-18T08:33:55.000Z</time>
      </trkpt>
      <trkpt lat="49.17569" lon="1.65373">
        <ele>129.18608093262</ele>
        <time>2017-06-18T08:33:58.000Z</time>
      </trkpt>
      <trkpt lat="49.17575" lon="1.65384">
        <ele>128.95547485352</ele>
        <time>2017-06-18T08:34:00.000Z</time>
      </trkpt>
      <trkpt lat="49.17583" lon="1.65399">
        <ele>128.61633300781</ele>
        <time>2017-06-18T08:34:03.000Z</time>
      </trkpt>
      <trkpt lat="49.17592" lon="1.65414">
        <ele>128.29364013672</ele>
        <time>2017-06-18T08:34:06.000Z</time>
      </trkpt>
      <trkpt lat="49.17598" lon="1.65424">
        <ele>128.06245422363</ele>
        <time>2017-06-18T08:34:08.000Z</time>
      </trkpt>
      <trkpt lat="49.17606" lon="1.65438">
        <ele>127.95359802246</ele>
        <time>2017-06-18T08:34:11.000Z</time>
      </trkpt>
      <trkpt lat="49.17611" lon="1.65447">
        <ele>127.91928863525</ele>
        <time>2017-06-18T08:34:13.000Z</time>
      </trkpt>
      <trkpt lat="49.17616" lon="1.65458">
        <ele>127.98767089844</ele>
        <time>2017-06-18T08:34:16.000Z</time>
      </trkpt>
      <trkpt lat="49.17619" lon="1.65467">
        <ele>128.0814666748</ele>
        <time>2017-06-18T08:34:18.000Z</time>
      </trkpt>
      <trkpt lat="49.17621" lon="1.65477">
        <ele>128.10092163086</ele>
        <time>2017-06-18T08:34:20.000Z</time>
      </trkpt>
      <trkpt lat="49.17621" lon="1.65492">
        <ele>128.00854492188</ele>
        <time>2017-06-18T08:34:23.000Z</time>
      </trkpt>
      <trkpt lat="49.1762" lon="1.65499">
        <ele>127.86660003662</ele>
        <time>2017-06-18T08:34:25.000Z</time>
      </trkpt>
      <trkpt lat="49.17619" lon="1.65508">
        <ele>127.70765686035</ele>
        <time>2017-06-18T08:34:27.000Z</time>
      </trkpt>
      <trkpt lat="49.17617" lon="1.65517">
        <ele>127.55757141113</ele>
        <time>2017-06-18T08:34:29.000Z</time>
      </trkpt>
      <trkpt lat="49.17619" lon="1.65536">
        <ele>127.43088531494</ele>
        <time>2017-06-18T08:34:32.000Z</time>
      </trkpt>
      <trkpt lat="49.17623" lon="1.65548">
        <ele>127.35108947754</ele>
        <time>2017-06-18T08:34:34.000Z</time>
      </trkpt>
      <trkpt lat="49.17629" lon="1.6556">
        <ele>127.27429199219</ele>
        <time>2017-06-18T08:34:36.000Z</time>
      </trkpt>
      <trkpt lat="49.17636" lon="1.65572">
        <ele>127.16725921631</ele>
        <time>2017-06-18T08:34:38.000Z</time>
      </trkpt>
      <trkpt lat="49.17639" lon="1.65579">
        <ele>127.0379486084</ele>
        <time>2017-06-18T08:34:41.000Z</time>
      </trkpt>
      <trkpt lat="49.17644" lon="1.6558">
        <ele>126.89573669434</ele>
        <time>2017-06-18T08:34:43.000Z</time>
      </trkpt>
      <trkpt lat="49.17645" lon="1.6558">
        <ele>126.76387786865</ele>
        <time>2017-06-18T08:34:49.000Z</time>
      </trkpt>
      <trkpt lat="49.17646" lon="1.6558">
        <ele>126.65563964844</ele>
        <time>2017-06-18T08:34:51.000Z</time>
      </trkpt>
      <trkpt lat="49.17646" lon="1.65577">
        <ele>126.60037994385</ele>
        <time>2017-06-18T08:34:54.000Z</time>
      </trkpt>
      <trkpt lat="49.17649" lon="1.65575">
        <ele>126.56845855713</ele>
        <time>2017-06-18T08:34:56.000Z</time>
      </trkpt>
      <trkpt lat="49.17659" lon="1.6559">
        <ele>126.46926116943</ele>
        <time>2017-06-18T08:34:59.000Z</time>
      </trkpt>
      <trkpt lat="49.17664" lon="1.65602">
        <ele>126.32299804688</ele>
        <time>2017-06-18T08:35:01.000Z</time>
      </trkpt>
      <trkpt lat="49.1767" lon="1.65616">
        <ele>126.05769348145</ele>
        <time>2017-06-18T08:35:03.000Z</time>
      </trkpt>
      <trkpt lat="49.17684" lon="1.6564">
        <ele>125.41844177246</ele>
        <time>2017-06-18T08:35:06.000Z</time>
      </trkpt>
      <trkpt lat="49.17693" lon="1.65657">
        <ele>124.54890441895</ele>
        <time>2017-06-18T08:35:08.000Z</time>
      </trkpt>
      <trkpt lat="49.17702" lon="1.65672">
        <ele>123.53344726562</ele>
        <time>2017-06-18T08:35:10.000Z</time>
      </trkpt>
      <trkpt lat="49.17709" lon="1.65698">
        <ele>122.33642578125</ele>
        <time>2017-06-18T08:35:12.000Z</time>
      </trkpt>
      <trkpt lat="49.17721" lon="1.65724">
        <ele>120.89406585693</ele>
        <time>2017-06-18T08:35:15.000Z</time>
      </trkpt>
      <trkpt lat="49.17742" lon="1.65742">
        <ele>119.24084472656</ele>
        <time>2017-06-18T08:35:18.000Z</time>
      </trkpt>
      <trkpt lat="49.17764" lon="1.6575">
        <ele>117.35346984863</ele>
        <time>2017-06-18T08:35:21.000Z</time>
      </trkpt>
      <trkpt lat="49.17781" lon="1.65755">
        <ele>115.37567138672</ele>
        <time>2017-06-18T08:35:23.000Z</time>
      </trkpt>
      <trkpt lat="49.17796" lon="1.65763">
        <ele>113.30997467041</ele>
        <time>2017-06-18T08:35:25.000Z</time>
      </trkpt>
      <trkpt lat="49.17822" lon="1.65775">
        <ele>111.11122894287</ele>
        <time>2017-06-18T08:35:28.000Z</time>
      </trkpt>
      <trkpt lat="49.17848" lon="1.65792">
        <ele>108.95379638672</ele>
        <time>2017-06-18T08:35:31.000Z</time>
      </trkpt>
      <trkpt lat="49.17877" lon="1.65813">
        <ele>106.64534759521</ele>
        <time>2017-06-18T08:35:34.000Z</time>
      </trkpt>
      <trkpt lat="49.17906" lon="1.65834">
        <ele>103.99253845215</ele>
        <time>2017-06-18T08:35:37.000Z</time>
      </trkpt>
      <trkpt lat="49.17933" lon="1.65851">
        <ele>101.19644165039</ele>
        <time>2017-06-18T08:35:40.000Z</time>
      </trkpt>
      <trkpt lat="49.17956" lon="1.65862">
        <ele>98.559593200684</ele>
        <time>2017-06-18T08:35:43.000Z</time>
      </trkpt>
      <trkpt lat="49.17973" lon="1.65873">
        <ele>96.16520690918</ele>
        <time>2017-06-18T08:35:46.000Z</time>
      </trkpt>
      <trkpt lat="49.17983" lon="1.65878">
        <ele>94.220184326172</ele>
        <time>2017-06-18T08:35:48.000Z</time>
      </trkpt>
      <trkpt lat="49.17995" lon="1.65883">
        <ele>92.751152038574</ele>
        <time>2017-06-18T08:35:50.000Z</time>
      </trkpt>
      <trkpt lat="49.18013" lon="1.65896">
        <ele>91.36376953125</ele>
        <time>2017-06-18T08:35:53.000Z</time>
      </trkpt>
      <trkpt lat="49.18029" lon="1.65905">
        <ele>89.980575561523</ele>
        <time>2017-06-18T08:35:56.000Z</time>
      </trkpt>
      <trkpt lat="49.18037" lon="1.65919">
        <ele>88.634353637695</ele>
        <time>2017-06-18T08:35:59.000Z</time>
      </trkpt>
      <trkpt lat="49.18047" lon="1.65927">
        <ele>87.087585449219</ele>
        <time>2017-06-18T08:36:01.000Z</time>
      </trkpt>
      <trkpt lat="49.18074" lon="1.65934">
        <ele>85.041664123535</ele>
        <time>2017-06-18T08:36:04.000Z</time>
      </trkpt>
      <trkpt lat="49.18083" lon="1.65932">
        <ele>83.248275756836</ele>
        <time>2017-06-18T08:36:06.000Z</time>
      </trkpt>
      <trkpt lat="49.18088" lon="1.65925">
        <ele>81.839584350586</ele>
        <time>2017-06-18T08:36:08.000Z</time>
      </trkpt>
      <trkpt lat="49.18099" lon="1.65926">
        <ele>80.247955322266</ele>
        <time>2017-06-18T08:36:11.000Z</time>
      </trkpt>
      <trkpt lat="49.18144" lon="1.65929">
        <ele>77.338256835938</ele>
        <time>2017-06-18T08:36:17.000Z</time>
      </trkpt>
      <trkpt lat="49.18172" lon="1.65916">
        <ele>74.493675231934</ele>
        <time>2017-06-18T08:36:19.000Z</time>
      </trkpt>
      <trkpt lat="49.18188" lon="1.65909">
        <ele>71.226821899414</ele>
        <time>2017-06-18T08:36:22.000Z</time>
      </trkpt>
      <trkpt lat="49.18203" lon="1.65919">
        <ele>67.130813598633</ele>
        <time>2017-06-18T08:36:23.000Z</time>
      </trkpt>
      <trkpt lat="49.18217" lon="1.6593">
        <ele>62.721385955811</ele>
        <time>2017-06-18T08:36:25.000Z</time>
      </trkpt>
      <trkpt lat="49.18228" lon="1.6593">
        <ele>59.596519470215</ele>
        <time>2017-06-18T08:36:27.000Z</time>
      </trkpt>
      <trkpt lat="49.18237" lon="1.65922">
        <ele>56.841003417969</ele>
        <time>2017-06-18T08:36:30.000Z</time>
      </trkpt>
      <trkpt lat="49.18242" lon="1.65916">
        <ele>54.510559082031</ele>
        <time>2017-06-18T08:36:32.000Z</time>
      </trkpt>
      <trkpt lat="49.18246" lon="1.65912">
        <ele>52.866554260254</ele>
        <time>2017-06-18T08:36:34.000Z</time>
      </trkpt>
      <trkpt lat="49.18246" lon="1.659">
        <ele>52.106620788574</ele>
        <time>2017-06-18T08:36:37.000Z</time>
      </trkpt>
      <trkpt lat="49.18245" lon="1.65895">
        <ele>51.884757995605</ele>
        <time>2017-06-18T08:36:40.000Z</time>
      </trkpt>
      <trkpt lat="49.18243" lon="1.65891">
        <ele>52.016773223877</ele>
        <time>2017-06-18T08:36:42.000Z</time>
      </trkpt>
      <trkpt lat="49.18242" lon="1.65889">
        <ele>52.381767272949</ele>
        <time>2017-06-18T08:36:44.000Z</time>
      </trkpt>
      <trkpt lat="49.18241" lon="1.65883">
        <ele>52.957233428955</ele>
        <time>2017-06-18T08:36:47.000Z</time>
      </trkpt>
      <trkpt lat="49.18241" lon="1.65878">
        <ele>53.486442565918</ele>
        <time>2017-06-18T08:36:50.000Z</time>
      </trkpt>
      <trkpt lat="49.1824" lon="1.65877">
        <ele>53.915596008301</ele>
        <time>2017-06-18T08:36:56.000Z</time>
      </trkpt>
      <trkpt lat="49.1824" lon="1.65877">
        <ele>53.915596008301</ele>
        <time>2017-06-18T08:37:06.000Z</time>
      </trkpt>
      <trkpt lat="49.1824" lon="1.65879">
        <ele>54.205345153809</ele>
        <time>2017-06-18T08:37:15.000Z</time>
      </trkpt>
      <trkpt lat="49.1824" lon="1.65879">
        <ele>54.205345153809</ele>
        <time>2017-06-18T08:37:25.000Z</time>
      </trkpt>
      <trkpt lat="49.18238" lon="1.65881">
        <ele>54.491199493408</ele>
        <time>2017-06-18T08:37:37.000Z</time>
      </trkpt>
      <trkpt lat="49.18238" lon="1.65879">
        <ele>54.690361022949</ele>
        <time>2017-06-18T08:37:39.000Z</time>
      </trkpt>
      <trkpt lat="49.18237" lon="1.65873">
        <ele>54.917182922363</ele>
        <time>2017-06-18T08:37:41.000Z</time>
      </trkpt>
      <trkpt lat="49.18233" lon="1.65863">
        <ele>55.423107147217</ele>
        <time>2017-06-18T08:37:44.000Z</time>
      </trkpt>
      <trkpt lat="49.18231" lon="1.65855">
        <ele>56.182983398438</ele>
        <time>2017-06-18T08:37:46.000Z</time>
      </trkpt>
      <trkpt lat="49.1823" lon="1.65846">
        <ele>57.030376434326</ele>
        <time>2017-06-18T08:37:48.000Z</time>
      </trkpt>
      <trkpt lat="49.18229" lon="1.65831">
        <ele>58.101867675781</ele>
        <time>2017-06-18T08:37:51.000Z</time>
      </trkpt>
      <trkpt lat="49.18228" lon="1.65822">
        <ele>59.10595703125</ele>
        <time>2017-06-18T08:37:53.000Z</time>
      </trkpt>
      <trkpt lat="49.18227" lon="1.65803">
        <ele>59.891784667969</ele>
        <time>2017-06-18T08:37:56.000Z</time>
      </trkpt>
      <trkpt lat="49.18227" lon="1.6579">
        <ele>60.506217956543</ele>
        <time>2017-06-18T08:37:58.000Z</time>
      </trkpt>
      <trkpt lat="49.18228" lon="1.65773">
        <ele>60.964347839355</ele>
        <time>2017-06-18T08:38:01.000Z</time>
      </trkpt>
      <trkpt lat="49.18229" lon="1.65757">
        <ele>61.166210174561</ele>
        <time>2017-06-18T08:38:04.000Z</time>
      </trkpt>
      <trkpt lat="49.18231" lon="1.65748">
        <ele>61.260375976562</ele>
        <time>2017-06-18T08:38:06.000Z</time>
      </trkpt>
      <trkpt lat="49.18237" lon="1.65741">
        <ele>61.054210662842</ele>
        <time>2017-06-18T08:38:09.000Z</time>
      </trkpt>
      <trkpt lat="49.18241" lon="1.65736">
        <ele>60.667804718018</ele>
        <time>2017-06-18T08:38:11.000Z</time>
      </trkpt>
      <trkpt lat="49.18247" lon="1.65726">
        <ele>60.068927764893</ele>
        <time>2017-06-18T08:38:14.000Z</time>
      </trkpt>
      <trkpt lat="49.18252" lon="1.65719">
        <ele>59.435386657715</ele>
        <time>2017-06-18T08:38:16.000Z</time>
      </trkpt>
      <trkpt lat="49.18257" lon="1.65712">
        <ele>58.97025680542</ele>
        <time>2017-06-18T08:38:19.000Z</time>
      </trkpt>
      <trkpt lat="49.18261" lon="1.65705">
        <ele>58.808738708496</ele>
        <time>2017-06-18T08:38:21.000Z</time>
      </trkpt>
      <trkpt lat="49.18265" lon="1.65692">
        <ele>58.934185028076</ele>
        <time>2017-06-18T08:38:24.000Z</time>
      </trkpt>
      <trkpt lat="49.18269" lon="1.65681">
        <ele>59.372467041016</ele>
        <time>2017-06-18T08:38:27.000Z</time>
      </trkpt>
      <trkpt lat="49.18272" lon="1.6567">
        <ele>59.971466064453</ele>
        <time>2017-06-18T08:38:30.000Z</time>
      </trkpt>
      <trkpt lat="49.18274" lon="1.65663">
        <ele>60.537567138672</ele>
        <time>2017-06-18T08:38:32.000Z</time>
      </trkpt>
      <trkpt lat="49.18278" lon="1.65652">
        <ele>61.1259765625</ele>
        <time>2017-06-18T08:38:35.000Z</time>
      </trkpt>
      <trkpt lat="49.18281" lon="1.65639">
        <ele>61.697631835938</ele>
        <time>2017-06-18T08:38:38.000Z</time>
      </trkpt>
      <trkpt lat="49.18282" lon="1.65632">
        <ele>62.208770751953</ele>
        <time>2017-06-18T08:38:40.000Z</time>
      </trkpt>
      <trkpt lat="49.18285" lon="1.65623">
        <ele>62.692810058594</ele>
        <time>2017-06-18T08:38:43.000Z</time>
      </trkpt>
      <trkpt lat="49.18287" lon="1.65612">
        <ele>63.206420898438</ele>
        <time>2017-06-18T08:38:46.000Z</time>
      </trkpt>
      <trkpt lat="49.18288" lon="1.65604">
        <ele>63.674835205078</ele>
        <time>2017-06-18T08:38:48.000Z</time>
      </trkpt>
      <trkpt lat="49.1829" lon="1.65592">
        <ele>64.123657226562</ele>
        <time>2017-06-18T08:38:51.000Z</time>
      </trkpt>
      <trkpt lat="49.18291" lon="1.6558">
        <ele>64.607772827148</ele>
        <time>2017-06-18T08:38:54.000Z</time>
      </trkpt>
      <trkpt lat="49.18293" lon="1.65565">
        <ele>65.132621765137</ele>
        <time>2017-06-18T08:38:57.000Z</time>
      </trkpt>
      <trkpt lat="49.18294" lon="1.65551">
        <ele>65.662887573242</ele>
        <time>2017-06-18T08:39:00.000Z</time>
      </trkpt>
      <trkpt lat="49.18294" lon="1.65541">
        <ele>66.193977355957</ele>
        <time>2017-06-18T08:39:02.000Z</time>
      </trkpt>
      <trkpt lat="49.18295" lon="1.65532">
        <ele>66.695289611816</ele>
        <time>2017-06-18T08:39:04.000Z</time>
      </trkpt>
      <trkpt lat="49.18295" lon="1.65521">
        <ele>67.166282653809</ele>
        <time>2017-06-18T08:39:06.000Z</time>
      </trkpt>
      <trkpt lat="49.18295" lon="1.65505">
        <ele>67.630516052246</ele>
        <time>2017-06-18T08:39:09.000Z</time>
      </trkpt>
      <trkpt lat="49.18295" lon="1.65495">
        <ele>68.054183959961</ele>
        <time>2017-06-18T08:39:11.000Z</time>
      </trkpt>
      <trkpt lat="49.18295" lon="1.65485">
        <ele>68.462051391602</ele>
        <time>2017-06-18T08:39:13.000Z</time>
      </trkpt>
      <trkpt lat="49.18294" lon="1.6547">
        <ele>68.868850708008</ele>
        <time>2017-06-18T08:39:16.000Z</time>
      </trkpt>
      <trkpt lat="49.18295" lon="1.6546">
        <ele>69.265365600586</ele>
        <time>2017-06-18T08:39:18.000Z</time>
      </trkpt>
      <trkpt lat="49.18295" lon="1.65449">
        <ele>69.596755981445</ele>
        <time>2017-06-18T08:39:20.000Z</time>
      </trkpt>
      <trkpt lat="49.18295" lon="1.65436">
        <ele>69.94361114502</ele>
        <time>2017-06-18T08:39:23.000Z</time>
      </trkpt>
      <trkpt lat="49.18295" lon="1.65428">
        <ele>70.281677246094</ele>
        <time>2017-06-18T08:39:25.000Z</time>
      </trkpt>
      <trkpt lat="49.18295" lon="1.65419">
        <ele>70.592926025391</ele>
        <time>2017-06-18T08:39:27.000Z</time>
      </trkpt>
      <trkpt lat="49.18295" lon="1.65408">
        <ele>70.898727416992</ele>
        <time>2017-06-18T08:39:30.000Z</time>
      </trkpt>
      <trkpt lat="49.18295" lon="1.654">
        <ele>71.188591003418</ele>
        <time>2017-06-18T08:39:32.000Z</time>
      </trkpt>
      <trkpt lat="49.18294" lon="1.65392">
        <ele>71.435668945312</ele>
        <time>2017-06-18T08:39:34.000Z</time>
      </trkpt>
      <trkpt lat="49.18294" lon="1.6538">
        <ele>71.708106994629</ele>
        <time>2017-06-18T08:39:37.000Z</time>
      </trkpt>
      <trkpt lat="49.18294" lon="1.65367">
        <ele>72.003936767578</ele>
        <time>2017-06-18T08:39:40.000Z</time>
      </trkpt>
      <trkpt lat="49.18295" lon="1.65356">
        <ele>72.318717956543</ele>
        <time>2017-06-18T08:39:43.000Z</time>
      </trkpt>
      <trkpt lat="49.18296" lon="1.65348">
        <ele>72.637268066406</ele>
        <time>2017-06-18T08:39:45.000Z</time>
      </trkpt>
      <trkpt lat="49.18297" lon="1.65337">
        <ele>73.001335144043</ele>
        <time>2017-06-18T08:39:48.000Z</time>
      </trkpt>
      <trkpt lat="49.18298" lon="1.65329">
        <ele>73.34260559082</ele>
        <time>2017-06-18T08:39:50.000Z</time>
      </trkpt>
      <trkpt lat="49.18299" lon="1.65317">
        <ele>73.699928283691</ele>
        <time>2017-06-18T08:39:53.000Z</time>
      </trkpt>
      <trkpt lat="49.18299" lon="1.6531">
        <ele>74.033355712891</ele>
        <time>2017-06-18T08:39:55.000Z</time>
      </trkpt>
      <trkpt lat="49.183" lon="1.65302">
        <ele>74.37183380127</ele>
        <time>2017-06-18T08:39:57.000Z</time>
      </trkpt>
      <trkpt lat="49.18301" lon="1.65295">
        <ele>74.679122924805</ele>
        <time>2017-06-18T08:39:59.000Z</time>
      </trkpt>
      <trkpt lat="49.18303" lon="1.65283">
        <ele>75.011672973633</ele>
        <time>2017-06-18T08:40:02.000Z</time>
      </trkpt>
      <trkpt lat="49.18304" lon="1.65271">
        <ele>75.331123352051</ele>
        <time>2017-06-18T08:40:05.000Z</time>
      </trkpt>
      <trkpt lat="49.18305" lon="1.6526">
        <ele>75.664184570312</ele>
        <time>2017-06-18T08:40:08.000Z</time>
      </trkpt>
      <trkpt lat="49.18305" lon="1.65252">
        <ele>75.988121032715</ele>
        <time>2017-06-18T08:40:10.000Z</time>
      </trkpt>
      <trkpt lat="49.18306" lon="1.65241">
        <ele>76.35270690918</ele>
        <time>2017-06-18T08:40:13.000Z</time>
      </trkpt>
      <trkpt lat="49.18307" lon="1.65229">
        <ele>76.744094848633</ele>
        <time>2017-06-18T08:40:16.000Z</time>
      </trkpt>
      <trkpt lat="49.18309" lon="1.65218">
        <ele>77.155853271484</ele>
        <time>2017-06-18T08:40:19.000Z</time>
      </trkpt>
      <trkpt lat="49.18312" lon="1.65207">
        <ele>77.59058380127</ele>
        <time>2017-06-18T08:40:22.000Z</time>
      </trkpt>
      <trkpt lat="49.18313" lon="1.652">
        <ele>78.042419433594</ele>
        <time>2017-06-18T08:40:24.000Z</time>
      </trkpt>
      <trkpt lat="49.18314" lon="1.65192">
        <ele>78.462196350098</ele>
        <time>2017-06-18T08:40:26.000Z</time>
      </trkpt>
      <trkpt lat="49.18314" lon="1.6518">
        <ele>78.873252868652</ele>
        <time>2017-06-18T08:40:29.000Z</time>
      </trkpt>
      <trkpt lat="49.18315" lon="1.65173">
        <ele>79.251304626465</ele>
        <time>2017-06-18T08:40:31.000Z</time>
      </trkpt>
      <trkpt lat="49.18316" lon="1.65161">
        <ele>79.677185058594</ele>
        <time>2017-06-18T08:40:34.000Z</time>
      </trkpt>
      <trkpt lat="49.18316" lon="1.65153">
        <ele>80.166053771973</ele>
        <time>2017-06-18T08:40:36.000Z</time>
      </trkpt>
      <trkpt lat="49.18317" lon="1.65145">
        <ele>80.716842651367</ele>
        <time>2017-06-18T08:40:38.000Z</time>
      </trkpt>
      <trkpt lat="49.18317" lon="1.65132">
        <ele>81.365562438965</ele>
        <time>2017-06-18T08:40:41.000Z</time>
      </trkpt>
      <trkpt lat="49.18318" lon="1.6512">
        <ele>82.144577026367</ele>
        <time>2017-06-18T08:40:44.000Z</time>
      </trkpt>
      <trkpt lat="49.18319" lon="1.65109">
        <ele>82.965698242188</ele>
        <time>2017-06-18T08:40:47.000Z</time>
      </trkpt>
      <trkpt lat="49.1832" lon="1.65097">
        <ele>83.854637145996</ele>
        <time>2017-06-18T08:40:50.000Z</time>
      </trkpt>
      <trkpt lat="49.18321" lon="1.65089">
        <ele>84.750747680664</ele>
        <time>2017-06-18T08:40:52.000Z</time>
      </trkpt>
      <trkpt lat="49.18322" lon="1.65078">
        <ele>85.570701599121</ele>
        <time>2017-06-18T08:40:55.000Z</time>
      </trkpt>
      <trkpt lat="49.18323" lon="1.65071">
        <ele>86.237861633301</ele>
        <time>2017-06-18T08:40:57.000Z</time>
      </trkpt>
      <trkpt lat="49.18323" lon="1.65061">
        <ele>86.776794433594</ele>
        <time>2017-06-18T08:41:00.000Z</time>
      </trkpt>
      <trkpt lat="49.18323" lon="1.65056">
        <ele>87.151260375977</ele>
        <time>2017-06-18T08:41:02.000Z</time>
      </trkpt>
      <trkpt lat="49.18324" lon="1.65048">
        <ele>87.432884216309</ele>
        <time>2017-06-18T08:41:04.000Z</time>
      </trkpt>
      <trkpt lat="49.18325" lon="1.65038">
        <ele>87.650810241699</ele>
        <time>2017-06-18T08:41:07.000Z</time>
      </trkpt>
      <trkpt lat="49.18326" lon="1.6503">
        <ele>87.86767578125</ele>
        <time>2017-06-18T08:41:09.000Z</time>
      </trkpt>
      <trkpt lat="49.18327" lon="1.65023">
        <ele>88.065200805664</ele>
        <time>2017-06-18T08:41:11.000Z</time>
      </trkpt>
      <trkpt lat="49.18327" lon="1.65016">
        <ele>88.271591186523</ele>
        <time>2017-06-18T08:41:13.000Z</time>
      </trkpt>
      <trkpt lat="49.18328" lon="1.65007">
        <ele>88.483505249023</ele>
        <time>2017-06-18T08:41:16.000Z</time>
      </trkpt>
      <trkpt lat="49.18328" lon="1.64999">
        <ele>88.678894042969</ele>
        <time>2017-06-18T08:41:19.000Z</time>
      </trkpt>
      <trkpt lat="49.18329" lon="1.64992">
        <ele>88.886085510254</ele>
        <time>2017-06-18T08:41:22.000Z</time>
      </trkpt>
      <trkpt lat="49.1833" lon="1.64983">
        <ele>89.122634887695</ele>
        <time>2017-06-18T08:41:25.000Z</time>
      </trkpt>
      <trkpt lat="49.18331" lon="1.64976">
        <ele>89.366653442383</ele>
        <time>2017-06-18T08:41:27.000Z</time>
      </trkpt>
      <trkpt lat="49.18332" lon="1.6497">
        <ele>89.606536865234</ele>
        <time>2017-06-18T08:41:29.000Z</time>
      </trkpt>
      <trkpt lat="49.18332" lon="1.64963">
        <ele>89.863586425781</ele>
        <time>2017-06-18T08:41:31.000Z</time>
      </trkpt>
      <trkpt lat="49.18333" lon="1.64949">
        <ele>90.162628173828</ele>
        <time>2017-06-18T08:41:34.000Z</time>
      </trkpt>
      <trkpt lat="49.18333" lon="1.64941">
        <ele>90.452697753906</ele>
        <time>2017-06-18T08:41:36.000Z</time>
      </trkpt>
      <trkpt lat="49.18335" lon="1.64927">
        <ele>90.854797363281</ele>
        <time>2017-06-18T08:41:39.000Z</time>
      </trkpt>
      <trkpt lat="49.18337" lon="1.64912">
        <ele>91.350128173828</ele>
        <time>2017-06-18T08:41:42.000Z</time>
      </trkpt>
      <trkpt lat="49.18338" lon="1.649">
        <ele>91.804656982422</ele>
        <time>2017-06-18T08:41:44.000Z</time>
      </trkpt>
      <trkpt lat="49.1834" lon="1.64889">
        <ele>92.181373596191</ele>
        <time>2017-06-18T08:41:46.000Z</time>
      </trkpt>
      <trkpt lat="49.18342" lon="1.64872">
        <ele>92.551788330078</ele>
        <time>2017-06-18T08:41:49.000Z</time>
      </trkpt>
      <trkpt lat="49.18344" lon="1.6486">
        <ele>92.810707092285</ele>
        <time>2017-06-18T08:41:51.000Z</time>
      </trkpt>
      <trkpt lat="49.18346" lon="1.64844">
        <ele>92.958770751953</ele>
        <time>2017-06-18T08:41:54.000Z</time>
      </trkpt>
      <trkpt lat="49.18348" lon="1.64826">
        <ele>93.181686401367</ele>
        <time>2017-06-18T08:41:57.000Z</time>
      </trkpt>
      <trkpt lat="49.18349" lon="1.64814">
        <ele>93.503273010254</ele>
        <time>2017-06-18T08:41:59.000Z</time>
      </trkpt>
      <trkpt lat="49.18351" lon="1.64797">
        <ele>93.922752380371</ele>
        <time>2017-06-18T08:42:02.000Z</time>
      </trkpt>
      <trkpt lat="49.18353" lon="1.64788">
        <ele>94.374977111816</ele>
        <time>2017-06-18T08:42:04.000Z</time>
      </trkpt>
      <trkpt lat="49.18356" lon="1.64772">
        <ele>94.962196350098</ele>
        <time>2017-06-18T08:42:07.000Z</time>
      </trkpt>
      <trkpt lat="49.18358" lon="1.64755">
        <ele>95.579299926758</ele>
        <time>2017-06-18T08:42:10.000Z</time>
      </trkpt>
      <trkpt lat="49.18359" lon="1.64743">
        <ele>96.168472290039</ele>
        <time>2017-06-18T08:42:12.000Z</time>
      </trkpt>
      <trkpt lat="49.18361" lon="1.64728">
        <ele>96.700424194336</ele>
        <time>2017-06-18T08:42:15.000Z</time>
      </trkpt>
      <trkpt lat="49.18359" lon="1.64713">
        <ele>97.185997009277</ele>
        <time>2017-06-18T08:42:18.000Z</time>
      </trkpt>
      <trkpt lat="49.18357" lon="1.64704">
        <ele>97.492324829102</ele>
        <time>2017-06-18T08:42:20.000Z</time>
      </trkpt>
      <trkpt lat="49.18355" lon="1.64695">
        <ele>97.672744750977</ele>
        <time>2017-06-18T08:42:22.000Z</time>
      </trkpt>
      <trkpt lat="49.18353" lon="1.64686">
        <ele>97.766555786133</ele>
        <time>2017-06-18T08:42:24.000Z</time>
      </trkpt>
      <trkpt lat="49.18348" lon="1.64672">
        <ele>97.726829528809</ele>
        <time>2017-06-18T08:42:27.000Z</time>
      </trkpt>
      <trkpt lat="49.18346" lon="1.64657">
        <ele>97.69214630127</ele>
        <time>2017-06-18T08:42:30.000Z</time>
      </trkpt>
      <trkpt lat="49.18344" lon="1.64647">
        <ele>97.712692260742</ele>
        <time>2017-06-18T08:42:32.000Z</time>
      </trkpt>
      <trkpt lat="49.1834" lon="1.64637">
        <ele>97.717758178711</ele>
        <time>2017-06-18T08:42:34.000Z</time>
      </trkpt>
      <trkpt lat="49.18333" lon="1.64622">
        <ele>97.698959350586</ele>
        <time>2017-06-18T08:42:37.000Z</time>
      </trkpt>
      <trkpt lat="49.18328" lon="1.64612">
        <ele>97.827476501465</ele>
        <time>2017-06-18T08:42:39.000Z</time>
      </trkpt>
      <trkpt lat="49.18324" lon="1.64598">
        <ele>98.038848876953</ele>
        <time>2017-06-18T08:42:42.000Z</time>
      </trkpt>
      <trkpt lat="49.1832" lon="1.64582">
        <ele>98.333297729492</ele>
        <time>2017-06-18T08:42:45.000Z</time>
      </trkpt>
      <trkpt lat="49.18316" lon="1.6457">
        <ele>98.706336975098</ele>
        <time>2017-06-18T08:42:47.000Z</time>
      </trkpt>
      <trkpt lat="49.18314" lon="1.64557">
        <ele>99.153419494629</ele>
        <time>2017-06-18T08:42:49.000Z</time>
      </trkpt>
      <trkpt lat="49.18311" lon="1.64536">
        <ele>99.56526184082</ele>
        <time>2017-06-18T08:42:52.000Z</time>
      </trkpt>
      <trkpt lat="49.18309" lon="1.6452">
        <ele>99.901168823242</ele>
        <time>2017-06-18T08:42:54.000Z</time>
      </trkpt>
      <trkpt lat="49.18306" lon="1.64505">
        <ele>100.1554107666</ele>
        <time>2017-06-18T08:42:56.000Z</time>
      </trkpt>
      <trkpt lat="49.18304" lon="1.6449">
        <ele>100.41702270508</ele>
        <time>2017-06-18T08:42:58.000Z</time>
      </trkpt>
      <trkpt lat="49.18301" lon="1.64468">
        <ele>100.74562072754</ele>
        <time>2017-06-18T08:43:01.000Z</time>
      </trkpt>
      <trkpt lat="49.18298" lon="1.64452">
        <ele>101.09417724609</ele>
        <time>2017-06-18T08:43:03.000Z</time>
      </trkpt>
      <trkpt lat="49.18298" lon="1.64438">
        <ele>101.48606872559</ele>
        <time>2017-06-18T08:43:05.000Z</time>
      </trkpt>
      <trkpt lat="49.18299" lon="1.64426">
        <ele>101.90702056885</ele>
        <time>2017-06-18T08:43:07.000Z</time>
      </trkpt>
      <trkpt lat="49.183" lon="1.64414">
        <ele>102.32986450195</ele>
        <time>2017-06-18T08:43:09.000Z</time>
      </trkpt>
      <trkpt lat="49.18302" lon="1.64391">
        <ele>102.70900726318</ele>
        <time>2017-06-18T08:43:12.000Z</time>
      </trkpt>
      <trkpt lat="49.18303" lon="1.64372">
        <ele>103.06159973145</ele>
        <time>2017-06-18T08:43:15.000Z</time>
      </trkpt>
      <trkpt lat="49.18302" lon="1.64355">
        <ele>103.38897705078</ele>
        <time>2017-06-18T08:43:18.000Z</time>
      </trkpt>
      <trkpt lat="49.18299" lon="1.64345">
        <ele>103.68745422363</ele>
        <time>2017-06-18T08:43:21.000Z</time>
      </trkpt>
      <trkpt lat="49.18298" lon="1.64335">
        <ele>103.95754241943</ele>
        <time>2017-06-18T08:43:24.000Z</time>
      </trkpt>
      <trkpt lat="49.18296" lon="1.64326">
        <ele>104.2099609375</ele>
        <time>2017-06-18T08:43:26.000Z</time>
      </trkpt>
      <trkpt lat="49.18293" lon="1.64319">
        <ele>104.4501953125</ele>
        <time>2017-06-18T08:43:28.000Z</time>
      </trkpt>
      <trkpt lat="49.1829" lon="1.64308">
        <ele>104.6997833252</ele>
        <time>2017-06-18T08:43:31.000Z</time>
      </trkpt>
      <trkpt lat="49.18291" lon="1.64296">
        <ele>104.9783782959</ele>
        <time>2017-06-18T08:43:33.000Z</time>
      </trkpt>
      <trkpt lat="49.18291" lon="1.64287">
        <ele>105.27671813965</ele>
        <time>2017-06-18T08:43:35.000Z</time>
      </trkpt>
      <trkpt lat="49.1829" lon="1.64272">
        <ele>105.61225891113</ele>
        <time>2017-06-18T08:43:38.000Z</time>
      </trkpt>
      <trkpt lat="49.18288" lon="1.64263">
        <ele>105.95167541504</ele>
        <time>2017-06-18T08:43:40.000Z</time>
      </trkpt>
      <trkpt lat="49.18286" lon="1.6425">
        <ele>106.29811859131</ele>
        <time>2017-06-18T08:43:43.000Z</time>
      </trkpt>
      <trkpt lat="49.18285" lon="1.6424">
        <ele>106.61491394043</ele>
        <time>2017-06-18T08:43:45.000Z</time>
      </trkpt>
      <trkpt lat="49.18285" lon="1.64227">
        <ele>106.92340087891</ele>
        <time>2017-06-18T08:43:48.000Z</time>
      </trkpt>
      <trkpt lat="49.18285" lon="1.6422">
        <ele>107.16484069824</ele>
        <time>2017-06-18T08:43:50.000Z</time>
      </trkpt>
      <trkpt lat="49.18284" lon="1.64213">
        <ele>107.3826675415</ele>
        <time>2017-06-18T08:43:52.000Z</time>
      </trkpt>
      <trkpt lat="49.18284" lon="1.64205">
        <ele>107.55271148682</ele>
        <time>2017-06-18T08:43:54.000Z</time>
      </trkpt>
      <trkpt lat="49.18284" lon="1.64198">
        <ele>107.71459960938</ele>
        <time>2017-06-18T08:43:56.000Z</time>
      </trkpt>
      <trkpt lat="49.18282" lon="1.64188">
        <ele>107.86885070801</ele>
        <time>2017-06-18T08:43:59.000Z</time>
      </trkpt>
      <trkpt lat="49.18281" lon="1.64177">
        <ele>108.04038238525</ele>
        <time>2017-06-18T08:44:02.000Z</time>
      </trkpt>
      <trkpt lat="49.1828" lon="1.64167">
        <ele>108.22371673584</ele>
        <time>2017-06-18T08:44:05.000Z</time>
      </trkpt>
      <trkpt lat="49.1828" lon="1.64157">
        <ele>108.4422454834</ele>
        <time>2017-06-18T08:44:08.000Z</time>
      </trkpt>
      <trkpt lat="49.18281" lon="1.6415">
        <ele>108.67695617676</ele>
        <time>2017-06-18T08:44:10.000Z</time>
      </trkpt>
      <trkpt lat="49.18281" lon="1.64143">
        <ele>108.91812896729</ele>
        <time>2017-06-18T08:44:12.000Z</time>
      </trkpt>
      <trkpt lat="49.18283" lon="1.64132">
        <ele>109.18481445312</ele>
        <time>2017-06-18T08:44:15.000Z</time>
      </trkpt>
      <trkpt lat="49.18284" lon="1.64123">
        <ele>109.47361755371</ele>
        <time>2017-06-18T08:44:18.000Z</time>
      </trkpt>
      <trkpt lat="49.18286" lon="1.64117">
        <ele>109.73803710938</ele>
        <time>2017-06-18T08:44:20.000Z</time>
      </trkpt>
      <trkpt lat="49.18287" lon="1.64109">
        <ele>110.01558685303</ele>
        <time>2017-06-18T08:44:23.000Z</time>
      </trkpt>
      <trkpt lat="49.18288" lon="1.641">
        <ele>110.30986022949</ele>
        <time>2017-06-18T08:44:26.000Z</time>
      </trkpt>
      <trkpt lat="49.18289" lon="1.64092">
        <ele>110.59367370605</ele>
        <time>2017-06-18T08:44:29.000Z</time>
      </trkpt>
      <trkpt lat="49.18289" lon="1.64084">
        <ele>110.87064361572</ele>
        <time>2017-06-18T08:44:32.000Z</time>
      </trkpt>
      <trkpt lat="49.18289" lon="1.64076">
        <ele>111.17305755615</ele>
        <time>2017-06-18T08:44:35.000Z</time>
      </trkpt>
      <trkpt lat="49.18289" lon="1.64067">
        <ele>111.48917388916</ele>
        <time>2017-06-18T08:44:38.000Z</time>
      </trkpt>
      <trkpt lat="49.18289" lon="1.64058">
        <ele>111.81504058838</ele>
        <time>2017-06-18T08:44:41.000Z</time>
      </trkpt>
      <trkpt lat="49.18289" lon="1.6405">
        <ele>112.1548614502</ele>
        <time>2017-06-18T08:44:44.000Z</time>
      </trkpt>
      <trkpt lat="49.18288" lon="1.64044">
        <ele>112.48454284668</ele>
        <time>2017-06-18T08:44:46.000Z</time>
      </trkpt>
      <trkpt lat="49.18288" lon="1.64034">
        <ele>112.82507324219</ele>
        <time>2017-06-18T08:44:49.000Z</time>
      </trkpt>
      <trkpt lat="49.18289" lon="1.64025">
        <ele>113.17913818359</ele>
        <time>2017-06-18T08:44:52.000Z</time>
      </trkpt>
      <trkpt lat="49.1829" lon="1.64018">
        <ele>113.51629638672</ele>
        <time>2017-06-18T08:44:54.000Z</time>
      </trkpt>
      <trkpt lat="49.1829" lon="1.64008">
        <ele>113.86421203613</ele>
        <time>2017-06-18T08:44:57.000Z</time>
      </trkpt>
      <trkpt lat="49.18292" lon="1.63998">
        <ele>114.24179840088</ele>
        <time>2017-06-18T08:45:00.000Z</time>
      </trkpt>
      <trkpt lat="49.18293" lon="1.63992">
        <ele>114.53887939453</ele>
        <time>2017-06-18T08:45:02.000Z</time>
      </trkpt>
      <trkpt lat="49.18294" lon="1.63982">
        <ele>114.7476348877</ele>
        <time>2017-06-18T08:45:05.000Z</time>
      </trkpt>
      <trkpt lat="49.18296" lon="1.63976">
        <ele>114.89987945557</ele>
        <time>2017-06-18T08:45:07.000Z</time>
      </trkpt>
      <trkpt lat="49.18297" lon="1.63963">
        <ele>114.9645614624</ele>
        <time>2017-06-18T08:45:10.000Z</time>
      </trkpt>
      <trkpt lat="49.18299" lon="1.63954">
        <ele>114.95388031006</ele>
        <time>2017-06-18T08:45:12.000Z</time>
      </trkpt>
      <trkpt lat="49.18301" lon="1.63941">
        <ele>114.95255279541</ele>
        <time>2017-06-18T08:45:15.000Z</time>
      </trkpt>
      <trkpt lat="49.18303" lon="1.63932">
        <ele>114.95433044434</ele>
        <time>2017-06-18T08:45:17.000Z</time>
      </trkpt>
      <trkpt lat="49.18305" lon="1.63924">
        <ele>114.96588134766</ele>
        <time>2017-06-18T08:45:19.000Z</time>
      </trkpt>
      <trkpt lat="49.18311" lon="1.63913">
        <ele>114.9973526001</ele>
        <time>2017-06-18T08:45:22.000Z</time>
      </trkpt>
      <trkpt lat="49.18317" lon="1.63911">
        <ele>115.0718536377</ele>
        <time>2017-06-18T08:45:24.000Z</time>
      </trkpt>
      <trkpt lat="49.18324" lon="1.63924">
        <ele>115.21004486084</ele>
        <time>2017-06-18T08:45:27.000Z</time>
      </trkpt>
      <trkpt lat="49.18328" lon="1.63933">
        <ele>115.37782287598</ele>
        <time>2017-06-18T08:45:29.000Z</time>
      </trkpt>
      <trkpt lat="49.18333" lon="1.63941">
        <ele>115.56906890869</ele>
        <time>2017-06-18T08:45:31.000Z</time>
      </trkpt>
      <trkpt lat="49.1834" lon="1.63952">
        <ele>115.80290222168</ele>
        <time>2017-06-18T08:45:34.000Z</time>
      </trkpt>
      <trkpt lat="49.18346" lon="1.63959">
        <ele>116.02796936035</ele>
        <time>2017-06-18T08:45:36.000Z</time>
      </trkpt>
      <trkpt lat="49.18354" lon="1.63968">
        <ele>116.231300354</ele>
        <time>2017-06-18T08:45:39.000Z</time>
      </trkpt>
      <trkpt lat="49.18359" lon="1.63975">
        <ele>116.43001556396</ele>
        <time>2017-06-18T08:45:41.000Z</time>
      </trkpt>
      <trkpt lat="49.18364" lon="1.63982">
        <ele>116.61566162109</ele>
        <time>2017-06-18T08:45:43.000Z</time>
      </trkpt>
      <trkpt lat="49.18373" lon="1.63993">
        <ele>116.77201843262</ele>
        <time>2017-06-18T08:45:46.000Z</time>
      </trkpt>
      <trkpt lat="49.18384" lon="1.64005">
        <ele>116.86790466309</ele>
        <time>2017-06-18T08:45:49.000Z</time>
      </trkpt>
      <trkpt lat="49.18394" lon="1.64016">
        <ele>116.81962585449</ele>
        <time>2017-06-18T08:45:52.000Z</time>
      </trkpt>
      <trkpt lat="49.18401" lon="1.64023">
        <ele>116.67197418213</ele>
        <time>2017-06-18T08:45:54.000Z</time>
      </trkpt>
      <trkpt lat="49.18409" lon="1.64031">
        <ele>116.42069244385</ele>
        <time>2017-06-18T08:45:56.000Z</time>
      </trkpt>
      <trkpt lat="49.18422" lon="1.64043">
        <ele>116.05004882812</ele>
        <time>2017-06-18T08:45:59.000Z</time>
      </trkpt>
      <trkpt lat="49.1843" lon="1.6405">
        <ele>115.6912612915</ele>
        <time>2017-06-18T08:46:01.000Z</time>
      </trkpt>
      <trkpt lat="49.18442" lon="1.64061">
        <ele>115.44100189209</ele>
        <time>2017-06-18T08:46:04.000Z</time>
      </trkpt>
      <trkpt lat="49.18453" lon="1.64071">
        <ele>115.28434753418</ele>
        <time>2017-06-18T08:46:07.000Z</time>
      </trkpt>
      <trkpt lat="49.18459" lon="1.64078">
        <ele>115.23079681396</ele>
        <time>2017-06-18T08:46:09.000Z</time>
      </trkpt>
      <trkpt lat="49.18465" lon="1.64084">
        <ele>115.29666900635</ele>
        <time>2017-06-18T08:46:11.000Z</time>
      </trkpt>
      <trkpt lat="49.18474" lon="1.64093">
        <ele>115.500831604</ele>
        <time>2017-06-18T08:46:14.000Z</time>
      </trkpt>
      <trkpt lat="49.1848" lon="1.64097">
        <ele>115.77629089355</ele>
        <time>2017-06-18T08:46:16.000Z</time>
      </trkpt>
      <trkpt lat="49.18487" lon="1.64103">
        <ele>116.15339660645</ele>
        <time>2017-06-18T08:46:19.000Z</time>
      </trkpt>
      <trkpt lat="49.18494" lon="1.6411">
        <ele>116.64172363281</ele>
        <time>2017-06-18T08:46:22.000Z</time>
      </trkpt>
      <trkpt lat="49.185" lon="1.64118">
        <ele>117.22127532959</ele>
        <time>2017-06-18T08:46:25.000Z</time>
      </trkpt>
      <trkpt lat="49.18507" lon="1.64125">
        <ele>117.7526473999</ele>
        <time>2017-06-18T08:46:28.000Z</time>
      </trkpt>
      <trkpt lat="49.18513" lon="1.64133">
        <ele>118.27813720703</ele>
        <time>2017-06-18T08:46:31.000Z</time>
      </trkpt>
      <trkpt lat="49.18518" lon="1.64138">
        <ele>118.73203277588</ele>
        <time>2017-06-18T08:46:33.000Z</time>
      </trkpt>
      <trkpt lat="49.18521" lon="1.64143">
        <ele>119.10192871094</ele>
        <time>2017-06-18T08:46:35.000Z</time>
      </trkpt>
      <trkpt lat="49.18526" lon="1.6415">
        <ele>119.41691589355</ele>
        <time>2017-06-18T08:46:38.000Z</time>
      </trkpt>
      <trkpt lat="49.18529" lon="1.64159">
        <ele>119.71152496338</ele>
        <time>2017-06-18T08:46:41.000Z</time>
      </trkpt>
      <trkpt lat="49.18531" lon="1.64174">
        <ele>120.0470199585</ele>
        <time>2017-06-18T08:46:44.000Z</time>
      </trkpt>
      <trkpt lat="49.18533" lon="1.64185">
        <ele>120.44638824463</ele>
        <time>2017-06-18T08:46:46.000Z</time>
      </trkpt>
      <trkpt lat="49.18533" lon="1.64199">
        <ele>120.93627929688</ele>
        <time>2017-06-18T08:46:49.000Z</time>
      </trkpt>
      <trkpt lat="49.18531" lon="1.64209">
        <ele>121.44162750244</ele>
        <time>2017-06-18T08:46:52.000Z</time>
      </trkpt>
      <trkpt lat="49.18531" lon="1.64221">
        <ele>122.00341796875</ele>
        <time>2017-06-18T08:46:55.000Z</time>
      </trkpt>
      <trkpt lat="49.1853" lon="1.6423">
        <ele>122.5302734375</ele>
        <time>2017-06-18T08:46:57.000Z</time>
      </trkpt>
      <trkpt lat="49.18529" lon="1.64247">
        <ele>123.08703613281</ele>
        <time>2017-06-18T08:47:00.000Z</time>
      </trkpt>
      <trkpt lat="49.18528" lon="1.64258">
        <ele>123.52642822266</ele>
        <time>2017-06-18T08:47:02.000Z</time>
      </trkpt>
      <trkpt lat="49.18525" lon="1.64274">
        <ele>123.86140441895</ele>
        <time>2017-06-18T08:47:05.000Z</time>
      </trkpt>
      <trkpt lat="49.18523" lon="1.64287">
        <ele>124.05500793457</ele>
        <time>2017-06-18T08:47:07.000Z</time>
      </trkpt>
      <trkpt lat="49.18523" lon="1.64303">
        <ele>124.14778137207</ele>
        <time>2017-06-18T08:47:09.000Z</time>
      </trkpt>
      <trkpt lat="49.18524" lon="1.64322">
        <ele>124.10760498047</ele>
        <time>2017-06-18T08:47:12.000Z</time>
      </trkpt>
      <trkpt lat="49.18523" lon="1.64333">
        <ele>124.03721618652</ele>
        <time>2017-06-18T08:47:14.000Z</time>
      </trkpt>
      <trkpt lat="49.18523" lon="1.64343">
        <ele>123.98370361328</ele>
        <time>2017-06-18T08:47:16.000Z</time>
      </trkpt>
      <trkpt lat="49.18519" lon="1.64362">
        <ele>123.91342926025</ele>
        <time>2017-06-18T08:47:19.000Z</time>
      </trkpt>
      <trkpt lat="49.18515" lon="1.64375">
        <ele>123.78745269775</ele>
        <time>2017-06-18T08:47:21.000Z</time>
      </trkpt>
      <trkpt lat="49.18508" lon="1.64391">
        <ele>123.53759765625</ele>
        <time>2017-06-18T08:47:24.000Z</time>
      </trkpt>
      <trkpt lat="49.185" lon="1.64402">
        <ele>123.1480255127</ele>
        <time>2017-06-18T08:47:26.000Z</time>
      </trkpt>
      <trkpt lat="49.18496" lon="1.64419">
        <ele>122.65612792969</ele>
        <time>2017-06-18T08:47:29.000Z</time>
      </trkpt>
      <trkpt lat="49.18499" lon="1.6443">
        <ele>122.30576324463</ele>
        <time>2017-06-18T08:47:31.000Z</time>
      </trkpt>
      <trkpt lat="49.18503" lon="1.64445">
        <ele>122.15803527832</ele>
        <time>2017-06-18T08:47:34.000Z</time>
      </trkpt>
      <trkpt lat="49.18505" lon="1.64468">
        <ele>122.20161437988</ele>
        <time>2017-06-18T08:47:37.000Z</time>
      </trkpt>
      <trkpt lat="49.18506" lon="1.64488">
        <ele>122.45157623291</ele>
        <time>2017-06-18T08:47:40.000Z</time>
      </trkpt>
      <trkpt lat="49.18507" lon="1.64505">
        <ele>122.81880187988</ele>
        <time>2017-06-18T08:47:43.000Z</time>
      </trkpt>
      <trkpt lat="49.18508" lon="1.64522">
        <ele>123.02191162109</ele>
        <time>2017-06-18T08:47:46.000Z</time>
      </trkpt>
      <trkpt lat="49.18506" lon="1.64536">
        <ele>123.01107025146</ele>
        <time>2017-06-18T08:47:48.000Z</time>
      </trkpt>
      <trkpt lat="49.18505" lon="1.64554">
        <ele>122.82173919678</ele>
        <time>2017-06-18T08:47:51.000Z</time>
      </trkpt>
      <trkpt lat="49.18506" lon="1.6457">
        <ele>122.51905822754</ele>
        <time>2017-06-18T08:47:53.000Z</time>
      </trkpt>
      <trkpt lat="49.18507" lon="1.64587">
        <ele>122.1382598877</ele>
        <time>2017-06-18T08:47:55.000Z</time>
      </trkpt>
      <trkpt lat="49.18507" lon="1.64617">
        <ele>121.70648193359</ele>
        <time>2017-06-18T08:47:58.000Z</time>
      </trkpt>
      <trkpt lat="49.1851" lon="1.64638">
        <ele>121.30433654785</ele>
        <time>2017-06-18T08:48:00.000Z</time>
      </trkpt>
      <trkpt lat="49.18512" lon="1.64669">
        <ele>120.9337310791</ele>
        <time>2017-06-18T08:48:03.000Z</time>
      </trkpt>
      <trkpt lat="49.18513" lon="1.64686">
        <ele>120.6368560791</ele>
        <time>2017-06-18T08:48:05.000Z</time>
      </trkpt>
      <trkpt lat="49.18513" lon="1.64712">
        <ele>120.39308929443</ele>
        <time>2017-06-18T08:48:08.000Z</time>
      </trkpt>
      <trkpt lat="49.18512" lon="1.64732">
        <ele>120.23929595947</ele>
        <time>2017-06-18T08:48:11.000Z</time>
      </trkpt>
      <trkpt lat="49.18509" lon="1.64748">
        <ele>120.08699798584</ele>
        <time>2017-06-18T08:48:13.000Z</time>
      </trkpt>
      <trkpt lat="49.18504" lon="1.64775">
        <ele>119.97597503662</ele>
        <time>2017-06-18T08:48:16.000Z</time>
      </trkpt>
      <trkpt lat="49.185" lon="1.64795">
        <ele>119.83207702637</ele>
        <time>2017-06-18T08:48:18.000Z</time>
      </trkpt>
      <trkpt lat="49.18496" lon="1.6483">
        <ele>119.66989898682</ele>
        <time>2017-06-18T08:48:21.000Z</time>
      </trkpt>
      <trkpt lat="49.18495" lon="1.64859">
        <ele>119.44571685791</ele>
        <time>2017-06-18T08:48:24.000Z</time>
      </trkpt>
      <trkpt lat="49.18497" lon="1.64891">
        <ele>119.25423431396</ele>
        <time>2017-06-18T08:48:27.000Z</time>
      </trkpt>
      <trkpt lat="49.18498" lon="1.64927">
        <ele>118.98496246338</ele>
        <time>2017-06-18T08:48:30.000Z</time>
      </trkpt>
      <trkpt lat="49.18497" lon="1.64949">
        <ele>118.54396057129</ele>
        <time>2017-06-18T08:48:32.000Z</time>
      </trkpt>
      <trkpt lat="49.18494" lon="1.64985">
        <ele>117.79001617432</ele>
        <time>2017-06-18T08:48:35.000Z</time>
      </trkpt>
      <trkpt lat="49.18491" lon="1.65007">
        <ele>116.87314605713</ele>
        <time>2017-06-18T08:48:38.000Z</time>
      </trkpt>
      <trkpt lat="49.18492" lon="1.65035">
        <ele>115.81744384766</ele>
        <time>2017-06-18T08:48:41.000Z</time>
      </trkpt>
      <trkpt lat="49.18494" lon="1.65054">
        <ele>114.79312896729</ele>
        <time>2017-06-18T08:48:43.000Z</time>
      </trkpt>
      <trkpt lat="49.18494" lon="1.65078">
        <ele>113.78028869629</ele>
        <time>2017-06-18T08:48:45.000Z</time>
      </trkpt>
      <trkpt lat="49.18493" lon="1.6511">
        <ele>112.83052062988</ele>
        <time>2017-06-18T08:48:48.000Z</time>
      </trkpt>
      <trkpt lat="49.18491" lon="1.65127">
        <ele>111.96250915527</ele>
        <time>2017-06-18T08:48:50.000Z</time>
      </trkpt>
      <trkpt lat="49.18491" lon="1.65154">
        <ele>111.03833007812</ele>
        <time>2017-06-18T08:48:53.000Z</time>
      </trkpt>
      <trkpt lat="49.18491" lon="1.65168">
        <ele>110.07008361816</ele>
        <time>2017-06-18T08:48:55.000Z</time>
      </trkpt>
      <trkpt lat="49.18493" lon="1.65182">
        <ele>109.32437896729</ele>
        <time>2017-06-18T08:48:57.000Z</time>
      </trkpt>
      <trkpt lat="49.18496" lon="1.65214">
        <ele>108.88330078125</ele>
        <time>2017-06-18T08:49:00.000Z</time>
      </trkpt>
      <trkpt lat="49.18496" lon="1.65235">
        <ele>108.57342529297</ele>
        <time>2017-06-18T08:49:02.000Z</time>
      </trkpt>
      <trkpt lat="49.185" lon="1.65263">
        <ele>108.46943664551</ele>
        <time>2017-06-18T08:49:04.000Z</time>
      </trkpt>
      <trkpt lat="49.18501" lon="1.65292">
        <ele>108.20761871338</ele>
        <time>2017-06-18T08:49:07.000Z</time>
      </trkpt>
      <trkpt lat="49.18501" lon="1.65313">
        <ele>107.70204925537</ele>
        <time>2017-06-18T08:49:09.000Z</time>
      </trkpt>
      <trkpt lat="49.18505" lon="1.65347">
        <ele>106.75140380859</ele>
        <time>2017-06-18T08:49:12.000Z</time>
      </trkpt>
      <trkpt lat="49.18507" lon="1.65363">
        <ele>105.54205322266</ele>
        <time>2017-06-18T08:49:14.000Z</time>
      </trkpt>
      <trkpt lat="49.18514" lon="1.65384">
        <ele>104.01579284668</ele>
        <time>2017-06-18T08:49:17.000Z</time>
      </trkpt>
      <trkpt lat="49.18522" lon="1.65405">
        <ele>102.444480896</ele>
        <time>2017-06-18T08:49:20.000Z</time>
      </trkpt>
      <trkpt lat="49.18528" lon="1.65418">
        <ele>100.88684082031</ele>
        <time>2017-06-18T08:49:22.000Z</time>
      </trkpt>
      <trkpt lat="49.18536" lon="1.65432">
        <ele>99.63737487793</ele>
        <time>2017-06-18T08:49:24.000Z</time>
      </trkpt>
      <trkpt lat="49.18549" lon="1.65452">
        <ele>98.512252807617</ele>
        <time>2017-06-18T08:49:27.000Z</time>
      </trkpt>
      <trkpt lat="49.18558" lon="1.65464">
        <ele>97.592826843262</ele>
        <time>2017-06-18T08:49:29.000Z</time>
      </trkpt>
      <trkpt lat="49.18565" lon="1.65472">
        <ele>96.911239624023</ele>
        <time>2017-06-18T08:49:31.000Z</time>
      </trkpt>
      <trkpt lat="49.18571" lon="1.65479">
        <ele>96.335372924805</ele>
        <time>2017-06-18T08:49:34.000Z</time>
      </trkpt>
      <trkpt lat="49.18571" lon="1.65479">
        <ele>96.335372924805</ele>
        <time>2017-06-18T08:49:44.000Z</time>
      </trkpt>
      <trkpt lat="49.1857" lon="1.65478">
        <ele>95.893028259277</ele>
        <time>2017-06-18T08:49:47.000Z</time>
      </trkpt>
      <trkpt lat="49.18571" lon="1.65478">
        <ele>95.637008666992</ele>
        <time>2017-06-18T08:49:57.000Z</time>
      </trkpt>
      <trkpt lat="49.18571" lon="1.65476">
        <ele>95.530494689941</ele>
        <time>2017-06-18T08:50:00.000Z</time>
      </trkpt>
      <trkpt lat="49.18572" lon="1.65479">
        <ele>95.46891784668</ele>
        <time>2017-06-18T08:50:02.000Z</time>
      </trkpt>
      <trkpt lat="49.18572" lon="1.6548">
        <ele>95.458206176758</ele>
        <time>2017-06-18T08:50:05.000Z</time>
      </trkpt>
      <trkpt lat="49.18572" lon="1.6548">
        <ele>95.458206176758</ele>
        <time>2017-06-18T08:50:15.000Z</time>
      </trkpt>
      <trkpt lat="49.18572" lon="1.65477">
        <ele>95.486930847168</ele>
        <time>2017-06-18T08:50:32.000Z</time>
      </trkpt>
      <trkpt lat="49.18572" lon="1.65477">
        <ele>95.486930847168</ele>
        <time>2017-06-18T08:50:52.000Z</time>
      </trkpt>
      <trkpt lat="49.18571" lon="1.65476">
        <ele>95.523429870605</ele>
        <time>2017-06-18T08:50:53.000Z</time>
      </trkpt>
      <trkpt lat="49.1857" lon="1.65474">
        <ele>95.546897888184</ele>
        <time>2017-06-18T08:51:01.000Z</time>
      </trkpt>
      <trkpt lat="49.1857" lon="1.65473">
        <ele>95.630722045898</ele>
        <time>2017-06-18T08:51:07.000Z</time>
      </trkpt>
      <trkpt lat="49.1857" lon="1.65473">
        <ele>95.630722045898</ele>
        <time>2017-06-18T08:51:27.000Z</time>
      </trkpt>
      <trkpt lat="49.18571" lon="1.65473">
        <ele>95.737998962402</ele>
        <time>2017-06-18T08:51:35.000Z</time>
      </trkpt>
      <trkpt lat="49.18573" lon="1.65478">
        <ele>95.728988647461</ele>
        <time>2017-06-18T08:51:37.000Z</time>
      </trkpt>
      <trkpt lat="49.18575" lon="1.65482">
        <ele>95.640579223633</ele>
        <time>2017-06-18T08:51:40.000Z</time>
      </trkpt>
      <trkpt lat="49.18576" lon="1.65484">
        <ele>95.509437561035</ele>
        <time>2017-06-18T08:51:43.000Z</time>
      </trkpt>
      <trkpt lat="49.18577" lon="1.65489">
        <ele>95.296531677246</ele>
        <time>2017-06-18T08:51:46.000Z</time>
      </trkpt>
      <trkpt lat="49.18583" lon="1.65494">
        <ele>95.021713256836</ele>
        <time>2017-06-18T08:51:49.000Z</time>
      </trkpt>
      <trkpt lat="49.18589" lon="1.65499">
        <ele>94.697845458984</ele>
        <time>2017-06-18T08:51:51.000Z</time>
      </trkpt>
      <trkpt lat="49.18597" lon="1.65508">
        <ele>94.239562988281</ele>
        <time>2017-06-18T08:51:54.000Z</time>
      </trkpt>
      <trkpt lat="49.18603" lon="1.65515">
        <ele>93.660629272461</ele>
        <time>2017-06-18T08:51:56.000Z</time>
      </trkpt>
      <trkpt lat="49.18613" lon="1.65531">
        <ele>92.813575744629</ele>
        <time>2017-06-18T08:51:59.000Z</time>
      </trkpt>
      <trkpt lat="49.1862" lon="1.65547">
        <ele>91.724647521973</ele>
        <time>2017-06-18T08:52:01.000Z</time>
      </trkpt>
      <trkpt lat="49.18628" lon="1.65569">
        <ele>90.345542907715</ele>
        <time>2017-06-18T08:52:03.000Z</time>
      </trkpt>
      <trkpt lat="49.18639" lon="1.65609">
        <ele>88.385940551758</ele>
        <time>2017-06-18T08:52:06.000Z</time>
      </trkpt>
      <trkpt lat="49.18647" lon="1.65656">
        <ele>85.71940612793</ele>
        <time>2017-06-18T08:52:09.000Z</time>
      </trkpt>
      <trkpt lat="49.18647" lon="1.65687">
        <ele>82.945899963379</ele>
        <time>2017-06-18T08:52:12.000Z</time>
      </trkpt>
      <trkpt lat="49.18648" lon="1.65701">
        <ele>80.296646118164</ele>
        <time>2017-06-18T08:52:14.000Z</time>
      </trkpt>
      <trkpt lat="49.18652" lon="1.65709">
        <ele>77.93839263916</ele>
        <time>2017-06-18T08:52:17.000Z</time>
      </trkpt>
      <trkpt lat="49.18653" lon="1.65707">
        <ele>76.374710083008</ele>
        <time>2017-06-18T08:52:19.000Z</time>
      </trkpt>
      <trkpt lat="49.18657" lon="1.65699">
        <ele>75.745742797852</ele>
        <time>2017-06-18T08:52:22.000Z</time>
      </trkpt>
      <trkpt lat="49.18662" lon="1.65688">
        <ele>75.636764526367</ele>
        <time>2017-06-18T08:52:25.000Z</time>
      </trkpt>
      <trkpt lat="49.18667" lon="1.65678">
        <ele>75.769309997559</ele>
        <time>2017-06-18T08:52:27.000Z</time>
      </trkpt>
      <trkpt lat="49.18672" lon="1.65667">
        <ele>76.063400268555</ele>
        <time>2017-06-18T08:52:29.000Z</time>
      </trkpt>
      <trkpt lat="49.18679" lon="1.65651">
        <ele>76.54182434082</ele>
        <time>2017-06-18T08:52:32.000Z</time>
      </trkpt>
      <trkpt lat="49.18686" lon="1.65637">
        <ele>77.121353149414</ele>
        <time>2017-06-18T08:52:35.000Z</time>
      </trkpt>
      <trkpt lat="49.18694" lon="1.65621">
        <ele>77.802764892578</ele>
        <time>2017-06-18T08:52:38.000Z</time>
      </trkpt>
      <trkpt lat="49.18702" lon="1.65607">
        <ele>78.581962585449</ele>
        <time>2017-06-18T08:52:41.000Z</time>
      </trkpt>
      <trkpt lat="49.18709" lon="1.65597">
        <ele>79.401031494141</ele>
        <time>2017-06-18T08:52:43.000Z</time>
      </trkpt>
      <trkpt lat="49.18718" lon="1.65585">
        <ele>80.137512207031</ele>
        <time>2017-06-18T08:52:46.000Z</time>
      </trkpt>
      <trkpt lat="49.18728" lon="1.65575">
        <ele>80.745300292969</ele>
        <time>2017-06-18T08:52:49.000Z</time>
      </trkpt>
      <trkpt lat="49.18735" lon="1.6557">
        <ele>81.186981201172</ele>
        <time>2017-06-18T08:52:51.000Z</time>
      </trkpt>
      <trkpt lat="49.18744" lon="1.6556">
        <ele>81.519973754883</ele>
        <time>2017-06-18T08:52:54.000Z</time>
      </trkpt>
      <trkpt lat="49.18752" lon="1.65551">
        <ele>81.798385620117</ele>
        <time>2017-06-18T08:52:57.000Z</time>
      </trkpt>
      <trkpt lat="49.1876" lon="1.65541">
        <ele>82.024269104004</ele>
        <time>2017-06-18T08:53:00.000Z</time>
      </trkpt>
      <trkpt lat="49.18768" lon="1.65532">
        <ele>82.246856689453</ele>
        <time>2017-06-18T08:53:03.000Z</time>
      </trkpt>
      <trkpt lat="49.18773" lon="1.65526">
        <ele>82.49430847168</ele>
        <time>2017-06-18T08:53:05.000Z</time>
      </trkpt>
      <trkpt lat="49.1878" lon="1.65514">
        <ele>82.788925170898</ele>
        <time>2017-06-18T08:53:08.000Z</time>
      </trkpt>
      <trkpt lat="49.18785" lon="1.65506">
        <ele>83.122413635254</ele>
        <time>2017-06-18T08:53:10.000Z</time>
      </trkpt>
      <trkpt lat="49.18791" lon="1.65495">
        <ele>83.493026733398</ele>
        <time>2017-06-18T08:53:13.000Z</time>
      </trkpt>
      <trkpt lat="49.18797" lon="1.65484">
        <ele>83.908615112305</ele>
        <time>2017-06-18T08:53:16.000Z</time>
      </trkpt>
      <trkpt lat="49.188" lon="1.65476">
        <ele>84.334136962891</ele>
        <time>2017-06-18T08:53:18.000Z</time>
      </trkpt>
      <trkpt lat="49.18805" lon="1.65467">
        <ele>84.742935180664</ele>
        <time>2017-06-18T08:53:21.000Z</time>
      </trkpt>
      <trkpt lat="49.18808" lon="1.65461">
        <ele>85.116439819336</ele>
        <time>2017-06-18T08:53:23.000Z</time>
      </trkpt>
      <trkpt lat="49.18811" lon="1.65455">
        <ele>85.424903869629</ele>
        <time>2017-06-18T08:53:25.000Z</time>
      </trkpt>
      <trkpt lat="49.18814" lon="1.65449">
        <ele>85.686904907227</ele>
        <time>2017-06-18T08:53:27.000Z</time>
      </trkpt>
      <trkpt lat="49.18816" lon="1.65442">
        <ele>85.952980041504</ele>
        <time>2017-06-18T08:53:29.000Z</time>
      </trkpt>
      <trkpt lat="49.18822" lon="1.65433">
        <ele>86.192855834961</ele>
        <time>2017-06-18T08:53:32.000Z</time>
      </trkpt>
      <trkpt lat="49.18825" lon="1.65426">
        <ele>86.427604675293</ele>
        <time>2017-06-18T08:53:34.000Z</time>
      </trkpt>
      <trkpt lat="49.18829" lon="1.65416">
        <ele>86.69783782959</ele>
        <time>2017-06-18T08:53:37.000Z</time>
      </trkpt>
      <trkpt lat="49.18833" lon="1.65411">
        <ele>86.95548248291</ele>
        <time>2017-06-18T08:53:39.000Z</time>
      </trkpt>
      <trkpt lat="49.18839" lon="1.65403">
        <ele>87.175094604492</ele>
        <time>2017-06-18T08:53:42.000Z</time>
      </trkpt>
      <trkpt lat="49.18842" lon="1.65396">
        <ele>87.375961303711</ele>
        <time>2017-06-18T08:53:44.000Z</time>
      </trkpt>
      <trkpt lat="49.18845" lon="1.6539">
        <ele>87.57844543457</ele>
        <time>2017-06-18T08:53:46.000Z</time>
      </trkpt>
      <trkpt lat="49.18848" lon="1.65383">
        <ele>87.744338989258</ele>
        <time>2017-06-18T08:53:48.000Z</time>
      </trkpt>
      <trkpt lat="49.18854" lon="1.65373">
        <ele>87.91943359375</ele>
        <time>2017-06-18T08:53:51.000Z</time>
      </trkpt>
      <trkpt lat="49.18859" lon="1.65362">
        <ele>88.128646850586</ele>
        <time>2017-06-18T08:53:54.000Z</time>
      </trkpt>
      <trkpt lat="49.18862" lon="1.65355">
        <ele>88.337951660156</ele>
        <time>2017-06-18T08:53:56.000Z</time>
      </trkpt>
      <trkpt lat="49.18865" lon="1.65347">
        <ele>88.561630249023</ele>
        <time>2017-06-18T08:53:58.000Z</time>
      </trkpt>
      <trkpt lat="49.1887" lon="1.65335">
        <ele>88.825668334961</ele>
        <time>2017-06-18T08:54:01.000Z</time>
      </trkpt>
      <trkpt lat="49.18875" lon="1.65323">
        <ele>89.065658569336</ele>
        <time>2017-06-18T08:54:04.000Z</time>
      </trkpt>
      <trkpt lat="49.18878" lon="1.65314">
        <ele>89.278945922852</ele>
        <time>2017-06-18T08:54:06.000Z</time>
      </trkpt>
      <trkpt lat="49.18883" lon="1.65299">
        <ele>89.506614685059</ele>
        <time>2017-06-18T08:54:09.000Z</time>
      </trkpt>
      <trkpt lat="49.18886" lon="1.65289">
        <ele>89.715744018555</ele>
        <time>2017-06-18T08:54:11.000Z</time>
      </trkpt>
      <trkpt lat="49.18888" lon="1.65279">
        <ele>89.893188476562</ele>
        <time>2017-06-18T08:54:13.000Z</time>
      </trkpt>
      <trkpt lat="49.18893" lon="1.65264">
        <ele>90.1103515625</ele>
        <time>2017-06-18T08:54:16.000Z</time>
      </trkpt>
      <trkpt lat="49.18895" lon="1.65254">
        <ele>90.3466796875</ele>
        <time>2017-06-18T08:54:18.000Z</time>
      </trkpt>
      <trkpt lat="49.18898" lon="1.6524">
        <ele>90.583129882812</ele>
        <time>2017-06-18T08:54:21.000Z</time>
      </trkpt>
      <trkpt lat="49.18901" lon="1.65225">
        <ele>90.829406738281</ele>
        <time>2017-06-18T08:54:24.000Z</time>
      </trkpt>
      <trkpt lat="49.18904" lon="1.65211">
        <ele>91.079948425293</ele>
        <time>2017-06-18T08:54:27.000Z</time>
      </trkpt>
      <trkpt lat="49.18906" lon="1.65196">
        <ele>91.339561462402</ele>
        <time>2017-06-18T08:54:30.000Z</time>
      </trkpt>
      <trkpt lat="49.18908" lon="1.6518">
        <ele>91.617393493652</ele>
        <time>2017-06-18T08:54:33.000Z</time>
      </trkpt>
      <trkpt lat="49.18909" lon="1.65169">
        <ele>91.903518676758</ele>
        <time>2017-06-18T08:54:35.000Z</time>
      </trkpt>
      <trkpt lat="49.18911" lon="1.65152">
        <ele>92.167518615723</ele>
        <time>2017-06-18T08:54:38.000Z</time>
      </trkpt>
      <trkpt lat="49.18913" lon="1.6514">
        <ele>92.394737243652</ele>
        <time>2017-06-18T08:54:40.000Z</time>
      </trkpt>
      <trkpt lat="49.18914" lon="1.65123">
        <ele>92.567367553711</ele>
        <time>2017-06-18T08:54:43.000Z</time>
      </trkpt>
      <trkpt lat="49.18915" lon="1.65111">
        <ele>92.68709564209</ele>
        <time>2017-06-18T08:54:45.000Z</time>
      </trkpt>
      <trkpt lat="49.18916" lon="1.65094">
        <ele>92.778465270996</ele>
        <time>2017-06-18T08:54:48.000Z</time>
      </trkpt>
      <trkpt lat="49.18916" lon="1.65076">
        <ele>92.893394470215</ele>
        <time>2017-06-18T08:54:51.000Z</time>
      </trkpt>
      <trkpt lat="49.18917" lon="1.65064">
        <ele>93.038635253906</ele>
        <time>2017-06-18T08:54:53.000Z</time>
      </trkpt>
      <trkpt lat="49.18918" lon="1.65046">
        <ele>93.25260925293</ele>
        <time>2017-06-18T08:54:56.000Z</time>
      </trkpt>
      <trkpt lat="49.18918" lon="1.65034">
        <ele>93.507957458496</ele>
        <time>2017-06-18T08:54:58.000Z</time>
      </trkpt>
      <trkpt lat="49.18919" lon="1.65014">
        <ele>93.818466186523</ele>
        <time>2017-06-18T08:55:01.000Z</time>
      </trkpt>
      <trkpt lat="49.18919" lon="1.64995">
        <ele>94.189147949219</ele>
        <time>2017-06-18T08:55:04.000Z</time>
      </trkpt>
      <trkpt lat="49.18919" lon="1.64982">
        <ele>94.59814453125</ele>
        <time>2017-06-18T08:55:06.000Z</time>
      </trkpt>
      <trkpt lat="49.18919" lon="1.64963">
        <ele>95.055786132812</ele>
        <time>2017-06-18T08:55:09.000Z</time>
      </trkpt>
      <trkpt lat="49.18919" lon="1.64944">
        <ele>95.595397949219</ele>
        <time>2017-06-18T08:55:12.000Z</time>
      </trkpt>
      <trkpt lat="49.18919" lon="1.64931">
        <ele>96.143173217773</ele>
        <time>2017-06-18T08:55:14.000Z</time>
      </trkpt>
      <trkpt lat="49.18919" lon="1.64912">
        <ele>96.71443939209</ele>
        <time>2017-06-18T08:55:17.000Z</time>
      </trkpt>
      <trkpt lat="49.18919" lon="1.64893">
        <ele>97.298530578613</ele>
        <time>2017-06-18T08:55:20.000Z</time>
      </trkpt>
      <trkpt lat="49.18919" lon="1.64874">
        <ele>97.841529846191</ele>
        <time>2017-06-18T08:55:23.000Z</time>
      </trkpt>
      <trkpt lat="49.18919" lon="1.64855">
        <ele>98.338012695312</ele>
        <time>2017-06-18T08:55:26.000Z</time>
      </trkpt>
      <trkpt lat="49.18918" lon="1.64836">
        <ele>98.844955444336</ele>
        <time>2017-06-18T08:55:29.000Z</time>
      </trkpt>
      <trkpt lat="49.18917" lon="1.64817">
        <ele>99.360763549805</ele>
        <time>2017-06-18T08:55:32.000Z</time>
      </trkpt>
      <trkpt lat="49.18917" lon="1.64805">
        <ele>99.871780395508</ele>
        <time>2017-06-18T08:55:34.000Z</time>
      </trkpt>
      <trkpt lat="49.18917" lon="1.6479">
        <ele>100.41395568848</ele>
        <time>2017-06-18T08:55:37.000Z</time>
      </trkpt>
      <trkpt lat="49.18916" lon="1.6478">
        <ele>100.94343566895</ele>
        <time>2017-06-18T08:55:39.000Z</time>
      </trkpt>
      <trkpt lat="49.18916" lon="1.64766">
        <ele>101.48025512695</ele>
        <time>2017-06-18T08:55:42.000Z</time>
      </trkpt>
      <trkpt lat="49.18916" lon="1.64757">
        <ele>101.95152282715</ele>
        <time>2017-06-18T08:55:44.000Z</time>
      </trkpt>
      <trkpt lat="49.18916" lon="1.64743">
        <ele>102.44736480713</ele>
        <time>2017-06-18T08:55:47.000Z</time>
      </trkpt>
      <trkpt lat="49.18916" lon="1.64734">
        <ele>102.90522766113</ele>
        <time>2017-06-18T08:55:49.000Z</time>
      </trkpt>
      <trkpt lat="49.18915" lon="1.64726">
        <ele>103.37181091309</ele>
        <time>2017-06-18T08:55:51.000Z</time>
      </trkpt>
      <trkpt lat="49.18915" lon="1.64713">
        <ele>103.85778808594</ele>
        <time>2017-06-18T08:55:54.000Z</time>
      </trkpt>
      <trkpt lat="49.18915" lon="1.64701">
        <ele>104.3935546875</ele>
        <time>2017-06-18T08:55:57.000Z</time>
      </trkpt>
      <trkpt lat="49.18914" lon="1.64693">
        <ele>104.890625</ele>
        <time>2017-06-18T08:55:59.000Z</time>
      </trkpt>
      <trkpt lat="49.18915" lon="1.64683">
        <ele>105.3994140625</ele>
        <time>2017-06-18T08:56:02.000Z</time>
      </trkpt>
      <trkpt lat="49.18916" lon="1.64672">
        <ele>105.91125488281</ele>
        <time>2017-06-18T08:56:05.000Z</time>
      </trkpt>
      <trkpt lat="49.18916" lon="1.64665">
        <ele>106.3588104248</ele>
        <time>2017-06-18T08:56:07.000Z</time>
      </trkpt>
      <trkpt lat="49.18918" lon="1.64654">
        <ele>106.76335144043</ele>
        <time>2017-06-18T08:56:10.000Z</time>
      </trkpt>
      <trkpt lat="49.18919" lon="1.64647">
        <ele>107.13298034668</ele>
        <time>2017-06-18T08:56:12.000Z</time>
      </trkpt>
      <trkpt lat="49.18921" lon="1.6464">
        <ele>107.44352722168</ele>
        <time>2017-06-18T08:56:14.000Z</time>
      </trkpt>
      <trkpt lat="49.18923" lon="1.64631">
        <ele>107.71611022949</ele>
        <time>2017-06-18T08:56:17.000Z</time>
      </trkpt>
      <trkpt lat="49.18924" lon="1.64625">
        <ele>107.96374511719</ele>
        <time>2017-06-18T08:56:19.000Z</time>
      </trkpt>
      <trkpt lat="49.18927" lon="1.64616">
        <ele>108.17956542969</ele>
        <time>2017-06-18T08:56:22.000Z</time>
      </trkpt>
      <trkpt lat="49.18928" lon="1.64609">
        <ele>108.38684082031</ele>
        <time>2017-06-18T08:56:24.000Z</time>
      </trkpt>
      <trkpt lat="49.18929" lon="1.64603">
        <ele>108.59838867188</ele>
        <time>2017-06-18T08:56:26.000Z</time>
      </trkpt>
      <trkpt lat="49.18931" lon="1.64597">
        <ele>108.7958984375</ele>
        <time>2017-06-18T08:56:28.000Z</time>
      </trkpt>
      <trkpt lat="49.18933" lon="1.64587">
        <ele>109.00231933594</ele>
        <time>2017-06-18T08:56:31.000Z</time>
      </trkpt>
      <trkpt lat="49.18935" lon="1.6458">
        <ele>109.19541168213</ele>
        <time>2017-06-18T08:56:33.000Z</time>
      </trkpt>
      <trkpt lat="49.18937" lon="1.64574">
        <ele>109.3927230835</ele>
        <time>2017-06-18T08:56:35.000Z</time>
      </trkpt>
      <trkpt lat="49.18939" lon="1.64564">
        <ele>109.596824646</ele>
        <time>2017-06-18T08:56:38.000Z</time>
      </trkpt>
      <trkpt lat="49.18941" lon="1.64557">
        <ele>109.79095458984</ele>
        <time>2017-06-18T08:56:40.000Z</time>
      </trkpt>
      <trkpt lat="49.18942" lon="1.64549">
        <ele>109.98371887207</ele>
        <time>2017-06-18T08:56:42.000Z</time>
      </trkpt>
      <trkpt lat="49.18944" lon="1.64541">
        <ele>110.1828994751</ele>
        <time>2017-06-18T08:56:44.000Z</time>
      </trkpt>
      <trkpt lat="49.18946" lon="1.6453">
        <ele>110.39192962646</ele>
        <time>2017-06-18T08:56:47.000Z</time>
      </trkpt>
      <trkpt lat="49.18948" lon="1.64522">
        <ele>110.58488464355</ele>
        <time>2017-06-18T08:56:49.000Z</time>
      </trkpt>
      <trkpt lat="49.18951" lon="1.6451">
        <ele>110.8173828125</ele>
        <time>2017-06-18T08:56:52.000Z</time>
      </trkpt>
      <trkpt lat="49.18953" lon="1.64498">
        <ele>111.05973815918</ele>
        <time>2017-06-18T08:56:55.000Z</time>
      </trkpt>
      <trkpt lat="49.18955" lon="1.64487">
        <ele>111.29300689697</ele>
        <time>2017-06-18T08:56:58.000Z</time>
      </trkpt>
      <trkpt lat="49.18957" lon="1.64474">
        <ele>111.51420593262</ele>
        <time>2017-06-18T08:57:01.000Z</time>
      </trkpt>
      <trkpt lat="49.18959" lon="1.64461">
        <ele>111.74397277832</ele>
        <time>2017-06-18T08:57:04.000Z</time>
      </trkpt>
      <trkpt lat="49.1896" lon="1.64452">
        <ele>111.92962646484</ele>
        <time>2017-06-18T08:57:06.000Z</time>
      </trkpt>
      <trkpt lat="49.18962" lon="1.64439">
        <ele>112.11222839355</ele>
        <time>2017-06-18T08:57:09.000Z</time>
      </trkpt>
      <trkpt lat="49.18963" lon="1.64431">
        <ele>112.29488372803</ele>
        <time>2017-06-18T08:57:11.000Z</time>
      </trkpt>
      <trkpt lat="49.18965" lon="1.64417">
        <ele>112.49633789062</ele>
        <time>2017-06-18T08:57:14.000Z</time>
      </trkpt>
      <trkpt lat="49.18966" lon="1.64408">
        <ele>112.68296813965</ele>
        <time>2017-06-18T08:57:16.000Z</time>
      </trkpt>
      <trkpt lat="49.18967" lon="1.64398">
        <ele>112.87115478516</ele>
        <time>2017-06-18T08:57:18.000Z</time>
      </trkpt>
      <trkpt lat="49.1897" lon="1.64384">
        <ele>113.03346252441</ele>
        <time>2017-06-18T08:57:21.000Z</time>
      </trkpt>
      <trkpt lat="49.18972" lon="1.6437">
        <ele>113.18704986572</ele>
        <time>2017-06-18T08:57:24.000Z</time>
      </trkpt>
      <trkpt lat="49.18975" lon="1.64355">
        <ele>113.31640625</ele>
        <time>2017-06-18T08:57:27.000Z</time>
      </trkpt>
      <trkpt lat="49.18978" lon="1.64339">
        <ele>113.44396972656</ele>
        <time>2017-06-18T08:57:30.000Z</time>
      </trkpt>
      <trkpt lat="49.1898" lon="1.64327">
        <ele>113.56701660156</ele>
        <time>2017-06-18T08:57:32.000Z</time>
      </trkpt>
      <trkpt lat="49.18984" lon="1.64309">
        <ele>113.66550445557</ele>
        <time>2017-06-18T08:57:35.000Z</time>
      </trkpt>
      <trkpt lat="49.18987" lon="1.64297">
        <ele>113.75541687012</ele>
        <time>2017-06-18T08:57:37.000Z</time>
      </trkpt>
      <trkpt lat="49.18989" lon="1.64283">
        <ele>113.83012390137</ele>
        <time>2017-06-18T08:57:39.000Z</time>
      </trkpt>
      <trkpt lat="49.18994" lon="1.64261">
        <ele>113.91581726074</ele>
        <time>2017-06-18T08:57:42.000Z</time>
      </trkpt>
      <trkpt lat="49.18999" lon="1.64238">
        <ele>113.99705505371</ele>
        <time>2017-06-18T08:57:45.000Z</time>
      </trkpt>
      <trkpt lat="49.19006" lon="1.64213">
        <ele>113.97178649902</ele>
        <time>2017-06-18T08:57:48.000Z</time>
      </trkpt>
      <trkpt lat="49.19012" lon="1.64195">
        <ele>113.83929443359</ele>
        <time>2017-06-18T08:57:50.000Z</time>
      </trkpt>
      <trkpt lat="49.1902" lon="1.64176">
        <ele>113.55122375488</ele>
        <time>2017-06-18T08:57:52.000Z</time>
      </trkpt>
      <trkpt lat="49.1903" lon="1.64146">
        <ele>112.97889709473</ele>
        <time>2017-06-18T08:57:55.000Z</time>
      </trkpt>
      <trkpt lat="49.19042" lon="1.64114">
        <ele>112.06195068359</ele>
        <time>2017-06-18T08:57:58.000Z</time>
      </trkpt>
      <trkpt lat="49.19055" lon="1.64079">
        <ele>110.88515472412</ele>
        <time>2017-06-18T08:58:01.000Z</time>
      </trkpt>
      <trkpt lat="49.19068" lon="1.64043">
        <ele>109.53028869629</ele>
        <time>2017-06-18T08:58:04.000Z</time>
      </trkpt>
      <trkpt lat="49.19076" lon="1.64018">
        <ele>108.15428161621</ele>
        <time>2017-06-18T08:58:06.000Z</time>
      </trkpt>
      <trkpt lat="49.19085" lon="1.63993">
        <ele>106.89384460449</ele>
        <time>2017-06-18T08:58:08.000Z</time>
      </trkpt>
      <trkpt lat="49.19099" lon="1.63956">
        <ele>105.91017150879</ele>
        <time>2017-06-18T08:58:11.000Z</time>
      </trkpt>
      <trkpt lat="49.19106" lon="1.63931">
        <ele>105.28453063965</ele>
        <time>2017-06-18T08:58:13.000Z</time>
      </trkpt>
      <trkpt lat="49.19115" lon="1.63907">
        <ele>104.95670318604</ele>
        <time>2017-06-18T08:58:15.000Z</time>
      </trkpt>
      <trkpt lat="49.19127" lon="1.63877">
        <ele>104.89987945557</ele>
        <time>2017-06-18T08:58:18.000Z</time>
      </trkpt>
      <trkpt lat="49.19135" lon="1.63858">
        <ele>105.07183837891</ele>
        <time>2017-06-18T08:58:20.000Z</time>
      </trkpt>
      <trkpt lat="49.19141" lon="1.6384">
        <ele>105.39853668213</ele>
        <time>2017-06-18T08:58:22.000Z</time>
      </trkpt>
      <trkpt lat="49.19145" lon="1.63824">
        <ele>105.81550598145</ele>
        <time>2017-06-18T08:58:24.000Z</time>
      </trkpt>
      <trkpt lat="49.19152" lon="1.63804">
        <ele>106.26477050781</ele>
        <time>2017-06-18T08:58:27.000Z</time>
      </trkpt>
      <trkpt lat="49.19158" lon="1.63787">
        <ele>106.65843200684</ele>
        <time>2017-06-18T08:58:30.000Z</time>
      </trkpt>
      <trkpt lat="49.19161" lon="1.63778">
        <ele>106.98554992676</ele>
        <time>2017-06-18T08:58:32.000Z</time>
      </trkpt>
      <trkpt lat="49.19166" lon="1.63765">
        <ele>107.24566650391</ele>
        <time>2017-06-18T08:58:35.000Z</time>
      </trkpt>
      <trkpt lat="49.1917" lon="1.63758">
        <ele>107.48830413818</ele>
        <time>2017-06-18T08:58:37.000Z</time>
      </trkpt>
      <trkpt lat="49.19175" lon="1.6375">
        <ele>107.77928161621</ele>
        <time>2017-06-18T08:58:40.000Z</time>
      </trkpt>
      <trkpt lat="49.1918" lon="1.63755">
        <ele>108.04988861084</ele>
        <time>2017-06-18T08:58:42.000Z</time>
      </trkpt>
      <trkpt lat="49.19184" lon="1.63771">
        <ele>108.24814605713</ele>
        <time>2017-06-18T08:58:45.000Z</time>
      </trkpt>
      <trkpt lat="49.19191" lon="1.63791">
        <ele>108.35523986816</ele>
        <time>2017-06-18T08:58:48.000Z</time>
      </trkpt>
      <trkpt lat="49.19195" lon="1.63806">
        <ele>108.34031677246</ele>
        <time>2017-06-18T08:58:50.000Z</time>
      </trkpt>
      <trkpt lat="49.192" lon="1.63821">
        <ele>108.15986633301</ele>
        <time>2017-06-18T08:58:52.000Z</time>
      </trkpt>
      <trkpt lat="49.19208" lon="1.63845">
        <ele>107.82769775391</ele>
        <time>2017-06-18T08:58:55.000Z</time>
      </trkpt>
      <trkpt lat="49.19217" lon="1.6387">
        <ele>107.40037536621</ele>
        <time>2017-06-18T08:58:58.000Z</time>
      </trkpt>
      <trkpt lat="49.19227" lon="1.63895">
        <ele>106.91624450684</ele>
        <time>2017-06-18T08:59:01.000Z</time>
      </trkpt>
      <trkpt lat="49.19233" lon="1.63912">
        <ele>106.41056060791</ele>
        <time>2017-06-18T08:59:03.000Z</time>
      </trkpt>
      <trkpt lat="49.1924" lon="1.63929">
        <ele>105.88149261475</ele>
        <time>2017-06-18T08:59:05.000Z</time>
      </trkpt>
      <trkpt lat="49.19249" lon="1.63953">
        <ele>105.31882476807</ele>
        <time>2017-06-18T08:59:08.000Z</time>
      </trkpt>
      <trkpt lat="49.19255" lon="1.6397">
        <ele>104.83030700684</ele>
        <time>2017-06-18T08:59:10.000Z</time>
      </trkpt>
      <trkpt lat="49.19263" lon="1.63994">
        <ele>104.38533782959</ele>
        <time>2017-06-18T08:59:13.000Z</time>
      </trkpt>
      <trkpt lat="49.19271" lon="1.64016">
        <ele>104.04457092285</ele>
        <time>2017-06-18T08:59:16.000Z</time>
      </trkpt>
      <trkpt lat="49.19276" lon="1.64028">
        <ele>103.8272857666</ele>
        <time>2017-06-18T08:59:18.000Z</time>
      </trkpt>
      <trkpt lat="49.19283" lon="1.64047">
        <ele>103.78584289551</ele>
        <time>2017-06-18T08:59:21.000Z</time>
      </trkpt>
      <trkpt lat="49.19286" lon="1.64061">
        <ele>103.81418609619</ele>
        <time>2017-06-18T08:59:23.000Z</time>
      </trkpt>
      <trkpt lat="49.19293" lon="1.64078">
        <ele>103.96173095703</ele>
        <time>2017-06-18T08:59:26.000Z</time>
      </trkpt>
      <trkpt lat="49.19299" lon="1.64094">
        <ele>104.14553070068</ele>
        <time>2017-06-18T08:59:29.000Z</time>
      </trkpt>
      <trkpt lat="49.19304" lon="1.64109">
        <ele>104.34812927246</ele>
        <time>2017-06-18T08:59:32.000Z</time>
      </trkpt>
      <trkpt lat="49.19309" lon="1.64119">
        <ele>104.60063171387</ele>
        <time>2017-06-18T08:59:34.000Z</time>
      </trkpt>
      <trkpt lat="49.19314" lon="1.64132">
        <ele>104.9437713623</ele>
        <time>2017-06-18T08:59:37.000Z</time>
      </trkpt>
      <trkpt lat="49.1932" lon="1.64149">
        <ele>105.37048339844</ele>
        <time>2017-06-18T08:59:40.000Z</time>
      </trkpt>
      <trkpt lat="49.19331" lon="1.64169">
        <ele>105.97737121582</ele>
        <time>2017-06-18T08:59:43.000Z</time>
      </trkpt>
      <trkpt lat="49.19334" lon="1.64184">
        <ele>106.58113861084</ele>
        <time>2017-06-18T08:59:46.000Z</time>
      </trkpt>
      <trkpt lat="49.19338" lon="1.64199">
        <ele>107.16938781738</ele>
        <time>2017-06-18T08:59:49.000Z</time>
      </trkpt>
      <trkpt lat="49.19344" lon="1.64213">
        <ele>107.80110168457</ele>
        <time>2017-06-18T08:59:52.000Z</time>
      </trkpt>
      <trkpt lat="49.19349" lon="1.64225">
        <ele>108.41242980957</ele>
        <time>2017-06-18T08:59:54.000Z</time>
      </trkpt>
      <trkpt lat="49.19352" lon="1.64241">
        <ele>108.87976074219</ele>
        <time>2017-06-18T08:59:57.000Z</time>
      </trkpt>
      <trkpt lat="49.19356" lon="1.64252">
        <ele>109.39101409912</ele>
        <time>2017-06-18T08:59:59.000Z</time>
      </trkpt>
      <trkpt lat="49.19362" lon="1.64267">
        <ele>109.9644317627</ele>
        <time>2017-06-18T09:00:02.000Z</time>
      </trkpt>
      <trkpt lat="49.19369" lon="1.64284">
        <ele>110.54531097412</ele>
        <time>2017-06-18T09:00:05.000Z</time>
      </trkpt>
      <trkpt lat="49.19374" lon="1.64297">
        <ele>111.10545349121</ele>
        <time>2017-06-18T09:00:07.000Z</time>
      </trkpt>
      <trkpt lat="49.1938" lon="1.64311">
        <ele>111.67547607422</ele>
        <time>2017-06-18T09:00:09.000Z</time>
      </trkpt>
      <trkpt lat="49.19389" lon="1.6433">
        <ele>112.33099365234</ele>
        <time>2017-06-18T09:00:12.000Z</time>
      </trkpt>
      <trkpt lat="49.19394" lon="1.64343">
        <ele>112.88214111328</ele>
        <time>2017-06-18T09:00:14.000Z</time>
      </trkpt>
      <trkpt lat="49.19398" lon="1.64355">
        <ele>113.25386810303</ele>
        <time>2017-06-18T09:00:16.000Z</time>
      </trkpt>
      <trkpt lat="49.19405" lon="1.64374">
        <ele>113.46099853516</ele>
        <time>2017-06-18T09:00:19.000Z</time>
      </trkpt>
      <trkpt lat="49.1941" lon="1.64392">
        <ele>113.4528427124</ele>
        <time>2017-06-18T09:00:22.000Z</time>
      </trkpt>
      <trkpt lat="49.19415" lon="1.6441">
        <ele>113.164894104</ele>
        <time>2017-06-18T09:00:25.000Z</time>
      </trkpt>
      <trkpt lat="49.19421" lon="1.64425">
        <ele>112.72646331787</ele>
        <time>2017-06-18T09:00:28.000Z</time>
      </trkpt>
      <trkpt lat="49.19424" lon="1.64435">
        <ele>112.23146820068</ele>
        <time>2017-06-18T09:00:30.000Z</time>
      </trkpt>
      <trkpt lat="49.19429" lon="1.6445">
        <ele>111.66374206543</ele>
        <time>2017-06-18T09:00:33.000Z</time>
      </trkpt>
      <trkpt lat="49.19435" lon="1.64464">
        <ele>111.10427093506</ele>
        <time>2017-06-18T09:00:36.000Z</time>
      </trkpt>
      <trkpt lat="49.19439" lon="1.64474">
        <ele>110.57655334473</ele>
        <time>2017-06-18T09:00:38.000Z</time>
      </trkpt>
      <trkpt lat="49.19444" lon="1.64488">
        <ele>110.10214996338</ele>
        <time>2017-06-18T09:00:41.000Z</time>
      </trkpt>
      <trkpt lat="49.19449" lon="1.64504">
        <ele>109.6773223877</ele>
        <time>2017-06-18T09:00:44.000Z</time>
      </trkpt>
      <trkpt lat="49.19453" lon="1.6452">
        <ele>109.44215393066</ele>
        <time>2017-06-18T09:00:47.000Z</time>
      </trkpt>
      <trkpt lat="49.19457" lon="1.64537">
        <ele>109.32737731934</ele>
        <time>2017-06-18T09:00:50.000Z</time>
      </trkpt>
      <trkpt lat="49.19459" lon="1.64549">
        <ele>109.28791809082</ele>
        <time>2017-06-18T09:00:52.000Z</time>
      </trkpt>
      <trkpt lat="49.19461" lon="1.6457">
        <ele>109.32775878906</ele>
        <time>2017-06-18T09:00:55.000Z</time>
      </trkpt>
      <trkpt lat="49.19462" lon="1.64584">
        <ele>109.40612792969</ele>
        <time>2017-06-18T09:00:57.000Z</time>
      </trkpt>
      <trkpt lat="49.19464" lon="1.64605">
        <ele>109.41943359375</ele>
        <time>2017-06-18T09:01:00.000Z</time>
      </trkpt>
      <trkpt lat="49.19465" lon="1.64627">
        <ele>109.37687683105</ele>
        <time>2017-06-18T09:01:03.000Z</time>
      </trkpt>
      <trkpt lat="49.19466" lon="1.64649">
        <ele>109.29196929932</ele>
        <time>2017-06-18T09:01:06.000Z</time>
      </trkpt>
      <trkpt lat="49.19467" lon="1.64664">
        <ele>109.17517089844</ele>
        <time>2017-06-18T09:01:08.000Z</time>
      </trkpt>
      <trkpt lat="49.19468" lon="1.64684">
        <ele>109.05124664307</ele>
        <time>2017-06-18T09:01:11.000Z</time>
      </trkpt>
      <trkpt lat="49.19468" lon="1.64698">
        <ele>108.94290924072</ele>
        <time>2017-06-18T09:01:13.000Z</time>
      </trkpt>
      <trkpt lat="49.19469" lon="1.64719">
        <ele>108.86518859863</ele>
        <time>2017-06-18T09:01:16.000Z</time>
      </trkpt>
      <trkpt lat="49.19469" lon="1.64733">
        <ele>108.81215667725</ele>
        <time>2017-06-18T09:01:18.000Z</time>
      </trkpt>
      <trkpt lat="49.19471" lon="1.64754">
        <ele>108.79748535156</ele>
        <time>2017-06-18T09:01:21.000Z</time>
      </trkpt>
      <trkpt lat="49.19471" lon="1.64768">
        <ele>108.78676605225</ele>
        <time>2017-06-18T09:01:23.000Z</time>
      </trkpt>
      <trkpt lat="49.19473" lon="1.64783">
        <ele>108.78172302246</ele>
        <time>2017-06-18T09:01:25.000Z</time>
      </trkpt>
      <trkpt lat="49.19474" lon="1.64808">
        <ele>108.75595855713</ele>
        <time>2017-06-18T09:01:28.000Z</time>
      </trkpt>
      <trkpt lat="49.19474" lon="1.64824">
        <ele>108.72338867188</ele>
        <time>2017-06-18T09:01:30.000Z</time>
      </trkpt>
      <trkpt lat="49.19475" lon="1.64841">
        <ele>108.65940856934</ele>
        <time>2017-06-18T09:01:32.000Z</time>
      </trkpt>
      <trkpt lat="49.19476" lon="1.64868">
        <ele>108.53244781494</ele>
        <time>2017-06-18T09:01:35.000Z</time>
      </trkpt>
      <trkpt lat="49.19477" lon="1.64886">
        <ele>108.35453796387</ele>
        <time>2017-06-18T09:01:37.000Z</time>
      </trkpt>
      <trkpt lat="49.19479" lon="1.64913">
        <ele>108.12811279297</ele>
        <time>2017-06-18T09:01:40.000Z</time>
      </trkpt>
      <trkpt lat="49.1948" lon="1.64931">
        <ele>107.83305358887</ele>
        <time>2017-06-18T09:01:42.000Z</time>
      </trkpt>
      <trkpt lat="49.19482" lon="1.64958">
        <ele>107.45918273926</ele>
        <time>2017-06-18T09:01:45.000Z</time>
      </trkpt>
      <trkpt lat="49.19482" lon="1.64975">
        <ele>107.06906890869</ele>
        <time>2017-06-18T09:01:47.000Z</time>
      </trkpt>
      <trkpt lat="49.19484" lon="1.64992">
        <ele>106.6572265625</ele>
        <time>2017-06-18T09:01:49.000Z</time>
      </trkpt>
      <trkpt lat="49.19485" lon="1.65017">
        <ele>106.33762359619</ele>
        <time>2017-06-18T09:01:52.000Z</time>
      </trkpt>
      <trkpt lat="49.19486" lon="1.65033">
        <ele>106.13053894043</ele>
        <time>2017-06-18T09:01:54.000Z</time>
      </trkpt>
      <trkpt lat="49.19488" lon="1.65058">
        <ele>106.10803222656</ele>
        <time>2017-06-18T09:01:57.000Z</time>
      </trkpt>
      <trkpt lat="49.19489" lon="1.65082">
        <ele>106.23896789551</ele>
        <time>2017-06-18T09:02:00.000Z</time>
      </trkpt>
      <trkpt lat="49.1949" lon="1.65099">
        <ele>106.42741394043</ele>
        <time>2017-06-18T09:02:02.000Z</time>
      </trkpt>
      <trkpt lat="49.19491" lon="1.65123">
        <ele>106.5682220459</ele>
        <time>2017-06-18T09:02:05.000Z</time>
      </trkpt>
      <trkpt lat="49.19493" lon="1.65147">
        <ele>106.658203125</ele>
        <time>2017-06-18T09:02:08.000Z</time>
      </trkpt>
      <trkpt lat="49.19494" lon="1.6517">
        <ele>106.64753723145</ele>
        <time>2017-06-18T09:02:11.000Z</time>
      </trkpt>
      <trkpt lat="49.19497" lon="1.65193">
        <ele>106.61285400391</ele>
        <time>2017-06-18T09:02:14.000Z</time>
      </trkpt>
      <trkpt lat="49.19498" lon="1.65217">
        <ele>106.61496734619</ele>
        <time>2017-06-18T09:02:17.000Z</time>
      </trkpt>
      <trkpt lat="49.195" lon="1.65232">
        <ele>106.68592834473</ele>
        <time>2017-06-18T09:02:19.000Z</time>
      </trkpt>
      <trkpt lat="49.19503" lon="1.65254">
        <ele>106.78902435303</ele>
        <time>2017-06-18T09:02:22.000Z</time>
      </trkpt>
      <trkpt lat="49.19506" lon="1.65276">
        <ele>106.88415527344</ele>
        <time>2017-06-18T09:02:25.000Z</time>
      </trkpt>
      <trkpt lat="49.19509" lon="1.6529">
        <ele>106.92100524902</ele>
        <time>2017-06-18T09:02:27.000Z</time>
      </trkpt>
      <trkpt lat="49.19514" lon="1.6531">
        <ele>106.92014312744</ele>
        <time>2017-06-18T09:02:30.000Z</time>
      </trkpt>
      <trkpt lat="49.19516" lon="1.65323">
        <ele>106.86260986328</ele>
        <time>2017-06-18T09:02:32.000Z</time>
      </trkpt>
      <trkpt lat="49.19519" lon="1.65337">
        <ele>106.7731552124</ele>
        <time>2017-06-18T09:02:34.000Z</time>
      </trkpt>
      <trkpt lat="49.19524" lon="1.65359">
        <ele>106.66581726074</ele>
        <time>2017-06-18T09:02:37.000Z</time>
      </trkpt>
      <trkpt lat="49.1953" lon="1.6538">
        <ele>106.51631164551</ele>
        <time>2017-06-18T09:02:40.000Z</time>
      </trkpt>
      <trkpt lat="49.19534" lon="1.65394">
        <ele>106.34358978271</ele>
        <time>2017-06-18T09:02:42.000Z</time>
      </trkpt>
      <trkpt lat="49.19538" lon="1.65414">
        <ele>106.10810852051</ele>
        <time>2017-06-18T09:02:45.000Z</time>
      </trkpt>
      <trkpt lat="49.19542" lon="1.65428">
        <ele>105.77669525146</ele>
        <time>2017-06-18T09:02:47.000Z</time>
      </trkpt>
      <trkpt lat="49.19546" lon="1.65441">
        <ele>105.36036682129</ele>
        <time>2017-06-18T09:02:49.000Z</time>
      </trkpt>
      <trkpt lat="49.19551" lon="1.65462">
        <ele>104.77683258057</ele>
        <time>2017-06-18T09:02:52.000Z</time>
      </trkpt>
      <trkpt lat="49.19558" lon="1.65482">
        <ele>103.98182678223</ele>
        <time>2017-06-18T09:02:55.000Z</time>
      </trkpt>
      <trkpt lat="49.19563" lon="1.65503">
        <ele>103.02101135254</ele>
        <time>2017-06-18T09:02:58.000Z</time>
      </trkpt>
      <trkpt lat="49.19567" lon="1.65519">
        <ele>102.13758087158</ele>
        <time>2017-06-18T09:03:00.000Z</time>
      </trkpt>
      <trkpt lat="49.19575" lon="1.65543">
        <ele>101.32601928711</ele>
        <time>2017-06-18T09:03:03.000Z</time>
      </trkpt>
      <trkpt lat="49.19579" lon="1.65559">
        <ele>100.71346282959</ele>
        <time>2017-06-18T09:03:05.000Z</time>
      </trkpt>
      <trkpt lat="49.19583" lon="1.65575">
        <ele>100.3257598877</ele>
        <time>2017-06-18T09:03:07.000Z</time>
      </trkpt>
      <trkpt lat="49.19591" lon="1.65601">
        <ele>100.09859466553</ele>
        <time>2017-06-18T09:03:10.000Z</time>
      </trkpt>
      <trkpt lat="49.19595" lon="1.6562">
        <ele>99.886009216309</ele>
        <time>2017-06-18T09:03:12.000Z</time>
      </trkpt>
      <trkpt lat="49.19601" lon="1.65638">
        <ele>99.69563293457</ele>
        <time>2017-06-18T09:03:14.000Z</time>
      </trkpt>
      <trkpt lat="49.1961" lon="1.65667">
        <ele>99.488052368164</ele>
        <time>2017-06-18T09:03:17.000Z</time>
      </trkpt>
      <trkpt lat="49.19617" lon="1.65697">
        <ele>99.079177856445</ele>
        <time>2017-06-18T09:03:20.000Z</time>
      </trkpt>
      <trkpt lat="49.19622" lon="1.65717">
        <ele>98.615577697754</ele>
        <time>2017-06-18T09:03:22.000Z</time>
      </trkpt>
      <trkpt lat="49.19629" lon="1.65736">
        <ele>98.023452758789</ele>
        <time>2017-06-18T09:03:24.000Z</time>
      </trkpt>
      <trkpt lat="49.19641" lon="1.65763">
        <ele>97.183212280273</ele>
        <time>2017-06-18T09:03:27.000Z</time>
      </trkpt>
      <trkpt lat="49.19651" lon="1.65781">
        <ele>96.175636291504</ele>
        <time>2017-06-18T09:03:29.000Z</time>
      </trkpt>
      <trkpt lat="49.19661" lon="1.65798">
        <ele>95.208396911621</ele>
        <time>2017-06-18T09:03:31.000Z</time>
      </trkpt>
      <trkpt lat="49.1967" lon="1.65815">
        <ele>94.167289733887</ele>
        <time>2017-06-18T09:03:33.000Z</time>
      </trkpt>
      <trkpt lat="49.19679" lon="1.65833">
        <ele>93.020385742188</ele>
        <time>2017-06-18T09:03:35.000Z</time>
      </trkpt>
      <trkpt lat="49.19686" lon="1.65853">
        <ele>92.001319885254</ele>
        <time>2017-06-18T09:03:37.000Z</time>
      </trkpt>
      <trkpt lat="49.19693" lon="1.65883">
        <ele>91.039352416992</ele>
        <time>2017-06-18T09:03:40.000Z</time>
      </trkpt>
      <trkpt lat="49.19699" lon="1.65913">
        <ele>90.153198242188</ele>
        <time>2017-06-18T09:03:43.000Z</time>
      </trkpt>
      <trkpt lat="49.19702" lon="1.65933">
        <ele>89.406150817871</ele>
        <time>2017-06-18T09:03:45.000Z</time>
      </trkpt>
      <trkpt lat="49.19706" lon="1.65964">
        <ele>88.822525024414</ele>
        <time>2017-06-18T09:03:48.000Z</time>
      </trkpt>
      <trkpt lat="49.19708" lon="1.65984">
        <ele>88.347549438477</ele>
        <time>2017-06-18T09:03:50.000Z</time>
      </trkpt>
      <trkpt lat="49.19715" lon="1.66012">
        <ele>87.974052429199</ele>
        <time>2017-06-18T09:03:53.000Z</time>
      </trkpt>
      <trkpt lat="49.19725" lon="1.66038">
        <ele>87.71573638916</ele>
        <time>2017-06-18T09:03:56.000Z</time>
      </trkpt>
      <trkpt lat="49.19735" lon="1.66065">
        <ele>87.583374023438</ele>
        <time>2017-06-18T09:03:59.000Z</time>
      </trkpt>
      <trkpt lat="49.19751" lon="1.66083">
        <ele>87.599853515625</ele>
        <time>2017-06-18T09:04:02.000Z</time>
      </trkpt>
      <trkpt lat="49.19763" lon="1.66084">
        <ele>87.455139160156</ele>
        <time>2017-06-18T09:04:04.000Z</time>
      </trkpt>
      <trkpt lat="49.19782" lon="1.6608">
        <ele>87.018516540527</ele>
        <time>2017-06-18T09:04:07.000Z</time>
      </trkpt>
      <trkpt lat="49.19804" lon="1.66085">
        <ele>86.252479553223</ele>
        <time>2017-06-18T09:04:10.000Z</time>
      </trkpt>
      <trkpt lat="49.19822" lon="1.66093">
        <ele>85.188346862793</ele>
        <time>2017-06-18T09:04:13.000Z</time>
      </trkpt>
      <trkpt lat="49.19834" lon="1.66098">
        <ele>83.916702270508</ele>
        <time>2017-06-18T09:04:15.000Z</time>
      </trkpt>
      <trkpt lat="49.19845" lon="1.66108">
        <ele>82.520889282227</ele>
        <time>2017-06-18T09:04:17.000Z</time>
      </trkpt>
      <trkpt lat="49.19855" lon="1.66123">
        <ele>81.199073791504</ele>
        <time>2017-06-18T09:04:19.000Z</time>
      </trkpt>
      <trkpt lat="49.19869" lon="1.6614">
        <ele>79.80493927002</ele>
        <time>2017-06-18T09:04:22.000Z</time>
      </trkpt>
      <trkpt lat="49.19877" lon="1.66138">
        <ele>78.326446533203</ele>
        <time>2017-06-18T09:04:24.000Z</time>
      </trkpt>
      <trkpt lat="49.19878" lon="1.66112">
        <ele>76.715476989746</ele>
        <time>2017-06-18T09:04:27.000Z</time>
      </trkpt>
      <trkpt lat="49.19881" lon="1.66071">
        <ele>74.987838745117</ele>
        <time>2017-06-18T09:04:30.000Z</time>
      </trkpt>
      <trkpt lat="49.19883" lon="1.66043">
        <ele>73.196395874023</ele>
        <time>2017-06-18T09:04:32.000Z</time>
      </trkpt>
      <trkpt lat="49.19885" lon="1.65997">
        <ele>71.282501220703</ele>
        <time>2017-06-18T09:04:35.000Z</time>
      </trkpt>
      <trkpt lat="49.1989" lon="1.65949">
        <ele>69.530044555664</ele>
        <time>2017-06-18T09:04:38.000Z</time>
      </trkpt>
      <trkpt lat="49.19892" lon="1.65919">
        <ele>67.999588012695</ele>
        <time>2017-06-18T09:04:40.000Z</time>
      </trkpt>
      <trkpt lat="49.19898" lon="1.65875">
        <ele>66.730514526367</ele>
        <time>2017-06-18T09:04:43.000Z</time>
      </trkpt>
      <trkpt lat="49.19902" lon="1.65845">
        <ele>65.653213500977</ele>
        <time>2017-06-18T09:04:45.000Z</time>
      </trkpt>
      <trkpt lat="49.19907" lon="1.65817">
        <ele>64.869979858398</ele>
        <time>2017-06-18T09:04:47.000Z</time>
      </trkpt>
      <trkpt lat="49.19916" lon="1.65775">
        <ele>63.767101287842</ele>
        <time>2017-06-18T09:04:50.000Z</time>
      </trkpt>
      <trkpt lat="49.19921" lon="1.65746">
        <ele>62.635204315186</ele>
        <time>2017-06-18T09:04:52.000Z</time>
      </trkpt>
      <trkpt lat="49.19928" lon="1.65717">
        <ele>61.950950622559</ele>
        <time>2017-06-18T09:04:54.000Z</time>
      </trkpt>
      <trkpt lat="49.19941" lon="1.65679">
        <ele>61.644481658936</ele>
        <time>2017-06-18T09:04:57.000Z</time>
      </trkpt>
      <trkpt lat="49.19954" lon="1.6566">
        <ele>61.604309082031</ele>
        <time>2017-06-18T09:04:59.000Z</time>
      </trkpt>
      <trkpt lat="49.19973" lon="1.65635">
        <ele>62.038166046143</ele>
        <time>2017-06-18T09:05:02.000Z</time>
      </trkpt>
      <trkpt lat="49.19985" lon="1.65621">
        <ele>62.486625671387</ele>
        <time>2017-06-18T09:05:04.000Z</time>
      </trkpt>
      <trkpt lat="49.20001" lon="1.65601">
        <ele>62.564014434814</ele>
        <time>2017-06-18T09:05:07.000Z</time>
      </trkpt>
      <trkpt lat="49.20016" lon="1.65584">
        <ele>62.695434570312</ele>
        <time>2017-06-18T09:05:10.000Z</time>
      </trkpt>
      <trkpt lat="49.2003" lon="1.65568">
        <ele>63.064392089844</ele>
        <time>2017-06-18T09:05:13.000Z</time>
      </trkpt>
      <trkpt lat="49.20039" lon="1.65563">
        <ele>63.58895111084</ele>
        <time>2017-06-18T09:05:15.000Z</time>
      </trkpt>
      <trkpt lat="49.20047" lon="1.65571">
        <ele>64.293838500977</ele>
        <time>2017-06-18T09:05:18.000Z</time>
      </trkpt>
      <trkpt lat="49.20048" lon="1.6558">
        <ele>65.121780395508</ele>
        <time>2017-06-18T09:05:20.000Z</time>
      </trkpt>
      <trkpt lat="49.20047" lon="1.65596">
        <ele>65.64688873291</ele>
        <time>2017-06-18T09:05:23.000Z</time>
      </trkpt>
      <trkpt lat="49.20047" lon="1.65606">
        <ele>65.888801574707</ele>
        <time>2017-06-18T09:05:25.000Z</time>
      </trkpt>
      <trkpt lat="49.20046" lon="1.65621">
        <ele>65.976943969727</ele>
        <time>2017-06-18T09:05:28.000Z</time>
      </trkpt>
      <trkpt lat="49.20045" lon="1.6563">
        <ele>65.955360412598</ele>
        <time>2017-06-18T09:05:30.000Z</time>
      </trkpt>
      <trkpt lat="49.20045" lon="1.6564">
        <ele>65.917945861816</ele>
        <time>2017-06-18T09:05:32.000Z</time>
      </trkpt>
      <trkpt lat="49.20045" lon="1.65654">
        <ele>65.894027709961</ele>
        <time>2017-06-18T09:05:35.000Z</time>
      </trkpt>
      <trkpt lat="49.20045" lon="1.65667">
        <ele>65.868591308594</ele>
        <time>2017-06-18T09:05:38.000Z</time>
      </trkpt>
      <trkpt lat="49.20044" lon="1.65679">
        <ele>65.877304077148</ele>
        <time>2017-06-18T09:05:42.000Z</time>
      </trkpt>
      <trkpt lat="49.20044" lon="1.65688">
        <ele>65.903022766113</ele>
        <time>2017-06-18T09:05:43.000Z</time>
      </trkpt>
      <trkpt lat="49.20043" lon="1.657">
        <ele>65.937133789062</ele>
        <time>2017-06-18T09:05:46.000Z</time>
      </trkpt>
      <trkpt lat="49.20042" lon="1.65708">
        <ele>65.979080200195</ele>
        <time>2017-06-18T09:05:48.000Z</time>
      </trkpt>
      <trkpt lat="49.20042" lon="1.6572">
        <ele>66.035568237305</ele>
        <time>2017-06-18T09:05:51.000Z</time>
      </trkpt>
      <trkpt lat="49.20041" lon="1.65732">
        <ele>66.076515197754</ele>
        <time>2017-06-18T09:05:54.000Z</time>
      </trkpt>
      <trkpt lat="49.2004" lon="1.65744">
        <ele>66.112426757812</ele>
        <time>2017-06-18T09:05:57.000Z</time>
      </trkpt>
      <trkpt lat="49.2004" lon="1.65755">
        <ele>66.149314880371</ele>
        <time>2017-06-18T09:06:00.000Z</time>
      </trkpt>
      <trkpt lat="49.2004" lon="1.65763">
        <ele>66.157844543457</ele>
        <time>2017-06-18T09:06:02.000Z</time>
      </trkpt>
      <trkpt lat="49.20041" lon="1.65771">
        <ele>66.159675598145</ele>
        <time>2017-06-18T09:06:06.000Z</time>
      </trkpt>
      <trkpt lat="49.20042" lon="1.65778">
        <ele>66.156394958496</ele>
        <time>2017-06-18T09:06:06.000Z</time>
      </trkpt>
      <trkpt lat="49.20044" lon="1.65785">
        <ele>66.189231872559</ele>
        <time>2017-06-18T09:06:08.000Z</time>
      </trkpt>
      <trkpt lat="49.20049" lon="1.65795">
        <ele>66.301773071289</ele>
        <time>2017-06-18T09:06:11.000Z</time>
      </trkpt>
      <trkpt lat="49.20052" lon="1.65801">
        <ele>66.501754760742</ele>
        <time>2017-06-18T09:06:13.000Z</time>
      </trkpt>
      <trkpt lat="49.20056" lon="1.65806">
        <ele>66.769218444824</ele>
        <time>2017-06-18T09:06:15.000Z</time>
      </trkpt>
      <trkpt lat="49.2006" lon="1.6581">
        <ele>67.112548828125</ele>
        <time>2017-06-18T09:06:17.000Z</time>
      </trkpt>
      <trkpt lat="49.20066" lon="1.65817">
        <ele>67.528549194336</ele>
        <time>2017-06-18T09:06:20.000Z</time>
      </trkpt>
      <trkpt lat="49.20072" lon="1.65823">
        <ele>67.965744018555</ele>
        <time>2017-06-18T09:06:23.000Z</time>
      </trkpt>
      <trkpt lat="49.20076" lon="1.65827">
        <ele>68.414810180664</ele>
        <time>2017-06-18T09:06:25.000Z</time>
      </trkpt>
      <trkpt lat="49.2008" lon="1.6583">
        <ele>68.866256713867</ele>
        <time>2017-06-18T09:06:27.000Z</time>
      </trkpt>
      <trkpt lat="49.20087" lon="1.65836">
        <ele>69.354721069336</ele>
        <time>2017-06-18T09:06:30.000Z</time>
      </trkpt>
      <trkpt lat="49.20094" lon="1.65841">
        <ele>69.86595916748</ele>
        <time>2017-06-18T09:06:33.000Z</time>
      </trkpt>
      <trkpt lat="49.20099" lon="1.65843">
        <ele>70.377517700195</ele>
        <time>2017-06-18T09:06:35.000Z</time>
      </trkpt>
      <trkpt lat="49.20105" lon="1.65842">
        <ele>70.948471069336</ele>
        <time>2017-06-18T09:06:37.000Z</time>
      </trkpt>
      <trkpt lat="49.2011" lon="1.65832">
        <ele>71.658668518066</ele>
        <time>2017-06-18T09:06:40.000Z</time>
      </trkpt>
      <trkpt lat="49.2011" lon="1.65821">
        <ele>72.293464660645</ele>
        <time>2017-06-18T09:06:42.000Z</time>
      </trkpt>
      <trkpt lat="49.20108" lon="1.65806">
        <ele>72.814163208008</ele>
        <time>2017-06-18T09:06:45.000Z</time>
      </trkpt>
      <trkpt lat="49.20106" lon="1.65797">
        <ele>73.233772277832</ele>
        <time>2017-06-18T09:06:47.000Z</time>
      </trkpt>
      <trkpt lat="49.20105" lon="1.65789">
        <ele>73.534362792969</ele>
        <time>2017-06-18T09:06:49.000Z</time>
      </trkpt>
      <trkpt lat="49.20106" lon="1.6578">
        <ele>73.673034667969</ele>
        <time>2017-06-18T09:06:51.000Z</time>
      </trkpt>
      <trkpt lat="49.20107" lon="1.65773">
        <ele>73.828125</ele>
        <time>2017-06-18T09:06:53.000Z</time>
      </trkpt>
      <trkpt lat="49.20109" lon="1.65762">
        <ele>74.061279296875</ele>
        <time>2017-06-18T09:06:56.000Z</time>
      </trkpt>
      <trkpt lat="49.20112" lon="1.65752">
        <ele>74.424438476562</ele>
        <time>2017-06-18T09:06:59.000Z</time>
      </trkpt>
      <trkpt lat="49.20114" lon="1.65742">
        <ele>74.789611816406</ele>
        <time>2017-06-18T09:07:02.000Z</time>
      </trkpt>
      <trkpt lat="49.20118" lon="1.65731">
        <ele>75.176025390625</ele>
        <time>2017-06-18T09:07:05.000Z</time>
      </trkpt>
      <trkpt lat="49.20121" lon="1.65725">
        <ele>75.54972076416</ele>
        <time>2017-06-18T09:07:07.000Z</time>
      </trkpt>
      <trkpt lat="49.20125" lon="1.65715">
        <ele>75.912002563477</ele>
        <time>2017-06-18T09:07:10.000Z</time>
      </trkpt>
      <trkpt lat="49.20128" lon="1.65709">
        <ele>76.201072692871</ele>
        <time>2017-06-18T09:07:12.000Z</time>
      </trkpt>
      <trkpt lat="49.20132" lon="1.657">
        <ele>76.566932678223</ele>
        <time>2017-06-18T09:07:15.000Z</time>
      </trkpt>
      <trkpt lat="49.20136" lon="1.65692">
        <ele>76.945877075195</ele>
        <time>2017-06-18T09:07:18.000Z</time>
      </trkpt>
      <trkpt lat="49.2014" lon="1.65684">
        <ele>77.380271911621</ele>
        <time>2017-06-18T09:07:21.000Z</time>
      </trkpt>
      <trkpt lat="49.20143" lon="1.65678">
        <ele>77.806396484375</ele>
        <time>2017-06-18T09:07:23.000Z</time>
      </trkpt>
      <trkpt lat="49.20147" lon="1.6567">
        <ele>78.277694702148</ele>
        <time>2017-06-18T09:07:26.000Z</time>
      </trkpt>
      <trkpt lat="49.20151" lon="1.65662">
        <ele>78.728698730469</ele>
        <time>2017-06-18T09:07:29.000Z</time>
      </trkpt>
      <trkpt lat="49.20156" lon="1.65654">
        <ele>79.20093536377</ele>
        <time>2017-06-18T09:07:32.000Z</time>
      </trkpt>
      <trkpt lat="49.20159" lon="1.65649">
        <ele>79.631958007812</ele>
        <time>2017-06-18T09:07:34.000Z</time>
      </trkpt>
      <trkpt lat="49.20163" lon="1.65641">
        <ele>80.059944152832</ele>
        <time>2017-06-18T09:07:37.000Z</time>
      </trkpt>
      <trkpt lat="49.20167" lon="1.65633">
        <ele>80.465133666992</ele>
        <time>2017-06-18T09:07:40.000Z</time>
      </trkpt>
      <trkpt lat="49.20171" lon="1.65626">
        <ele>80.823509216309</ele>
        <time>2017-06-18T09:07:43.000Z</time>
      </trkpt>
      <trkpt lat="49.20174" lon="1.6562">
        <ele>81.105621337891</ele>
        <time>2017-06-18T09:07:45.000Z</time>
      </trkpt>
      <trkpt lat="49.20179" lon="1.65612">
        <ele>81.391036987305</ele>
        <time>2017-06-18T09:07:48.000Z</time>
      </trkpt>
      <trkpt lat="49.20183" lon="1.65603">
        <ele>81.653465270996</ele>
        <time>2017-06-18T09:07:51.000Z</time>
      </trkpt>
      <trkpt lat="49.20188" lon="1.65594">
        <ele>81.899841308594</ele>
        <time>2017-06-18T09:07:54.000Z</time>
      </trkpt>
      <trkpt lat="49.20193" lon="1.65585">
        <ele>82.187705993652</ele>
        <time>2017-06-18T09:07:57.000Z</time>
      </trkpt>
      <trkpt lat="49.20195" lon="1.6558">
        <ele>82.480972290039</ele>
        <time>2017-06-18T09:07:59.000Z</time>
      </trkpt>
      <trkpt lat="49.202" lon="1.65572">
        <ele>82.788368225098</ele>
        <time>2017-06-18T09:08:02.000Z</time>
      </trkpt>
      <trkpt lat="49.20205" lon="1.65564">
        <ele>83.114631652832</ele>
        <time>2017-06-18T09:08:05.000Z</time>
      </trkpt>
      <trkpt lat="49.20208" lon="1.65558">
        <ele>83.417106628418</ele>
        <time>2017-06-18T09:08:07.000Z</time>
      </trkpt>
      <trkpt lat="49.20213" lon="1.6555">
        <ele>83.724143981934</ele>
        <time>2017-06-18T09:08:10.000Z</time>
      </trkpt>
      <trkpt lat="49.20218" lon="1.65542">
        <ele>84.08097076416</ele>
        <time>2017-06-18T09:08:13.000Z</time>
      </trkpt>
      <trkpt lat="49.20221" lon="1.65536">
        <ele>84.41968536377</ele>
        <time>2017-06-18T09:08:15.000Z</time>
      </trkpt>
      <trkpt lat="49.20226" lon="1.65528">
        <ele>84.761497497559</ele>
        <time>2017-06-18T09:08:18.000Z</time>
      </trkpt>
      <trkpt lat="49.20229" lon="1.65524">
        <ele>85.120948791504</ele>
        <time>2017-06-18T09:08:20.000Z</time>
      </trkpt>
      <trkpt lat="49.20233" lon="1.65516">
        <ele>85.484634399414</ele>
        <time>2017-06-18T09:08:23.000Z</time>
      </trkpt>
      <trkpt lat="49.20238" lon="1.65509">
        <ele>85.849838256836</ele>
        <time>2017-06-18T09:08:26.000Z</time>
      </trkpt>
      <trkpt lat="49.20243" lon="1.65502">
        <ele>86.254409790039</ele>
        <time>2017-06-18T09:08:29.000Z</time>
      </trkpt>
      <trkpt lat="49.20246" lon="1.65497">
        <ele>86.646575927734</ele>
        <time>2017-06-18T09:08:31.000Z</time>
      </trkpt>
      <trkpt lat="49.20251" lon="1.65489">
        <ele>87.077568054199</ele>
        <time>2017-06-18T09:08:34.000Z</time>
      </trkpt>
      <trkpt lat="49.20255" lon="1.65485">
        <ele>87.467636108398</ele>
        <time>2017-06-18T09:08:36.000Z</time>
      </trkpt>
      <trkpt lat="49.20259" lon="1.65478">
        <ele>87.830047607422</ele>
        <time>2017-06-18T09:08:39.000Z</time>
      </trkpt>
      <trkpt lat="49.20265" lon="1.6547">
        <ele>88.160949707031</ele>
        <time>2017-06-18T09:08:42.000Z</time>
      </trkpt>
      <trkpt lat="49.20268" lon="1.65465">
        <ele>88.466575622559</ele>
        <time>2017-06-18T09:08:44.000Z</time>
      </trkpt>
      <trkpt lat="49.20273" lon="1.65458">
        <ele>88.735855102539</ele>
        <time>2017-06-18T09:08:47.000Z</time>
      </trkpt>
      <trkpt lat="49.20279" lon="1.65451">
        <ele>89.039566040039</ele>
        <time>2017-06-18T09:08:50.000Z</time>
      </trkpt>
      <trkpt lat="49.20284" lon="1.65444">
        <ele>89.358337402344</ele>
        <time>2017-06-18T09:08:53.000Z</time>
      </trkpt>
      <trkpt lat="49.2029" lon="1.65436">
        <ele>89.693954467773</ele>
        <time>2017-06-18T09:08:56.000Z</time>
      </trkpt>
      <trkpt lat="49.20293" lon="1.65431">
        <ele>90.036148071289</ele>
        <time>2017-06-18T09:08:58.000Z</time>
      </trkpt>
      <trkpt lat="49.20296" lon="1.65426">
        <ele>90.370254516602</ele>
        <time>2017-06-18T09:09:00.000Z</time>
      </trkpt>
      <trkpt lat="49.20302" lon="1.65419">
        <ele>90.707565307617</ele>
        <time>2017-06-18T09:09:03.000Z</time>
      </trkpt>
      <trkpt lat="49.20307" lon="1.65411">
        <ele>91.054817199707</ele>
        <time>2017-06-18T09:09:07.000Z</time>
      </trkpt>
      <trkpt lat="49.20311" lon="1.65406">
        <ele>91.379135131836</ele>
        <time>2017-06-18T09:09:08.000Z</time>
      </trkpt>
      <trkpt lat="49.20316" lon="1.65399">
        <ele>91.743118286133</ele>
        <time>2017-06-18T09:09:11.000Z</time>
      </trkpt>
      <trkpt lat="49.20321" lon="1.65391">
        <ele>92.134231567383</ele>
        <time>2017-06-18T09:09:14.000Z</time>
      </trkpt>
      <trkpt lat="49.20326" lon="1.65384">
        <ele>92.528785705566</ele>
        <time>2017-06-18T09:09:17.000Z</time>
      </trkpt>
      <trkpt lat="49.2033" lon="1.6538">
        <ele>92.905014038086</ele>
        <time>2017-06-18T09:09:19.000Z</time>
      </trkpt>
      <trkpt lat="49.20335" lon="1.65372">
        <ele>93.315383911133</ele>
        <time>2017-06-18T09:09:23.000Z</time>
      </trkpt>
      <trkpt lat="49.20341" lon="1.65365">
        <ele>93.714782714844</ele>
        <time>2017-06-18T09:09:25.000Z</time>
      </trkpt>
      <trkpt lat="49.20346" lon="1.65358">
        <ele>94.114349365234</ele>
        <time>2017-06-18T09:09:28.000Z</time>
      </trkpt>
      <trkpt lat="49.20351" lon="1.65351">
        <ele>94.518104553223</ele>
        <time>2017-06-18T09:09:31.000Z</time>
      </trkpt>
      <trkpt lat="49.20355" lon="1.65346">
        <ele>94.922378540039</ele>
        <time>2017-06-18T09:09:33.000Z</time>
      </trkpt>
      <trkpt lat="49.2036" lon="1.65339">
        <ele>95.326614379883</ele>
        <time>2017-06-18T09:09:36.000Z</time>
      </trkpt>
      <trkpt lat="49.20365" lon="1.65332">
        <ele>95.747116088867</ele>
        <time>2017-06-18T09:09:39.000Z</time>
      </trkpt>
      <trkpt lat="49.20369" lon="1.65324">
        <ele>96.157974243164</ele>
        <time>2017-06-18T09:09:42.000Z</time>
      </trkpt>
      <trkpt lat="49.20375" lon="1.65317">
        <ele>96.561866760254</ele>
        <time>2017-06-18T09:09:45.000Z</time>
      </trkpt>
      <trkpt lat="49.2038" lon="1.6531">
        <ele>96.984519958496</ele>
        <time>2017-06-18T09:09:48.000Z</time>
      </trkpt>
      <trkpt lat="49.20385" lon="1.65303">
        <ele>97.399955749512</ele>
        <time>2017-06-18T09:09:51.000Z</time>
      </trkpt>
      <trkpt lat="49.20389" lon="1.65298">
        <ele>97.784210205078</ele>
        <time>2017-06-18T09:09:53.000Z</time>
      </trkpt>
      <trkpt lat="49.20393" lon="1.65293">
        <ele>98.15771484375</ele>
        <time>2017-06-18T09:09:55.000Z</time>
      </trkpt>
      <trkpt lat="49.20399" lon="1.65284">
        <ele>98.555335998535</ele>
        <time>2017-06-18T09:09:58.000Z</time>
      </trkpt>
      <trkpt lat="49.20405" lon="1.65276">
        <ele>98.977439880371</ele>
        <time>2017-06-18T09:10:01.000Z</time>
      </trkpt>
      <trkpt lat="49.20409" lon="1.65269">
        <ele>99.38737487793</ele>
        <time>2017-06-18T09:10:03.000Z</time>
      </trkpt>
      <trkpt lat="49.20416" lon="1.65259">
        <ele>99.872863769531</ele>
        <time>2017-06-18T09:10:06.000Z</time>
      </trkpt>
      <trkpt lat="49.20421" lon="1.65252">
        <ele>100.42178344727</ele>
        <time>2017-06-18T09:10:08.000Z</time>
      </trkpt>
      <trkpt lat="49.20429" lon="1.65241">
        <ele>101.05168151855</ele>
        <time>2017-06-18T09:10:11.000Z</time>
      </trkpt>
      <trkpt lat="49.20438" lon="1.65228">
        <ele>101.76123046875</ele>
        <time>2017-06-18T09:10:14.000Z</time>
      </trkpt>
      <trkpt lat="49.20441" lon="1.65223">
        <ele>102.47397613525</ele>
        <time>2017-06-18T09:10:16.000Z</time>
      </trkpt>
      <trkpt lat="49.20448" lon="1.65213">
        <ele>103.18424987793</ele>
        <time>2017-06-18T09:10:19.000Z</time>
      </trkpt>
      <trkpt lat="49.20452" lon="1.65205">
        <ele>103.8145980835</ele>
        <time>2017-06-18T09:10:21.000Z</time>
      </trkpt>
      <trkpt lat="49.20459" lon="1.65194">
        <ele>104.38320159912</ele>
        <time>2017-06-18T09:10:24.000Z</time>
      </trkpt>
      <trkpt lat="49.20463" lon="1.65188">
        <ele>104.83657073975</ele>
        <time>2017-06-18T09:10:26.000Z</time>
      </trkpt>
      <trkpt lat="49.20467" lon="1.6518">
        <ele>105.27062988281</ele>
        <time>2017-06-18T09:10:29.000Z</time>
      </trkpt>
      <trkpt lat="49.20469" lon="1.65173">
        <ele>105.5856552124</ele>
        <time>2017-06-18T09:10:32.000Z</time>
      </trkpt>
      <trkpt lat="49.2047" lon="1.65167">
        <ele>105.85646057129</ele>
        <time>2017-06-18T09:10:35.000Z</time>
      </trkpt>
      <trkpt lat="49.20473" lon="1.65164">
        <ele>106.06858062744</ele>
        <time>2017-06-18T09:10:37.000Z</time>
      </trkpt>
      <trkpt lat="49.20477" lon="1.65156">
        <ele>106.23197174072</ele>
        <time>2017-06-18T09:10:40.000Z</time>
      </trkpt>
      <trkpt lat="49.20478" lon="1.65148">
        <ele>106.31982421875</ele>
        <time>2017-06-18T09:10:42.000Z</time>
      </trkpt>
      <trkpt lat="49.20482" lon="1.65135">
        <ele>106.38655090332</ele>
        <time>2017-06-18T09:10:45.000Z</time>
      </trkpt>
      <trkpt lat="49.20486" lon="1.65127">
        <ele>106.48795318604</ele>
        <time>2017-06-18T09:10:47.000Z</time>
      </trkpt>
      <trkpt lat="49.20493" lon="1.6511">
        <ele>106.513671875</ele>
        <time>2017-06-18T09:10:50.000Z</time>
      </trkpt>
      <trkpt lat="49.20499" lon="1.65097">
        <ele>106.52011871338</ele>
        <time>2017-06-18T09:10:53.000Z</time>
      </trkpt>
      <trkpt lat="49.20503" lon="1.65088">
        <ele>106.56357574463</ele>
        <time>2017-06-18T09:10:55.000Z</time>
      </trkpt>
      <trkpt lat="49.20507" lon="1.6508">
        <ele>106.64658355713</ele>
        <time>2017-06-18T09:10:57.000Z</time>
      </trkpt>
      <trkpt lat="49.2051" lon="1.65073">
        <ele>106.77453613281</ele>
        <time>2017-06-18T09:10:59.000Z</time>
      </trkpt>
      <trkpt lat="49.20514" lon="1.65062">
        <ele>106.9783706665</ele>
        <time>2017-06-18T09:11:02.000Z</time>
      </trkpt>
      <trkpt lat="49.20517" lon="1.65052">
        <ele>107.24568939209</ele>
        <time>2017-06-18T09:11:05.000Z</time>
      </trkpt>
      <trkpt lat="49.2052" lon="1.65039">
        <ele>107.55964660645</ele>
        <time>2017-06-18T09:11:08.000Z</time>
      </trkpt>
      <trkpt lat="49.20522" lon="1.65031">
        <ele>107.8938369751</ele>
        <time>2017-06-18T09:11:10.000Z</time>
      </trkpt>
      <trkpt lat="49.20526" lon="1.65019">
        <ele>108.22956848145</ele>
        <time>2017-06-18T09:11:13.000Z</time>
      </trkpt>
      <trkpt lat="49.20528" lon="1.65011">
        <ele>108.55572509766</ele>
        <time>2017-06-18T09:11:15.000Z</time>
      </trkpt>
      <trkpt lat="49.20532" lon="1.64999">
        <ele>108.89479064941</ele>
        <time>2017-06-18T09:11:18.000Z</time>
      </trkpt>
      <trkpt lat="49.20537" lon="1.64987">
        <ele>109.22525787354</ele>
        <time>2017-06-18T09:11:21.000Z</time>
      </trkpt>
      <trkpt lat="49.20539" lon="1.64979">
        <ele>109.52402496338</ele>
        <time>2017-06-18T09:11:23.000Z</time>
      </trkpt>
      <trkpt lat="49.20544" lon="1.64966">
        <ele>109.7884979248</ele>
        <time>2017-06-18T09:11:26.000Z</time>
      </trkpt>
      <trkpt lat="49.20547" lon="1.64957">
        <ele>110.03480529785</ele>
        <time>2017-06-18T09:11:28.000Z</time>
      </trkpt>
      <trkpt lat="49.20551" lon="1.64945">
        <ele>110.24655914307</ele>
        <time>2017-06-18T09:11:31.000Z</time>
      </trkpt>
      <trkpt lat="49.20555" lon="1.64931">
        <ele>110.42451477051</ele>
        <time>2017-06-18T09:11:34.000Z</time>
      </trkpt>
      <trkpt lat="49.2056" lon="1.64917">
        <ele>110.61911773682</ele>
        <time>2017-06-18T09:11:37.000Z</time>
      </trkpt>
      <trkpt lat="49.20566" lon="1.64902">
        <ele>110.80374908447</ele>
        <time>2017-06-18T09:11:40.000Z</time>
      </trkpt>
      <trkpt lat="49.20572" lon="1.64886">
        <ele>110.96543121338</ele>
        <time>2017-06-18T09:11:43.000Z</time>
      </trkpt>
      <trkpt lat="49.20576" lon="1.64874">
        <ele>111.06703948975</ele>
        <time>2017-06-18T09:11:45.000Z</time>
      </trkpt>
      <trkpt lat="49.20583" lon="1.64854">
        <ele>111.11421966553</ele>
        <time>2017-06-18T09:11:48.000Z</time>
      </trkpt>
      <trkpt lat="49.20589" lon="1.64839">
        <ele>111.13737487793</ele>
        <time>2017-06-18T09:11:50.000Z</time>
      </trkpt>
      <trkpt lat="49.20595" lon="1.64824">
        <ele>111.13801574707</ele>
        <time>2017-06-18T09:11:52.000Z</time>
      </trkpt>
      <trkpt lat="49.20603" lon="1.64809">
        <ele>111.13325500488</ele>
        <time>2017-06-18T09:11:54.000Z</time>
      </trkpt>
      <trkpt lat="49.20616" lon="1.64791">
        <ele>111.18835449219</ele>
        <time>2017-06-18T09:11:57.000Z</time>
      </trkpt>
      <trkpt lat="49.20621" lon="1.64781">
        <ele>111.23439788818</ele>
        <time>2017-06-18T09:11:59.000Z</time>
      </trkpt>
      <trkpt lat="49.20629" lon="1.64772">
        <ele>111.2479019165</ele>
        <time>2017-06-18T09:12:01.000Z</time>
      </trkpt>
      <trkpt lat="49.20639" lon="1.64761">
        <ele>111.22226715088</ele>
        <time>2017-06-18T09:12:04.000Z</time>
      </trkpt>
      <trkpt lat="49.20648" lon="1.6475">
        <ele>111.10546875</ele>
        <time>2017-06-18T09:12:07.000Z</time>
      </trkpt>
      <trkpt lat="49.20657" lon="1.6474">
        <ele>110.93449401855</ele>
        <time>2017-06-18T09:12:10.000Z</time>
      </trkpt>
      <trkpt lat="49.20663" lon="1.64732">
        <ele>110.78546142578</ele>
        <time>2017-06-18T09:12:12.000Z</time>
      </trkpt>
      <trkpt lat="49.20673" lon="1.64721">
        <ele>110.55039215088</ele>
        <time>2017-06-18T09:12:15.000Z</time>
      </trkpt>
      <trkpt lat="49.2068" lon="1.64712">
        <ele>110.23750305176</ele>
        <time>2017-06-18T09:12:17.000Z</time>
      </trkpt>
      <trkpt lat="49.20691" lon="1.64698">
        <ele>109.85219573975</ele>
        <time>2017-06-18T09:12:20.000Z</time>
      </trkpt>
      <trkpt lat="49.20698" lon="1.64689">
        <ele>109.38232421875</ele>
        <time>2017-06-18T09:12:22.000Z</time>
      </trkpt>
      <trkpt lat="49.2071" lon="1.64675">
        <ele>108.79750061035</ele>
        <time>2017-06-18T09:12:25.000Z</time>
      </trkpt>
      <trkpt lat="49.20717" lon="1.64665">
        <ele>108.23333740234</ele>
        <time>2017-06-18T09:12:27.000Z</time>
      </trkpt>
      <trkpt lat="49.20725" lon="1.64655">
        <ele>107.75345611572</ele>
        <time>2017-06-18T09:12:29.000Z</time>
      </trkpt>
      <trkpt lat="49.20733" lon="1.64646">
        <ele>107.41847991943</ele>
        <time>2017-06-18T09:12:31.000Z</time>
      </trkpt>
      <trkpt lat="49.20744" lon="1.64632">
        <ele>107.1676864624</ele>
        <time>2017-06-18T09:12:34.000Z</time>
      </trkpt>
      <trkpt lat="49.20755" lon="1.64618">
        <ele>107.06960296631</ele>
        <time>2017-06-18T09:12:37.000Z</time>
      </trkpt>
      <trkpt lat="49.20763" lon="1.6461">
        <ele>107.0955581665</ele>
        <time>2017-06-18T09:12:39.000Z</time>
      </trkpt>
      <trkpt lat="49.2077" lon="1.64603">
        <ele>107.190574646</ele>
        <time>2017-06-18T09:12:41.000Z</time>
      </trkpt>
      <trkpt lat="49.20781" lon="1.64593">
        <ele>107.37770843506</ele>
        <time>2017-06-18T09:12:44.000Z</time>
      </trkpt>
      <trkpt lat="49.20792" lon="1.64582">
        <ele>107.68022155762</ele>
        <time>2017-06-18T09:12:47.000Z</time>
      </trkpt>
      <trkpt lat="49.20802" lon="1.64573">
        <ele>108.0821685791</ele>
        <time>2017-06-18T09:12:50.000Z</time>
      </trkpt>
      <trkpt lat="49.2081" lon="1.64567">
        <ele>108.52984619141</ele>
        <time>2017-06-18T09:12:52.000Z</time>
      </trkpt>
      <trkpt lat="49.20816" lon="1.64562">
        <ele>109.00429534912</ele>
        <time>2017-06-18T09:12:54.000Z</time>
      </trkpt>
      <trkpt lat="49.20826" lon="1.64555">
        <ele>109.52211761475</ele>
        <time>2017-06-18T09:12:57.000Z</time>
      </trkpt>
      <trkpt lat="49.20836" lon="1.64548">
        <ele>110.05855560303</ele>
        <time>2017-06-18T09:13:00.000Z</time>
      </trkpt>
      <trkpt lat="49.20843" lon="1.64544">
        <ele>110.56196594238</ele>
        <time>2017-06-18T09:13:02.000Z</time>
      </trkpt>
      <trkpt lat="49.20852" lon="1.64537">
        <ele>111.10567474365</ele>
        <time>2017-06-18T09:13:05.000Z</time>
      </trkpt>
      <trkpt lat="49.20858" lon="1.64532">
        <ele>111.6502456665</ele>
        <time>2017-06-18T09:13:07.000Z</time>
      </trkpt>
      <trkpt lat="49.20866" lon="1.64525">
        <ele>112.18397521973</ele>
        <time>2017-06-18T09:13:10.000Z</time>
      </trkpt>
      <trkpt lat="49.20874" lon="1.6452">
        <ele>112.71473693848</ele>
        <time>2017-06-18T09:13:13.000Z</time>
      </trkpt>
      <trkpt lat="49.20882" lon="1.64515">
        <ele>113.27886962891</ele>
        <time>2017-06-18T09:13:16.000Z</time>
      </trkpt>
      <trkpt lat="49.20887" lon="1.64512">
        <ele>113.78464508057</ele>
        <time>2017-06-18T09:13:18.000Z</time>
      </trkpt>
      <trkpt lat="49.20891" lon="1.64508">
        <ele>114.27394104004</ele>
        <time>2017-06-18T09:13:20.000Z</time>
      </trkpt>
      <trkpt lat="49.20895" lon="1.64505">
        <ele>114.71077728271</ele>
        <time>2017-06-18T09:13:22.000Z</time>
      </trkpt>
      <trkpt lat="49.20899" lon="1.64501">
        <ele>115.0899887085</ele>
        <time>2017-06-18T09:13:24.000Z</time>
      </trkpt>
      <trkpt lat="49.20904" lon="1.64497">
        <ele>115.4344329834</ele>
        <time>2017-06-18T09:13:27.000Z</time>
      </trkpt>
      <trkpt lat="49.20907" lon="1.64494">
        <ele>115.76914215088</ele>
        <time>2017-06-18T09:13:29.000Z</time>
      </trkpt>
      <trkpt lat="49.20911" lon="1.64491">
        <ele>116.10231781006</ele>
        <time>2017-06-18T09:13:31.000Z</time>
      </trkpt>
      <trkpt lat="49.20915" lon="1.64486">
        <ele>116.462059021</ele>
        <time>2017-06-18T09:13:34.000Z</time>
      </trkpt>
      <trkpt lat="49.20921" lon="1.64482">
        <ele>116.86796569824</ele>
        <time>2017-06-18T09:13:37.000Z</time>
      </trkpt>
      <trkpt lat="49.20924" lon="1.64479">
        <ele>117.27006530762</ele>
        <time>2017-06-18T09:13:39.000Z</time>
      </trkpt>
      <trkpt lat="49.20929" lon="1.64475">
        <ele>117.72580718994</ele>
        <time>2017-06-18T09:13:42.000Z</time>
      </trkpt>
      <trkpt lat="49.20934" lon="1.6447">
        <ele>118.22805023193</ele>
        <time>2017-06-18T09:13:45.000Z</time>
      </trkpt>
      <trkpt lat="49.20936" lon="1.64467">
        <ele>118.71098327637</ele>
        <time>2017-06-18T09:13:47.000Z</time>
      </trkpt>
      <trkpt lat="49.20941" lon="1.64463">
        <ele>119.19467926025</ele>
        <time>2017-06-18T09:13:50.000Z</time>
      </trkpt>
      <trkpt lat="49.20943" lon="1.6446">
        <ele>119.67014312744</ele>
        <time>2017-06-18T09:13:52.000Z</time>
      </trkpt>
      <trkpt lat="49.20948" lon="1.64455">
        <ele>120.13941955566</ele>
        <time>2017-06-18T09:13:55.000Z</time>
      </trkpt>
      <trkpt lat="49.20951" lon="1.64453">
        <ele>120.5739364624</ele>
        <time>2017-06-18T09:13:57.000Z</time>
      </trkpt>
      <trkpt lat="49.20955" lon="1.64449">
        <ele>121.05307769775</ele>
        <time>2017-06-18T09:14:00.000Z</time>
      </trkpt>
      <trkpt lat="49.20959" lon="1.64444">
        <ele>121.52388000488</ele>
        <time>2017-06-18T09:14:03.000Z</time>
      </trkpt>
      <trkpt lat="49.20962" lon="1.64441">
        <ele>122.01075744629</ele>
        <time>2017-06-18T09:14:05.000Z</time>
      </trkpt>
      <trkpt lat="49.20966" lon="1.64436">
        <ele>122.5209197998</ele>
        <time>2017-06-18T09:14:08.000Z</time>
      </trkpt>
      <trkpt lat="49.2097" lon="1.64431">
        <ele>123.06518554688</ele>
        <time>2017-06-18T09:14:11.000Z</time>
      </trkpt>
      <trkpt lat="49.20974" lon="1.64426">
        <ele>123.6231842041</ele>
        <time>2017-06-18T09:14:14.000Z</time>
      </trkpt>
      <trkpt lat="49.20976" lon="1.64423">
        <ele>124.14637756348</ele>
        <time>2017-06-18T09:14:17.000Z</time>
      </trkpt>
      <trkpt lat="49.20979" lon="1.64419">
        <ele>124.68398284912</ele>
        <time>2017-06-18T09:14:19.000Z</time>
      </trkpt>
      <trkpt lat="49.20983" lon="1.64415">
        <ele>125.20632171631</ele>
        <time>2017-06-18T09:14:22.000Z</time>
      </trkpt>
      <trkpt lat="49.20987" lon="1.64411">
        <ele>125.74001312256</ele>
        <time>2017-06-18T09:14:25.000Z</time>
      </trkpt>
      <trkpt lat="49.2099" lon="1.64406">
        <ele>126.24711608887</ele>
        <time>2017-06-18T09:14:28.000Z</time>
      </trkpt>
      <trkpt lat="49.20995" lon="1.64402">
        <ele>126.80322265625</ele>
        <time>2017-06-18T09:14:31.000Z</time>
      </trkpt>
      <trkpt lat="49.20999" lon="1.64398">
        <ele>127.38339996338</ele>
        <time>2017-06-18T09:14:34.000Z</time>
      </trkpt>
      <trkpt lat="49.21001" lon="1.64395">
        <ele>127.90440368652</ele>
        <time>2017-06-18T09:14:36.000Z</time>
      </trkpt>
      <trkpt lat="49.21005" lon="1.64392">
        <ele>128.38687133789</ele>
        <time>2017-06-18T09:14:39.000Z</time>
      </trkpt>
      <trkpt lat="49.21008" lon="1.6439">
        <ele>128.81977844238</ele>
        <time>2017-06-18T09:14:41.000Z</time>
      </trkpt>
      <trkpt lat="49.21012" lon="1.64387">
        <ele>129.2119140625</ele>
        <time>2017-06-18T09:14:44.000Z</time>
      </trkpt>
      <trkpt lat="49.21015" lon="1.64385">
        <ele>129.52822875977</ele>
        <time>2017-06-18T09:14:46.000Z</time>
      </trkpt>
      <trkpt lat="49.21019" lon="1.64383">
        <ele>129.8657989502</ele>
        <time>2017-06-18T09:14:49.000Z</time>
      </trkpt>
      <trkpt lat="49.21023" lon="1.64381">
        <ele>130.20384216309</ele>
        <time>2017-06-18T09:14:52.000Z</time>
      </trkpt>
      <trkpt lat="49.21028" lon="1.64379">
        <ele>130.56518554688</ele>
        <time>2017-06-18T09:14:55.000Z</time>
      </trkpt>
      <trkpt lat="49.21032" lon="1.64378">
        <ele>130.92211914062</ele>
        <time>2017-06-18T09:14:58.000Z</time>
      </trkpt>
      <trkpt lat="49.21037" lon="1.64377">
        <ele>131.30117797852</ele>
        <time>2017-06-18T09:15:01.000Z</time>
      </trkpt>
      <trkpt lat="49.21041" lon="1.64376">
        <ele>131.68505859375</ele>
        <time>2017-06-18T09:15:04.000Z</time>
      </trkpt>
      <trkpt lat="49.21046" lon="1.64375">
        <ele>132.06623840332</ele>
        <time>2017-06-18T09:15:07.000Z</time>
      </trkpt>
      <trkpt lat="49.21049" lon="1.64373">
        <ele>132.42485046387</ele>
        <time>2017-06-18T09:15:09.000Z</time>
      </trkpt>
      <trkpt lat="49.21052" lon="1.64372">
        <ele>132.76840209961</ele>
        <time>2017-06-18T09:15:11.000Z</time>
      </trkpt>
      <trkpt lat="49.21055" lon="1.6437">
        <ele>133.09371948242</ele>
        <time>2017-06-18T09:15:13.000Z</time>
      </trkpt>
      <trkpt lat="49.21059" lon="1.64368">
        <ele>133.42597961426</ele>
        <time>2017-06-18T09:15:16.000Z</time>
      </trkpt>
      <trkpt lat="49.21062" lon="1.64367">
        <ele>133.73808288574</ele>
        <time>2017-06-18T09:15:18.000Z</time>
      </trkpt>
      <trkpt lat="49.21065" lon="1.64365">
        <ele>134.06123352051</ele>
        <time>2017-06-18T09:15:20.000Z</time>
      </trkpt>
      <trkpt lat="49.21069" lon="1.64363">
        <ele>134.41279602051</ele>
        <time>2017-06-18T09:15:23.000Z</time>
      </trkpt>
      <trkpt lat="49.21072" lon="1.64362">
        <ele>134.76295471191</ele>
        <time>2017-06-18T09:15:25.000Z</time>
      </trkpt>
      <trkpt lat="49.21076" lon="1.64359">
        <ele>135.1217956543</ele>
        <time>2017-06-18T09:15:28.000Z</time>
      </trkpt>
      <trkpt lat="49.21078" lon="1.64357">
        <ele>135.4778137207</ele>
        <time>2017-06-18T09:15:30.000Z</time>
      </trkpt>
      <trkpt lat="49.21081" lon="1.64356">
        <ele>135.81900024414</ele>
        <time>2017-06-18T09:15:32.000Z</time>
      </trkpt>
      <trkpt lat="49.21085" lon="1.64355">
        <ele>136.13842773438</ele>
        <time>2017-06-18T09:15:35.000Z</time>
      </trkpt>
      <trkpt lat="49.21088" lon="1.64352">
        <ele>136.44700622559</ele>
        <time>2017-06-18T09:15:38.000Z</time>
      </trkpt>
      <trkpt lat="49.2109" lon="1.6435">
        <ele>136.68746948242</ele>
        <time>2017-06-18T09:15:40.000Z</time>
      </trkpt>
      <trkpt lat="49.21093" lon="1.64348">
        <ele>136.90029907227</ele>
        <time>2017-06-18T09:15:42.000Z</time>
      </trkpt>
      <trkpt lat="49.21096" lon="1.64345">
        <ele>137.10777282715</ele>
        <time>2017-06-18T09:15:45.000Z</time>
      </trkpt>
      <trkpt lat="49.21098" lon="1.64341">
        <ele>137.30279541016</ele>
        <time>2017-06-18T09:15:47.000Z</time>
      </trkpt>
      <trkpt lat="49.21097" lon="1.64335">
        <ele>137.52572631836</ele>
        <time>2017-06-18T09:15:50.000Z</time>
      </trkpt>
      <trkpt lat="49.21096" lon="1.6433">
        <ele>137.77139282227</ele>
        <time>2017-06-18T09:15:52.000Z</time>
      </trkpt>
      <trkpt lat="49.21093" lon="1.64323">
        <ele>138.07666015625</ele>
        <time>2017-06-18T09:15:55.000Z</time>
      </trkpt>
      <trkpt lat="49.21088" lon="1.64311">
        <ele>138.46942138672</ele>
        <time>2017-06-18T09:15:58.000Z</time>
      </trkpt>
      <trkpt lat="49.21083" lon="1.64299">
        <ele>138.93473815918</ele>
        <time>2017-06-18T09:16:01.000Z</time>
      </trkpt>
      <trkpt lat="49.2108" lon="1.64292">
        <ele>139.35586547852</ele>
        <time>2017-06-18T09:16:04.000Z</time>
      </trkpt>
      <trkpt lat="49.21078" lon="1.64286">
        <ele>139.74890136719</ele>
        <time>2017-06-18T09:16:06.000Z</time>
      </trkpt>
      <trkpt lat="49.21074" lon="1.64276">
        <ele>140.07775878906</ele>
        <time>2017-06-18T09:16:09.000Z</time>
      </trkpt>
      <trkpt lat="49.2107" lon="1.64268">
        <ele>140.28659057617</ele>
        <time>2017-06-18T09:16:11.000Z</time>
      </trkpt>
      <trkpt lat="49.21065" lon="1.64256">
        <ele>140.38050842285</ele>
        <time>2017-06-18T09:16:14.000Z</time>
      </trkpt>
      <trkpt lat="49.21061" lon="1.64248">
        <ele>140.44235229492</ele>
        <time>2017-06-18T09:16:16.000Z</time>
      </trkpt>
      <trkpt lat="49.21058" lon="1.64239">
        <ele>140.5005645752</ele>
        <time>2017-06-18T09:16:18.000Z</time>
      </trkpt>
      <trkpt lat="49.21054" lon="1.64231">
        <ele>140.54945373535</ele>
        <time>2017-06-18T09:16:20.000Z</time>
      </trkpt>
      <trkpt lat="49.21048" lon="1.64217">
        <ele>140.5817565918</ele>
        <time>2017-06-18T09:16:23.000Z</time>
      </trkpt>
      <trkpt lat="49.21042" lon="1.64205">
        <ele>140.56680297852</ele>
        <time>2017-06-18T09:16:26.000Z</time>
      </trkpt>
      <trkpt lat="49.21038" lon="1.64196">
        <ele>140.53604125977</ele>
        <time>2017-06-18T09:16:28.000Z</time>
      </trkpt>
      <trkpt lat="49.21034" lon="1.64186">
        <ele>140.46286010742</ele>
        <time>2017-06-18T09:16:30.000Z</time>
      </trkpt>
      <trkpt lat="49.21029" lon="1.64173">
        <ele>140.3055267334</ele>
        <time>2017-06-18T09:16:33.000Z</time>
      </trkpt>
      <trkpt lat="49.21025" lon="1.64164">
        <ele>140.09301757812</ele>
        <time>2017-06-18T09:16:35.000Z</time>
      </trkpt>
      <trkpt lat="49.21019" lon="1.6415">
        <ele>139.90817260742</ele>
        <time>2017-06-18T09:16:38.000Z</time>
      </trkpt>
      <trkpt lat="49.21012" lon="1.64134">
        <ele>139.71626281738</ele>
        <time>2017-06-18T09:16:41.000Z</time>
      </trkpt>
      <trkpt lat="49.21008" lon="1.64123">
        <ele>139.54753112793</ele>
        <time>2017-06-18T09:16:43.000Z</time>
      </trkpt>
      <trkpt lat="49.21003" lon="1.64112">
        <ele>139.44454956055</ele>
        <time>2017-06-18T09:16:45.000Z</time>
      </trkpt>
      <trkpt lat="49.20994" lon="1.64094">
        <ele>139.41709899902</ele>
        <time>2017-06-18T09:16:48.000Z</time>
      </trkpt>
      <trkpt lat="49.20985" lon="1.64076">
        <ele>139.45617675781</ele>
        <time>2017-06-18T09:16:51.000Z</time>
      </trkpt>
      <trkpt lat="49.20979" lon="1.64064">
        <ele>139.57817077637</ele>
        <time>2017-06-18T09:16:53.000Z</time>
      </trkpt>
      <trkpt lat="49.20972" lon="1.64051">
        <ele>139.74809265137</ele>
        <time>2017-06-18T09:16:55.000Z</time>
      </trkpt>
      <trkpt lat="49.20962" lon="1.64031">
        <ele>140.0627746582</ele>
        <time>2017-06-18T09:16:58.000Z</time>
      </trkpt>
      <trkpt lat="49.20956" lon="1.64019">
        <ele>140.44381713867</ele>
        <time>2017-06-18T09:17:00.000Z</time>
      </trkpt>
      <trkpt lat="49.20945" lon="1.64005">
        <ele>140.80467224121</ele>
        <time>2017-06-18T09:17:02.000Z</time>
      </trkpt>
      <trkpt lat="49.20932" lon="1.63986">
        <ele>141.09635925293</ele>
        <time>2017-06-18T09:17:05.000Z</time>
      </trkpt>
      <trkpt lat="49.20929" lon="1.63978">
        <ele>141.37524414062</ele>
        <time>2017-06-18T09:17:07.000Z</time>
      </trkpt>
      <trkpt lat="49.2093" lon="1.63976">
        <ele>141.55473327637</ele>
        <time>2017-06-18T09:17:10.000Z</time>
      </trkpt>
      <trkpt lat="49.20931" lon="1.63977">
        <ele>141.67599487305</ele>
        <time>2017-06-18T09:17:13.000Z</time>
      </trkpt>
      <trkpt lat="49.20933" lon="1.63978">
        <ele>141.78326416016</ele>
        <time>2017-06-18T09:17:16.000Z</time>
      </trkpt>
      <trkpt lat="49.20935" lon="1.63981">
        <ele>141.89897155762</ele>
        <time>2017-06-18T09:17:18.000Z</time>
      </trkpt>
      <trkpt lat="49.20937" lon="1.63986">
        <ele>141.96830749512</ele>
        <time>2017-06-18T09:17:21.000Z</time>
      </trkpt>
      <trkpt lat="49.20939" lon="1.63987">
        <ele>142.0251159668</ele>
        <time>2017-06-18T09:17:23.000Z</time>
      </trkpt>
      <trkpt lat="49.20943" lon="1.63986">
        <ele>142.16036987305</ele>
        <time>2017-06-18T09:17:26.000Z</time>
      </trkpt>
      <trkpt lat="49.20945" lon="1.63983">
        <ele>142.33786010742</ele>
        <time>2017-06-18T09:17:28.000Z</time>
      </trkpt>
      <trkpt lat="49.20947" lon="1.63978">
        <ele>142.6237487793</ele>
        <time>2017-06-18T09:17:31.000Z</time>
      </trkpt>
      <trkpt lat="49.20949" lon="1.63977">
        <ele>142.98153686523</ele>
        <time>2017-06-18T09:17:34.000Z</time>
      </trkpt>
      <trkpt lat="49.2095" lon="1.63975">
        <ele>143.36270141602</ele>
        <time>2017-06-18T09:17:36.000Z</time>
      </trkpt>
      <trkpt lat="49.20951" lon="1.63974">
        <ele>143.65908813477</ele>
        <time>2017-06-18T09:17:39.000Z</time>
      </trkpt>
      <trkpt lat="49.20953" lon="1.63973">
        <ele>143.95216369629</ele>
        <time>2017-06-18T09:17:41.000Z</time>
      </trkpt>
      <trkpt lat="49.20956" lon="1.63972">
        <ele>144.21490478516</ele>
        <time>2017-06-18T09:17:43.000Z</time>
      </trkpt>
      <trkpt lat="49.20959" lon="1.6397">
        <ele>144.49815368652</ele>
        <time>2017-06-18T09:17:46.000Z</time>
      </trkpt>
      <trkpt lat="49.20961" lon="1.63969">
        <ele>144.79531860352</ele>
        <time>2017-06-18T09:17:48.000Z</time>
      </trkpt>
      <trkpt lat="49.20965" lon="1.63967">
        <ele>145.17105102539</ele>
        <time>2017-06-18T09:17:51.000Z</time>
      </trkpt>
      <trkpt lat="49.20967" lon="1.63966">
        <ele>145.53002929688</ele>
        <time>2017-06-18T09:17:54.000Z</time>
      </trkpt>
      <trkpt lat="49.20968" lon="1.63965">
        <ele>145.8576965332</ele>
        <time>2017-06-18T09:17:59.000Z</time>
      </trkpt>
      <trkpt lat="49.20968" lon="1.63963">
        <ele>146.11885070801</ele>
        <time>2017-06-18T09:18:04.000Z</time>
      </trkpt>
      <trkpt lat="49.20969" lon="1.63961">
        <ele>146.36347961426</ele>
        <time>2017-06-18T09:18:07.000Z</time>
      </trkpt>
      <trkpt lat="49.2097" lon="1.63959">
        <ele>146.53593444824</ele>
        <time>2017-06-18T09:18:09.000Z</time>
      </trkpt>
      <trkpt lat="49.20972" lon="1.63959">
        <ele>146.72161865234</ele>
        <time>2017-06-18T09:18:12.000Z</time>
      </trkpt>
      <trkpt lat="49.20975" lon="1.63958">
        <ele>146.92709350586</ele>
        <time>2017-06-18T09:18:15.000Z</time>
      </trkpt>
      <trkpt lat="49.20977" lon="1.63959">
        <ele>147.16337585449</ele>
        <time>2017-06-18T09:18:17.000Z</time>
      </trkpt>
      <trkpt lat="49.20978" lon="1.63956">
        <ele>147.38662719727</ele>
        <time>2017-06-18T09:18:20.000Z</time>
      </trkpt>
      <trkpt lat="49.20978" lon="1.63955">
        <ele>147.60452270508</ele>
        <time>2017-06-18T09:18:23.000Z</time>
      </trkpt>
      <trkpt lat="49.20979" lon="1.63953">
        <ele>147.81130981445</ele>
        <time>2017-06-18T09:18:33.000Z</time>
      </trkpt>
      <trkpt lat="49.20979" lon="1.63953">
        <ele>147.81130981445</ele>
        <time>2017-06-18T09:18:53.000Z</time>
      </trkpt>
      <trkpt lat="49.20979" lon="1.63951">
        <ele>147.97177124023</ele>
        <time>2017-06-18T09:19:56.000Z</time>
      </trkpt>
      <trkpt lat="49.20982" lon="1.63951">
        <ele>148.12995910645</ele>
        <time>2017-06-18T09:19:59.000Z</time>
      </trkpt>
      <trkpt lat="49.20986" lon="1.63946">
        <ele>148.40223693848</ele>
        <time>2017-06-18T09:20:02.000Z</time>
      </trkpt>
      <trkpt lat="49.2099" lon="1.63941">
        <ele>148.77612304688</ele>
        <time>2017-06-18T09:20:04.000Z</time>
      </trkpt>
      <trkpt lat="49.20995" lon="1.63935">
        <ele>149.25617980957</ele>
        <time>2017-06-18T09:20:07.000Z</time>
      </trkpt>
      <trkpt lat="49.21" lon="1.63932">
        <ele>149.85522460938</ele>
        <time>2017-06-18T09:20:10.000Z</time>
      </trkpt>
      <trkpt lat="49.21005" lon="1.63925">
        <ele>150.52227783203</ele>
        <time>2017-06-18T09:20:13.000Z</time>
      </trkpt>
      <trkpt lat="49.21012" lon="1.63914">
        <ele>151.1767578125</ele>
        <time>2017-06-18T09:20:16.000Z</time>
      </trkpt>
      <trkpt lat="49.21016" lon="1.63908">
        <ele>151.75856018066</ele>
        <time>2017-06-18T09:20:18.000Z</time>
      </trkpt>
      <trkpt lat="49.21022" lon="1.63905">
        <ele>152.22883605957</ele>
        <time>2017-06-18T09:20:20.000Z</time>
      </trkpt>
      <trkpt lat="49.21025" lon="1.63902">
        <ele>152.59208679199</ele>
        <time>2017-06-18T09:20:22.000Z</time>
      </trkpt>
      <trkpt lat="49.21031" lon="1.63892">
        <ele>152.88513183594</ele>
        <time>2017-06-18T09:20:25.000Z</time>
      </trkpt>
      <trkpt lat="49.21034" lon="1.63888">
        <ele>153.0609588623</ele>
        <time>2017-06-18T09:20:27.000Z</time>
      </trkpt>
      <trkpt lat="49.2104" lon="1.63883">
        <ele>153.21234130859</ele>
        <time>2017-06-18T09:20:30.000Z</time>
      </trkpt>
      <trkpt lat="49.21043" lon="1.63878">
        <ele>153.33255004883</ele>
        <time>2017-06-18T09:20:32.000Z</time>
      </trkpt>
      <trkpt lat="49.21047" lon="1.63876">
        <ele>153.43518066406</ele>
        <time>2017-06-18T09:20:35.000Z</time>
      </trkpt>
      <trkpt lat="49.21049" lon="1.63875">
        <ele>153.50129699707</ele>
        <time>2017-06-18T09:20:38.000Z</time>
      </trkpt>
      <trkpt lat="49.2105" lon="1.63877">
        <ele>153.55281066895</ele>
        <time>2017-06-18T09:20:41.000Z</time>
      </trkpt>
      <trkpt lat="49.21051" lon="1.63878">
        <ele>153.58474731445</ele>
        <time>2017-06-18T09:20:43.000Z</time>
      </trkpt>
      <trkpt lat="49.21053" lon="1.63879">
        <ele>153.61434936523</ele>
        <time>2017-06-18T09:20:45.000Z</time>
      </trkpt>
      <trkpt lat="49.21056" lon="1.63885">
        <ele>153.6496887207</ele>
        <time>2017-06-18T09:20:48.000Z</time>
      </trkpt>
      <trkpt lat="49.2106" lon="1.63896">
        <ele>153.72122192383</ele>
        <time>2017-06-18T09:20:51.000Z</time>
      </trkpt>
      <trkpt lat="49.21064" lon="1.63908">
        <ele>153.8362121582</ele>
        <time>2017-06-18T09:20:54.000Z</time>
      </trkpt>
      <trkpt lat="49.21067" lon="1.63921">
        <ele>153.97744750977</ele>
        <time>2017-06-18T09:20:57.000Z</time>
      </trkpt>
      <trkpt lat="49.21073" lon="1.63935">
        <ele>154.10697937012</ele>
        <time>2017-06-18T09:21:00.000Z</time>
      </trkpt>
      <trkpt lat="49.21077" lon="1.63947">
        <ele>154.22895812988</ele>
        <time>2017-06-18T09:21:02.000Z</time>
      </trkpt>
      <trkpt lat="49.21083" lon="1.63963">
        <ele>154.32902526855</ele>
        <time>2017-06-18T09:21:05.000Z</time>
      </trkpt>
      <trkpt lat="49.21086" lon="1.63976">
        <ele>154.34745788574</ele>
        <time>2017-06-18T09:21:08.000Z</time>
      </trkpt>
      <trkpt lat="49.21089" lon="1.63988">
        <ele>154.30670166016</ele>
        <time>2017-06-18T09:21:10.000Z</time>
      </trkpt>
      <trkpt lat="49.21093" lon="1.64001">
        <ele>154.24270629883</ele>
        <time>2017-06-18T09:21:12.000Z</time>
      </trkpt>
      <trkpt lat="49.21102" lon="1.64023">
        <ele>154.15998840332</ele>
        <time>2017-06-18T09:21:16.000Z</time>
      </trkpt>
      <trkpt lat="49.2111" lon="1.64038">
        <ele>154.04153442383</ele>
        <time>2017-06-18T09:21:17.000Z</time>
      </trkpt>
      <trkpt lat="49.21127" lon="1.64062">
        <ele>153.90766906738</ele>
        <time>2017-06-18T09:21:20.000Z</time>
      </trkpt>
      <trkpt lat="49.21139" lon="1.64076">
        <ele>153.75773620605</ele>
        <time>2017-06-18T09:21:23.000Z</time>
      </trkpt>
      <trkpt lat="49.21146" lon="1.6408">
        <ele>153.61404418945</ele>
        <time>2017-06-18T09:21:25.000Z</time>
      </trkpt>
      <trkpt lat="49.21154" lon="1.6408">
        <ele>153.46508789062</ele>
        <time>2017-06-18T09:21:27.000Z</time>
      </trkpt>
      <trkpt lat="49.21167" lon="1.64075">
        <ele>153.31465148926</ele>
        <time>2017-06-18T09:21:30.000Z</time>
      </trkpt>
      <trkpt lat="49.21178" lon="1.64068">
        <ele>153.01028442383</ele>
        <time>2017-06-18T09:21:33.000Z</time>
      </trkpt>
      <trkpt lat="49.2119" lon="1.6406">
        <ele>152.56175231934</ele>
        <time>2017-06-18T09:21:36.000Z</time>
      </trkpt>
      <trkpt lat="49.21202" lon="1.64052">
        <ele>151.94198608398</ele>
        <time>2017-06-18T09:21:39.000Z</time>
      </trkpt>
      <trkpt lat="49.21217" lon="1.64049">
        <ele>151.07566833496</ele>
        <time>2017-06-18T09:21:42.000Z</time>
      </trkpt>
      <trkpt lat="49.21227" lon="1.64043">
        <ele>150.07534790039</ele>
        <time>2017-06-18T09:21:44.000Z</time>
      </trkpt>
      <trkpt lat="49.21244" lon="1.64019">
        <ele>149.06640625</ele>
        <time>2017-06-18T09:21:47.000Z</time>
      </trkpt>
      <trkpt lat="49.21255" lon="1.64003">
        <ele>148.00659179688</ele>
        <time>2017-06-18T09:21:49.000Z</time>
      </trkpt>
      <trkpt lat="49.21269" lon="1.63987">
        <ele>146.62413024902</ele>
        <time>2017-06-18T09:21:52.000Z</time>
      </trkpt>
      <trkpt lat="49.21275" lon="1.63984">
        <ele>145.29402160645</ele>
        <time>2017-06-18T09:21:54.000Z</time>
      </trkpt>
      <trkpt lat="49.21282" lon="1.63982">
        <ele>143.83657836914</ele>
        <time>2017-06-18T09:21:57.000Z</time>
      </trkpt>
      <trkpt lat="49.21286" lon="1.6398">
        <ele>142.45957946777</ele>
        <time>2017-06-18T09:21:59.000Z</time>
      </trkpt>
      <trkpt lat="49.2129" lon="1.63982">
        <ele>141.17654418945</ele>
        <time>2017-06-18T09:22:01.000Z</time>
      </trkpt>
      <trkpt lat="49.21297" lon="1.6399">
        <ele>140.14497375488</ele>
        <time>2017-06-18T09:22:04.000Z</time>
      </trkpt>
      <trkpt lat="49.213" lon="1.63996">
        <ele>139.20639038086</ele>
        <time>2017-06-18T09:22:07.000Z</time>
      </trkpt>
      <trkpt lat="49.21292" lon="1.64005">
        <ele>138.78744506836</ele>
        <time>2017-06-18T09:22:10.000Z</time>
      </trkpt>
      <trkpt lat="49.21286" lon="1.64011">
        <ele>138.71339416504</ele>
        <time>2017-06-18T09:22:12.000Z</time>
      </trkpt>
      <trkpt lat="49.2128" lon="1.64017">
        <ele>138.9733581543</ele>
        <time>2017-06-18T09:22:14.000Z</time>
      </trkpt>
      <trkpt lat="49.21273" lon="1.64024">
        <ele>139.74612426758</ele>
        <time>2017-06-18T09:22:17.000Z</time>
      </trkpt>
      <trkpt lat="49.21268" lon="1.64029">
        <ele>140.78536987305</ele>
        <time>2017-06-18T09:22:19.000Z</time>
      </trkpt>
      <trkpt lat="49.21262" lon="1.64039">
        <ele>141.8030090332</ele>
        <time>2017-06-18T09:22:22.000Z</time>
      </trkpt>
      <trkpt lat="49.21255" lon="1.64049">
        <ele>142.81509399414</ele>
        <time>2017-06-18T09:22:25.000Z</time>
      </trkpt>
      <trkpt lat="49.21249" lon="1.64061">
        <ele>143.80030822754</ele>
        <time>2017-06-18T09:22:28.000Z</time>
      </trkpt>
      <trkpt lat="49.21244" lon="1.64075">
        <ele>144.57095336914</ele>
        <time>2017-06-18T09:22:31.000Z</time>
      </trkpt>
      <trkpt lat="49.21241" lon="1.64081">
        <ele>145.21725463867</ele>
        <time>2017-06-18T09:22:33.000Z</time>
      </trkpt>
      <trkpt lat="49.21239" lon="1.64086">
        <ele>145.6188659668</ele>
        <time>2017-06-18T09:22:35.000Z</time>
      </trkpt>
      <trkpt lat="49.21239" lon="1.64097">
        <ele>145.65437316895</ele>
        <time>2017-06-18T09:22:38.000Z</time>
      </trkpt>
      <trkpt lat="49.21233" lon="1.64108">
        <ele>145.50262451172</ele>
        <time>2017-06-18T09:22:41.000Z</time>
      </trkpt>
      <trkpt lat="49.21228" lon="1.64115">
        <ele>145.31742858887</ele>
        <time>2017-06-18T09:22:43.000Z</time>
      </trkpt>
      <trkpt lat="49.21223" lon="1.64126">
        <ele>145.03405761719</ele>
        <time>2017-06-18T09:22:46.000Z</time>
      </trkpt>
      <trkpt lat="49.21218" lon="1.6414">
        <ele>144.65466308594</ele>
        <time>2017-06-18T09:22:49.000Z</time>
      </trkpt>
      <trkpt lat="49.21212" lon="1.64149">
        <ele>144.42431640625</ele>
        <time>2017-06-18T09:22:51.000Z</time>
      </trkpt>
      <trkpt lat="49.21204" lon="1.64159">
        <ele>144.23199462891</ele>
        <time>2017-06-18T09:22:54.000Z</time>
      </trkpt>
      <trkpt lat="49.21199" lon="1.64171">
        <ele>143.99926757812</ele>
        <time>2017-06-18T09:22:57.000Z</time>
      </trkpt>
      <trkpt lat="49.21194" lon="1.64179">
        <ele>143.89569091797</ele>
        <time>2017-06-18T09:22:59.000Z</time>
      </trkpt>
      <trkpt lat="49.21188" lon="1.64191">
        <ele>143.99304199219</ele>
        <time>2017-06-18T09:23:02.000Z</time>
      </trkpt>
      <trkpt lat="49.21183" lon="1.642">
        <ele>144.14581298828</ele>
        <time>2017-06-18T09:23:04.000Z</time>
      </trkpt>
      <trkpt lat="49.21177" lon="1.64216">
        <ele>144.33605957031</ele>
        <time>2017-06-18T09:23:07.000Z</time>
      </trkpt>
      <trkpt lat="49.2117" lon="1.64228">
        <ele>144.62292480469</ele>
        <time>2017-06-18T09:23:10.000Z</time>
      </trkpt>
      <trkpt lat="49.21164" lon="1.6424">
        <ele>144.859375</ele>
        <time>2017-06-18T09:23:13.000Z</time>
      </trkpt>
      <trkpt lat="49.21157" lon="1.64254">
        <ele>144.87014770508</ele>
        <time>2017-06-18T09:23:16.000Z</time>
      </trkpt>
      <trkpt lat="49.21147" lon="1.64274">
        <ele>144.51028442383</ele>
        <time>2017-06-18T09:23:19.000Z</time>
      </trkpt>
      <trkpt lat="49.21141" lon="1.64287">
        <ele>143.90316772461</ele>
        <time>2017-06-18T09:23:21.000Z</time>
      </trkpt>
      <trkpt lat="49.21132" lon="1.643">
        <ele>143.03190612793</ele>
        <time>2017-06-18T09:23:23.000Z</time>
      </trkpt>
      <trkpt lat="49.21123" lon="1.64311">
        <ele>141.98257446289</ele>
        <time>2017-06-18T09:23:25.000Z</time>
      </trkpt>
      <trkpt lat="49.21112" lon="1.6433">
        <ele>140.79853820801</ele>
        <time>2017-06-18T09:23:28.000Z</time>
      </trkpt>
      <trkpt lat="49.21107" lon="1.64343">
        <ele>139.77639770508</ele>
        <time>2017-06-18T09:23:30.000Z</time>
      </trkpt>
      <trkpt lat="49.21105" lon="1.64363">
        <ele>138.71572875977</ele>
        <time>2017-06-18T09:23:33.000Z</time>
      </trkpt>
      <trkpt lat="49.21113" lon="1.64384">
        <ele>137.65641784668</ele>
        <time>2017-06-18T09:23:36.000Z</time>
      </trkpt>
      <trkpt lat="49.21122" lon="1.64396">
        <ele>136.68319702148</ele>
        <time>2017-06-18T09:23:38.000Z</time>
      </trkpt>
      <trkpt lat="49.21132" lon="1.64404">
        <ele>135.94047546387</ele>
        <time>2017-06-18T09:23:40.000Z</time>
      </trkpt>
      <trkpt lat="49.21142" lon="1.64412">
        <ele>135.3270111084</ele>
        <time>2017-06-18T09:23:42.000Z</time>
      </trkpt>
      <trkpt lat="49.21158" lon="1.64423">
        <ele>134.89779663086</ele>
        <time>2017-06-18T09:23:45.000Z</time>
      </trkpt>
      <trkpt lat="49.21169" lon="1.6443">
        <ele>134.61978149414</ele>
        <time>2017-06-18T09:23:47.000Z</time>
      </trkpt>
      <trkpt lat="49.21184" lon="1.64439">
        <ele>134.24063110352</ele>
        <time>2017-06-18T09:23:50.000Z</time>
      </trkpt>
      <trkpt lat="49.21194" lon="1.64445">
        <ele>133.81039428711</ele>
        <time>2017-06-18T09:23:52.000Z</time>
      </trkpt>
      <trkpt lat="49.21202" lon="1.64449">
        <ele>133.33407592773</ele>
        <time>2017-06-18T09:23:54.000Z</time>
      </trkpt>
      <trkpt lat="49.2121" lon="1.64455">
        <ele>132.82807922363</ele>
        <time>2017-06-18T09:23:57.000Z</time>
      </trkpt>
      <trkpt lat="49.21218" lon="1.64462">
        <ele>132.29187011719</ele>
        <time>2017-06-18T09:24:00.000Z</time>
      </trkpt>
      <trkpt lat="49.21228" lon="1.64471">
        <ele>131.8447265625</ele>
        <time>2017-06-18T09:24:03.000Z</time>
      </trkpt>
      <trkpt lat="49.21236" lon="1.64479">
        <ele>131.43553161621</ele>
        <time>2017-06-18T09:24:05.000Z</time>
      </trkpt>
      <trkpt lat="49.21248" lon="1.6449">
        <ele>131.02696228027</ele>
        <time>2017-06-18T09:24:08.000Z</time>
      </trkpt>
      <trkpt lat="49.21256" lon="1.64499">
        <ele>130.61827087402</ele>
        <time>2017-06-18T09:24:10.000Z</time>
      </trkpt>
      <trkpt lat="49.2127" lon="1.64511">
        <ele>130.14756774902</ele>
        <time>2017-06-18T09:24:13.000Z</time>
      </trkpt>
      <trkpt lat="49.21286" lon="1.64523">
        <ele>129.63668823242</ele>
        <time>2017-06-18T09:24:16.000Z</time>
      </trkpt>
      <trkpt lat="49.21296" lon="1.6453">
        <ele>129.11331176758</ele>
        <time>2017-06-18T09:24:18.000Z</time>
      </trkpt>
      <trkpt lat="49.21307" lon="1.64535">
        <ele>128.60176086426</ele>
        <time>2017-06-18T09:24:20.000Z</time>
      </trkpt>
      <trkpt lat="49.21324" lon="1.64544">
        <ele>128.07960510254</ele>
        <time>2017-06-18T09:24:23.000Z</time>
      </trkpt>
      <trkpt lat="49.21347" lon="1.64552">
        <ele>127.48640441895</ele>
        <time>2017-06-18T09:24:26.000Z</time>
      </trkpt>
      <trkpt lat="49.2137" lon="1.64561">
        <ele>126.73796081543</ele>
        <time>2017-06-18T09:24:29.000Z</time>
      </trkpt>
      <trkpt lat="49.21387" lon="1.64567">
        <ele>125.86464691162</ele>
        <time>2017-06-18T09:24:31.000Z</time>
      </trkpt>
      <trkpt lat="49.21413" lon="1.64574">
        <ele>124.74975585938</ele>
        <time>2017-06-18T09:24:34.000Z</time>
      </trkpt>
      <trkpt lat="49.21432" lon="1.64571">
        <ele>123.30285644531</ele>
        <time>2017-06-18T09:24:36.000Z</time>
      </trkpt>
      <trkpt lat="49.21463" lon="1.64566">
        <ele>121.32849121094</ele>
        <time>2017-06-18T09:24:39.000Z</time>
      </trkpt>
      <trkpt lat="49.21493" lon="1.64561">
        <ele>118.90380859375</ele>
        <time>2017-06-18T09:24:42.000Z</time>
      </trkpt>
      <trkpt lat="49.21525" lon="1.64559">
        <ele>115.98333740234</ele>
        <time>2017-06-18T09:24:45.000Z</time>
      </trkpt>
      <trkpt lat="49.21559" lon="1.64553">
        <ele>112.60874176025</ele>
        <time>2017-06-18T09:24:48.000Z</time>
      </trkpt>
      <trkpt lat="49.21596" lon="1.64544">
        <ele>108.9806137085</ele>
        <time>2017-06-18T09:24:51.000Z</time>
      </trkpt>
      <trkpt lat="49.2162" lon="1.64539">
        <ele>105.83206939697</ele>
        <time>2017-06-18T09:24:53.000Z</time>
      </trkpt>
      <trkpt lat="49.21654" lon="1.64527">
        <ele>103.12072753906</ele>
        <time>2017-06-18T09:24:56.000Z</time>
      </trkpt>
      <trkpt lat="49.21672" lon="1.64511">
        <ele>101.05802154541</ele>
        <time>2017-06-18T09:24:58.000Z</time>
      </trkpt>
      <trkpt lat="49.2169" lon="1.64486">
        <ele>99.88037109375</ele>
        <time>2017-06-18T09:25:01.000Z</time>
      </trkpt>
      <trkpt lat="49.21701" lon="1.64473">
        <ele>99.440322875977</ele>
        <time>2017-06-18T09:25:03.000Z</time>
      </trkpt>
      <trkpt lat="49.21715" lon="1.64452">
        <ele>99.367004394531</ele>
        <time>2017-06-18T09:25:06.000Z</time>
      </trkpt>
      <trkpt lat="49.21727" lon="1.64431">
        <ele>99.705665588379</ele>
        <time>2017-06-18T09:25:09.000Z</time>
      </trkpt>
      <trkpt lat="49.21735" lon="1.64416">
        <ele>100.1642074585</ele>
        <time>2017-06-18T09:25:12.000Z</time>
      </trkpt>
      <trkpt lat="49.21742" lon="1.64419">
        <ele>100.48366546631</ele>
        <time>2017-06-18T09:25:15.000Z</time>
      </trkpt>
      <trkpt lat="49.21746" lon="1.6443">
        <ele>100.69124603271</ele>
        <time>2017-06-18T09:25:18.000Z</time>
      </trkpt>
      <trkpt lat="49.21747" lon="1.64443">
        <ele>100.73360443115</ele>
        <time>2017-06-18T09:25:20.000Z</time>
      </trkpt>
      <trkpt lat="49.2175" lon="1.64449">
        <ele>100.64290618896</ele>
        <time>2017-06-18T09:25:22.000Z</time>
      </trkpt>
      <trkpt lat="49.21765" lon="1.64459">
        <ele>100.47090148926</ele>
        <time>2017-06-18T09:25:25.000Z</time>
      </trkpt>
      <trkpt lat="49.21776" lon="1.64472">
        <ele>100.28047943115</ele>
        <time>2017-06-18T09:25:28.000Z</time>
      </trkpt>
      <trkpt lat="49.21786" lon="1.64482">
        <ele>100.11948394775</ele>
        <time>2017-06-18T09:25:31.000Z</time>
      </trkpt>
      <trkpt lat="49.21793" lon="1.64486">
        <ele>100.01878356934</ele>
        <time>2017-06-18T09:25:34.000Z</time>
      </trkpt>
      <trkpt lat="49.21797" lon="1.64485">
        <ele>99.962829589844</ele>
        <time>2017-06-18T09:25:36.000Z</time>
      </trkpt>
      <trkpt lat="49.21802" lon="1.64481">
        <ele>99.947631835938</ele>
        <time>2017-06-18T09:25:39.000Z</time>
      </trkpt>
      <trkpt lat="49.21803" lon="1.64478">
        <ele>99.982116699219</ele>
        <time>2017-06-18T09:25:41.000Z</time>
      </trkpt>
      <trkpt lat="49.21803" lon="1.64476">
        <ele>100.04956054688</ele>
        <time>2017-06-18T09:25:43.000Z</time>
      </trkpt>
      <trkpt lat="49.21802" lon="1.64474">
        <ele>100.12646484375</ele>
        <time>2017-06-18T09:25:46.000Z</time>
      </trkpt>
      <trkpt lat="49.218" lon="1.64472">
        <ele>100.19299316406</ele>
        <time>2017-06-18T09:25:48.000Z</time>
      </trkpt>
      <trkpt lat="49.21798" lon="1.64472">
        <ele>100.22424316406</ele>
        <time>2017-06-18T09:25:51.000Z</time>
      </trkpt>
      <trkpt lat="49.21796" lon="1.64477">
        <ele>100.21508789062</ele>
        <time>2017-06-18T09:25:54.000Z</time>
      </trkpt>
      <trkpt lat="49.21799" lon="1.64477">
        <ele>100.19940185547</ele>
        <time>2017-06-18T09:25:57.000Z</time>
      </trkpt>
      <trkpt lat="49.21804" lon="1.64473">
        <ele>100.20874023438</ele>
        <time>2017-06-18T09:26:00.000Z</time>
      </trkpt>
      <trkpt lat="49.21805" lon="1.64471">
        <ele>100.22479248047</ele>
        <time>2017-06-18T09:26:02.000Z</time>
      </trkpt>
      <trkpt lat="49.21806" lon="1.6447">
        <ele>100.2578125</ele>
        <time>2017-06-18T09:26:05.000Z</time>
      </trkpt>
      <trkpt lat="49.21808" lon="1.6447">
        <ele>100.31817626953</ele>
        <time>2017-06-18T09:26:07.000Z</time>
      </trkpt>
      <trkpt lat="49.21811" lon="1.64466">
        <ele>100.40008544922</ele>
        <time>2017-06-18T09:26:10.000Z</time>
      </trkpt>
      <trkpt lat="49.21812" lon="1.64462">
        <ele>100.47235107422</ele>
        <time>2017-06-18T09:26:13.000Z</time>
      </trkpt>
      <trkpt lat="49.21812" lon="1.6446">
        <ele>100.54608154297</ele>
        <time>2017-06-18T09:26:15.000Z</time>
      </trkpt>
      <trkpt lat="49.21813" lon="1.64457">
        <ele>100.62133789062</ele>
        <time>2017-06-18T09:26:18.000Z</time>
      </trkpt>
      <trkpt lat="49.21814" lon="1.64456">
        <ele>100.70269775391</ele>
        <time>2017-06-18T09:26:21.000Z</time>
      </trkpt>
      <trkpt lat="49.21815" lon="1.64455">
        <ele>100.76739501953</ele>
        <time>2017-06-18T09:26:25.000Z</time>
      </trkpt>
      <trkpt lat="49.21814" lon="1.64455">
        <ele>100.80560302734</ele>
        <time>2017-06-18T09:26:29.000Z</time>
      </trkpt>
      <trkpt lat="49.21813" lon="1.64457">
        <ele>100.82153320312</ele>
        <time>2017-06-18T09:26:35.000Z</time>
      </trkpt>
      <trkpt lat="49.21813" lon="1.64457">
        <ele>100.82153320312</ele>
        <time>2017-06-18T09:26:55.000Z</time>
      </trkpt>
      <trkpt lat="49.21812" lon="1.6446">
        <ele>100.80413818359</ele>
        <time>2017-06-18T09:27:28.000Z</time>
      </trkpt>
      <trkpt lat="49.21811" lon="1.64463">
        <ele>100.76538085938</ele>
        <time>2017-06-18T09:27:31.000Z</time>
      </trkpt>
      <trkpt lat="49.21811" lon="1.64464">
        <ele>100.70849609375</ele>
        <time>2017-06-18T09:27:35.000Z</time>
      </trkpt>
      <trkpt lat="49.21811" lon="1.64466">
        <ele>100.64971923828</ele>
        <time>2017-06-18T09:27:38.000Z</time>
      </trkpt>
      <trkpt lat="49.21811" lon="1.64468">
        <ele>100.59027099609</ele>
        <time>2017-06-18T09:27:44.000Z</time>
      </trkpt>
      <trkpt lat="49.21811" lon="1.64467">
        <ele>100.55816650391</ele>
        <time>2017-06-18T09:27:55.000Z</time>
      </trkpt>
      <trkpt lat="49.21812" lon="1.64465">
        <ele>100.54602050781</ele>
        <time>2017-06-18T09:27:58.000Z</time>
      </trkpt>
      <trkpt lat="49.21813" lon="1.64464">
        <ele>100.5517578125</ele>
        <time>2017-06-18T09:28:10.000Z</time>
      </trkpt>
      <trkpt lat="49.21814" lon="1.64463">
        <ele>100.57293701172</ele>
        <time>2017-06-18T09:28:13.000Z</time>
      </trkpt>
      <trkpt lat="49.21814" lon="1.6446">
        <ele>100.61694335938</ele>
        <time>2017-06-18T09:28:16.000Z</time>
      </trkpt>
      <trkpt lat="49.21814" lon="1.64459">
        <ele>100.65850830078</ele>
        <time>2017-06-18T09:28:18.000Z</time>
      </trkpt>
      <trkpt lat="49.21813" lon="1.64458">
        <ele>100.69567871094</ele>
        <time>2017-06-18T09:28:21.000Z</time>
      </trkpt>
      <trkpt lat="49.21813" lon="1.64458">
        <ele>100.69567871094</ele>
        <time>2017-06-18T09:28:27.000Z</time>
      </trkpt>
    </trkseg>
  </trk>
</gpx>